<?xml version="1.0" encoding="UTF-8" standalone="no" ?>
<gpx xmlns="http://www.topografix.com/GPX/1/1" xmlns:xsi="http://www.w3.org/2001/XMLSchema-instance" xsi:schemaLocation="http://www.topografix.com/GPX/1/1 http://www.topografix.com/GPX/1/1/gpx.xsd" version="1.1" creator="VisuGPX - https://www.visugpx.com">
  <metadata>
    <name>Profil du Brevet du randonneur</name>
    <desc><![CDATA[La balade correspond au trajet du brevet du randonneur, qui aura lieu le 06 avril 2014.]]></desc>
  </metadata>
  <trk>
    <name><![CDATA[07042013_070352-brevet2013.gpx]]></name>
    <trkseg>
      <trkpt lat="43.21205" lon="5.52185">
        <ele>19.36377</ele>
        <time>2013-04-07T05:03:52.000Z</time>
      </trkpt>
      <trkpt lat="43.21204" lon="5.52184">
        <ele>19.36377</ele>
        <time>2013-04-07T05:03:53.000Z</time>
      </trkpt>
      <trkpt lat="43.21197" lon="5.52172">
        <ele>18.883057</ele>
        <time>2013-04-07T05:03:57.000Z</time>
      </trkpt>
      <trkpt lat="43.21187" lon="5.52159">
        <ele>19.84436</ele>
        <time>2013-04-07T05:04:02.000Z</time>
      </trkpt>
      <trkpt lat="43.21174" lon="5.52147">
        <ele>17.921753</ele>
        <time>2013-04-07T05:04:07.000Z</time>
      </trkpt>
      <trkpt lat="43.21167" lon="5.52133">
        <ele>18.402344</ele>
        <time>2013-04-07T05:04:11.000Z</time>
      </trkpt>
      <trkpt lat="43.21159" lon="5.52115">
        <ele>17.441162</ele>
        <time>2013-04-07T05:04:16.000Z</time>
      </trkpt>
      <trkpt lat="43.21153" lon="5.52104">
        <ele>16.479736</ele>
        <time>2013-04-07T05:04:19.000Z</time>
      </trkpt>
      <trkpt lat="43.21143" lon="5.52095">
        <ele>16.96045</ele>
        <time>2013-04-07T05:04:23.000Z</time>
      </trkpt>
      <trkpt lat="43.21134" lon="5.52086">
        <ele>16.479736</ele>
        <time>2013-04-07T05:04:27.000Z</time>
      </trkpt>
      <trkpt lat="43.21125" lon="5.52078">
        <ele>16.479736</ele>
        <time>2013-04-07T05:04:31.000Z</time>
      </trkpt>
      <trkpt lat="43.2111" lon="5.52064">
        <ele>15.999023</ele>
        <time>2013-04-07T05:04:37.000Z</time>
      </trkpt>
      <trkpt lat="43.211" lon="5.52056">
        <ele>16.479736</ele>
        <time>2013-04-07T05:04:41.000Z</time>
      </trkpt>
      <trkpt lat="43.21089" lon="5.52045">
        <ele>16.96045</ele>
        <time>2013-04-07T05:04:46.000Z</time>
      </trkpt>
      <trkpt lat="43.21077" lon="5.52034">
        <ele>15.999023</ele>
        <time>2013-04-07T05:04:51.000Z</time>
      </trkpt>
      <trkpt lat="43.21067" lon="5.52021">
        <ele>14.076416</ele>
        <time>2013-04-07T05:04:56.000Z</time>
      </trkpt>
      <trkpt lat="43.21055" lon="5.52005">
        <ele>14.076416</ele>
        <time>2013-04-07T05:05:02.000Z</time>
      </trkpt>
      <trkpt lat="43.21046" lon="5.51995">
        <ele>14.557007</ele>
        <time>2013-04-07T05:05:06.000Z</time>
      </trkpt>
      <trkpt lat="43.21038" lon="5.51988">
        <ele>15.518433</ele>
        <time>2013-04-07T05:05:10.000Z</time>
      </trkpt>
      <trkpt lat="43.21027" lon="5.51979">
        <ele>15.03772</ele>
        <time>2013-04-07T05:05:14.000Z</time>
      </trkpt>
      <trkpt lat="43.21017" lon="5.51967">
        <ele>15.03772</ele>
        <time>2013-04-07T05:05:19.000Z</time>
      </trkpt>
      <trkpt lat="43.21006" lon="5.51955">
        <ele>14.557007</ele>
        <time>2013-04-07T05:05:24.000Z</time>
      </trkpt>
      <trkpt lat="43.20996" lon="5.51945">
        <ele>16.96045</ele>
        <time>2013-04-07T05:05:29.000Z</time>
      </trkpt>
      <trkpt lat="43.20986" lon="5.51932">
        <ele>17.441162</ele>
        <time>2013-04-07T05:05:34.000Z</time>
      </trkpt>
      <trkpt lat="43.20979" lon="5.51918">
        <ele>16.479736</ele>
        <time>2013-04-07T05:05:39.000Z</time>
      </trkpt>
      <trkpt lat="43.20972" lon="5.51905">
        <ele>16.96045</ele>
        <time>2013-04-07T05:05:44.000Z</time>
      </trkpt>
      <trkpt lat="43.20965" lon="5.51893">
        <ele>17.441162</ele>
        <time>2013-04-07T05:05:48.000Z</time>
      </trkpt>
      <trkpt lat="43.20957" lon="5.51879">
        <ele>15.999023</ele>
        <time>2013-04-07T05:05:53.000Z</time>
      </trkpt>
      <trkpt lat="43.20949" lon="5.51866">
        <ele>15.518433</ele>
        <time>2013-04-07T05:05:58.000Z</time>
      </trkpt>
      <trkpt lat="43.2094" lon="5.5185">
        <ele>14.557007</ele>
        <time>2013-04-07T05:06:03.000Z</time>
      </trkpt>
      <trkpt lat="43.20931" lon="5.51835">
        <ele>14.076416</ele>
        <time>2013-04-07T05:06:08.000Z</time>
      </trkpt>
      <trkpt lat="43.20925" lon="5.51822">
        <ele>13.595825</ele>
        <time>2013-04-07T05:06:12.000Z</time>
      </trkpt>
      <trkpt lat="43.20918" lon="5.51806">
        <ele>12.153809</ele>
        <time>2013-04-07T05:06:17.000Z</time>
      </trkpt>
      <trkpt lat="43.20911" lon="5.51793">
        <ele>11.192505</ele>
        <time>2013-04-07T05:06:22.000Z</time>
      </trkpt>
      <trkpt lat="43.20903" lon="5.5178">
        <ele>10.711792</ele>
        <time>2013-04-07T05:06:27.000Z</time>
      </trkpt>
      <trkpt lat="43.20894" lon="5.51769">
        <ele>11.192505</ele>
        <time>2013-04-07T05:06:32.000Z</time>
      </trkpt>
      <trkpt lat="43.20885" lon="5.51754">
        <ele>14.557007</ele>
        <time>2013-04-07T05:06:36.000Z</time>
      </trkpt>
      <trkpt lat="43.20876" lon="5.51745">
        <ele>15.518433</ele>
        <time>2013-04-07T05:06:40.000Z</time>
      </trkpt>
      <trkpt lat="43.20867" lon="5.51732">
        <ele>14.076416</ele>
        <time>2013-04-07T05:06:45.000Z</time>
      </trkpt>
      <trkpt lat="43.20859" lon="5.51715">
        <ele>14.076416</ele>
        <time>2013-04-07T05:06:51.000Z</time>
      </trkpt>
      <trkpt lat="43.20857" lon="5.51711">
        <ele>14.557007</ele>
        <time>2013-04-07T05:06:53.000Z</time>
      </trkpt>
      <trkpt lat="43.20846" lon="5.51698">
        <ele>15.518433</ele>
        <time>2013-04-07T05:06:58.000Z</time>
      </trkpt>
      <trkpt lat="43.20844" lon="5.51691">
        <ele>15.518433</ele>
        <time>2013-04-07T05:07:00.000Z</time>
      </trkpt>
      <trkpt lat="43.20835" lon="5.51677">
        <ele>15.03772</ele>
        <time>2013-04-07T05:07:05.000Z</time>
      </trkpt>
      <trkpt lat="43.20826" lon="5.51665">
        <ele>14.557007</ele>
        <time>2013-04-07T05:07:10.000Z</time>
      </trkpt>
      <trkpt lat="43.20824" lon="5.51659">
        <ele>14.076416</ele>
        <time>2013-04-07T05:07:12.000Z</time>
      </trkpt>
      <trkpt lat="43.20814" lon="5.51644">
        <ele>15.03772</ele>
        <time>2013-04-07T05:07:18.000Z</time>
      </trkpt>
      <trkpt lat="43.20804" lon="5.5163">
        <ele>15.999023</ele>
        <time>2013-04-07T05:07:23.000Z</time>
      </trkpt>
      <trkpt lat="43.20797" lon="5.51615">
        <ele>16.479736</ele>
        <time>2013-04-07T05:07:28.000Z</time>
      </trkpt>
      <trkpt lat="43.2079" lon="5.51601">
        <ele>17.921753</ele>
        <time>2013-04-07T05:07:33.000Z</time>
      </trkpt>
      <trkpt lat="43.20783" lon="5.51586">
        <ele>18.402344</ele>
        <time>2013-04-07T05:07:38.000Z</time>
      </trkpt>
      <trkpt lat="43.20774" lon="5.51572">
        <ele>20.805664</ele>
        <time>2013-04-07T05:07:43.000Z</time>
      </trkpt>
      <trkpt lat="43.20763" lon="5.51557">
        <ele>20.805664</ele>
        <time>2013-04-07T05:07:49.000Z</time>
      </trkpt>
      <trkpt lat="43.20757" lon="5.51542">
        <ele>21.286377</ele>
        <time>2013-04-07T05:07:54.000Z</time>
      </trkpt>
      <trkpt lat="43.20751" lon="5.51527">
        <ele>22.247559</ele>
        <time>2013-04-07T05:07:59.000Z</time>
      </trkpt>
      <trkpt lat="43.20751" lon="5.51512">
        <ele>24.170288</ele>
        <time>2013-04-07T05:08:03.000Z</time>
      </trkpt>
      <trkpt lat="43.2074" lon="5.51503">
        <ele>25.131714</ele>
        <time>2013-04-07T05:08:08.000Z</time>
      </trkpt>
      <trkpt lat="43.20733" lon="5.51498">
        <ele>24.651001</ele>
        <time>2013-04-07T05:08:11.000Z</time>
      </trkpt>
      <trkpt lat="43.20716" lon="5.51487">
        <ele>27.054321</ele>
        <time>2013-04-07T05:08:18.000Z</time>
      </trkpt>
      <trkpt lat="43.20713" lon="5.51484">
        <ele>28.015503</ele>
        <time>2013-04-07T05:08:20.000Z</time>
      </trkpt>
      <trkpt lat="43.207" lon="5.5148">
        <ele>28.496216</ele>
        <time>2013-04-07T05:08:25.000Z</time>
      </trkpt>
      <trkpt lat="43.20688" lon="5.51478">
        <ele>31.860718</ele>
        <time>2013-04-07T05:08:30.000Z</time>
      </trkpt>
      <trkpt lat="43.20682" lon="5.51476">
        <ele>32.822266</ele>
        <time>2013-04-07T05:08:33.000Z</time>
      </trkpt>
      <trkpt lat="43.2067" lon="5.51473">
        <ele>33.783447</ele>
        <time>2013-04-07T05:08:39.000Z</time>
      </trkpt>
      <trkpt lat="43.2066" lon="5.51472">
        <ele>34.744873</ele>
        <time>2013-04-07T05:08:45.000Z</time>
      </trkpt>
      <trkpt lat="43.20654" lon="5.51469">
        <ele>34.744873</ele>
        <time>2013-04-07T05:08:49.000Z</time>
      </trkpt>
      <trkpt lat="43.20645" lon="5.51463">
        <ele>35.225464</ele>
        <time>2013-04-07T05:08:55.000Z</time>
      </trkpt>
      <trkpt lat="43.20639" lon="5.51456">
        <ele>36.66748</ele>
        <time>2013-04-07T05:09:00.000Z</time>
      </trkpt>
      <trkpt lat="43.20631" lon="5.51445">
        <ele>39.07068</ele>
        <time>2013-04-07T05:09:08.000Z</time>
      </trkpt>
      <trkpt lat="43.20625" lon="5.5144">
        <ele>40.99341</ele>
        <time>2013-04-07T05:09:13.000Z</time>
      </trkpt>
      <trkpt lat="43.20615" lon="5.51428">
        <ele>43.87732</ele>
        <time>2013-04-07T05:09:22.000Z</time>
      </trkpt>
      <trkpt lat="43.20604" lon="5.51415">
        <ele>46.76123</ele>
        <time>2013-04-07T05:09:29.000Z</time>
      </trkpt>
      <trkpt lat="43.20596" lon="5.51405">
        <ele>47.24182</ele>
        <time>2013-04-07T05:09:33.000Z</time>
      </trkpt>
      <trkpt lat="43.20594" lon="5.514">
        <ele>46.28064</ele>
        <time>2013-04-07T05:09:35.000Z</time>
      </trkpt>
      <trkpt lat="43.20587" lon="5.51383">
        <ele>45.799927</ele>
        <time>2013-04-07T05:09:41.000Z</time>
      </trkpt>
      <trkpt lat="43.20584" lon="5.5137">
        <ele>45.799927</ele>
        <time>2013-04-07T05:09:46.000Z</time>
      </trkpt>
      <trkpt lat="43.20582" lon="5.51356">
        <ele>46.28064</ele>
        <time>2013-04-07T05:09:51.000Z</time>
      </trkpt>
      <trkpt lat="43.20584" lon="5.51343">
        <ele>45.799927</ele>
        <time>2013-04-07T05:09:56.000Z</time>
      </trkpt>
      <trkpt lat="43.2059" lon="5.51329">
        <ele>46.76123</ele>
        <time>2013-04-07T05:10:01.000Z</time>
      </trkpt>
      <trkpt lat="43.20593" lon="5.51323">
        <ele>46.76123</ele>
        <time>2013-04-07T05:10:03.000Z</time>
      </trkpt>
      <trkpt lat="43.20597" lon="5.51316">
        <ele>47.24182</ele>
        <time>2013-04-07T05:10:06.000Z</time>
      </trkpt>
      <trkpt lat="43.20601" lon="5.51301">
        <ele>48.20337</ele>
        <time>2013-04-07T05:10:12.000Z</time>
      </trkpt>
      <trkpt lat="43.20601" lon="5.51287">
        <ele>49.645264</ele>
        <time>2013-04-07T05:10:17.000Z</time>
      </trkpt>
      <trkpt lat="43.206" lon="5.51283">
        <ele>50.125977</ele>
        <time>2013-04-07T05:10:19.000Z</time>
      </trkpt>
      <trkpt lat="43.20601" lon="5.51276">
        <ele>50.606567</ele>
        <time>2013-04-07T05:10:23.000Z</time>
      </trkpt>
      <trkpt lat="43.20598" lon="5.51267">
        <ele>52.048584</ele>
        <time>2013-04-07T05:10:27.000Z</time>
      </trkpt>
      <trkpt lat="43.20595" lon="5.51252">
        <ele>53.49048</ele>
        <time>2013-04-07T05:10:33.000Z</time>
      </trkpt>
      <trkpt lat="43.20591" lon="5.51237">
        <ele>56.855103</ele>
        <time>2013-04-07T05:10:39.000Z</time>
      </trkpt>
      <trkpt lat="43.20591" lon="5.51235">
        <ele>56.855103</ele>
        <time>2013-04-07T05:10:40.000Z</time>
      </trkpt>
      <trkpt lat="43.20581" lon="5.51221">
        <ele>56.855103</ele>
        <time>2013-04-07T05:10:47.000Z</time>
      </trkpt>
      <trkpt lat="43.20577" lon="5.51216">
        <ele>56.37451</ele>
        <time>2013-04-07T05:10:50.000Z</time>
      </trkpt>
      <trkpt lat="43.20572" lon="5.51204">
        <ele>54.451782</ele>
        <time>2013-04-07T05:10:55.000Z</time>
      </trkpt>
      <trkpt lat="43.20567" lon="5.51198">
        <ele>53.97119</ele>
        <time>2013-04-07T05:10:58.000Z</time>
      </trkpt>
      <trkpt lat="43.20557" lon="5.51193">
        <ele>53.009766</ele>
        <time>2013-04-07T05:11:03.000Z</time>
      </trkpt>
      <trkpt lat="43.20549" lon="5.51186">
        <ele>52.529175</ele>
        <time>2013-04-07T05:11:07.000Z</time>
      </trkpt>
      <trkpt lat="43.20547" lon="5.51184">
        <ele>52.529175</ele>
        <time>2013-04-07T05:11:08.000Z</time>
      </trkpt>
      <trkpt lat="43.20543" lon="5.5118">
        <ele>53.009766</ele>
        <time>2013-04-07T05:11:10.000Z</time>
      </trkpt>
      <trkpt lat="43.2054" lon="5.51178">
        <ele>52.529175</ele>
        <time>2013-04-07T05:11:12.000Z</time>
      </trkpt>
      <trkpt lat="43.20535" lon="5.51171">
        <ele>51.56787</ele>
        <time>2013-04-07T05:11:16.000Z</time>
      </trkpt>
      <trkpt lat="43.20524" lon="5.5117">
        <ele>49.645264</ele>
        <time>2013-04-07T05:11:22.000Z</time>
      </trkpt>
      <trkpt lat="43.20514" lon="5.51165">
        <ele>50.125977</ele>
        <time>2013-04-07T05:11:26.000Z</time>
      </trkpt>
      <trkpt lat="43.20505" lon="5.51161">
        <ele>48.20337</ele>
        <time>2013-04-07T05:11:30.000Z</time>
      </trkpt>
      <trkpt lat="43.20494" lon="5.51156">
        <ele>46.28064</ele>
        <time>2013-04-07T05:11:35.000Z</time>
      </trkpt>
      <trkpt lat="43.20493" lon="5.51156">
        <ele>45.799927</ele>
        <time>2013-04-07T05:11:36.000Z</time>
      </trkpt>
      <trkpt lat="43.20486" lon="5.51157">
        <ele>44.358032</ele>
        <time>2013-04-07T05:11:41.000Z</time>
      </trkpt>
      <trkpt lat="43.2048" lon="5.51157">
        <ele>40.99341</ele>
        <time>2013-04-07T05:11:45.000Z</time>
      </trkpt>
      <trkpt lat="43.20468" lon="5.51155">
        <ele>40.032104</ele>
        <time>2013-04-07T05:11:50.000Z</time>
      </trkpt>
      <trkpt lat="43.20466" lon="5.51154">
        <ele>39.55127</ele>
        <time>2013-04-07T05:11:52.000Z</time>
      </trkpt>
      <trkpt lat="43.20458" lon="5.51156">
        <ele>36.66748</ele>
        <time>2013-04-07T05:11:56.000Z</time>
      </trkpt>
      <trkpt lat="43.20446" lon="5.51161">
        <ele>32.822266</ele>
        <time>2013-04-07T05:12:02.000Z</time>
      </trkpt>
      <trkpt lat="43.20444" lon="5.51161">
        <ele>32.341553</ele>
        <time>2013-04-07T05:12:03.000Z</time>
      </trkpt>
      <trkpt lat="43.20439" lon="5.51155">
        <ele>33.302856</ele>
        <time>2013-04-07T05:12:09.000Z</time>
      </trkpt>
      <trkpt lat="43.20442" lon="5.51151">
        <ele>30.899536</ele>
        <time>2013-04-07T05:12:14.000Z</time>
      </trkpt>
      <trkpt lat="43.20441" lon="5.51145">
        <ele>32.341553</ele>
        <time>2013-04-07T05:12:18.000Z</time>
      </trkpt>
      <trkpt lat="43.2044" lon="5.51142">
        <ele>28.976929</ele>
        <time>2013-04-07T05:12:21.000Z</time>
      </trkpt>
      <trkpt lat="43.20434" lon="5.51136">
        <ele>29.45752</ele>
        <time>2013-04-07T05:12:26.000Z</time>
      </trkpt>
      <trkpt lat="43.20431" lon="5.51132">
        <ele>30.418823</ele>
        <time>2013-04-07T05:12:29.000Z</time>
      </trkpt>
      <trkpt lat="43.20429" lon="5.51128">
        <ele>30.418823</ele>
        <time>2013-04-07T05:12:32.000Z</time>
      </trkpt>
      <trkpt lat="43.20422" lon="5.51123">
        <ele>35.225464</ele>
        <time>2013-04-07T05:12:36.000Z</time>
      </trkpt>
      <trkpt lat="43.2042" lon="5.51121">
        <ele>38.109375</ele>
        <time>2013-04-07T05:12:38.000Z</time>
      </trkpt>
      <trkpt lat="43.20418" lon="5.51113">
        <ele>39.55127</ele>
        <time>2013-04-07T05:12:43.000Z</time>
      </trkpt>
      <trkpt lat="43.20415" lon="5.51109">
        <ele>38.590088</ele>
        <time>2013-04-07T05:12:49.000Z</time>
      </trkpt>
      <trkpt lat="43.20411" lon="5.51101">
        <ele>34.744873</ele>
        <time>2013-04-07T05:12:53.000Z</time>
      </trkpt>
      <trkpt lat="43.20411" lon="5.51101">
        <ele>35.706055</ele>
        <time>2013-04-07T05:12:54.000Z</time>
      </trkpt>
      <trkpt lat="43.20404" lon="5.51089">
        <ele>28.496216</ele>
        <time>2013-04-07T05:12:59.000Z</time>
      </trkpt>
      <trkpt lat="43.20403" lon="5.51085">
        <ele>27.054321</ele>
        <time>2013-04-07T05:13:02.000Z</time>
      </trkpt>
      <trkpt lat="43.20395" lon="5.51074">
        <ele>28.496216</ele>
        <time>2013-04-07T05:13:06.000Z</time>
      </trkpt>
      <trkpt lat="43.20389" lon="5.51062">
        <ele>28.976929</ele>
        <time>2013-04-07T05:13:10.000Z</time>
      </trkpt>
      <trkpt lat="43.2039" lon="5.51054">
        <ele>18.402344</ele>
        <time>2013-04-07T05:13:14.000Z</time>
      </trkpt>
      <trkpt lat="43.20389" lon="5.51053">
        <ele>11.673218</ele>
        <time>2013-04-07T05:13:20.000Z</time>
      </trkpt>
      <trkpt lat="43.20386" lon="5.51059">
        <ele>9.75061</ele>
        <time>2013-04-07T05:13:25.000Z</time>
      </trkpt>
      <trkpt lat="43.20385" lon="5.51059">
        <ele>10.231201</ele>
        <time>2013-04-07T05:13:26.000Z</time>
      </trkpt>
      <trkpt lat="43.20377" lon="5.51061">
        <ele>10.711792</ele>
        <time>2013-04-07T05:13:32.000Z</time>
      </trkpt>
      <trkpt lat="43.20376" lon="5.5106">
        <ele>10.231201</ele>
        <time>2013-04-07T05:13:33.000Z</time>
      </trkpt>
      <trkpt lat="43.20372" lon="5.51056">
        <ele>12.634399</ele>
        <time>2013-04-07T05:13:39.000Z</time>
      </trkpt>
      <trkpt lat="43.20368" lon="5.51051">
        <ele>15.518433</ele>
        <time>2013-04-07T05:13:44.000Z</time>
      </trkpt>
      <trkpt lat="43.20368" lon="5.51046">
        <ele>16.96045</ele>
        <time>2013-04-07T05:13:48.000Z</time>
      </trkpt>
      <trkpt lat="43.20367" lon="5.5104">
        <ele>17.921753</ele>
        <time>2013-04-07T05:13:52.000Z</time>
      </trkpt>
      <trkpt lat="43.20363" lon="5.51036">
        <ele>18.883057</ele>
        <time>2013-04-07T05:13:57.000Z</time>
      </trkpt>
      <trkpt lat="43.20357" lon="5.51032">
        <ele>21.766968</ele>
        <time>2013-04-07T05:14:03.000Z</time>
      </trkpt>
      <trkpt lat="43.20355" lon="5.51028">
        <ele>25.131714</ele>
        <time>2013-04-07T05:14:07.000Z</time>
      </trkpt>
      <trkpt lat="43.20353" lon="5.51024">
        <ele>27.054321</ele>
        <time>2013-04-07T05:14:11.000Z</time>
      </trkpt>
      <trkpt lat="43.20354" lon="5.5102">
        <ele>27.534912</ele>
        <time>2013-04-07T05:14:15.000Z</time>
      </trkpt>
      <trkpt lat="43.20357" lon="5.51014">
        <ele>27.534912</ele>
        <time>2013-04-07T05:14:20.000Z</time>
      </trkpt>
      <trkpt lat="43.20355" lon="5.5101">
        <ele>28.015503</ele>
        <time>2013-04-07T05:14:25.000Z</time>
      </trkpt>
      <trkpt lat="43.20353" lon="5.51006">
        <ele>29.45752</ele>
        <time>2013-04-07T05:14:30.000Z</time>
      </trkpt>
      <trkpt lat="43.20354" lon="5.51">
        <ele>32.822266</ele>
        <time>2013-04-07T05:14:36.000Z</time>
      </trkpt>
      <trkpt lat="43.20353" lon="5.50998">
        <ele>34.744873</ele>
        <time>2013-04-07T05:14:40.000Z</time>
      </trkpt>
      <trkpt lat="43.20351" lon="5.50996">
        <ele>37.14807</ele>
        <time>2013-04-07T05:14:44.000Z</time>
      </trkpt>
      <trkpt lat="43.20351" lon="5.50993">
        <ele>38.109375</ele>
        <time>2013-04-07T05:14:49.000Z</time>
      </trkpt>
      <trkpt lat="43.2035" lon="5.50989">
        <ele>39.55127</ele>
        <time>2013-04-07T05:14:53.000Z</time>
      </trkpt>
      <trkpt lat="43.2035" lon="5.50987">
        <ele>39.55127</ele>
        <time>2013-04-07T05:14:54.000Z</time>
      </trkpt>
      <trkpt lat="43.20354" lon="5.50977">
        <ele>42.916016</ele>
        <time>2013-04-07T05:15:01.000Z</time>
      </trkpt>
      <trkpt lat="43.20355" lon="5.50976">
        <ele>43.396606</ele>
        <time>2013-04-07T05:15:02.000Z</time>
      </trkpt>
      <trkpt lat="43.20356" lon="5.50969">
        <ele>44.358032</ele>
        <time>2013-04-07T05:15:06.000Z</time>
      </trkpt>
      <trkpt lat="43.2036" lon="5.50958">
        <ele>45.319214</ele>
        <time>2013-04-07T05:15:12.000Z</time>
      </trkpt>
      <trkpt lat="43.20359" lon="5.50956">
        <ele>45.319214</ele>
        <time>2013-04-07T05:15:14.000Z</time>
      </trkpt>
      <trkpt lat="43.20357" lon="5.50951">
        <ele>45.799927</ele>
        <time>2013-04-07T05:15:17.000Z</time>
      </trkpt>
      <trkpt lat="43.20358" lon="5.50943">
        <ele>46.28064</ele>
        <time>2013-04-07T05:15:22.000Z</time>
      </trkpt>
      <trkpt lat="43.20359" lon="5.50931">
        <ele>44.358032</ele>
        <time>2013-04-07T05:15:28.000Z</time>
      </trkpt>
      <trkpt lat="43.20358" lon="5.5092">
        <ele>46.28064</ele>
        <time>2013-04-07T05:15:33.000Z</time>
      </trkpt>
      <trkpt lat="43.20356" lon="5.50914">
        <ele>47.722534</ele>
        <time>2013-04-07T05:15:37.000Z</time>
      </trkpt>
      <trkpt lat="43.20355" lon="5.5091">
        <ele>49.16455</ele>
        <time>2013-04-07T05:15:42.000Z</time>
      </trkpt>
      <trkpt lat="43.20352" lon="5.5091">
        <ele>48.68396</ele>
        <time>2013-04-07T05:15:46.000Z</time>
      </trkpt>
      <trkpt lat="43.2035" lon="5.50907">
        <ele>48.20337</ele>
        <time>2013-04-07T05:15:50.000Z</time>
      </trkpt>
      <trkpt lat="43.2035" lon="5.50901">
        <ele>51.56787</ele>
        <time>2013-04-07T05:15:55.000Z</time>
      </trkpt>
      <trkpt lat="43.20347" lon="5.50898">
        <ele>53.009766</ele>
        <time>2013-04-07T05:15:59.000Z</time>
      </trkpt>
      <trkpt lat="43.20346" lon="5.50897">
        <ele>53.49048</ele>
        <time>2013-04-07T05:16:00.000Z</time>
      </trkpt>
      <trkpt lat="43.20344" lon="5.50888">
        <ele>54.451782</ele>
        <time>2013-04-07T05:16:05.000Z</time>
      </trkpt>
      <trkpt lat="43.2034" lon="5.50877">
        <ele>55.413086</ele>
        <time>2013-04-07T05:16:10.000Z</time>
      </trkpt>
      <trkpt lat="43.20335" lon="5.50865">
        <ele>56.37451</ele>
        <time>2013-04-07T05:16:16.000Z</time>
      </trkpt>
      <trkpt lat="43.20333" lon="5.5086">
        <ele>59.258423</ele>
        <time>2013-04-07T05:16:20.000Z</time>
      </trkpt>
      <trkpt lat="43.20324" lon="5.50857">
        <ele>60.700317</ele>
        <time>2013-04-07T05:16:25.000Z</time>
      </trkpt>
      <trkpt lat="43.20317" lon="5.50859">
        <ele>60.219727</ele>
        <time>2013-04-07T05:16:28.000Z</time>
      </trkpt>
      <trkpt lat="43.20303" lon="5.50869">
        <ele>57.81653</ele>
        <time>2013-04-07T05:16:33.000Z</time>
      </trkpt>
      <trkpt lat="43.20297" lon="5.50867">
        <ele>56.37451</ele>
        <time>2013-04-07T05:16:36.000Z</time>
      </trkpt>
      <trkpt lat="43.20288" lon="5.50857">
        <ele>60.700317</ele>
        <time>2013-04-07T05:16:42.000Z</time>
      </trkpt>
      <trkpt lat="43.20284" lon="5.50855">
        <ele>58.77771</ele>
        <time>2013-04-07T05:16:46.000Z</time>
      </trkpt>
      <trkpt lat="43.20278" lon="5.50849">
        <ele>56.37451</ele>
        <time>2013-04-07T05:16:50.000Z</time>
      </trkpt>
      <trkpt lat="43.20274" lon="5.50841">
        <ele>54.451782</ele>
        <time>2013-04-07T05:16:54.000Z</time>
      </trkpt>
      <trkpt lat="43.20265" lon="5.50832">
        <ele>54.451782</ele>
        <time>2013-04-07T05:16:59.000Z</time>
      </trkpt>
      <trkpt lat="43.20264" lon="5.5083">
        <ele>53.97119</ele>
        <time>2013-04-07T05:17:00.000Z</time>
      </trkpt>
      <trkpt lat="43.20261" lon="5.50822">
        <ele>53.009766</ele>
        <time>2013-04-07T05:17:03.000Z</time>
      </trkpt>
      <trkpt lat="43.2026" lon="5.50813">
        <ele>52.529175</ele>
        <time>2013-04-07T05:17:07.000Z</time>
      </trkpt>
      <trkpt lat="43.20248" lon="5.50804">
        <ele>51.56787</ele>
        <time>2013-04-07T05:17:14.000Z</time>
      </trkpt>
      <trkpt lat="43.20243" lon="5.50797">
        <ele>50.125977</ele>
        <time>2013-04-07T05:17:18.000Z</time>
      </trkpt>
      <trkpt lat="43.2024" lon="5.50797">
        <ele>49.645264</ele>
        <time>2013-04-07T05:17:21.000Z</time>
      </trkpt>
      <trkpt lat="43.20236" lon="5.50802">
        <ele>53.009766</ele>
        <time>2013-04-07T05:17:24.000Z</time>
      </trkpt>
      <trkpt lat="43.20227" lon="5.50807">
        <ele>53.49048</ele>
        <time>2013-04-07T05:17:28.000Z</time>
      </trkpt>
      <trkpt lat="43.20218" lon="5.50809">
        <ele>54.932373</ele>
        <time>2013-04-07T05:17:32.000Z</time>
      </trkpt>
      <trkpt lat="43.20216" lon="5.50809">
        <ele>54.932373</ele>
        <time>2013-04-07T05:17:33.000Z</time>
      </trkpt>
      <trkpt lat="43.20212" lon="5.50809">
        <ele>54.451782</ele>
        <time>2013-04-07T05:17:35.000Z</time>
      </trkpt>
      <trkpt lat="43.20205" lon="5.50809">
        <ele>53.009766</ele>
        <time>2013-04-07T05:17:38.000Z</time>
      </trkpt>
      <trkpt lat="43.20199" lon="5.50805">
        <ele>51.56787</ele>
        <time>2013-04-07T05:17:41.000Z</time>
      </trkpt>
      <trkpt lat="43.20194" lon="5.50799">
        <ele>50.125977</ele>
        <time>2013-04-07T05:17:44.000Z</time>
      </trkpt>
      <trkpt lat="43.20193" lon="5.50797">
        <ele>49.645264</ele>
        <time>2013-04-07T05:17:45.000Z</time>
      </trkpt>
      <trkpt lat="43.20186" lon="5.50785">
        <ele>49.16455</ele>
        <time>2013-04-07T05:17:50.000Z</time>
      </trkpt>
      <trkpt lat="43.20179" lon="5.50774">
        <ele>48.20337</ele>
        <time>2013-04-07T05:17:55.000Z</time>
      </trkpt>
      <trkpt lat="43.20172" lon="5.50768">
        <ele>47.722534</ele>
        <time>2013-04-07T05:18:00.000Z</time>
      </trkpt>
      <trkpt lat="43.20166" lon="5.50757">
        <ele>47.722534</ele>
        <time>2013-04-07T05:18:05.000Z</time>
      </trkpt>
      <trkpt lat="43.20161" lon="5.50744">
        <ele>46.28064</ele>
        <time>2013-04-07T05:18:10.000Z</time>
      </trkpt>
      <trkpt lat="43.20155" lon="5.50732">
        <ele>45.799927</ele>
        <time>2013-04-07T05:18:15.000Z</time>
      </trkpt>
      <trkpt lat="43.20149" lon="5.5072">
        <ele>45.319214</ele>
        <time>2013-04-07T05:18:20.000Z</time>
      </trkpt>
      <trkpt lat="43.20144" lon="5.50715">
        <ele>44.358032</ele>
        <time>2013-04-07T05:18:23.000Z</time>
      </trkpt>
      <trkpt lat="43.20138" lon="5.50709">
        <ele>45.319214</ele>
        <time>2013-04-07T05:18:27.000Z</time>
      </trkpt>
      <trkpt lat="43.20129" lon="5.50706">
        <ele>47.24182</ele>
        <time>2013-04-07T05:18:33.000Z</time>
      </trkpt>
      <trkpt lat="43.20122" lon="5.50699">
        <ele>45.799927</ele>
        <time>2013-04-07T05:18:37.000Z</time>
      </trkpt>
      <trkpt lat="43.20118" lon="5.50692">
        <ele>45.799927</ele>
        <time>2013-04-07T05:18:41.000Z</time>
      </trkpt>
      <trkpt lat="43.2011" lon="5.50693">
        <ele>46.28064</ele>
        <time>2013-04-07T05:18:46.000Z</time>
      </trkpt>
      <trkpt lat="43.20108" lon="5.50694">
        <ele>47.722534</ele>
        <time>2013-04-07T05:18:47.000Z</time>
      </trkpt>
      <trkpt lat="43.20101" lon="5.50696">
        <ele>45.799927</ele>
        <time>2013-04-07T05:18:52.000Z</time>
      </trkpt>
      <trkpt lat="43.20093" lon="5.50695">
        <ele>41.474</ele>
        <time>2013-04-07T05:18:57.000Z</time>
      </trkpt>
      <trkpt lat="43.20083" lon="5.50697">
        <ele>38.590088</ele>
        <time>2013-04-07T05:19:03.000Z</time>
      </trkpt>
      <trkpt lat="43.20075" lon="5.50698">
        <ele>36.66748</ele>
        <time>2013-04-07T05:19:07.000Z</time>
      </trkpt>
      <trkpt lat="43.20065" lon="5.507">
        <ele>35.225464</ele>
        <time>2013-04-07T05:19:12.000Z</time>
      </trkpt>
      <trkpt lat="43.20058" lon="5.50701">
        <ele>33.783447</ele>
        <time>2013-04-07T05:19:15.000Z</time>
      </trkpt>
      <trkpt lat="43.20049" lon="5.50707">
        <ele>32.341553</ele>
        <time>2013-04-07T05:19:21.000Z</time>
      </trkpt>
      <trkpt lat="43.20044" lon="5.50708">
        <ele>31.860718</ele>
        <time>2013-04-07T05:19:25.000Z</time>
      </trkpt>
      <trkpt lat="43.20043" lon="5.50709">
        <ele>31.380127</ele>
        <time>2013-04-07T05:19:26.000Z</time>
      </trkpt>
      <trkpt lat="43.20039" lon="5.50698">
        <ele>29.93811</ele>
        <time>2013-04-07T05:19:32.000Z</time>
      </trkpt>
      <trkpt lat="43.20039" lon="5.50685">
        <ele>28.496216</ele>
        <time>2013-04-07T05:19:38.000Z</time>
      </trkpt>
      <trkpt lat="43.20038" lon="5.50683">
        <ele>28.496216</ele>
        <time>2013-04-07T05:19:39.000Z</time>
      </trkpt>
      <trkpt lat="43.20034" lon="5.5067">
        <ele>25.612305</ele>
        <time>2013-04-07T05:19:45.000Z</time>
      </trkpt>
      <trkpt lat="43.20034" lon="5.50668">
        <ele>25.131714</ele>
        <time>2013-04-07T05:19:46.000Z</time>
      </trkpt>
      <trkpt lat="43.20033" lon="5.50664">
        <ele>25.612305</ele>
        <time>2013-04-07T05:19:48.000Z</time>
      </trkpt>
      <trkpt lat="43.20031" lon="5.5065">
        <ele>22.247559</ele>
        <time>2013-04-07T05:19:55.000Z</time>
      </trkpt>
      <trkpt lat="43.2003" lon="5.50644">
        <ele>21.766968</ele>
        <time>2013-04-07T05:19:58.000Z</time>
      </trkpt>
      <trkpt lat="43.20028" lon="5.50635">
        <ele>26.573608</ele>
        <time>2013-04-07T05:20:04.000Z</time>
      </trkpt>
      <trkpt lat="43.20028" lon="5.50628">
        <ele>28.976929</ele>
        <time>2013-04-07T05:20:08.000Z</time>
      </trkpt>
      <trkpt lat="43.20026" lon="5.50623">
        <ele>29.93811</ele>
        <time>2013-04-07T05:20:11.000Z</time>
      </trkpt>
      <trkpt lat="43.20022" lon="5.50617">
        <ele>34.26416</ele>
        <time>2013-04-07T05:20:15.000Z</time>
      </trkpt>
      <trkpt lat="43.20022" lon="5.50612">
        <ele>36.66748</ele>
        <time>2013-04-07T05:20:18.000Z</time>
      </trkpt>
      <trkpt lat="43.20023" lon="5.50606">
        <ele>39.07068</ele>
        <time>2013-04-07T05:20:22.000Z</time>
      </trkpt>
      <trkpt lat="43.20025" lon="5.50603">
        <ele>39.07068</ele>
        <time>2013-04-07T05:20:24.000Z</time>
      </trkpt>
      <trkpt lat="43.20024" lon="5.50595">
        <ele>40.512817</ele>
        <time>2013-04-07T05:20:29.000Z</time>
      </trkpt>
      <trkpt lat="43.20023" lon="5.50586">
        <ele>44.358032</ele>
        <time>2013-04-07T05:20:34.000Z</time>
      </trkpt>
      <trkpt lat="43.20024" lon="5.50583">
        <ele>46.76123</ele>
        <time>2013-04-07T05:20:36.000Z</time>
      </trkpt>
      <trkpt lat="43.20028" lon="5.50578">
        <ele>51.56787</ele>
        <time>2013-04-07T05:20:42.000Z</time>
      </trkpt>
      <trkpt lat="43.20028" lon="5.50577">
        <ele>52.048584</ele>
        <time>2013-04-07T05:20:43.000Z</time>
      </trkpt>
      <trkpt lat="43.2003" lon="5.50568">
        <ele>53.97119</ele>
        <time>2013-04-07T05:20:49.000Z</time>
      </trkpt>
      <trkpt lat="43.2003" lon="5.50566">
        <ele>54.451782</ele>
        <time>2013-04-07T05:20:50.000Z</time>
      </trkpt>
      <trkpt lat="43.20033" lon="5.50559">
        <ele>57.335815</ele>
        <time>2013-04-07T05:20:56.000Z</time>
      </trkpt>
      <trkpt lat="43.20035" lon="5.50551">
        <ele>59.739136</ele>
        <time>2013-04-07T05:21:01.000Z</time>
      </trkpt>
      <trkpt lat="43.20037" lon="5.50548">
        <ele>60.700317</ele>
        <time>2013-04-07T05:21:03.000Z</time>
      </trkpt>
      <trkpt lat="43.20038" lon="5.50545">
        <ele>61.18103</ele>
        <time>2013-04-07T05:21:05.000Z</time>
      </trkpt>
      <trkpt lat="43.20045" lon="5.50539">
        <ele>65.02637</ele>
        <time>2013-04-07T05:21:12.000Z</time>
      </trkpt>
      <trkpt lat="43.20049" lon="5.50536">
        <ele>66.46826</ele>
        <time>2013-04-07T05:21:16.000Z</time>
      </trkpt>
      <trkpt lat="43.20051" lon="5.50533">
        <ele>67.42969</ele>
        <time>2013-04-07T05:21:18.000Z</time>
      </trkpt>
      <trkpt lat="43.20056" lon="5.50522">
        <ele>69.352295</ele>
        <time>2013-04-07T05:21:24.000Z</time>
      </trkpt>
      <trkpt lat="43.20057" lon="5.50521">
        <ele>69.832886</ele>
        <time>2013-04-07T05:21:25.000Z</time>
      </trkpt>
      <trkpt lat="43.20059" lon="5.50518">
        <ele>70.79419</ele>
        <time>2013-04-07T05:21:27.000Z</time>
      </trkpt>
      <trkpt lat="43.20065" lon="5.50509">
        <ele>71.75549</ele>
        <time>2013-04-07T05:21:32.000Z</time>
      </trkpt>
      <trkpt lat="43.20066" lon="5.50507">
        <ele>72.71692</ele>
        <time>2013-04-07T05:21:34.000Z</time>
      </trkpt>
      <trkpt lat="43.20071" lon="5.50498">
        <ele>72.71692</ele>
        <time>2013-04-07T05:21:39.000Z</time>
      </trkpt>
      <trkpt lat="43.20074" lon="5.50492">
        <ele>72.236206</ele>
        <time>2013-04-07T05:21:42.000Z</time>
      </trkpt>
      <trkpt lat="43.20077" lon="5.50478">
        <ele>72.236206</ele>
        <time>2013-04-07T05:21:47.000Z</time>
      </trkpt>
      <trkpt lat="43.20086" lon="5.50461">
        <ele>66.948975</ele>
        <time>2013-04-07T05:21:54.000Z</time>
      </trkpt>
      <trkpt lat="43.20089" lon="5.50451">
        <ele>67.42969</ele>
        <time>2013-04-07T05:21:59.000Z</time>
      </trkpt>
      <trkpt lat="43.20086" lon="5.50434">
        <ele>69.832886</ele>
        <time>2013-04-07T05:22:05.000Z</time>
      </trkpt>
      <trkpt lat="43.20086" lon="5.50432">
        <ele>70.31348</ele>
        <time>2013-04-07T05:22:06.000Z</time>
      </trkpt>
      <trkpt lat="43.20088" lon="5.50419">
        <ele>70.79419</ele>
        <time>2013-04-07T05:22:12.000Z</time>
      </trkpt>
      <trkpt lat="43.2009" lon="5.50412">
        <ele>71.75549</ele>
        <time>2013-04-07T05:22:16.000Z</time>
      </trkpt>
      <trkpt lat="43.20101" lon="5.50399">
        <ele>74.15881</ele>
        <time>2013-04-07T05:22:24.000Z</time>
      </trkpt>
      <trkpt lat="43.20102" lon="5.50397">
        <ele>74.63953</ele>
        <time>2013-04-07T05:22:25.000Z</time>
      </trkpt>
      <trkpt lat="43.20107" lon="5.50393">
        <ele>78.48474</ele>
        <time>2013-04-07T05:22:31.000Z</time>
      </trkpt>
      <trkpt lat="43.20111" lon="5.50384">
        <ele>79.926636</ele>
        <time>2013-04-07T05:22:36.000Z</time>
      </trkpt>
      <trkpt lat="43.2012" lon="5.50372">
        <ele>82.33008</ele>
        <time>2013-04-07T05:22:43.000Z</time>
      </trkpt>
      <trkpt lat="43.20127" lon="5.50367">
        <ele>83.29138</ele>
        <time>2013-04-07T05:22:48.000Z</time>
      </trkpt>
      <trkpt lat="43.20135" lon="5.50358">
        <ele>84.252686</ele>
        <time>2013-04-07T05:22:54.000Z</time>
      </trkpt>
      <trkpt lat="43.20139" lon="5.50356">
        <ele>85.21399</ele>
        <time>2013-04-07T05:22:58.000Z</time>
      </trkpt>
      <trkpt lat="43.20146" lon="5.50352">
        <ele>86.17529</ele>
        <time>2013-04-07T05:23:03.000Z</time>
      </trkpt>
      <trkpt lat="43.20149" lon="5.50344">
        <ele>85.69458</ele>
        <time>2013-04-07T05:23:06.000Z</time>
      </trkpt>
      <trkpt lat="43.2015" lon="5.50325">
        <ele>86.17529</ele>
        <time>2013-04-07T05:23:13.000Z</time>
      </trkpt>
      <trkpt lat="43.20152" lon="5.50317">
        <ele>89.059326</ele>
        <time>2013-04-07T05:23:17.000Z</time>
      </trkpt>
      <trkpt lat="43.20153" lon="5.50307">
        <ele>91.462524</ele>
        <time>2013-04-07T05:23:22.000Z</time>
      </trkpt>
      <trkpt lat="43.20154" lon="5.50302">
        <ele>93.38513</ele>
        <time>2013-04-07T05:23:25.000Z</time>
      </trkpt>
      <trkpt lat="43.20154" lon="5.50294">
        <ele>94.82715</ele>
        <time>2013-04-07T05:23:28.000Z</time>
      </trkpt>
      <trkpt lat="43.20155" lon="5.50286">
        <ele>97.23047</ele>
        <time>2013-04-07T05:23:33.000Z</time>
      </trkpt>
      <trkpt lat="43.20157" lon="5.50279">
        <ele>97.71118</ele>
        <time>2013-04-07T05:23:36.000Z</time>
      </trkpt>
      <trkpt lat="43.20161" lon="5.50273">
        <ele>98.191895</ele>
        <time>2013-04-07T05:23:41.000Z</time>
      </trkpt>
      <trkpt lat="43.20167" lon="5.50267">
        <ele>100.1145</ele>
        <time>2013-04-07T05:23:47.000Z</time>
      </trkpt>
      <trkpt lat="43.2017" lon="5.50256">
        <ele>100.59509</ele>
        <time>2013-04-07T05:23:52.000Z</time>
      </trkpt>
      <trkpt lat="43.20173" lon="5.50247">
        <ele>102.03711</ele>
        <time>2013-04-07T05:23:56.000Z</time>
      </trkpt>
      <trkpt lat="43.20177" lon="5.5024">
        <ele>102.5177</ele>
        <time>2013-04-07T05:24:00.000Z</time>
      </trkpt>
      <trkpt lat="43.20186" lon="5.50232">
        <ele>105.40173</ele>
        <time>2013-04-07T05:24:07.000Z</time>
      </trkpt>
      <trkpt lat="43.20189" lon="5.50229">
        <ele>105.40173</ele>
        <time>2013-04-07T05:24:10.000Z</time>
      </trkpt>
      <trkpt lat="43.20193" lon="5.50227">
        <ele>106.36304</ele>
        <time>2013-04-07T05:24:13.000Z</time>
      </trkpt>
      <trkpt lat="43.20198" lon="5.50222">
        <ele>106.36304</ele>
        <time>2013-04-07T05:24:18.000Z</time>
      </trkpt>
      <trkpt lat="43.20202" lon="5.50216">
        <ele>106.84363</ele>
        <time>2013-04-07T05:24:23.000Z</time>
      </trkpt>
      <trkpt lat="43.20204" lon="5.50206">
        <ele>109.24695</ele>
        <time>2013-04-07T05:24:27.000Z</time>
      </trkpt>
      <trkpt lat="43.20205" lon="5.50199">
        <ele>110.68884</ele>
        <time>2013-04-07T05:24:30.000Z</time>
      </trkpt>
      <trkpt lat="43.20209" lon="5.50191">
        <ele>113.092285</ele>
        <time>2013-04-07T05:24:35.000Z</time>
      </trkpt>
      <trkpt lat="43.20213" lon="5.50187">
        <ele>115.9762</ele>
        <time>2013-04-07T05:24:40.000Z</time>
      </trkpt>
      <trkpt lat="43.20216" lon="5.50177">
        <ele>116.45679</ele>
        <time>2013-04-07T05:24:45.000Z</time>
      </trkpt>
      <trkpt lat="43.20219" lon="5.50168">
        <ele>116.9375</ele>
        <time>2013-04-07T05:24:50.000Z</time>
      </trkpt>
      <trkpt lat="43.2022" lon="5.50163">
        <ele>118.379395</ele>
        <time>2013-04-07T05:24:54.000Z</time>
      </trkpt>
      <trkpt lat="43.20221" lon="5.50162">
        <ele>118.379395</ele>
        <time>2013-04-07T05:24:56.000Z</time>
      </trkpt>
      <trkpt lat="43.20225" lon="5.50158">
        <ele>119.34082</ele>
        <time>2013-04-07T05:24:59.000Z</time>
      </trkpt>
      <trkpt lat="43.20233" lon="5.50154">
        <ele>120.78284</ele>
        <time>2013-04-07T05:25:05.000Z</time>
      </trkpt>
      <trkpt lat="43.20234" lon="5.50151">
        <ele>121.26355</ele>
        <time>2013-04-07T05:25:12.000Z</time>
      </trkpt>
      <trkpt lat="43.20234" lon="5.50152">
        <ele>122.22473</ele>
        <time>2013-04-07T05:25:17.000Z</time>
      </trkpt>
      <trkpt lat="43.20233" lon="5.50152">
        <ele>123.66675</ele>
        <time>2013-04-07T05:25:24.000Z</time>
      </trkpt>
      <trkpt lat="43.20234" lon="5.50152">
        <ele>124.62805</ele>
        <time>2013-04-07T05:25:32.000Z</time>
      </trkpt>
      <trkpt lat="43.20237" lon="5.50153">
        <ele>125.108765</ele>
        <time>2013-04-07T05:25:36.000Z</time>
      </trkpt>
      <trkpt lat="43.20244" lon="5.50155">
        <ele>125.108765</ele>
        <time>2013-04-07T05:25:42.000Z</time>
      </trkpt>
      <trkpt lat="43.20247" lon="5.50155">
        <ele>125.589355</ele>
        <time>2013-04-07T05:25:44.000Z</time>
      </trkpt>
      <trkpt lat="43.20261" lon="5.50151">
        <ele>127.51196</ele>
        <time>2013-04-07T05:25:52.000Z</time>
      </trkpt>
      <trkpt lat="43.20263" lon="5.50151">
        <ele>127.99255</ele>
        <time>2013-04-07T05:25:53.000Z</time>
      </trkpt>
      <trkpt lat="43.2027" lon="5.50152">
        <ele>128.47339</ele>
        <time>2013-04-07T05:25:57.000Z</time>
      </trkpt>
      <trkpt lat="43.20276" lon="5.50153">
        <ele>128.9541</ele>
        <time>2013-04-07T05:26:00.000Z</time>
      </trkpt>
      <trkpt lat="43.20286" lon="5.50148">
        <ele>129.91528</ele>
        <time>2013-04-07T05:26:05.000Z</time>
      </trkpt>
      <trkpt lat="43.20303" lon="5.5014">
        <ele>131.3573</ele>
        <time>2013-04-07T05:26:12.000Z</time>
      </trkpt>
      <trkpt lat="43.20315" lon="5.50133">
        <ele>132.3186</ele>
        <time>2013-04-07T05:26:18.000Z</time>
      </trkpt>
      <trkpt lat="43.20325" lon="5.50131">
        <ele>134.72192</ele>
        <time>2013-04-07T05:26:24.000Z</time>
      </trkpt>
      <trkpt lat="43.20333" lon="5.50129">
        <ele>135.20251</ele>
        <time>2013-04-07T05:26:28.000Z</time>
      </trkpt>
      <trkpt lat="43.20341" lon="5.50122">
        <ele>135.20251</ele>
        <time>2013-04-07T05:26:32.000Z</time>
      </trkpt>
      <trkpt lat="43.20346" lon="5.50117">
        <ele>134.72192</ele>
        <time>2013-04-07T05:26:35.000Z</time>
      </trkpt>
      <trkpt lat="43.20347" lon="5.50103">
        <ele>133.2799</ele>
        <time>2013-04-07T05:26:41.000Z</time>
      </trkpt>
      <trkpt lat="43.20348" lon="5.50099">
        <ele>132.3186</ele>
        <time>2013-04-07T05:26:43.000Z</time>
      </trkpt>
      <trkpt lat="43.2035" lon="5.50086">
        <ele>130.396</ele>
        <time>2013-04-07T05:26:48.000Z</time>
      </trkpt>
      <trkpt lat="43.2035" lon="5.50083">
        <ele>129.91528</ele>
        <time>2013-04-07T05:26:49.000Z</time>
      </trkpt>
      <trkpt lat="43.20349" lon="5.50077">
        <ele>129.91528</ele>
        <time>2013-04-07T05:26:51.000Z</time>
      </trkpt>
      <trkpt lat="43.20342" lon="5.50073">
        <ele>128.9541</ele>
        <time>2013-04-07T05:26:55.000Z</time>
      </trkpt>
      <trkpt lat="43.20338" lon="5.50059">
        <ele>128.47339</ele>
        <time>2013-04-07T05:26:59.000Z</time>
      </trkpt>
      <trkpt lat="43.20338" lon="5.50053">
        <ele>128.9541</ele>
        <time>2013-04-07T05:27:01.000Z</time>
      </trkpt>
      <trkpt lat="43.20338" lon="5.50046">
        <ele>129.4347</ele>
        <time>2013-04-07T05:27:03.000Z</time>
      </trkpt>
      <trkpt lat="43.20343" lon="5.50038">
        <ele>130.87671</ele>
        <time>2013-04-07T05:27:08.000Z</time>
      </trkpt>
      <trkpt lat="43.20351" lon="5.50026">
        <ele>132.79932</ele>
        <time>2013-04-07T05:27:14.000Z</time>
      </trkpt>
      <trkpt lat="43.20353" lon="5.5002">
        <ele>132.79932</ele>
        <time>2013-04-07T05:27:17.000Z</time>
      </trkpt>
      <trkpt lat="43.2036" lon="5.50006">
        <ele>131.83789</ele>
        <time>2013-04-07T05:27:22.000Z</time>
      </trkpt>
      <trkpt lat="43.20361" lon="5.50005">
        <ele>132.3186</ele>
        <time>2013-04-07T05:27:23.000Z</time>
      </trkpt>
      <trkpt lat="43.20368" lon="5.49998">
        <ele>131.83789</ele>
        <time>2013-04-07T05:27:27.000Z</time>
      </trkpt>
      <trkpt lat="43.20372" lon="5.49987">
        <ele>131.3573</ele>
        <time>2013-04-07T05:27:32.000Z</time>
      </trkpt>
      <trkpt lat="43.20377" lon="5.49973">
        <ele>130.396</ele>
        <time>2013-04-07T05:27:37.000Z</time>
      </trkpt>
      <trkpt lat="43.20378" lon="5.49967">
        <ele>129.91528</ele>
        <time>2013-04-07T05:27:39.000Z</time>
      </trkpt>
      <trkpt lat="43.20381" lon="5.49958">
        <ele>129.91528</ele>
        <time>2013-04-07T05:27:42.000Z</time>
      </trkpt>
      <trkpt lat="43.20384" lon="5.49947">
        <ele>129.91528</ele>
        <time>2013-04-07T05:27:47.000Z</time>
      </trkpt>
      <trkpt lat="43.20387" lon="5.4994">
        <ele>130.87671</ele>
        <time>2013-04-07T05:27:51.000Z</time>
      </trkpt>
      <trkpt lat="43.2039" lon="5.49927">
        <ele>133.7605</ele>
        <time>2013-04-07T05:27:57.000Z</time>
      </trkpt>
      <trkpt lat="43.20386" lon="5.49917">
        <ele>135.20251</ele>
        <time>2013-04-07T05:28:01.000Z</time>
      </trkpt>
      <trkpt lat="43.20386" lon="5.49911">
        <ele>136.16394</ele>
        <time>2013-04-07T05:28:03.000Z</time>
      </trkpt>
      <trkpt lat="43.20389" lon="5.49896">
        <ele>138.08655</ele>
        <time>2013-04-07T05:28:09.000Z</time>
      </trkpt>
      <trkpt lat="43.20389" lon="5.49892">
        <ele>138.56726</ele>
        <time>2013-04-07T05:28:11.000Z</time>
      </trkpt>
      <trkpt lat="43.20385" lon="5.49872">
        <ele>140.48987</ele>
        <time>2013-04-07T05:28:18.000Z</time>
      </trkpt>
      <trkpt lat="43.20385" lon="5.49869">
        <ele>140.00916</ele>
        <time>2013-04-07T05:28:19.000Z</time>
      </trkpt>
      <trkpt lat="43.20385" lon="5.4986">
        <ele>139.52844</ele>
        <time>2013-04-07T05:28:22.000Z</time>
      </trkpt>
      <trkpt lat="43.20387" lon="5.49856">
        <ele>140.00916</ele>
        <time>2013-04-07T05:28:24.000Z</time>
      </trkpt>
      <trkpt lat="43.20395" lon="5.49856">
        <ele>140.97046</ele>
        <time>2013-04-07T05:28:29.000Z</time>
      </trkpt>
      <trkpt lat="43.20396" lon="5.49854">
        <ele>140.97046</ele>
        <time>2013-04-07T05:28:31.000Z</time>
      </trkpt>
      <trkpt lat="43.20406" lon="5.49848">
        <ele>143.37366</ele>
        <time>2013-04-07T05:28:38.000Z</time>
      </trkpt>
      <trkpt lat="43.20416" lon="5.49849">
        <ele>145.29639</ele>
        <time>2013-04-07T05:28:43.000Z</time>
      </trkpt>
      <trkpt lat="43.20421" lon="5.49847">
        <ele>145.7771</ele>
        <time>2013-04-07T05:28:46.000Z</time>
      </trkpt>
      <trkpt lat="43.20424" lon="5.49846">
        <ele>145.7771</ele>
        <time>2013-04-07T05:28:48.000Z</time>
      </trkpt>
      <trkpt lat="43.20429" lon="5.49848">
        <ele>146.7384</ele>
        <time>2013-04-07T05:28:53.000Z</time>
      </trkpt>
      <trkpt lat="43.20435" lon="5.49868">
        <ele>146.7384</ele>
        <time>2013-04-07T05:29:00.000Z</time>
      </trkpt>
      <trkpt lat="43.20436" lon="5.49883">
        <ele>146.25781</ele>
        <time>2013-04-07T05:29:05.000Z</time>
      </trkpt>
      <trkpt lat="43.20437" lon="5.49901">
        <ele>145.29639</ele>
        <time>2013-04-07T05:29:10.000Z</time>
      </trkpt>
      <trkpt lat="43.20435" lon="5.49917">
        <ele>144.3352</ele>
        <time>2013-04-07T05:29:14.000Z</time>
      </trkpt>
      <trkpt lat="43.20434" lon="5.49936">
        <ele>142.89307</ele>
        <time>2013-04-07T05:29:19.000Z</time>
      </trkpt>
      <trkpt lat="43.20435" lon="5.49954">
        <ele>142.41248</ele>
        <time>2013-04-07T05:29:24.000Z</time>
      </trkpt>
      <trkpt lat="43.20435" lon="5.49967">
        <ele>141.45105</ele>
        <time>2013-04-07T05:29:28.000Z</time>
      </trkpt>
      <trkpt lat="43.20437" lon="5.49973">
        <ele>141.45105</ele>
        <time>2013-04-07T05:29:30.000Z</time>
      </trkpt>
      <trkpt lat="43.20445" lon="5.49985">
        <ele>140.97046</ele>
        <time>2013-04-07T05:29:35.000Z</time>
      </trkpt>
      <trkpt lat="43.20452" lon="5.49993">
        <ele>141.45105</ele>
        <time>2013-04-07T05:29:39.000Z</time>
      </trkpt>
      <trkpt lat="43.20463" lon="5.5001">
        <ele>143.37366</ele>
        <time>2013-04-07T05:29:45.000Z</time>
      </trkpt>
      <trkpt lat="43.2047" lon="5.50018">
        <ele>143.85437</ele>
        <time>2013-04-07T05:29:49.000Z</time>
      </trkpt>
      <trkpt lat="43.2048" lon="5.50034">
        <ele>144.3352</ele>
        <time>2013-04-07T05:29:55.000Z</time>
      </trkpt>
      <trkpt lat="43.20487" lon="5.50055">
        <ele>145.29639</ele>
        <time>2013-04-07T05:30:02.000Z</time>
      </trkpt>
      <trkpt lat="43.2049" lon="5.5007">
        <ele>146.25781</ele>
        <time>2013-04-07T05:30:07.000Z</time>
      </trkpt>
      <trkpt lat="43.20493" lon="5.50084">
        <ele>147.6997</ele>
        <time>2013-04-07T05:30:11.000Z</time>
      </trkpt>
      <trkpt lat="43.20495" lon="5.50103">
        <ele>147.219</ele>
        <time>2013-04-07T05:30:17.000Z</time>
      </trkpt>
      <trkpt lat="43.20497" lon="5.50119">
        <ele>147.6997</ele>
        <time>2013-04-07T05:30:22.000Z</time>
      </trkpt>
      <trkpt lat="43.20498" lon="5.50125">
        <ele>148.66101</ele>
        <time>2013-04-07T05:30:24.000Z</time>
      </trkpt>
      <trkpt lat="43.20505" lon="5.50139">
        <ele>149.62231</ele>
        <time>2013-04-07T05:30:30.000Z</time>
      </trkpt>
      <trkpt lat="43.20512" lon="5.50149">
        <ele>149.62231</ele>
        <time>2013-04-07T05:30:34.000Z</time>
      </trkpt>
      <trkpt lat="43.20524" lon="5.50159">
        <ele>150.58362</ele>
        <time>2013-04-07T05:30:40.000Z</time>
      </trkpt>
      <trkpt lat="43.20532" lon="5.50167">
        <ele>149.1416</ele>
        <time>2013-04-07T05:30:45.000Z</time>
      </trkpt>
      <trkpt lat="43.20541" lon="5.50174">
        <ele>148.18042</ele>
        <time>2013-04-07T05:30:49.000Z</time>
      </trkpt>
      <trkpt lat="43.20551" lon="5.50181">
        <ele>147.6997</ele>
        <time>2013-04-07T05:30:53.000Z</time>
      </trkpt>
      <trkpt lat="43.20565" lon="5.50189">
        <ele>145.29639</ele>
        <time>2013-04-07T05:30:59.000Z</time>
      </trkpt>
      <trkpt lat="43.2057" lon="5.50191">
        <ele>144.8158</ele>
        <time>2013-04-07T05:31:01.000Z</time>
      </trkpt>
      <trkpt lat="43.20585" lon="5.50202">
        <ele>140.48987</ele>
        <time>2013-04-07T05:31:08.000Z</time>
      </trkpt>
      <trkpt lat="43.2059" lon="5.50201">
        <ele>139.04785</ele>
        <time>2013-04-07T05:31:10.000Z</time>
      </trkpt>
      <trkpt lat="43.20606" lon="5.50207">
        <ele>136.16394</ele>
        <time>2013-04-07T05:31:15.000Z</time>
      </trkpt>
      <trkpt lat="43.20618" lon="5.50206">
        <ele>135.20251</ele>
        <time>2013-04-07T05:31:19.000Z</time>
      </trkpt>
      <trkpt lat="43.20625" lon="5.50202">
        <ele>134.72192</ele>
        <time>2013-04-07T05:31:22.000Z</time>
      </trkpt>
      <trkpt lat="43.20633" lon="5.5019">
        <ele>134.24121</ele>
        <time>2013-04-07T05:31:27.000Z</time>
      </trkpt>
      <trkpt lat="43.20642" lon="5.50178">
        <ele>133.7605</ele>
        <time>2013-04-07T05:31:32.000Z</time>
      </trkpt>
      <trkpt lat="43.20645" lon="5.50166">
        <ele>131.3573</ele>
        <time>2013-04-07T05:31:37.000Z</time>
      </trkpt>
      <trkpt lat="43.20647" lon="5.50158">
        <ele>129.91528</ele>
        <time>2013-04-07T05:31:40.000Z</time>
      </trkpt>
      <trkpt lat="43.20649" lon="5.50153">
        <ele>128.9541</ele>
        <time>2013-04-07T05:31:42.000Z</time>
      </trkpt>
      <trkpt lat="43.20652" lon="5.50149">
        <ele>127.99255</ele>
        <time>2013-04-07T05:31:44.000Z</time>
      </trkpt>
      <trkpt lat="43.2066" lon="5.50145">
        <ele>125.589355</ele>
        <time>2013-04-07T05:31:48.000Z</time>
      </trkpt>
      <trkpt lat="43.20665" lon="5.50145">
        <ele>123.66675</ele>
        <time>2013-04-07T05:31:52.000Z</time>
      </trkpt>
      <trkpt lat="43.20668" lon="5.50146">
        <ele>122.705444</ele>
        <time>2013-04-07T05:31:55.000Z</time>
      </trkpt>
      <trkpt lat="43.20669" lon="5.50143">
        <ele>121.74414</ele>
        <time>2013-04-07T05:31:59.000Z</time>
      </trkpt>
      <trkpt lat="43.20669" lon="5.50138">
        <ele>120.302124</ele>
        <time>2013-04-07T05:32:03.000Z</time>
      </trkpt>
      <trkpt lat="43.20671" lon="5.50135">
        <ele>118.379395</ele>
        <time>2013-04-07T05:32:08.000Z</time>
      </trkpt>
      <trkpt lat="43.20673" lon="5.50131">
        <ele>116.45679</ele>
        <time>2013-04-07T05:32:12.000Z</time>
      </trkpt>
      <trkpt lat="43.2067" lon="5.50129">
        <ele>115.495605</ele>
        <time>2013-04-07T05:32:15.000Z</time>
      </trkpt>
      <trkpt lat="43.20667" lon="5.50124">
        <ele>114.05359</ele>
        <time>2013-04-07T05:32:20.000Z</time>
      </trkpt>
      <trkpt lat="43.20667" lon="5.5012">
        <ele>112.61157</ele>
        <time>2013-04-07T05:32:23.000Z</time>
      </trkpt>
      <trkpt lat="43.20667" lon="5.50119">
        <ele>112.13098</ele>
        <time>2013-04-07T05:32:24.000Z</time>
      </trkpt>
      <trkpt lat="43.20667" lon="5.50114">
        <ele>111.65027</ele>
        <time>2013-04-07T05:32:27.000Z</time>
      </trkpt>
      <trkpt lat="43.20673" lon="5.50106">
        <ele>108.285645</ele>
        <time>2013-04-07T05:32:33.000Z</time>
      </trkpt>
      <trkpt lat="43.20674" lon="5.50104">
        <ele>107.80505</ele>
        <time>2013-04-07T05:32:34.000Z</time>
      </trkpt>
      <trkpt lat="43.20677" lon="5.50101">
        <ele>106.36304</ele>
        <time>2013-04-07T05:32:36.000Z</time>
      </trkpt>
      <trkpt lat="43.20683" lon="5.50098">
        <ele>104.44043</ele>
        <time>2013-04-07T05:32:40.000Z</time>
      </trkpt>
      <trkpt lat="43.20684" lon="5.5009">
        <ele>101.07568</ele>
        <time>2013-04-07T05:32:45.000Z</time>
      </trkpt>
      <trkpt lat="43.20688" lon="5.5009">
        <ele>97.71118</ele>
        <time>2013-04-07T05:32:50.000Z</time>
      </trkpt>
      <trkpt lat="43.20689" lon="5.50088">
        <ele>93.865845</ele>
        <time>2013-04-07T05:32:56.000Z</time>
      </trkpt>
      <trkpt lat="43.20689" lon="5.50085">
        <ele>90.98193</ele>
        <time>2013-04-07T05:33:03.000Z</time>
      </trkpt>
      <trkpt lat="43.20691" lon="5.50081">
        <ele>90.98193</ele>
        <time>2013-04-07T05:33:07.000Z</time>
      </trkpt>
      <trkpt lat="43.20692" lon="5.50076">
        <ele>90.50134</ele>
        <time>2013-04-07T05:33:13.000Z</time>
      </trkpt>
      <trkpt lat="43.20693" lon="5.50071">
        <ele>90.02063</ele>
        <time>2013-04-07T05:33:15.000Z</time>
      </trkpt>
      <trkpt lat="43.20693" lon="5.50066">
        <ele>89.53992</ele>
        <time>2013-04-07T05:33:21.000Z</time>
      </trkpt>
      <trkpt lat="43.2069" lon="5.50063">
        <ele>89.53992</ele>
        <time>2013-04-07T05:33:25.000Z</time>
      </trkpt>
      <trkpt lat="43.20686" lon="5.50063">
        <ele>88.578735</ele>
        <time>2013-04-07T05:33:29.000Z</time>
      </trkpt>
      <trkpt lat="43.20679" lon="5.50062">
        <ele>84.252686</ele>
        <time>2013-04-07T05:33:35.000Z</time>
      </trkpt>
      <trkpt lat="43.20678" lon="5.50055">
        <ele>84.7334</ele>
        <time>2013-04-07T05:33:39.000Z</time>
      </trkpt>
      <trkpt lat="43.20674" lon="5.5005">
        <ele>83.29138</ele>
        <time>2013-04-07T05:33:44.000Z</time>
      </trkpt>
      <trkpt lat="43.20673" lon="5.50046">
        <ele>82.33008</ele>
        <time>2013-04-07T05:33:48.000Z</time>
      </trkpt>
      <trkpt lat="43.20667" lon="5.50038">
        <ele>81.368774</ele>
        <time>2013-04-07T05:33:52.000Z</time>
      </trkpt>
      <trkpt lat="43.20662" lon="5.50034">
        <ele>79.446045</ele>
        <time>2013-04-07T05:33:55.000Z</time>
      </trkpt>
      <trkpt lat="43.20662" lon="5.50031">
        <ele>78.00403</ele>
        <time>2013-04-07T05:33:57.000Z</time>
      </trkpt>
      <trkpt lat="43.20656" lon="5.50022">
        <ele>76.56213</ele>
        <time>2013-04-07T05:34:02.000Z</time>
      </trkpt>
      <trkpt lat="43.20656" lon="5.50019">
        <ele>76.08142</ele>
        <time>2013-04-07T05:34:04.000Z</time>
      </trkpt>
      <trkpt lat="43.20649" lon="5.50008">
        <ele>77.04285</ele>
        <time>2013-04-07T05:34:10.000Z</time>
      </trkpt>
      <trkpt lat="43.20644" lon="5.50005">
        <ele>76.56213</ele>
        <time>2013-04-07T05:34:16.000Z</time>
      </trkpt>
      <trkpt lat="43.20633" lon="5.49995">
        <ele>91.462524</ele>
        <time>2013-04-07T05:34:25.000Z</time>
      </trkpt>
      <trkpt lat="43.2063" lon="5.49988">
        <ele>90.02063</ele>
        <time>2013-04-07T05:34:30.000Z</time>
      </trkpt>
      <trkpt lat="43.20631" lon="5.49987">
        <ele>86.17529</ele>
        <time>2013-04-07T05:34:31.000Z</time>
      </trkpt>
      <trkpt lat="43.20637" lon="5.49981">
        <ele>71.75549</ele>
        <time>2013-04-07T05:34:35.000Z</time>
      </trkpt>
      <trkpt lat="43.20632" lon="5.49966">
        <ele>69.352295</ele>
        <time>2013-04-07T05:34:41.000Z</time>
      </trkpt>
      <trkpt lat="43.20631" lon="5.49954">
        <ele>56.37451</ele>
        <time>2013-04-07T05:34:46.000Z</time>
      </trkpt>
      <trkpt lat="43.20627" lon="5.49939">
        <ele>47.24182</ele>
        <time>2013-04-07T05:34:51.000Z</time>
      </trkpt>
      <trkpt lat="43.20622" lon="5.49929">
        <ele>40.032104</ele>
        <time>2013-04-07T05:34:55.000Z</time>
      </trkpt>
      <trkpt lat="43.20617" lon="5.49916">
        <ele>32.822266</ele>
        <time>2013-04-07T05:34:59.000Z</time>
      </trkpt>
      <trkpt lat="43.20617" lon="5.49914">
        <ele>30.899536</ele>
        <time>2013-04-07T05:35:00.000Z</time>
      </trkpt>
      <trkpt lat="43.20623" lon="5.49915">
        <ele>28.496216</ele>
        <time>2013-04-07T05:35:04.000Z</time>
      </trkpt>
      <trkpt lat="43.20629" lon="5.49916">
        <ele>29.93811</ele>
        <time>2013-04-07T05:35:07.000Z</time>
      </trkpt>
      <trkpt lat="43.20643" lon="5.49911">
        <ele>28.496216</ele>
        <time>2013-04-07T05:35:13.000Z</time>
      </trkpt>
      <trkpt lat="43.20655" lon="5.49902">
        <ele>28.976929</ele>
        <time>2013-04-07T05:35:19.000Z</time>
      </trkpt>
      <trkpt lat="43.20671" lon="5.4989">
        <ele>38.109375</ele>
        <time>2013-04-07T05:35:25.000Z</time>
      </trkpt>
      <trkpt lat="43.20676" lon="5.49879">
        <ele>40.512817</ele>
        <time>2013-04-07T05:35:29.000Z</time>
      </trkpt>
      <trkpt lat="43.20678" lon="5.49876">
        <ele>40.512817</ele>
        <time>2013-04-07T05:35:30.000Z</time>
      </trkpt>
      <trkpt lat="43.20688" lon="5.49861">
        <ele>41.474</ele>
        <time>2013-04-07T05:35:37.000Z</time>
      </trkpt>
      <trkpt lat="43.20704" lon="5.49853">
        <ele>50.606567</ele>
        <time>2013-04-07T05:35:43.000Z</time>
      </trkpt>
      <trkpt lat="43.20708" lon="5.49853">
        <ele>52.048584</ele>
        <time>2013-04-07T05:35:44.000Z</time>
      </trkpt>
      <trkpt lat="43.20713" lon="5.49847">
        <ele>56.37451</ele>
        <time>2013-04-07T05:35:49.000Z</time>
      </trkpt>
      <trkpt lat="43.20719" lon="5.4984">
        <ele>54.451782</ele>
        <time>2013-04-07T05:35:53.000Z</time>
      </trkpt>
      <trkpt lat="43.20727" lon="5.49833">
        <ele>51.08716</ele>
        <time>2013-04-07T05:35:59.000Z</time>
      </trkpt>
      <trkpt lat="43.20736" lon="5.49827">
        <ele>49.645264</ele>
        <time>2013-04-07T05:36:06.000Z</time>
      </trkpt>
      <trkpt lat="43.20739" lon="5.49823">
        <ele>50.125977</ele>
        <time>2013-04-07T05:36:10.000Z</time>
      </trkpt>
      <trkpt lat="43.20747" lon="5.49816">
        <ele>48.20337</ele>
        <time>2013-04-07T05:36:18.000Z</time>
      </trkpt>
      <trkpt lat="43.20748" lon="5.49812">
        <ele>53.97119</ele>
        <time>2013-04-07T05:36:22.000Z</time>
      </trkpt>
      <trkpt lat="43.20757" lon="5.49804">
        <ele>50.606567</ele>
        <time>2013-04-07T05:36:28.000Z</time>
      </trkpt>
      <trkpt lat="43.20761" lon="5.498">
        <ele>50.606567</ele>
        <time>2013-04-07T05:36:32.000Z</time>
      </trkpt>
      <trkpt lat="43.20766" lon="5.49798">
        <ele>48.68396</ele>
        <time>2013-04-07T05:36:35.000Z</time>
      </trkpt>
      <trkpt lat="43.20779" lon="5.49789">
        <ele>51.08716</ele>
        <time>2013-04-07T05:36:39.000Z</time>
      </trkpt>
      <trkpt lat="43.2079" lon="5.49776">
        <ele>51.08716</ele>
        <time>2013-04-07T05:36:45.000Z</time>
      </trkpt>
      <trkpt lat="43.20797" lon="5.49766">
        <ele>53.97119</ele>
        <time>2013-04-07T05:36:50.000Z</time>
      </trkpt>
      <trkpt lat="43.20811" lon="5.49756">
        <ele>57.81653</ele>
        <time>2013-04-07T05:36:56.000Z</time>
      </trkpt>
      <trkpt lat="43.20818" lon="5.49747">
        <ele>60.700317</ele>
        <time>2013-04-07T05:37:01.000Z</time>
      </trkpt>
      <trkpt lat="43.20826" lon="5.49741">
        <ele>78.48474</ele>
        <time>2013-04-07T05:37:07.000Z</time>
      </trkpt>
      <trkpt lat="43.20832" lon="5.49732">
        <ele>95.78845</ele>
        <time>2013-04-07T05:37:13.000Z</time>
      </trkpt>
      <trkpt lat="43.20836" lon="5.49728">
        <ele>93.865845</ele>
        <time>2013-04-07T05:37:15.000Z</time>
      </trkpt>
      <trkpt lat="43.20844" lon="5.49722">
        <ele>97.23047</ele>
        <time>2013-04-07T05:37:20.000Z</time>
      </trkpt>
      <trkpt lat="43.20851" lon="5.49715">
        <ele>105.40173</ele>
        <time>2013-04-07T05:37:25.000Z</time>
      </trkpt>
      <trkpt lat="43.20858" lon="5.4971">
        <ele>108.766235</ele>
        <time>2013-04-07T05:37:31.000Z</time>
      </trkpt>
      <trkpt lat="43.20866" lon="5.49708">
        <ele>111.169556</ele>
        <time>2013-04-07T05:37:35.000Z</time>
      </trkpt>
      <trkpt lat="43.20876" lon="5.49708">
        <ele>109.24695</ele>
        <time>2013-04-07T05:37:39.000Z</time>
      </trkpt>
      <trkpt lat="43.20887" lon="5.49706">
        <ele>103.95972</ele>
        <time>2013-04-07T05:37:42.000Z</time>
      </trkpt>
      <trkpt lat="43.209" lon="5.49707">
        <ele>98.191895</ele>
        <time>2013-04-07T05:37:48.000Z</time>
      </trkpt>
      <trkpt lat="43.20912" lon="5.49705">
        <ele>93.38513</ele>
        <time>2013-04-07T05:37:53.000Z</time>
      </trkpt>
      <trkpt lat="43.20915" lon="5.49704">
        <ele>91.94324</ele>
        <time>2013-04-07T05:37:54.000Z</time>
      </trkpt>
      <trkpt lat="43.20927" lon="5.49701">
        <ele>84.7334</ele>
        <time>2013-04-07T05:37:58.000Z</time>
      </trkpt>
      <trkpt lat="43.20938" lon="5.49698">
        <ele>77.04285</ele>
        <time>2013-04-07T05:38:02.000Z</time>
      </trkpt>
      <trkpt lat="43.20955" lon="5.49692">
        <ele>68.87158</ele>
        <time>2013-04-07T05:38:08.000Z</time>
      </trkpt>
      <trkpt lat="43.2096" lon="5.4969">
        <ele>65.98767</ele>
        <time>2013-04-07T05:38:10.000Z</time>
      </trkpt>
      <trkpt lat="43.2097" lon="5.4969">
        <ele>60.219727</ele>
        <time>2013-04-07T05:38:15.000Z</time>
      </trkpt>
      <trkpt lat="43.20972" lon="5.49693">
        <ele>69.352295</ele>
        <time>2013-04-07T05:38:19.000Z</time>
      </trkpt>
      <trkpt lat="43.2099" lon="5.49689">
        <ele>65.50708</ele>
        <time>2013-04-07T05:38:26.000Z</time>
      </trkpt>
      <trkpt lat="43.20995" lon="5.49688">
        <ele>65.02637</ele>
        <time>2013-04-07T05:38:28.000Z</time>
      </trkpt>
      <trkpt lat="43.20999" lon="5.49685">
        <ele>64.545654</ele>
        <time>2013-04-07T05:38:30.000Z</time>
      </trkpt>
      <trkpt lat="43.2101" lon="5.49679">
        <ele>63.103638</ele>
        <time>2013-04-07T05:38:35.000Z</time>
      </trkpt>
      <trkpt lat="43.21018" lon="5.49673">
        <ele>64.06506</ele>
        <time>2013-04-07T05:38:39.000Z</time>
      </trkpt>
      <trkpt lat="43.21025" lon="5.49667">
        <ele>65.98767</ele>
        <time>2013-04-07T05:38:43.000Z</time>
      </trkpt>
      <trkpt lat="43.21039" lon="5.49667">
        <ele>71.2749</ele>
        <time>2013-04-07T05:38:51.000Z</time>
      </trkpt>
      <trkpt lat="43.21049" lon="5.49673">
        <ele>83.29138</ele>
        <time>2013-04-07T05:38:57.000Z</time>
      </trkpt>
      <trkpt lat="43.21056" lon="5.49677">
        <ele>88.09802</ele>
        <time>2013-04-07T05:39:01.000Z</time>
      </trkpt>
      <trkpt lat="43.21064" lon="5.49684">
        <ele>94.34656</ele>
        <time>2013-04-07T05:39:06.000Z</time>
      </trkpt>
      <trkpt lat="43.21067" lon="5.49686">
        <ele>96.74988</ele>
        <time>2013-04-07T05:39:08.000Z</time>
      </trkpt>
      <trkpt lat="43.21077" lon="5.49692">
        <ele>99.153076</ele>
        <time>2013-04-07T05:39:15.000Z</time>
      </trkpt>
      <trkpt lat="43.21081" lon="5.49703">
        <ele>107.32434</ele>
        <time>2013-04-07T05:39:19.000Z</time>
      </trkpt>
      <trkpt lat="43.21091" lon="5.4971">
        <ele>109.24695</ele>
        <time>2013-04-07T05:39:23.000Z</time>
      </trkpt>
      <trkpt lat="43.21099" lon="5.49713">
        <ele>107.80505</ele>
        <time>2013-04-07T05:39:27.000Z</time>
      </trkpt>
      <trkpt lat="43.21118" lon="5.49712">
        <ele>93.38513</ele>
        <time>2013-04-07T05:39:33.000Z</time>
      </trkpt>
      <trkpt lat="43.21131" lon="5.49712">
        <ele>82.33008</ele>
        <time>2013-04-07T05:39:38.000Z</time>
      </trkpt>
      <trkpt lat="43.2114" lon="5.49707">
        <ele>75.60083</ele>
        <time>2013-04-07T05:39:43.000Z</time>
      </trkpt>
      <trkpt lat="43.21147" lon="5.49695">
        <ele>77.04285</ele>
        <time>2013-04-07T05:39:49.000Z</time>
      </trkpt>
      <trkpt lat="43.21159" lon="5.49686">
        <ele>84.7334</ele>
        <time>2013-04-07T05:39:54.000Z</time>
      </trkpt>
      <trkpt lat="43.21168" lon="5.49678">
        <ele>90.98193</ele>
        <time>2013-04-07T05:39:59.000Z</time>
      </trkpt>
      <trkpt lat="43.21169" lon="5.49672">
        <ele>89.53992</ele>
        <time>2013-04-07T05:40:02.000Z</time>
      </trkpt>
      <trkpt lat="43.21168" lon="5.49669">
        <ele>89.53992</ele>
        <time>2013-04-07T05:40:04.000Z</time>
      </trkpt>
      <trkpt lat="43.21158" lon="5.49666">
        <ele>88.578735</ele>
        <time>2013-04-07T05:40:10.000Z</time>
      </trkpt>
      <trkpt lat="43.21154" lon="5.49662">
        <ele>90.98193</ele>
        <time>2013-04-07T05:40:13.000Z</time>
      </trkpt>
      <trkpt lat="43.21148" lon="5.49656">
        <ele>97.71118</ele>
        <time>2013-04-07T05:40:17.000Z</time>
      </trkpt>
      <trkpt lat="43.21143" lon="5.49651">
        <ele>107.32434</ele>
        <time>2013-04-07T05:40:22.000Z</time>
      </trkpt>
      <trkpt lat="43.21138" lon="5.49646">
        <ele>113.573</ele>
        <time>2013-04-07T05:40:25.000Z</time>
      </trkpt>
      <trkpt lat="43.21137" lon="5.49643">
        <ele>116.45679</ele>
        <time>2013-04-07T05:40:29.000Z</time>
      </trkpt>
      <trkpt lat="43.21135" lon="5.49635">
        <ele>119.34082</ele>
        <time>2013-04-07T05:40:34.000Z</time>
      </trkpt>
      <trkpt lat="43.21134" lon="5.49626">
        <ele>118.379395</ele>
        <time>2013-04-07T05:40:40.000Z</time>
      </trkpt>
      <trkpt lat="43.21131" lon="5.4962">
        <ele>114.05359</ele>
        <time>2013-04-07T05:40:43.000Z</time>
      </trkpt>
      <trkpt lat="43.21132" lon="5.49615">
        <ele>114.05359</ele>
        <time>2013-04-07T05:40:46.000Z</time>
      </trkpt>
      <trkpt lat="43.21135" lon="5.49604">
        <ele>105.88245</ele>
        <time>2013-04-07T05:40:52.000Z</time>
      </trkpt>
      <trkpt lat="43.21137" lon="5.49596">
        <ele>99.153076</ele>
        <time>2013-04-07T05:40:57.000Z</time>
      </trkpt>
      <trkpt lat="43.2114" lon="5.49591">
        <ele>98.191895</ele>
        <time>2013-04-07T05:41:02.000Z</time>
      </trkpt>
      <trkpt lat="43.2114" lon="5.4959">
        <ele>97.23047</ele>
        <time>2013-04-07T05:41:03.000Z</time>
      </trkpt>
      <trkpt lat="43.2114" lon="5.4958">
        <ele>94.82715</ele>
        <time>2013-04-07T05:41:08.000Z</time>
      </trkpt>
      <trkpt lat="43.21141" lon="5.49575">
        <ele>95.30774</ele>
        <time>2013-04-07T05:41:12.000Z</time>
      </trkpt>
      <trkpt lat="43.21139" lon="5.4957">
        <ele>95.30774</ele>
        <time>2013-04-07T05:41:15.000Z</time>
      </trkpt>
      <trkpt lat="43.21136" lon="5.49568">
        <ele>96.74988</ele>
        <time>2013-04-07T05:41:18.000Z</time>
      </trkpt>
      <trkpt lat="43.21133" lon="5.49565">
        <ele>99.153076</ele>
        <time>2013-04-07T05:41:22.000Z</time>
      </trkpt>
      <trkpt lat="43.21131" lon="5.49561">
        <ele>100.59509</ele>
        <time>2013-04-07T05:41:25.000Z</time>
      </trkpt>
      <trkpt lat="43.21129" lon="5.49558">
        <ele>100.59509</ele>
        <time>2013-04-07T05:41:27.000Z</time>
      </trkpt>
      <trkpt lat="43.21126" lon="5.49554">
        <ele>102.03711</ele>
        <time>2013-04-07T05:41:31.000Z</time>
      </trkpt>
      <trkpt lat="43.21124" lon="5.49552">
        <ele>105.88245</ele>
        <time>2013-04-07T05:41:34.000Z</time>
      </trkpt>
      <trkpt lat="43.2112" lon="5.49544">
        <ele>108.285645</ele>
        <time>2013-04-07T05:41:39.000Z</time>
      </trkpt>
      <trkpt lat="43.21117" lon="5.49534">
        <ele>108.766235</ele>
        <time>2013-04-07T05:41:44.000Z</time>
      </trkpt>
      <trkpt lat="43.21117" lon="5.49527">
        <ele>109.72766</ele>
        <time>2013-04-07T05:41:48.000Z</time>
      </trkpt>
      <trkpt lat="43.21116" lon="5.4951">
        <ele>110.20825</ele>
        <time>2013-04-07T05:41:57.000Z</time>
      </trkpt>
      <trkpt lat="43.21118" lon="5.49507">
        <ele>110.68884</ele>
        <time>2013-04-07T05:41:59.000Z</time>
      </trkpt>
      <trkpt lat="43.21118" lon="5.495">
        <ele>110.20825</ele>
        <time>2013-04-07T05:42:03.000Z</time>
      </trkpt>
      <trkpt lat="43.2112" lon="5.49494">
        <ele>109.72766</ele>
        <time>2013-04-07T05:42:07.000Z</time>
      </trkpt>
      <trkpt lat="43.21125" lon="5.49482">
        <ele>111.65027</ele>
        <time>2013-04-07T05:42:14.000Z</time>
      </trkpt>
      <trkpt lat="43.21125" lon="5.4948">
        <ele>112.13098</ele>
        <time>2013-04-07T05:42:15.000Z</time>
      </trkpt>
      <trkpt lat="43.21126" lon="5.49479">
        <ele>114.05359</ele>
        <time>2013-04-07T05:42:17.000Z</time>
      </trkpt>
      <trkpt lat="43.21126" lon="5.4947">
        <ele>116.9375</ele>
        <time>2013-04-07T05:42:23.000Z</time>
      </trkpt>
      <trkpt lat="43.21126" lon="5.49463">
        <ele>117.8988</ele>
        <time>2013-04-07T05:42:26.000Z</time>
      </trkpt>
      <trkpt lat="43.21124" lon="5.4945">
        <ele>118.86011</ele>
        <time>2013-04-07T05:42:32.000Z</time>
      </trkpt>
      <trkpt lat="43.21123" lon="5.49437">
        <ele>120.302124</ele>
        <time>2013-04-07T05:42:37.000Z</time>
      </trkpt>
      <trkpt lat="43.21122" lon="5.49429">
        <ele>121.26355</ele>
        <time>2013-04-07T05:42:41.000Z</time>
      </trkpt>
      <trkpt lat="43.21115" lon="5.49412">
        <ele>123.18616</ele>
        <time>2013-04-07T05:42:48.000Z</time>
      </trkpt>
      <trkpt lat="43.21109" lon="5.49402">
        <ele>126.06995</ele>
        <time>2013-04-07T05:42:53.000Z</time>
      </trkpt>
      <trkpt lat="43.21106" lon="5.49392">
        <ele>127.03137</ele>
        <time>2013-04-07T05:42:57.000Z</time>
      </trkpt>
      <trkpt lat="43.21104" lon="5.49387">
        <ele>127.99255</ele>
        <time>2013-04-07T05:42:59.000Z</time>
      </trkpt>
      <trkpt lat="43.21101" lon="5.49376">
        <ele>128.9541</ele>
        <time>2013-04-07T05:43:05.000Z</time>
      </trkpt>
      <trkpt lat="43.211" lon="5.49372">
        <ele>129.91528</ele>
        <time>2013-04-07T05:43:07.000Z</time>
      </trkpt>
      <trkpt lat="43.21096" lon="5.49362">
        <ele>131.3573</ele>
        <time>2013-04-07T05:43:12.000Z</time>
      </trkpt>
      <trkpt lat="43.21093" lon="5.49352">
        <ele>132.3186</ele>
        <time>2013-04-07T05:43:18.000Z</time>
      </trkpt>
      <trkpt lat="43.21091" lon="5.49342">
        <ele>132.79932</ele>
        <time>2013-04-07T05:43:24.000Z</time>
      </trkpt>
      <trkpt lat="43.21091" lon="5.49341">
        <ele>132.79932</ele>
        <time>2013-04-07T05:43:25.000Z</time>
      </trkpt>
      <trkpt lat="43.2109" lon="5.49338">
        <ele>132.79932</ele>
        <time>2013-04-07T05:43:27.000Z</time>
      </trkpt>
      <trkpt lat="43.21088" lon="5.49325">
        <ele>132.79932</ele>
        <time>2013-04-07T05:43:35.000Z</time>
      </trkpt>
      <trkpt lat="43.21086" lon="5.49316">
        <ele>134.72192</ele>
        <time>2013-04-07T05:43:39.000Z</time>
      </trkpt>
      <trkpt lat="43.21083" lon="5.49303">
        <ele>135.20251</ele>
        <time>2013-04-07T05:43:45.000Z</time>
      </trkpt>
      <trkpt lat="43.21082" lon="5.49292">
        <ele>135.6831</ele>
        <time>2013-04-07T05:43:50.000Z</time>
      </trkpt>
      <trkpt lat="43.2108" lon="5.49284">
        <ele>136.64465</ele>
        <time>2013-04-07T05:43:54.000Z</time>
      </trkpt>
      <trkpt lat="43.21077" lon="5.49273">
        <ele>137.12524</ele>
        <time>2013-04-07T05:44:00.000Z</time>
      </trkpt>
      <trkpt lat="43.21075" lon="5.49265">
        <ele>136.16394</ele>
        <time>2013-04-07T05:44:04.000Z</time>
      </trkpt>
      <trkpt lat="43.21074" lon="5.49263">
        <ele>136.64465</ele>
        <time>2013-04-07T05:44:05.000Z</time>
      </trkpt>
      <trkpt lat="43.21071" lon="5.49248">
        <ele>137.12524</ele>
        <time>2013-04-07T05:44:11.000Z</time>
      </trkpt>
      <trkpt lat="43.21069" lon="5.49233">
        <ele>138.56726</ele>
        <time>2013-04-07T05:44:17.000Z</time>
      </trkpt>
      <trkpt lat="43.2107" lon="5.49227">
        <ele>139.52844</ele>
        <time>2013-04-07T05:44:20.000Z</time>
      </trkpt>
      <trkpt lat="43.21071" lon="5.49219">
        <ele>138.56726</ele>
        <time>2013-04-07T05:44:26.000Z</time>
      </trkpt>
      <trkpt lat="43.21075" lon="5.4921">
        <ele>139.04785</ele>
        <time>2013-04-07T05:44:32.000Z</time>
      </trkpt>
      <trkpt lat="43.2108" lon="5.49202">
        <ele>139.04785</ele>
        <time>2013-04-07T05:44:37.000Z</time>
      </trkpt>
      <trkpt lat="43.21086" lon="5.49189">
        <ele>140.48987</ele>
        <time>2013-04-07T05:44:43.000Z</time>
      </trkpt>
      <trkpt lat="43.21091" lon="5.49182">
        <ele>141.45105</ele>
        <time>2013-04-07T05:44:47.000Z</time>
      </trkpt>
      <trkpt lat="43.21093" lon="5.49181">
        <ele>142.41248</ele>
        <time>2013-04-07T05:44:48.000Z</time>
      </trkpt>
      <trkpt lat="43.21097" lon="5.49176">
        <ele>142.89307</ele>
        <time>2013-04-07T05:44:51.000Z</time>
      </trkpt>
      <trkpt lat="43.21106" lon="5.49167">
        <ele>144.3352</ele>
        <time>2013-04-07T05:44:57.000Z</time>
      </trkpt>
      <trkpt lat="43.21111" lon="5.49157">
        <ele>145.7771</ele>
        <time>2013-04-07T05:45:02.000Z</time>
      </trkpt>
      <trkpt lat="43.21116" lon="5.49151">
        <ele>146.25781</ele>
        <time>2013-04-07T05:45:06.000Z</time>
      </trkpt>
      <trkpt lat="43.21123" lon="5.49142">
        <ele>148.66101</ele>
        <time>2013-04-07T05:45:12.000Z</time>
      </trkpt>
      <trkpt lat="43.21129" lon="5.49132">
        <ele>150.10303</ele>
        <time>2013-04-07T05:45:17.000Z</time>
      </trkpt>
      <trkpt lat="43.21135" lon="5.49125">
        <ele>151.54492</ele>
        <time>2013-04-07T05:45:21.000Z</time>
      </trkpt>
      <trkpt lat="43.21139" lon="5.49118">
        <ele>152.98694</ele>
        <time>2013-04-07T05:45:25.000Z</time>
      </trkpt>
      <trkpt lat="43.21138" lon="5.49111">
        <ele>154.90955</ele>
        <time>2013-04-07T05:45:29.000Z</time>
      </trkpt>
      <trkpt lat="43.21135" lon="5.49109">
        <ele>156.83215</ele>
        <time>2013-04-07T05:45:31.000Z</time>
      </trkpt>
      <trkpt lat="43.21122" lon="5.49109">
        <ele>161.1582</ele>
        <time>2013-04-07T05:45:38.000Z</time>
      </trkpt>
      <trkpt lat="43.21111" lon="5.49109">
        <ele>163.56152</ele>
        <time>2013-04-07T05:45:44.000Z</time>
      </trkpt>
      <trkpt lat="43.21109" lon="5.4911">
        <ele>164.04211</ele>
        <time>2013-04-07T05:45:45.000Z</time>
      </trkpt>
      <trkpt lat="43.211" lon="5.4911">
        <ele>164.5227</ele>
        <time>2013-04-07T05:45:50.000Z</time>
      </trkpt>
      <trkpt lat="43.21093" lon="5.49111">
        <ele>165.48413</ele>
        <time>2013-04-07T05:45:54.000Z</time>
      </trkpt>
      <trkpt lat="43.21087" lon="5.49112">
        <ele>166.44531</ele>
        <time>2013-04-07T05:45:58.000Z</time>
      </trkpt>
      <trkpt lat="43.21077" lon="5.4911">
        <ele>167.40674</ele>
        <time>2013-04-07T05:46:03.000Z</time>
      </trkpt>
      <trkpt lat="43.21066" lon="5.49112">
        <ele>168.84875</ele>
        <time>2013-04-07T05:46:09.000Z</time>
      </trkpt>
      <trkpt lat="43.21057" lon="5.49113">
        <ele>168.84875</ele>
        <time>2013-04-07T05:46:14.000Z</time>
      </trkpt>
      <trkpt lat="43.21056" lon="5.49115">
        <ele>168.84875</ele>
        <time>2013-04-07T05:46:15.000Z</time>
      </trkpt>
      <trkpt lat="43.21048" lon="5.49117">
        <ele>169.32947</ele>
        <time>2013-04-07T05:46:19.000Z</time>
      </trkpt>
      <trkpt lat="43.21038" lon="5.49123">
        <ele>171.73267</ele>
        <time>2013-04-07T05:46:24.000Z</time>
      </trkpt>
      <trkpt lat="43.21026" lon="5.49128">
        <ele>172.69397</ele>
        <time>2013-04-07T05:46:30.000Z</time>
      </trkpt>
      <trkpt lat="43.21015" lon="5.49131">
        <ele>172.69397</ele>
        <time>2013-04-07T05:46:36.000Z</time>
      </trkpt>
      <trkpt lat="43.21006" lon="5.49126">
        <ele>173.65527</ele>
        <time>2013-04-07T05:46:41.000Z</time>
      </trkpt>
      <trkpt lat="43.21007" lon="5.49118">
        <ele>172.69397</ele>
        <time>2013-04-07T05:46:43.000Z</time>
      </trkpt>
      <trkpt lat="43.21013" lon="5.49097">
        <ele>170.77136</ele>
        <time>2013-04-07T05:46:49.000Z</time>
      </trkpt>
      <trkpt lat="43.21017" lon="5.4908">
        <ele>169.81006</ele>
        <time>2013-04-07T05:46:54.000Z</time>
      </trkpt>
      <trkpt lat="43.21022" lon="5.49063">
        <ele>167.40674</ele>
        <time>2013-04-07T05:46:59.000Z</time>
      </trkpt>
      <trkpt lat="43.21028" lon="5.49037">
        <ele>164.04211</ele>
        <time>2013-04-07T05:47:07.000Z</time>
      </trkpt>
      <trkpt lat="43.21035" lon="5.49024">
        <ele>163.08081</ele>
        <time>2013-04-07T05:47:11.000Z</time>
      </trkpt>
      <trkpt lat="43.21044" lon="5.49011">
        <ele>161.1582</ele>
        <time>2013-04-07T05:47:15.000Z</time>
      </trkpt>
      <trkpt lat="43.21052" lon="5.48995">
        <ele>158.75476</ele>
        <time>2013-04-07T05:47:20.000Z</time>
      </trkpt>
      <trkpt lat="43.21061" lon="5.48969">
        <ele>157.79358</ele>
        <time>2013-04-07T05:47:27.000Z</time>
      </trkpt>
      <trkpt lat="43.21066" lon="5.48956">
        <ele>157.79358</ele>
        <time>2013-04-07T05:47:31.000Z</time>
      </trkpt>
      <trkpt lat="43.21071" lon="5.4894">
        <ele>158.27417</ele>
        <time>2013-04-07T05:47:36.000Z</time>
      </trkpt>
      <trkpt lat="43.21074" lon="5.48918">
        <ele>159.23547</ele>
        <time>2013-04-07T05:47:42.000Z</time>
      </trkpt>
      <trkpt lat="43.21075" lon="5.48901">
        <ele>160.1969</ele>
        <time>2013-04-07T05:47:47.000Z</time>
      </trkpt>
      <trkpt lat="43.21067" lon="5.48889">
        <ele>159.23547</ele>
        <time>2013-04-07T05:47:52.000Z</time>
      </trkpt>
      <trkpt lat="43.21052" lon="5.48884">
        <ele>156.83215</ele>
        <time>2013-04-07T05:47:56.000Z</time>
      </trkpt>
      <trkpt lat="43.21048" lon="5.48878">
        <ele>154.90955</ele>
        <time>2013-04-07T05:47:58.000Z</time>
      </trkpt>
      <trkpt lat="43.21051" lon="5.48855">
        <ele>149.62231</ele>
        <time>2013-04-07T05:48:02.000Z</time>
      </trkpt>
      <trkpt lat="43.21059" lon="5.4884">
        <ele>147.219</ele>
        <time>2013-04-07T05:48:06.000Z</time>
      </trkpt>
      <trkpt lat="43.21064" lon="5.48836">
        <ele>145.7771</ele>
        <time>2013-04-07T05:48:08.000Z</time>
      </trkpt>
      <trkpt lat="43.21077" lon="5.48823">
        <ele>142.41248</ele>
        <time>2013-04-07T05:48:13.000Z</time>
      </trkpt>
      <trkpt lat="43.21089" lon="5.4881">
        <ele>139.04785</ele>
        <time>2013-04-07T05:48:18.000Z</time>
      </trkpt>
      <trkpt lat="43.21102" lon="5.48805">
        <ele>137.12524</ele>
        <time>2013-04-07T05:48:22.000Z</time>
      </trkpt>
      <trkpt lat="43.2111" lon="5.48794">
        <ele>136.16394</ele>
        <time>2013-04-07T05:48:26.000Z</time>
      </trkpt>
      <trkpt lat="43.21111" lon="5.48791">
        <ele>136.16394</ele>
        <time>2013-04-07T05:48:27.000Z</time>
      </trkpt>
      <trkpt lat="43.21099" lon="5.48784">
        <ele>139.04785</ele>
        <time>2013-04-07T05:48:31.000Z</time>
      </trkpt>
      <trkpt lat="43.21088" lon="5.48788">
        <ele>140.48987</ele>
        <time>2013-04-07T05:48:35.000Z</time>
      </trkpt>
      <trkpt lat="43.21086" lon="5.48789">
        <ele>140.97046</ele>
        <time>2013-04-07T05:48:36.000Z</time>
      </trkpt>
      <trkpt lat="43.21081" lon="5.4879">
        <ele>145.29639</ele>
        <time>2013-04-07T05:48:42.000Z</time>
      </trkpt>
      <trkpt lat="43.21078" lon="5.48789">
        <ele>148.66101</ele>
        <time>2013-04-07T05:48:46.000Z</time>
      </trkpt>
      <trkpt lat="43.21079" lon="5.4879">
        <ele>145.29639</ele>
        <time>2013-04-07T05:49:02.000Z</time>
      </trkpt>
      <trkpt lat="43.21079" lon="5.48789">
        <ele>145.29639</ele>
        <time>2013-04-07T05:49:07.000Z</time>
      </trkpt>
      <trkpt lat="43.2108" lon="5.4879">
        <ele>143.37366</ele>
        <time>2013-04-07T05:49:18.000Z</time>
      </trkpt>
      <trkpt lat="43.2108" lon="5.48789">
        <ele>142.41248</ele>
        <time>2013-04-07T05:49:23.000Z</time>
      </trkpt>
      <trkpt lat="43.21081" lon="5.48791">
        <ele>142.41248</ele>
        <time>2013-04-07T05:49:43.000Z</time>
      </trkpt>
      <trkpt lat="43.21082" lon="5.48792">
        <ele>145.7771</ele>
        <time>2013-04-07T05:49:52.000Z</time>
      </trkpt>
      <trkpt lat="43.21079" lon="5.48792">
        <ele>144.8158</ele>
        <time>2013-04-07T05:50:00.000Z</time>
      </trkpt>
      <trkpt lat="43.21077" lon="5.48793">
        <ele>144.3352</ele>
        <time>2013-04-07T05:50:05.000Z</time>
      </trkpt>
      <trkpt lat="43.21074" lon="5.48793">
        <ele>145.29639</ele>
        <time>2013-04-07T05:50:09.000Z</time>
      </trkpt>
      <trkpt lat="43.21066" lon="5.48792">
        <ele>142.89307</ele>
        <time>2013-04-07T05:50:15.000Z</time>
      </trkpt>
      <trkpt lat="43.21063" lon="5.48795">
        <ele>140.97046</ele>
        <time>2013-04-07T05:50:17.000Z</time>
      </trkpt>
      <trkpt lat="43.21054" lon="5.48798">
        <ele>140.48987</ele>
        <time>2013-04-07T05:50:21.000Z</time>
      </trkpt>
      <trkpt lat="43.21046" lon="5.48804">
        <ele>140.00916</ele>
        <time>2013-04-07T05:50:25.000Z</time>
      </trkpt>
      <trkpt lat="43.21041" lon="5.48811">
        <ele>138.56726</ele>
        <time>2013-04-07T05:50:28.000Z</time>
      </trkpt>
      <trkpt lat="43.21031" lon="5.4882">
        <ele>139.04785</ele>
        <time>2013-04-07T05:50:33.000Z</time>
      </trkpt>
      <trkpt lat="43.21029" lon="5.48821">
        <ele>139.52844</ele>
        <time>2013-04-07T05:50:34.000Z</time>
      </trkpt>
      <trkpt lat="43.21021" lon="5.48839">
        <ele>137.60583</ele>
        <time>2013-04-07T05:50:40.000Z</time>
      </trkpt>
      <trkpt lat="43.21015" lon="5.48853">
        <ele>137.60583</ele>
        <time>2013-04-07T05:50:44.000Z</time>
      </trkpt>
      <trkpt lat="43.21013" lon="5.48856">
        <ele>138.08655</ele>
        <time>2013-04-07T05:50:45.000Z</time>
      </trkpt>
      <trkpt lat="43.20999" lon="5.48875">
        <ele>138.56726</ele>
        <time>2013-04-07T05:50:51.000Z</time>
      </trkpt>
      <trkpt lat="43.20997" lon="5.48877">
        <ele>138.08655</ele>
        <time>2013-04-07T05:50:52.000Z</time>
      </trkpt>
      <trkpt lat="43.21002" lon="5.48894">
        <ele>133.2799</ele>
        <time>2013-04-07T05:50:57.000Z</time>
      </trkpt>
      <trkpt lat="43.2101" lon="5.48906">
        <ele>130.87671</ele>
        <time>2013-04-07T05:51:02.000Z</time>
      </trkpt>
      <trkpt lat="43.21017" lon="5.48913">
        <ele>130.87671</ele>
        <time>2013-04-07T05:51:06.000Z</time>
      </trkpt>
      <trkpt lat="43.21017" lon="5.48927">
        <ele>137.12524</ele>
        <time>2013-04-07T05:51:10.000Z</time>
      </trkpt>
      <trkpt lat="43.21013" lon="5.48935">
        <ele>137.12524</ele>
        <time>2013-04-07T05:51:13.000Z</time>
      </trkpt>
      <trkpt lat="43.20997" lon="5.48948">
        <ele>139.04785</ele>
        <time>2013-04-07T05:51:19.000Z</time>
      </trkpt>
      <trkpt lat="43.20993" lon="5.48948">
        <ele>136.64465</ele>
        <time>2013-04-07T05:51:21.000Z</time>
      </trkpt>
      <trkpt lat="43.20988" lon="5.4894">
        <ele>129.91528</ele>
        <time>2013-04-07T05:51:25.000Z</time>
      </trkpt>
      <trkpt lat="43.20986" lon="5.48937">
        <ele>129.91528</ele>
        <time>2013-04-07T05:51:27.000Z</time>
      </trkpt>
      <trkpt lat="43.20974" lon="5.48929">
        <ele>127.51196</ele>
        <time>2013-04-07T05:51:33.000Z</time>
      </trkpt>
      <trkpt lat="43.20971" lon="5.48928">
        <ele>127.51196</ele>
        <time>2013-04-07T05:51:34.000Z</time>
      </trkpt>
      <trkpt lat="43.20958" lon="5.48936">
        <ele>126.06995</ele>
        <time>2013-04-07T05:51:40.000Z</time>
      </trkpt>
      <trkpt lat="43.20953" lon="5.48952">
        <ele>126.55066</ele>
        <time>2013-04-07T05:51:45.000Z</time>
      </trkpt>
      <trkpt lat="43.20951" lon="5.48956">
        <ele>126.55066</ele>
        <time>2013-04-07T05:51:46.000Z</time>
      </trkpt>
      <trkpt lat="43.20948" lon="5.48968">
        <ele>126.06995</ele>
        <time>2013-04-07T05:51:50.000Z</time>
      </trkpt>
      <trkpt lat="43.20945" lon="5.48981">
        <ele>124.62805</ele>
        <time>2013-04-07T05:51:54.000Z</time>
      </trkpt>
      <trkpt lat="43.20943" lon="5.48987">
        <ele>123.18616</ele>
        <time>2013-04-07T05:51:56.000Z</time>
      </trkpt>
      <trkpt lat="43.20938" lon="5.49003">
        <ele>121.74414</ele>
        <time>2013-04-07T05:52:02.000Z</time>
      </trkpt>
      <trkpt lat="43.20932" lon="5.49013">
        <ele>120.78284</ele>
        <time>2013-04-07T05:52:06.000Z</time>
      </trkpt>
      <trkpt lat="43.2092" lon="5.49015">
        <ele>118.379395</ele>
        <time>2013-04-07T05:52:10.000Z</time>
      </trkpt>
      <trkpt lat="43.20906" lon="5.4901">
        <ele>118.379395</ele>
        <time>2013-04-07T05:52:16.000Z</time>
      </trkpt>
      <trkpt lat="43.20896" lon="5.49004">
        <ele>115.495605</ele>
        <time>2013-04-07T05:52:21.000Z</time>
      </trkpt>
      <trkpt lat="43.20888" lon="5.48999">
        <ele>115.01489</ele>
        <time>2013-04-07T05:52:24.000Z</time>
      </trkpt>
      <trkpt lat="43.20882" lon="5.49003">
        <ele>114.05359</ele>
        <time>2013-04-07T05:52:28.000Z</time>
      </trkpt>
      <trkpt lat="43.20887" lon="5.49024">
        <ele>111.169556</ele>
        <time>2013-04-07T05:52:33.000Z</time>
      </trkpt>
      <trkpt lat="43.20888" lon="5.49028">
        <ele>110.68884</ele>
        <time>2013-04-07T05:52:34.000Z</time>
      </trkpt>
      <trkpt lat="43.20892" lon="5.49046">
        <ele>110.20825</ele>
        <time>2013-04-07T05:52:39.000Z</time>
      </trkpt>
      <trkpt lat="43.20892" lon="5.49061">
        <ele>111.65027</ele>
        <time>2013-04-07T05:52:43.000Z</time>
      </trkpt>
      <trkpt lat="43.20891" lon="5.49071">
        <ele>113.092285</ele>
        <time>2013-04-07T05:52:46.000Z</time>
      </trkpt>
      <trkpt lat="43.20888" lon="5.49087">
        <ele>114.53418</ele>
        <time>2013-04-07T05:52:51.000Z</time>
      </trkpt>
      <trkpt lat="43.20884" lon="5.49091">
        <ele>112.61157</ele>
        <time>2013-04-07T05:52:53.000Z</time>
      </trkpt>
      <trkpt lat="43.20873" lon="5.49097">
        <ele>108.766235</ele>
        <time>2013-04-07T05:52:58.000Z</time>
      </trkpt>
      <trkpt lat="43.20866" lon="5.49106">
        <ele>107.32434</ele>
        <time>2013-04-07T05:53:01.000Z</time>
      </trkpt>
      <trkpt lat="43.20856" lon="5.49121">
        <ele>103.479004</ele>
        <time>2013-04-07T05:53:05.000Z</time>
      </trkpt>
      <trkpt lat="43.20851" lon="5.49129">
        <ele>101.07568</ele>
        <time>2013-04-07T05:53:08.000Z</time>
      </trkpt>
      <trkpt lat="43.20849" lon="5.49132">
        <ele>100.1145</ele>
        <time>2013-04-07T05:53:09.000Z</time>
      </trkpt>
      <trkpt lat="43.20837" lon="5.49133">
        <ele>94.82715</ele>
        <time>2013-04-07T05:53:14.000Z</time>
      </trkpt>
      <trkpt lat="43.20829" lon="5.49125">
        <ele>94.82715</ele>
        <time>2013-04-07T05:53:17.000Z</time>
      </trkpt>
      <trkpt lat="43.20817" lon="5.49114">
        <ele>96.26929</ele>
        <time>2013-04-07T05:53:22.000Z</time>
      </trkpt>
      <trkpt lat="43.20805" lon="5.49107">
        <ele>97.23047</ele>
        <time>2013-04-07T05:53:27.000Z</time>
      </trkpt>
      <trkpt lat="43.20801" lon="5.49108">
        <ele>95.78845</ele>
        <time>2013-04-07T05:53:29.000Z</time>
      </trkpt>
      <trkpt lat="43.20791" lon="5.49117">
        <ele>94.34656</ele>
        <time>2013-04-07T05:53:34.000Z</time>
      </trkpt>
      <trkpt lat="43.2078" lon="5.49138">
        <ele>91.94324</ele>
        <time>2013-04-07T05:53:40.000Z</time>
      </trkpt>
      <trkpt lat="43.20768" lon="5.49142">
        <ele>90.98193</ele>
        <time>2013-04-07T05:53:45.000Z</time>
      </trkpt>
      <trkpt lat="43.20755" lon="5.49139">
        <ele>92.90454</ele>
        <time>2013-04-07T05:53:50.000Z</time>
      </trkpt>
      <trkpt lat="43.20748" lon="5.49133">
        <ele>92.90454</ele>
        <time>2013-04-07T05:53:53.000Z</time>
      </trkpt>
      <trkpt lat="43.20735" lon="5.49137">
        <ele>92.42395</ele>
        <time>2013-04-07T05:53:59.000Z</time>
      </trkpt>
      <trkpt lat="43.20727" lon="5.49147">
        <ele>91.94324</ele>
        <time>2013-04-07T05:54:03.000Z</time>
      </trkpt>
      <trkpt lat="43.20722" lon="5.49152">
        <ele>92.42395</ele>
        <time>2013-04-07T05:54:05.000Z</time>
      </trkpt>
      <trkpt lat="43.20716" lon="5.49155">
        <ele>92.90454</ele>
        <time>2013-04-07T05:54:08.000Z</time>
      </trkpt>
      <trkpt lat="43.20709" lon="5.49161">
        <ele>93.865845</ele>
        <time>2013-04-07T05:54:12.000Z</time>
      </trkpt>
      <trkpt lat="43.20687" lon="5.49166">
        <ele>104.44043</ele>
        <time>2013-04-07T05:54:18.000Z</time>
      </trkpt>
      <trkpt lat="43.20675" lon="5.49167">
        <ele>109.72766</ele>
        <time>2013-04-07T05:54:22.000Z</time>
      </trkpt>
      <trkpt lat="43.20666" lon="5.49164">
        <ele>109.72766</ele>
        <time>2013-04-07T05:54:26.000Z</time>
      </trkpt>
      <trkpt lat="43.20659" lon="5.49153">
        <ele>105.88245</ele>
        <time>2013-04-07T05:54:30.000Z</time>
      </trkpt>
      <trkpt lat="43.20654" lon="5.49144">
        <ele>101.07568</ele>
        <time>2013-04-07T05:54:34.000Z</time>
      </trkpt>
      <trkpt lat="43.20644" lon="5.49144">
        <ele>96.74988</ele>
        <time>2013-04-07T05:54:39.000Z</time>
      </trkpt>
      <trkpt lat="43.20636" lon="5.49151">
        <ele>92.42395</ele>
        <time>2013-04-07T05:54:43.000Z</time>
      </trkpt>
      <trkpt lat="43.20621" lon="5.49156">
        <ele>93.865845</ele>
        <time>2013-04-07T05:54:49.000Z</time>
      </trkpt>
      <trkpt lat="43.20612" lon="5.49151">
        <ele>90.50134</ele>
        <time>2013-04-07T05:54:53.000Z</time>
      </trkpt>
      <trkpt lat="43.20604" lon="5.49148">
        <ele>88.578735</ele>
        <time>2013-04-07T05:54:57.000Z</time>
      </trkpt>
      <trkpt lat="43.20597" lon="5.49143">
        <ele>87.1366</ele>
        <time>2013-04-07T05:55:01.000Z</time>
      </trkpt>
      <trkpt lat="43.20592" lon="5.4915">
        <ele>90.98193</ele>
        <time>2013-04-07T05:55:06.000Z</time>
      </trkpt>
      <trkpt lat="43.20592" lon="5.49161">
        <ele>97.71118</ele>
        <time>2013-04-07T05:55:10.000Z</time>
      </trkpt>
      <trkpt lat="43.20591" lon="5.49162">
        <ele>91.462524</ele>
        <time>2013-04-07T05:55:13.000Z</time>
      </trkpt>
      <trkpt lat="43.20588" lon="5.49164">
        <ele>88.09802</ele>
        <time>2013-04-07T05:55:16.000Z</time>
      </trkpt>
      <trkpt lat="43.20583" lon="5.49168">
        <ele>82.81079</ele>
        <time>2013-04-07T05:55:20.000Z</time>
      </trkpt>
      <trkpt lat="43.20576" lon="5.49166">
        <ele>83.77197</ele>
        <time>2013-04-07T05:55:24.000Z</time>
      </trkpt>
      <trkpt lat="43.2057" lon="5.49165">
        <ele>81.849365</ele>
        <time>2013-04-07T05:55:28.000Z</time>
      </trkpt>
      <trkpt lat="43.20562" lon="5.49158">
        <ele>74.15881</ele>
        <time>2013-04-07T05:55:34.000Z</time>
      </trkpt>
      <trkpt lat="43.20553" lon="5.49152">
        <ele>68.87158</ele>
        <time>2013-04-07T05:55:39.000Z</time>
      </trkpt>
      <trkpt lat="43.20545" lon="5.49145">
        <ele>65.50708</ele>
        <time>2013-04-07T05:55:43.000Z</time>
      </trkpt>
      <trkpt lat="43.20538" lon="5.49139">
        <ele>65.50708</ele>
        <time>2013-04-07T05:55:46.000Z</time>
      </trkpt>
      <trkpt lat="43.20535" lon="5.49138">
        <ele>63.58435</ele>
        <time>2013-04-07T05:55:47.000Z</time>
      </trkpt>
      <trkpt lat="43.20527" lon="5.49131">
        <ele>55.8938</ele>
        <time>2013-04-07T05:55:52.000Z</time>
      </trkpt>
      <trkpt lat="43.20527" lon="5.49124">
        <ele>51.08716</ele>
        <time>2013-04-07T05:55:55.000Z</time>
      </trkpt>
      <trkpt lat="43.20527" lon="5.49116">
        <ele>46.28064</ele>
        <time>2013-04-07T05:56:01.000Z</time>
      </trkpt>
      <trkpt lat="43.20528" lon="5.49112">
        <ele>46.76123</ele>
        <time>2013-04-07T05:56:03.000Z</time>
      </trkpt>
      <trkpt lat="43.20533" lon="5.49107">
        <ele>47.722534</ele>
        <time>2013-04-07T05:56:08.000Z</time>
      </trkpt>
      <trkpt lat="43.20536" lon="5.49102">
        <ele>48.68396</ele>
        <time>2013-04-07T05:56:12.000Z</time>
      </trkpt>
      <trkpt lat="43.20535" lon="5.49096">
        <ele>51.56787</ele>
        <time>2013-04-07T05:56:17.000Z</time>
      </trkpt>
      <trkpt lat="43.20534" lon="5.49091">
        <ele>51.56787</ele>
        <time>2013-04-07T05:56:21.000Z</time>
      </trkpt>
      <trkpt lat="43.20535" lon="5.49085">
        <ele>53.009766</ele>
        <time>2013-04-07T05:56:26.000Z</time>
      </trkpt>
      <trkpt lat="43.20532" lon="5.49084">
        <ele>55.413086</ele>
        <time>2013-04-07T05:56:31.000Z</time>
      </trkpt>
      <trkpt lat="43.20527" lon="5.49082">
        <ele>59.739136</ele>
        <time>2013-04-07T05:56:35.000Z</time>
      </trkpt>
      <trkpt lat="43.20525" lon="5.4908">
        <ele>64.06506</ele>
        <time>2013-04-07T05:56:38.000Z</time>
      </trkpt>
      <trkpt lat="43.20522" lon="5.49074">
        <ele>69.832886</ele>
        <time>2013-04-07T05:56:43.000Z</time>
      </trkpt>
      <trkpt lat="43.20521" lon="5.49072">
        <ele>68.87158</ele>
        <time>2013-04-07T05:56:47.000Z</time>
      </trkpt>
      <trkpt lat="43.20518" lon="5.49068">
        <ele>72.236206</ele>
        <time>2013-04-07T05:56:51.000Z</time>
      </trkpt>
      <trkpt lat="43.20515" lon="5.49065">
        <ele>76.08142</ele>
        <time>2013-04-07T05:56:55.000Z</time>
      </trkpt>
      <trkpt lat="43.20516" lon="5.49061">
        <ele>75.60083</ele>
        <time>2013-04-07T05:56:59.000Z</time>
      </trkpt>
      <trkpt lat="43.20514" lon="5.49056">
        <ele>83.77197</ele>
        <time>2013-04-07T05:57:04.000Z</time>
      </trkpt>
      <trkpt lat="43.20511" lon="5.49051">
        <ele>86.656006</ele>
        <time>2013-04-07T05:57:09.000Z</time>
      </trkpt>
      <trkpt lat="43.20512" lon="5.49048">
        <ele>88.578735</ele>
        <time>2013-04-07T05:57:13.000Z</time>
      </trkpt>
      <trkpt lat="43.20508" lon="5.49046">
        <ele>99.63379</ele>
        <time>2013-04-07T05:57:19.000Z</time>
      </trkpt>
      <trkpt lat="43.20509" lon="5.49043">
        <ele>99.153076</ele>
        <time>2013-04-07T05:57:23.000Z</time>
      </trkpt>
      <trkpt lat="43.2051" lon="5.4904">
        <ele>97.23047</ele>
        <time>2013-04-07T05:57:27.000Z</time>
      </trkpt>
      <trkpt lat="43.20511" lon="5.49036">
        <ele>90.02063</ele>
        <time>2013-04-07T05:57:32.000Z</time>
      </trkpt>
      <trkpt lat="43.20513" lon="5.49033">
        <ele>89.059326</ele>
        <time>2013-04-07T05:57:38.000Z</time>
      </trkpt>
      <trkpt lat="43.20514" lon="5.49027">
        <ele>83.77197</ele>
        <time>2013-04-07T05:57:46.000Z</time>
      </trkpt>
      <trkpt lat="43.20513" lon="5.4902">
        <ele>84.252686</ele>
        <time>2013-04-07T05:57:55.000Z</time>
      </trkpt>
      <trkpt lat="43.20513" lon="5.49015">
        <ele>84.7334</ele>
        <time>2013-04-07T05:57:59.000Z</time>
      </trkpt>
      <trkpt lat="43.20508" lon="5.48997">
        <ele>91.94324</ele>
        <time>2013-04-07T05:58:19.000Z</time>
      </trkpt>
      <trkpt lat="43.20506" lon="5.48995">
        <ele>93.38513</ele>
        <time>2013-04-07T05:58:22.000Z</time>
      </trkpt>
      <trkpt lat="43.20509" lon="5.48989">
        <ele>93.865845</ele>
        <time>2013-04-07T05:58:27.000Z</time>
      </trkpt>
      <trkpt lat="43.20512" lon="5.48982">
        <ele>93.38513</ele>
        <time>2013-04-07T05:58:34.000Z</time>
      </trkpt>
      <trkpt lat="43.20513" lon="5.48977">
        <ele>93.38513</ele>
        <time>2013-04-07T05:58:39.000Z</time>
      </trkpt>
      <trkpt lat="43.2051" lon="5.48971">
        <ele>95.78845</ele>
        <time>2013-04-07T05:58:45.000Z</time>
      </trkpt>
      <trkpt lat="43.2051" lon="5.48966">
        <ele>97.23047</ele>
        <time>2013-04-07T05:58:51.000Z</time>
      </trkpt>
      <trkpt lat="43.20509" lon="5.4896">
        <ele>99.153076</ele>
        <time>2013-04-07T05:58:56.000Z</time>
      </trkpt>
      <trkpt lat="43.2051" lon="5.48955">
        <ele>100.59509</ele>
        <time>2013-04-07T05:59:02.000Z</time>
      </trkpt>
      <trkpt lat="43.20512" lon="5.48948">
        <ele>102.03711</ele>
        <time>2013-04-07T05:59:08.000Z</time>
      </trkpt>
      <trkpt lat="43.20509" lon="5.48947">
        <ele>106.36304</ele>
        <time>2013-04-07T05:59:13.000Z</time>
      </trkpt>
      <trkpt lat="43.20506" lon="5.4895">
        <ele>107.80505</ele>
        <time>2013-04-07T05:59:16.000Z</time>
      </trkpt>
      <trkpt lat="43.20497" lon="5.48956">
        <ele>110.68884</ele>
        <time>2013-04-07T05:59:23.000Z</time>
      </trkpt>
      <trkpt lat="43.20493" lon="5.48959">
        <ele>110.68884</ele>
        <time>2013-04-07T05:59:25.000Z</time>
      </trkpt>
      <trkpt lat="43.20485" lon="5.48964">
        <ele>111.169556</ele>
        <time>2013-04-07T05:59:29.000Z</time>
      </trkpt>
      <trkpt lat="43.20477" lon="5.48961">
        <ele>113.092285</ele>
        <time>2013-04-07T05:59:35.000Z</time>
      </trkpt>
      <trkpt lat="43.20478" lon="5.4896">
        <ele>113.092285</ele>
        <time>2013-04-07T05:59:36.000Z</time>
      </trkpt>
      <trkpt lat="43.20479" lon="5.48957">
        <ele>113.092285</ele>
        <time>2013-04-07T05:59:38.000Z</time>
      </trkpt>
      <trkpt lat="43.20482" lon="5.48954">
        <ele>114.05359</ele>
        <time>2013-04-07T05:59:42.000Z</time>
      </trkpt>
      <trkpt lat="43.20482" lon="5.4895">
        <ele>115.9762</ele>
        <time>2013-04-07T05:59:48.000Z</time>
      </trkpt>
      <trkpt lat="43.2048" lon="5.48946">
        <ele>118.379395</ele>
        <time>2013-04-07T05:59:54.000Z</time>
      </trkpt>
      <trkpt lat="43.20481" lon="5.48942">
        <ele>120.302124</ele>
        <time>2013-04-07T06:00:00.000Z</time>
      </trkpt>
      <trkpt lat="43.20483" lon="5.48937">
        <ele>122.705444</ele>
        <time>2013-04-07T06:00:06.000Z</time>
      </trkpt>
      <trkpt lat="43.20484" lon="5.48933">
        <ele>123.18616</ele>
        <time>2013-04-07T06:00:10.000Z</time>
      </trkpt>
      <trkpt lat="43.20484" lon="5.4893">
        <ele>124.62805</ele>
        <time>2013-04-07T06:00:15.000Z</time>
      </trkpt>
      <trkpt lat="43.20483" lon="5.48926">
        <ele>127.03137</ele>
        <time>2013-04-07T06:00:20.000Z</time>
      </trkpt>
      <trkpt lat="43.20482" lon="5.48923">
        <ele>129.91528</ele>
        <time>2013-04-07T06:00:25.000Z</time>
      </trkpt>
      <trkpt lat="43.20481" lon="5.4892">
        <ele>131.83789</ele>
        <time>2013-04-07T06:00:30.000Z</time>
      </trkpt>
      <trkpt lat="43.20483" lon="5.48917">
        <ele>132.79932</ele>
        <time>2013-04-07T06:00:35.000Z</time>
      </trkpt>
      <trkpt lat="43.20484" lon="5.48914">
        <ele>134.72192</ele>
        <time>2013-04-07T06:00:40.000Z</time>
      </trkpt>
      <trkpt lat="43.20483" lon="5.48909">
        <ele>136.64465</ele>
        <time>2013-04-07T06:00:47.000Z</time>
      </trkpt>
      <trkpt lat="43.20481" lon="5.48907">
        <ele>138.08655</ele>
        <time>2013-04-07T06:00:52.000Z</time>
      </trkpt>
      <trkpt lat="43.20479" lon="5.48904">
        <ele>141.45105</ele>
        <time>2013-04-07T06:00:59.000Z</time>
      </trkpt>
      <trkpt lat="43.20479" lon="5.489">
        <ele>142.41248</ele>
        <time>2013-04-07T06:01:04.000Z</time>
      </trkpt>
      <trkpt lat="43.20479" lon="5.489">
        <ele>143.37366</ele>
        <time>2013-04-07T06:01:08.000Z</time>
      </trkpt>
      <trkpt lat="43.20477" lon="5.48899">
        <ele>144.8158</ele>
        <time>2013-04-07T06:01:15.000Z</time>
      </trkpt>
      <trkpt lat="43.20473" lon="5.48899">
        <ele>147.219</ele>
        <time>2013-04-07T06:01:20.000Z</time>
      </trkpt>
      <trkpt lat="43.20473" lon="5.48896">
        <ele>148.18042</ele>
        <time>2013-04-07T06:01:25.000Z</time>
      </trkpt>
      <trkpt lat="43.20471" lon="5.48893">
        <ele>149.1416</ele>
        <time>2013-04-07T06:01:32.000Z</time>
      </trkpt>
      <trkpt lat="43.20468" lon="5.48892">
        <ele>150.58362</ele>
        <time>2013-04-07T06:01:39.000Z</time>
      </trkpt>
      <trkpt lat="43.20467" lon="5.48889">
        <ele>152.02576</ele>
        <time>2013-04-07T06:01:45.000Z</time>
      </trkpt>
      <trkpt lat="43.20466" lon="5.48888">
        <ele>153.46765</ele>
        <time>2013-04-07T06:01:50.000Z</time>
      </trkpt>
      <trkpt lat="43.20464" lon="5.48886">
        <ele>157.79358</ele>
        <time>2013-04-07T06:01:57.000Z</time>
      </trkpt>
      <trkpt lat="43.20463" lon="5.48884">
        <ele>160.1969</ele>
        <time>2013-04-07T06:02:03.000Z</time>
      </trkpt>
      <trkpt lat="43.20464" lon="5.4888">
        <ele>162.6001</ele>
        <time>2013-04-07T06:02:08.000Z</time>
      </trkpt>
      <trkpt lat="43.20467" lon="5.48877">
        <ele>163.08081</ele>
        <time>2013-04-07T06:02:13.000Z</time>
      </trkpt>
      <trkpt lat="43.20466" lon="5.48874">
        <ele>165.00342</ele>
        <time>2013-04-07T06:02:19.000Z</time>
      </trkpt>
      <trkpt lat="43.20461" lon="5.48874">
        <ele>166.92603</ele>
        <time>2013-04-07T06:02:25.000Z</time>
      </trkpt>
      <trkpt lat="43.20458" lon="5.4887">
        <ele>168.36804</ele>
        <time>2013-04-07T06:02:30.000Z</time>
      </trkpt>
      <trkpt lat="43.20457" lon="5.48866">
        <ele>169.32947</ele>
        <time>2013-04-07T06:02:35.000Z</time>
      </trkpt>
      <trkpt lat="43.20461" lon="5.48862">
        <ele>171.25208</ele>
        <time>2013-04-07T06:02:40.000Z</time>
      </trkpt>
      <trkpt lat="43.20466" lon="5.48856">
        <ele>172.21326</ele>
        <time>2013-04-07T06:02:46.000Z</time>
      </trkpt>
      <trkpt lat="43.20469" lon="5.4885">
        <ele>171.73267</ele>
        <time>2013-04-07T06:02:51.000Z</time>
      </trkpt>
      <trkpt lat="43.20473" lon="5.48847">
        <ele>170.77136</ele>
        <time>2013-04-07T06:02:57.000Z</time>
      </trkpt>
      <trkpt lat="43.20475" lon="5.4884">
        <ele>169.32947</ele>
        <time>2013-04-07T06:03:01.000Z</time>
      </trkpt>
      <trkpt lat="43.20479" lon="5.48835">
        <ele>168.84875</ele>
        <time>2013-04-07T06:03:05.000Z</time>
      </trkpt>
      <trkpt lat="43.20484" lon="5.48828">
        <ele>168.84875</ele>
        <time>2013-04-07T06:03:09.000Z</time>
      </trkpt>
      <trkpt lat="43.20491" lon="5.48822">
        <ele>168.36804</ele>
        <time>2013-04-07T06:03:15.000Z</time>
      </trkpt>
      <trkpt lat="43.20495" lon="5.48815">
        <ele>167.88733</ele>
        <time>2013-04-07T06:03:20.000Z</time>
      </trkpt>
      <trkpt lat="43.20496" lon="5.48811">
        <ele>167.88733</ele>
        <time>2013-04-07T06:03:25.000Z</time>
      </trkpt>
      <trkpt lat="43.20496" lon="5.48808">
        <ele>169.81006</ele>
        <time>2013-04-07T06:03:30.000Z</time>
      </trkpt>
      <trkpt lat="43.20494" lon="5.48805">
        <ele>172.21326</ele>
        <time>2013-04-07T06:03:35.000Z</time>
      </trkpt>
      <trkpt lat="43.20494" lon="5.488">
        <ele>173.17468</ele>
        <time>2013-04-07T06:03:39.000Z</time>
      </trkpt>
      <trkpt lat="43.20496" lon="5.48795">
        <ele>174.61658</ele>
        <time>2013-04-07T06:03:44.000Z</time>
      </trkpt>
      <trkpt lat="43.20495" lon="5.48791">
        <ele>177.02002</ele>
        <time>2013-04-07T06:03:49.000Z</time>
      </trkpt>
      <trkpt lat="43.20496" lon="5.48786">
        <ele>178.46191</ele>
        <time>2013-04-07T06:03:54.000Z</time>
      </trkpt>
      <trkpt lat="43.20496" lon="5.48783">
        <ele>179.90381</ele>
        <time>2013-04-07T06:03:59.000Z</time>
      </trkpt>
      <trkpt lat="43.20496" lon="5.48778">
        <ele>180.86523</ele>
        <time>2013-04-07T06:04:04.000Z</time>
      </trkpt>
      <trkpt lat="43.20497" lon="5.48773">
        <ele>182.30713</ele>
        <time>2013-04-07T06:04:09.000Z</time>
      </trkpt>
      <trkpt lat="43.20496" lon="5.48771">
        <ele>183.74902</ele>
        <time>2013-04-07T06:04:13.000Z</time>
      </trkpt>
      <trkpt lat="43.20495" lon="5.48768">
        <ele>185.67175</ele>
        <time>2013-04-07T06:04:18.000Z</time>
      </trkpt>
      <trkpt lat="43.20495" lon="5.48765">
        <ele>187.11377</ele>
        <time>2013-04-07T06:04:22.000Z</time>
      </trkpt>
      <trkpt lat="43.20493" lon="5.48763">
        <ele>189.03638</ele>
        <time>2013-04-07T06:04:26.000Z</time>
      </trkpt>
      <trkpt lat="43.20494" lon="5.48758">
        <ele>190.95898</ele>
        <time>2013-04-07T06:04:31.000Z</time>
      </trkpt>
      <trkpt lat="43.20497" lon="5.48753">
        <ele>192.40112</ele>
        <time>2013-04-07T06:04:36.000Z</time>
      </trkpt>
      <trkpt lat="43.205" lon="5.48745">
        <ele>193.84302</ele>
        <time>2013-04-07T06:04:42.000Z</time>
      </trkpt>
      <trkpt lat="43.20501" lon="5.4874">
        <ele>195.28491</ele>
        <time>2013-04-07T06:04:47.000Z</time>
      </trkpt>
      <trkpt lat="43.20504" lon="5.48731">
        <ele>198.16895</ele>
        <time>2013-04-07T06:04:54.000Z</time>
      </trkpt>
      <trkpt lat="43.20504" lon="5.48729">
        <ele>198.16895</ele>
        <time>2013-04-07T06:04:55.000Z</time>
      </trkpt>
      <trkpt lat="43.20504" lon="5.48727">
        <ele>199.61084</ele>
        <time>2013-04-07T06:04:57.000Z</time>
      </trkpt>
      <trkpt lat="43.20505" lon="5.48719">
        <ele>201.53357</ele>
        <time>2013-04-07T06:05:03.000Z</time>
      </trkpt>
      <trkpt lat="43.20506" lon="5.48714">
        <ele>201.53357</ele>
        <time>2013-04-07T06:05:07.000Z</time>
      </trkpt>
      <trkpt lat="43.20506" lon="5.4871">
        <ele>202.01428</ele>
        <time>2013-04-07T06:05:11.000Z</time>
      </trkpt>
      <trkpt lat="43.20508" lon="5.48704">
        <ele>203.93689</ele>
        <time>2013-04-07T06:05:16.000Z</time>
      </trkpt>
      <trkpt lat="43.20508" lon="5.48697">
        <ele>204.89807</ele>
        <time>2013-04-07T06:05:21.000Z</time>
      </trkpt>
      <trkpt lat="43.20512" lon="5.4869">
        <ele>205.8595</ele>
        <time>2013-04-07T06:05:26.000Z</time>
      </trkpt>
      <trkpt lat="43.20512" lon="5.48682">
        <ele>208.26282</ele>
        <time>2013-04-07T06:05:33.000Z</time>
      </trkpt>
      <trkpt lat="43.20515" lon="5.48676">
        <ele>209.70483</ele>
        <time>2013-04-07T06:05:38.000Z</time>
      </trkpt>
      <trkpt lat="43.20518" lon="5.48668">
        <ele>211.14673</ele>
        <time>2013-04-07T06:05:42.000Z</time>
      </trkpt>
      <trkpt lat="43.20526" lon="5.48651">
        <ele>212.58862</ele>
        <time>2013-04-07T06:05:49.000Z</time>
      </trkpt>
      <trkpt lat="43.2053" lon="5.48643">
        <ele>213.55005</ele>
        <time>2013-04-07T06:05:53.000Z</time>
      </trkpt>
      <trkpt lat="43.20532" lon="5.48639">
        <ele>214.03064</ele>
        <time>2013-04-07T06:05:55.000Z</time>
      </trkpt>
      <trkpt lat="43.20537" lon="5.48626">
        <ele>214.99194</ele>
        <time>2013-04-07T06:06:01.000Z</time>
      </trkpt>
      <trkpt lat="43.20539" lon="5.48622">
        <ele>215.95325</ele>
        <time>2013-04-07T06:06:04.000Z</time>
      </trkpt>
      <trkpt lat="43.20543" lon="5.4861">
        <ele>217.87598</ele>
        <time>2013-04-07T06:06:11.000Z</time>
      </trkpt>
      <trkpt lat="43.20545" lon="5.48604">
        <ele>217.87598</ele>
        <time>2013-04-07T06:06:14.000Z</time>
      </trkpt>
      <trkpt lat="43.20551" lon="5.48586">
        <ele>219.79858</ele>
        <time>2013-04-07T06:06:22.000Z</time>
      </trkpt>
      <trkpt lat="43.20556" lon="5.48576">
        <ele>220.75989</ele>
        <time>2013-04-07T06:06:27.000Z</time>
      </trkpt>
      <trkpt lat="43.20561" lon="5.48564">
        <ele>221.2406</ele>
        <time>2013-04-07T06:06:33.000Z</time>
      </trkpt>
      <trkpt lat="43.20561" lon="5.48562">
        <ele>221.2406</ele>
        <time>2013-04-07T06:06:34.000Z</time>
      </trkpt>
      <trkpt lat="43.20563" lon="5.48557">
        <ele>222.20178</ele>
        <time>2013-04-07T06:06:37.000Z</time>
      </trkpt>
      <trkpt lat="43.20562" lon="5.48546">
        <ele>225.08594</ele>
        <time>2013-04-07T06:06:42.000Z</time>
      </trkpt>
      <trkpt lat="43.20563" lon="5.48542">
        <ele>226.52783</ele>
        <time>2013-04-07T06:06:44.000Z</time>
      </trkpt>
      <trkpt lat="43.20563" lon="5.48526">
        <ele>229.89233</ele>
        <time>2013-04-07T06:06:51.000Z</time>
      </trkpt>
      <trkpt lat="43.20566" lon="5.48515">
        <ele>230.37305</ele>
        <time>2013-04-07T06:06:56.000Z</time>
      </trkpt>
      <trkpt lat="43.20567" lon="5.48503">
        <ele>232.77649</ele>
        <time>2013-04-07T06:07:01.000Z</time>
      </trkpt>
      <trkpt lat="43.2057" lon="5.48488">
        <ele>233.25708</ele>
        <time>2013-04-07T06:07:07.000Z</time>
      </trkpt>
      <trkpt lat="43.20572" lon="5.48481">
        <ele>233.73767</ele>
        <time>2013-04-07T06:07:10.000Z</time>
      </trkpt>
      <trkpt lat="43.20581" lon="5.48471">
        <ele>232.77649</ele>
        <time>2013-04-07T06:07:16.000Z</time>
      </trkpt>
      <trkpt lat="43.20588" lon="5.48463">
        <ele>231.81494</ele>
        <time>2013-04-07T06:07:20.000Z</time>
      </trkpt>
      <trkpt lat="43.20597" lon="5.48453">
        <ele>231.33435</ele>
        <time>2013-04-07T06:07:25.000Z</time>
      </trkpt>
      <trkpt lat="43.20608" lon="5.48441">
        <ele>229.89233</ele>
        <time>2013-04-07T06:07:30.000Z</time>
      </trkpt>
      <trkpt lat="43.20615" lon="5.4843">
        <ele>227.96973</ele>
        <time>2013-04-07T06:07:34.000Z</time>
      </trkpt>
      <trkpt lat="43.20626" lon="5.48417">
        <ele>224.60522</ele>
        <time>2013-04-07T06:07:39.000Z</time>
      </trkpt>
      <trkpt lat="43.20637" lon="5.48405">
        <ele>221.72119</ele>
        <time>2013-04-07T06:07:44.000Z</time>
      </trkpt>
      <trkpt lat="43.20644" lon="5.48395">
        <ele>217.87598</ele>
        <time>2013-04-07T06:07:48.000Z</time>
      </trkpt>
      <trkpt lat="43.20648" lon="5.4839">
        <ele>217.39539</ele>
        <time>2013-04-07T06:07:51.000Z</time>
      </trkpt>
      <trkpt lat="43.20655" lon="5.48384">
        <ele>216.43396</ele>
        <time>2013-04-07T06:07:55.000Z</time>
      </trkpt>
      <trkpt lat="43.20659" lon="5.48379">
        <ele>217.39539</ele>
        <time>2013-04-07T06:07:58.000Z</time>
      </trkpt>
      <trkpt lat="43.20669" lon="5.48374">
        <ele>218.35657</ele>
        <time>2013-04-07T06:08:03.000Z</time>
      </trkpt>
      <trkpt lat="43.20676" lon="5.48375">
        <ele>218.35657</ele>
        <time>2013-04-07T06:08:06.000Z</time>
      </trkpt>
      <trkpt lat="43.20688" lon="5.48365">
        <ele>217.87598</ele>
        <time>2013-04-07T06:08:13.000Z</time>
      </trkpt>
      <trkpt lat="43.20694" lon="5.48359">
        <ele>217.87598</ele>
        <time>2013-04-07T06:08:17.000Z</time>
      </trkpt>
      <trkpt lat="43.20699" lon="5.48352">
        <ele>217.39539</ele>
        <time>2013-04-07T06:08:20.000Z</time>
      </trkpt>
      <trkpt lat="43.20707" lon="5.48345">
        <ele>217.39539</ele>
        <time>2013-04-07T06:08:25.000Z</time>
      </trkpt>
      <trkpt lat="43.20712" lon="5.48339">
        <ele>217.87598</ele>
        <time>2013-04-07T06:08:28.000Z</time>
      </trkpt>
      <trkpt lat="43.20718" lon="5.48332">
        <ele>218.83728</ele>
        <time>2013-04-07T06:08:32.000Z</time>
      </trkpt>
      <trkpt lat="43.20722" lon="5.48318">
        <ele>219.79858</ele>
        <time>2013-04-07T06:08:37.000Z</time>
      </trkpt>
      <trkpt lat="43.20727" lon="5.48301">
        <ele>221.2406</ele>
        <time>2013-04-07T06:08:43.000Z</time>
      </trkpt>
      <trkpt lat="43.20729" lon="5.48292">
        <ele>221.72119</ele>
        <time>2013-04-07T06:08:46.000Z</time>
      </trkpt>
      <trkpt lat="43.2073" lon="5.48276">
        <ele>222.6825</ele>
        <time>2013-04-07T06:08:51.000Z</time>
      </trkpt>
      <trkpt lat="43.20733" lon="5.48265">
        <ele>223.16321</ele>
        <time>2013-04-07T06:08:55.000Z</time>
      </trkpt>
      <trkpt lat="43.20734" lon="5.48263">
        <ele>223.16321</ele>
        <time>2013-04-07T06:08:56.000Z</time>
      </trkpt>
      <trkpt lat="43.20733" lon="5.48259">
        <ele>223.6438</ele>
        <time>2013-04-07T06:08:58.000Z</time>
      </trkpt>
      <trkpt lat="43.20734" lon="5.4825">
        <ele>224.12451</ele>
        <time>2013-04-07T06:09:01.000Z</time>
      </trkpt>
      <trkpt lat="43.2073" lon="5.48243">
        <ele>226.04712</ele>
        <time>2013-04-07T06:09:05.000Z</time>
      </trkpt>
      <trkpt lat="43.20728" lon="5.48239">
        <ele>226.52783</ele>
        <time>2013-04-07T06:09:07.000Z</time>
      </trkpt>
      <trkpt lat="43.20727" lon="5.48233">
        <ele>228.45044</ele>
        <time>2013-04-07T06:09:10.000Z</time>
      </trkpt>
      <trkpt lat="43.20724" lon="5.48223">
        <ele>229.41174</ele>
        <time>2013-04-07T06:09:15.000Z</time>
      </trkpt>
      <trkpt lat="43.20724" lon="5.48214">
        <ele>230.37305</ele>
        <time>2013-04-07T06:09:19.000Z</time>
      </trkpt>
      <trkpt lat="43.20722" lon="5.482">
        <ele>231.33435</ele>
        <time>2013-04-07T06:09:24.000Z</time>
      </trkpt>
      <trkpt lat="43.20724" lon="5.48189">
        <ele>232.29578</ele>
        <time>2013-04-07T06:09:28.000Z</time>
      </trkpt>
      <trkpt lat="43.20722" lon="5.48181">
        <ele>232.77649</ele>
        <time>2013-04-07T06:09:31.000Z</time>
      </trkpt>
      <trkpt lat="43.20723" lon="5.4817">
        <ele>232.29578</ele>
        <time>2013-04-07T06:09:35.000Z</time>
      </trkpt>
      <trkpt lat="43.20719" lon="5.48157">
        <ele>232.77649</ele>
        <time>2013-04-07T06:09:40.000Z</time>
      </trkpt>
      <trkpt lat="43.20714" lon="5.48141">
        <ele>232.29578</ele>
        <time>2013-04-07T06:09:46.000Z</time>
      </trkpt>
      <trkpt lat="43.20711" lon="5.4813">
        <ele>232.29578</ele>
        <time>2013-04-07T06:09:51.000Z</time>
      </trkpt>
      <trkpt lat="43.20707" lon="5.4812">
        <ele>232.77649</ele>
        <time>2013-04-07T06:09:56.000Z</time>
      </trkpt>
      <trkpt lat="43.20704" lon="5.48111">
        <ele>233.25708</ele>
        <time>2013-04-07T06:10:01.000Z</time>
      </trkpt>
      <trkpt lat="43.20701" lon="5.48105">
        <ele>234.6991</ele>
        <time>2013-04-07T06:10:05.000Z</time>
      </trkpt>
      <trkpt lat="43.20695" lon="5.48093">
        <ele>237.58289</ele>
        <time>2013-04-07T06:10:13.000Z</time>
      </trkpt>
      <trkpt lat="43.20694" lon="5.48082">
        <ele>239.0249</ele>
        <time>2013-04-07T06:10:19.000Z</time>
      </trkpt>
      <trkpt lat="43.20694" lon="5.48071">
        <ele>240.46704</ele>
        <time>2013-04-07T06:10:24.000Z</time>
      </trkpt>
      <trkpt lat="43.20694" lon="5.48061">
        <ele>241.90894</ele>
        <time>2013-04-07T06:10:28.000Z</time>
      </trkpt>
      <trkpt lat="43.20694" lon="5.48054">
        <ele>242.87024</ele>
        <time>2013-04-07T06:10:31.000Z</time>
      </trkpt>
      <trkpt lat="43.20691" lon="5.48042">
        <ele>243.83154</ele>
        <time>2013-04-07T06:10:36.000Z</time>
      </trkpt>
      <trkpt lat="43.20687" lon="5.48033">
        <ele>242.38965</ele>
        <time>2013-04-07T06:10:40.000Z</time>
      </trkpt>
      <trkpt lat="43.20687" lon="5.48012">
        <ele>241.42822</ele>
        <time>2013-04-07T06:10:46.000Z</time>
      </trkpt>
      <trkpt lat="43.20689" lon="5.47995">
        <ele>239.5055</ele>
        <time>2013-04-07T06:10:51.000Z</time>
      </trkpt>
      <trkpt lat="43.20688" lon="5.47977">
        <ele>237.58289</ele>
        <time>2013-04-07T06:10:56.000Z</time>
      </trkpt>
      <trkpt lat="43.20689" lon="5.47963">
        <ele>238.54431</ele>
        <time>2013-04-07T06:11:00.000Z</time>
      </trkpt>
      <trkpt lat="43.20689" lon="5.47948">
        <ele>237.1023</ele>
        <time>2013-04-07T06:11:05.000Z</time>
      </trkpt>
      <trkpt lat="43.20689" lon="5.47945">
        <ele>237.58289</ele>
        <time>2013-04-07T06:11:06.000Z</time>
      </trkpt>
      <trkpt lat="43.20689" lon="5.4793">
        <ele>237.1023</ele>
        <time>2013-04-07T06:11:12.000Z</time>
      </trkpt>
      <trkpt lat="43.20688" lon="5.47928">
        <ele>237.58289</ele>
        <time>2013-04-07T06:11:13.000Z</time>
      </trkpt>
      <trkpt lat="43.20688" lon="5.47918">
        <ele>238.0636</ele>
        <time>2013-04-07T06:11:17.000Z</time>
      </trkpt>
      <trkpt lat="43.20689" lon="5.47914">
        <ele>238.54431</ele>
        <time>2013-04-07T06:11:19.000Z</time>
      </trkpt>
      <trkpt lat="43.20693" lon="5.47904">
        <ele>239.0249</ele>
        <time>2013-04-07T06:11:23.000Z</time>
      </trkpt>
      <trkpt lat="43.20698" lon="5.47889">
        <ele>241.90894</ele>
        <time>2013-04-07T06:11:29.000Z</time>
      </trkpt>
      <trkpt lat="43.20701" lon="5.47875">
        <ele>245.27344</ele>
        <time>2013-04-07T06:11:34.000Z</time>
      </trkpt>
      <trkpt lat="43.2071" lon="5.47866">
        <ele>245.75415</ele>
        <time>2013-04-07T06:11:39.000Z</time>
      </trkpt>
      <trkpt lat="43.20718" lon="5.47855">
        <ele>246.71545</ele>
        <time>2013-04-07T06:11:44.000Z</time>
      </trkpt>
      <trkpt lat="43.20722" lon="5.47849">
        <ele>246.71545</ele>
        <time>2013-04-07T06:11:48.000Z</time>
      </trkpt>
      <trkpt lat="43.20725" lon="5.47839">
        <ele>245.75415</ele>
        <time>2013-04-07T06:11:52.000Z</time>
      </trkpt>
      <trkpt lat="43.20727" lon="5.47835">
        <ele>245.75415</ele>
        <time>2013-04-07T06:11:54.000Z</time>
      </trkpt>
      <trkpt lat="43.20735" lon="5.47821">
        <ele>245.27344</ele>
        <time>2013-04-07T06:12:01.000Z</time>
      </trkpt>
      <trkpt lat="43.20737" lon="5.47816">
        <ele>244.79285</ele>
        <time>2013-04-07T06:12:04.000Z</time>
      </trkpt>
      <trkpt lat="43.20744" lon="5.47811">
        <ele>246.23486</ele>
        <time>2013-04-07T06:12:09.000Z</time>
      </trkpt>
      <trkpt lat="43.20745" lon="5.47803">
        <ele>247.67676</ele>
        <time>2013-04-07T06:12:14.000Z</time>
      </trkpt>
      <trkpt lat="43.20747" lon="5.47796">
        <ele>248.63818</ele>
        <time>2013-04-07T06:12:18.000Z</time>
      </trkpt>
      <trkpt lat="43.20751" lon="5.47792">
        <ele>250.0802</ele>
        <time>2013-04-07T06:12:22.000Z</time>
      </trkpt>
      <trkpt lat="43.20754" lon="5.47786">
        <ele>250.56079</ele>
        <time>2013-04-07T06:12:25.000Z</time>
      </trkpt>
      <trkpt lat="43.20754" lon="5.47779">
        <ele>251.5221</ele>
        <time>2013-04-07T06:12:28.000Z</time>
      </trkpt>
      <trkpt lat="43.20757" lon="5.47769">
        <ele>253.4447</ele>
        <time>2013-04-07T06:12:33.000Z</time>
      </trkpt>
      <trkpt lat="43.20758" lon="5.47762">
        <ele>254.8866</ele>
        <time>2013-04-07T06:12:38.000Z</time>
      </trkpt>
      <trkpt lat="43.2076" lon="5.4776">
        <ele>255.84802</ele>
        <time>2013-04-07T06:12:40.000Z</time>
      </trkpt>
      <trkpt lat="43.20761" lon="5.47755">
        <ele>256.80933</ele>
        <time>2013-04-07T06:12:46.000Z</time>
      </trkpt>
      <trkpt lat="43.20761" lon="5.47751">
        <ele>260.17395</ele>
        <time>2013-04-07T06:12:53.000Z</time>
      </trkpt>
      <trkpt lat="43.20759" lon="5.47749">
        <ele>263.53857</ele>
        <time>2013-04-07T06:12:58.000Z</time>
      </trkpt>
      <trkpt lat="43.20754" lon="5.47746">
        <ele>265.9419</ele>
        <time>2013-04-07T06:13:04.000Z</time>
      </trkpt>
      <trkpt lat="43.20754" lon="5.47742">
        <ele>266.4225</ele>
        <time>2013-04-07T06:13:08.000Z</time>
      </trkpt>
      <trkpt lat="43.20758" lon="5.47739">
        <ele>267.3839</ele>
        <time>2013-04-07T06:13:14.000Z</time>
      </trkpt>
      <trkpt lat="43.2076" lon="5.47735">
        <ele>267.8645</ele>
        <time>2013-04-07T06:13:20.000Z</time>
      </trkpt>
      <trkpt lat="43.20763" lon="5.47733">
        <ele>268.8258</ele>
        <time>2013-04-07T06:13:27.000Z</time>
      </trkpt>
      <trkpt lat="43.20768" lon="5.47729">
        <ele>269.7871</ele>
        <time>2013-04-07T06:13:34.000Z</time>
      </trkpt>
      <trkpt lat="43.20767" lon="5.47726">
        <ele>271.70972</ele>
        <time>2013-04-07T06:13:39.000Z</time>
      </trkpt>
      <trkpt lat="43.20769" lon="5.47722">
        <ele>273.63245</ele>
        <time>2013-04-07T06:13:45.000Z</time>
      </trkpt>
      <trkpt lat="43.20766" lon="5.47721">
        <ele>276.51636</ele>
        <time>2013-04-07T06:13:50.000Z</time>
      </trkpt>
      <trkpt lat="43.20763" lon="5.47718">
        <ele>276.99707</ele>
        <time>2013-04-07T06:13:56.000Z</time>
      </trkpt>
      <trkpt lat="43.2076" lon="5.47717">
        <ele>278.91968</ele>
        <time>2013-04-07T06:14:00.000Z</time>
      </trkpt>
      <trkpt lat="43.20756" lon="5.47715">
        <ele>279.88086</ele>
        <time>2013-04-07T06:14:05.000Z</time>
      </trkpt>
      <trkpt lat="43.20754" lon="5.47712">
        <ele>279.88086</ele>
        <time>2013-04-07T06:14:08.000Z</time>
      </trkpt>
      <trkpt lat="43.20748" lon="5.47705">
        <ele>282.2843</ele>
        <time>2013-04-07T06:14:15.000Z</time>
      </trkpt>
      <trkpt lat="43.20749" lon="5.47701">
        <ele>283.7262</ele>
        <time>2013-04-07T06:14:20.000Z</time>
      </trkpt>
      <trkpt lat="43.2075" lon="5.47699">
        <ele>284.68762</ele>
        <time>2013-04-07T06:14:24.000Z</time>
      </trkpt>
      <trkpt lat="43.20747" lon="5.47695">
        <ele>285.6488</ele>
        <time>2013-04-07T06:14:28.000Z</time>
      </trkpt>
      <trkpt lat="43.20743" lon="5.47692">
        <ele>286.61023</ele>
        <time>2013-04-07T06:14:32.000Z</time>
      </trkpt>
      <trkpt lat="43.2074" lon="5.47683">
        <ele>288.05225</ele>
        <time>2013-04-07T06:14:39.000Z</time>
      </trkpt>
      <trkpt lat="43.20743" lon="5.4768">
        <ele>289.01355</ele>
        <time>2013-04-07T06:14:45.000Z</time>
      </trkpt>
      <trkpt lat="43.20743" lon="5.47675">
        <ele>289.97485</ele>
        <time>2013-04-07T06:14:49.000Z</time>
      </trkpt>
      <trkpt lat="43.20743" lon="5.47672">
        <ele>290.93616</ele>
        <time>2013-04-07T06:14:54.000Z</time>
      </trkpt>
      <trkpt lat="43.20744" lon="5.47667">
        <ele>291.89746</ele>
        <time>2013-04-07T06:14:58.000Z</time>
      </trkpt>
      <trkpt lat="43.20751" lon="5.47662">
        <ele>294.30078</ele>
        <time>2013-04-07T06:15:03.000Z</time>
      </trkpt>
      <trkpt lat="43.20754" lon="5.47657">
        <ele>295.26196</ele>
        <time>2013-04-07T06:15:06.000Z</time>
      </trkpt>
      <trkpt lat="43.2076" lon="5.4765">
        <ele>296.7041</ele>
        <time>2013-04-07T06:15:12.000Z</time>
      </trkpt>
      <trkpt lat="43.20765" lon="5.47646">
        <ele>298.14612</ele>
        <time>2013-04-07T06:15:16.000Z</time>
      </trkpt>
      <trkpt lat="43.2077" lon="5.47635">
        <ele>299.588</ele>
        <time>2013-04-07T06:15:22.000Z</time>
      </trkpt>
      <trkpt lat="43.20771" lon="5.47622">
        <ele>302.9525</ele>
        <time>2013-04-07T06:15:28.000Z</time>
      </trkpt>
      <trkpt lat="43.20775" lon="5.47605">
        <ele>305.83667</ele>
        <time>2013-04-07T06:15:35.000Z</time>
      </trkpt>
      <trkpt lat="43.20776" lon="5.476">
        <ele>306.31726</ele>
        <time>2013-04-07T06:15:37.000Z</time>
      </trkpt>
      <trkpt lat="43.20782" lon="5.47587">
        <ele>308.72046</ele>
        <time>2013-04-07T06:15:44.000Z</time>
      </trkpt>
      <trkpt lat="43.20784" lon="5.47583">
        <ele>308.72046</ele>
        <time>2013-04-07T06:15:46.000Z</time>
      </trkpt>
      <trkpt lat="43.20788" lon="5.47576">
        <ele>309.20117</ele>
        <time>2013-04-07T06:15:50.000Z</time>
      </trkpt>
      <trkpt lat="43.20794" lon="5.47564">
        <ele>309.6819</ele>
        <time>2013-04-07T06:15:56.000Z</time>
      </trkpt>
      <trkpt lat="43.20799" lon="5.47556">
        <ele>310.16248</ele>
        <time>2013-04-07T06:16:00.000Z</time>
      </trkpt>
      <trkpt lat="43.20806" lon="5.4755">
        <ele>310.64307</ele>
        <time>2013-04-07T06:16:04.000Z</time>
      </trkpt>
      <trkpt lat="43.20814" lon="5.47532">
        <ele>311.12378</ele>
        <time>2013-04-07T06:16:11.000Z</time>
      </trkpt>
      <trkpt lat="43.20821" lon="5.47518">
        <ele>311.12378</ele>
        <time>2013-04-07T06:16:17.000Z</time>
      </trkpt>
      <trkpt lat="43.20824" lon="5.4751">
        <ele>312.0852</ele>
        <time>2013-04-07T06:16:21.000Z</time>
      </trkpt>
      <trkpt lat="43.20828" lon="5.47499">
        <ele>312.5658</ele>
        <time>2013-04-07T06:16:27.000Z</time>
      </trkpt>
      <trkpt lat="43.20832" lon="5.47488">
        <ele>313.52722</ele>
        <time>2013-04-07T06:16:32.000Z</time>
      </trkpt>
      <trkpt lat="43.20836" lon="5.47474">
        <ele>314.96912</ele>
        <time>2013-04-07T06:16:38.000Z</time>
      </trkpt>
      <trkpt lat="43.20842" lon="5.47463">
        <ele>315.44983</ele>
        <time>2013-04-07T06:16:43.000Z</time>
      </trkpt>
      <trkpt lat="43.20849" lon="5.47446">
        <ele>314.96912</ele>
        <time>2013-04-07T06:16:50.000Z</time>
      </trkpt>
      <trkpt lat="43.20847" lon="5.47433">
        <ele>314.4884</ele>
        <time>2013-04-07T06:16:55.000Z</time>
      </trkpt>
      <trkpt lat="43.20846" lon="5.47428">
        <ele>315.44983</ele>
        <time>2013-04-07T06:16:57.000Z</time>
      </trkpt>
      <trkpt lat="43.20842" lon="5.47414">
        <ele>316.89172</ele>
        <time>2013-04-07T06:17:03.000Z</time>
      </trkpt>
      <trkpt lat="43.20842" lon="5.47412">
        <ele>317.37244</ele>
        <time>2013-04-07T06:17:04.000Z</time>
      </trkpt>
      <trkpt lat="43.20847" lon="5.47398">
        <ele>317.85303</ele>
        <time>2013-04-07T06:17:09.000Z</time>
      </trkpt>
      <trkpt lat="43.20853" lon="5.47389">
        <ele>318.81433</ele>
        <time>2013-04-07T06:17:13.000Z</time>
      </trkpt>
      <trkpt lat="43.20862" lon="5.4738">
        <ele>318.81433</ele>
        <time>2013-04-07T06:17:18.000Z</time>
      </trkpt>
      <trkpt lat="43.20869" lon="5.47372">
        <ele>318.81433</ele>
        <time>2013-04-07T06:17:22.000Z</time>
      </trkpt>
      <trkpt lat="43.20875" lon="5.47363">
        <ele>317.37244</ele>
        <time>2013-04-07T06:17:26.000Z</time>
      </trkpt>
      <trkpt lat="43.20884" lon="5.47358">
        <ele>316.411</ele>
        <time>2013-04-07T06:17:30.000Z</time>
      </trkpt>
      <trkpt lat="43.20885" lon="5.47356">
        <ele>316.411</ele>
        <time>2013-04-07T06:17:31.000Z</time>
      </trkpt>
      <trkpt lat="43.20889" lon="5.47353">
        <ele>316.411</ele>
        <time>2013-04-07T06:17:33.000Z</time>
      </trkpt>
      <trkpt lat="43.20894" lon="5.47344">
        <ele>315.93042</ele>
        <time>2013-04-07T06:17:37.000Z</time>
      </trkpt>
      <trkpt lat="43.20904" lon="5.47327">
        <ele>316.411</ele>
        <time>2013-04-07T06:17:44.000Z</time>
      </trkpt>
      <trkpt lat="43.20914" lon="5.47309">
        <ele>316.89172</ele>
        <time>2013-04-07T06:17:51.000Z</time>
      </trkpt>
      <trkpt lat="43.20924" lon="5.47298">
        <ele>316.411</ele>
        <time>2013-04-07T06:17:57.000Z</time>
      </trkpt>
      <trkpt lat="43.20933" lon="5.47292">
        <ele>315.93042</ele>
        <time>2013-04-07T06:18:02.000Z</time>
      </trkpt>
      <trkpt lat="43.20941" lon="5.47289">
        <ele>314.96912</ele>
        <time>2013-04-07T06:18:06.000Z</time>
      </trkpt>
      <trkpt lat="43.20951" lon="5.47288">
        <ele>314.96912</ele>
        <time>2013-04-07T06:18:12.000Z</time>
      </trkpt>
      <trkpt lat="43.2096" lon="5.47286">
        <ele>314.0078</ele>
        <time>2013-04-07T06:18:17.000Z</time>
      </trkpt>
      <trkpt lat="43.20961" lon="5.47283">
        <ele>314.0078</ele>
        <time>2013-04-07T06:18:18.000Z</time>
      </trkpt>
      <trkpt lat="43.20968" lon="5.47272">
        <ele>312.5658</ele>
        <time>2013-04-07T06:18:24.000Z</time>
      </trkpt>
      <trkpt lat="43.2097" lon="5.47272">
        <ele>311.6045</ele>
        <time>2013-04-07T06:18:26.000Z</time>
      </trkpt>
      <trkpt lat="43.20972" lon="5.47268">
        <ele>310.64307</ele>
        <time>2013-04-07T06:18:29.000Z</time>
      </trkpt>
      <trkpt lat="43.20977" lon="5.47265">
        <ele>308.23987</ele>
        <time>2013-04-07T06:18:35.000Z</time>
      </trkpt>
      <trkpt lat="43.20981" lon="5.47264">
        <ele>305.35596</ele>
        <time>2013-04-07T06:18:40.000Z</time>
      </trkpt>
      <trkpt lat="43.20982" lon="5.47263">
        <ele>304.87524</ele>
        <time>2013-04-07T06:18:41.000Z</time>
      </trkpt>
      <trkpt lat="43.20986" lon="5.47252">
        <ele>302.9525</ele>
        <time>2013-04-07T06:18:45.000Z</time>
      </trkpt>
      <trkpt lat="43.2099" lon="5.47246">
        <ele>301.51062</ele>
        <time>2013-04-07T06:18:48.000Z</time>
      </trkpt>
      <trkpt lat="43.20998" lon="5.47234">
        <ele>299.1073</ele>
        <time>2013-04-07T06:18:54.000Z</time>
      </trkpt>
      <trkpt lat="43.21005" lon="5.47224">
        <ele>297.1847</ele>
        <time>2013-04-07T06:18:58.000Z</time>
      </trkpt>
      <trkpt lat="43.2101" lon="5.47218">
        <ele>298.14612</ele>
        <time>2013-04-07T06:19:01.000Z</time>
      </trkpt>
      <trkpt lat="43.21011" lon="5.47217">
        <ele>299.588</ele>
        <time>2013-04-07T06:19:05.000Z</time>
      </trkpt>
      <trkpt lat="43.21015" lon="5.47213">
        <ele>300.54932</ele>
        <time>2013-04-07T06:19:10.000Z</time>
      </trkpt>
      <trkpt lat="43.21015" lon="5.47212">
        <ele>301.51062</ele>
        <time>2013-04-07T06:19:16.000Z</time>
      </trkpt>
      <trkpt lat="43.21017" lon="5.4721">
        <ele>301.99133</ele>
        <time>2013-04-07T06:19:18.000Z</time>
      </trkpt>
      <trkpt lat="43.21021" lon="5.47207">
        <ele>302.9525</ele>
        <time>2013-04-07T06:19:24.000Z</time>
      </trkpt>
      <trkpt lat="43.21022" lon="5.47203">
        <ele>303.91394</ele>
        <time>2013-04-07T06:19:37.000Z</time>
      </trkpt>
      <trkpt lat="43.21026" lon="5.47195">
        <ele>304.87524</ele>
        <time>2013-04-07T06:19:43.000Z</time>
      </trkpt>
      <trkpt lat="43.21031" lon="5.47189">
        <ele>304.39465</ele>
        <time>2013-04-07T06:19:49.000Z</time>
      </trkpt>
      <trkpt lat="43.21034" lon="5.47189">
        <ele>303.91394</ele>
        <time>2013-04-07T06:19:51.000Z</time>
      </trkpt>
      <trkpt lat="43.2104" lon="5.47186">
        <ele>301.0299</ele>
        <time>2013-04-07T06:19:57.000Z</time>
      </trkpt>
      <trkpt lat="43.21043" lon="5.47187">
        <ele>299.588</ele>
        <time>2013-04-07T06:20:00.000Z</time>
      </trkpt>
      <trkpt lat="43.21045" lon="5.47186">
        <ele>297.1847</ele>
        <time>2013-04-07T06:20:04.000Z</time>
      </trkpt>
      <trkpt lat="43.21048" lon="5.47183">
        <ele>295.74268</ele>
        <time>2013-04-07T06:20:09.000Z</time>
      </trkpt>
      <trkpt lat="43.21047" lon="5.4718">
        <ele>290.45557</ele>
        <time>2013-04-07T06:20:53.000Z</time>
      </trkpt>
      <trkpt lat="43.21048" lon="5.47182">
        <ele>290.93616</ele>
        <time>2013-04-07T06:20:56.000Z</time>
      </trkpt>
      <trkpt lat="43.21051" lon="5.47184">
        <ele>289.49414</ele>
        <time>2013-04-07T06:21:01.000Z</time>
      </trkpt>
      <trkpt lat="43.21052" lon="5.47188">
        <ele>289.01355</ele>
        <time>2013-04-07T06:21:05.000Z</time>
      </trkpt>
      <trkpt lat="43.21054" lon="5.4719">
        <ele>287.5714</ele>
        <time>2013-04-07T06:21:12.000Z</time>
      </trkpt>
      <trkpt lat="43.21057" lon="5.47188">
        <ele>286.61023</ele>
        <time>2013-04-07T06:21:17.000Z</time>
      </trkpt>
      <trkpt lat="43.2106" lon="5.47184">
        <ele>285.6488</ele>
        <time>2013-04-07T06:21:22.000Z</time>
      </trkpt>
      <trkpt lat="43.21063" lon="5.47179">
        <ele>283.7262</ele>
        <time>2013-04-07T06:21:27.000Z</time>
      </trkpt>
      <trkpt lat="43.21067" lon="5.47174">
        <ele>281.8036</ele>
        <time>2013-04-07T06:21:32.000Z</time>
      </trkpt>
      <trkpt lat="43.21072" lon="5.47169">
        <ele>279.88086</ele>
        <time>2013-04-07T06:21:37.000Z</time>
      </trkpt>
      <trkpt lat="43.21073" lon="5.47168">
        <ele>279.40027</ele>
        <time>2013-04-07T06:21:38.000Z</time>
      </trkpt>
      <trkpt lat="43.21077" lon="5.47166">
        <ele>278.43896</ele>
        <time>2013-04-07T06:21:40.000Z</time>
      </trkpt>
      <trkpt lat="43.21082" lon="5.47161">
        <ele>279.40027</ele>
        <time>2013-04-07T06:21:45.000Z</time>
      </trkpt>
      <trkpt lat="43.21086" lon="5.47157">
        <ele>278.91968</ele>
        <time>2013-04-07T06:21:48.000Z</time>
      </trkpt>
      <trkpt lat="43.2109" lon="5.4715">
        <ele>278.43896</ele>
        <time>2013-04-07T06:21:52.000Z</time>
      </trkpt>
      <trkpt lat="43.21096" lon="5.47151">
        <ele>276.99707</ele>
        <time>2013-04-07T06:21:56.000Z</time>
      </trkpt>
      <trkpt lat="43.21106" lon="5.47158">
        <ele>275.55505</ele>
        <time>2013-04-07T06:22:01.000Z</time>
      </trkpt>
      <trkpt lat="43.21109" lon="5.4716">
        <ele>275.55505</ele>
        <time>2013-04-07T06:22:03.000Z</time>
      </trkpt>
      <trkpt lat="43.21114" lon="5.47163">
        <ele>276.51636</ele>
        <time>2013-04-07T06:22:07.000Z</time>
      </trkpt>
      <trkpt lat="43.21119" lon="5.47172">
        <ele>276.99707</ele>
        <time>2013-04-07T06:22:11.000Z</time>
      </trkpt>
      <trkpt lat="43.21121" lon="5.47178">
        <ele>277.47766</ele>
        <time>2013-04-07T06:22:13.000Z</time>
      </trkpt>
      <trkpt lat="43.2113" lon="5.47189">
        <ele>278.91968</ele>
        <time>2013-04-07T06:22:19.000Z</time>
      </trkpt>
      <trkpt lat="43.21139" lon="5.4719">
        <ele>278.91968</ele>
        <time>2013-04-07T06:22:25.000Z</time>
      </trkpt>
      <trkpt lat="43.21144" lon="5.47191">
        <ele>281.323</ele>
        <time>2013-04-07T06:22:30.000Z</time>
      </trkpt>
      <trkpt lat="43.21147" lon="5.47195">
        <ele>283.2456</ele>
        <time>2013-04-07T06:22:33.000Z</time>
      </trkpt>
      <trkpt lat="43.21147" lon="5.47206">
        <ele>288.53296</ele>
        <time>2013-04-07T06:22:40.000Z</time>
      </trkpt>
      <trkpt lat="43.21144" lon="5.47209">
        <ele>289.49414</ele>
        <time>2013-04-07T06:22:43.000Z</time>
      </trkpt>
      <trkpt lat="43.21146" lon="5.47214">
        <ele>290.45557</ele>
        <time>2013-04-07T06:22:49.000Z</time>
      </trkpt>
      <trkpt lat="43.21147" lon="5.47218">
        <ele>292.85876</ele>
        <time>2013-04-07T06:22:53.000Z</time>
      </trkpt>
      <trkpt lat="43.21146" lon="5.4722">
        <ele>293.82007</ele>
        <time>2013-04-07T06:22:57.000Z</time>
      </trkpt>
      <trkpt lat="43.21147" lon="5.47224">
        <ele>295.74268</ele>
        <time>2013-04-07T06:23:02.000Z</time>
      </trkpt>
      <trkpt lat="43.21151" lon="5.4722">
        <ele>296.7041</ele>
        <time>2013-04-07T06:23:07.000Z</time>
      </trkpt>
      <trkpt lat="43.21152" lon="5.4722">
        <ele>297.1847</ele>
        <time>2013-04-07T06:23:08.000Z</time>
      </trkpt>
      <trkpt lat="43.21157" lon="5.47216">
        <ele>299.1073</ele>
        <time>2013-04-07T06:23:13.000Z</time>
      </trkpt>
      <trkpt lat="43.21162" lon="5.47211">
        <ele>300.54932</ele>
        <time>2013-04-07T06:23:18.000Z</time>
      </trkpt>
      <trkpt lat="43.21161" lon="5.47207">
        <ele>301.0299</ele>
        <time>2013-04-07T06:23:20.000Z</time>
      </trkpt>
      <trkpt lat="43.21162" lon="5.472">
        <ele>301.0299</ele>
        <time>2013-04-07T06:23:26.000Z</time>
      </trkpt>
      <trkpt lat="43.21162" lon="5.47198">
        <ele>301.0299</ele>
        <time>2013-04-07T06:23:27.000Z</time>
      </trkpt>
      <trkpt lat="43.2116" lon="5.47194">
        <ele>302.47192</ele>
        <time>2013-04-07T06:23:30.000Z</time>
      </trkpt>
      <trkpt lat="43.21161" lon="5.47186">
        <ele>304.39465</ele>
        <time>2013-04-07T06:23:36.000Z</time>
      </trkpt>
      <trkpt lat="43.21161" lon="5.47178">
        <ele>306.79785</ele>
        <time>2013-04-07T06:23:41.000Z</time>
      </trkpt>
      <trkpt lat="43.21164" lon="5.47172">
        <ele>308.72046</ele>
        <time>2013-04-07T06:23:46.000Z</time>
      </trkpt>
      <trkpt lat="43.21164" lon="5.47167">
        <ele>312.0852</ele>
        <time>2013-04-07T06:23:51.000Z</time>
      </trkpt>
      <trkpt lat="43.21168" lon="5.47158">
        <ele>315.44983</ele>
        <time>2013-04-07T06:23:58.000Z</time>
      </trkpt>
      <trkpt lat="43.21171" lon="5.47158">
        <ele>317.85303</ele>
        <time>2013-04-07T06:24:02.000Z</time>
      </trkpt>
      <trkpt lat="43.21177" lon="5.47155">
        <ele>318.81433</ele>
        <time>2013-04-07T06:24:09.000Z</time>
      </trkpt>
      <trkpt lat="43.2118" lon="5.47157">
        <ele>319.77563</ele>
        <time>2013-04-07T06:24:14.000Z</time>
      </trkpt>
      <trkpt lat="43.21183" lon="5.47156">
        <ele>321.21777</ele>
        <time>2013-04-07T06:24:20.000Z</time>
      </trkpt>
      <trkpt lat="43.21185" lon="5.47151">
        <ele>321.69836</ele>
        <time>2013-04-07T06:24:23.000Z</time>
      </trkpt>
      <trkpt lat="43.2119" lon="5.47147">
        <ele>321.69836</ele>
        <time>2013-04-07T06:24:28.000Z</time>
      </trkpt>
      <trkpt lat="43.21191" lon="5.47145">
        <ele>322.17896</ele>
        <time>2013-04-07T06:24:29.000Z</time>
      </trkpt>
      <trkpt lat="43.21193" lon="5.4714">
        <ele>324.10156</ele>
        <time>2013-04-07T06:24:32.000Z</time>
      </trkpt>
      <trkpt lat="43.21201" lon="5.47137">
        <ele>325.063</ele>
        <time>2013-04-07T06:24:38.000Z</time>
      </trkpt>
      <trkpt lat="43.21204" lon="5.47137">
        <ele>325.54358</ele>
        <time>2013-04-07T06:24:41.000Z</time>
      </trkpt>
      <trkpt lat="43.21207" lon="5.47142">
        <ele>326.9856</ele>
        <time>2013-04-07T06:24:47.000Z</time>
      </trkpt>
      <trkpt lat="43.21208" lon="5.47145">
        <ele>327.4662</ele>
        <time>2013-04-07T06:24:51.000Z</time>
      </trkpt>
      <trkpt lat="43.21209" lon="5.4715">
        <ele>328.90833</ele>
        <time>2013-04-07T06:24:56.000Z</time>
      </trkpt>
      <trkpt lat="43.21212" lon="5.47152">
        <ele>330.35022</ele>
        <time>2013-04-07T06:25:01.000Z</time>
      </trkpt>
      <trkpt lat="43.21217" lon="5.47151">
        <ele>332.75354</ele>
        <time>2013-04-07T06:25:07.000Z</time>
      </trkpt>
      <trkpt lat="43.21222" lon="5.4715">
        <ele>335.15674</ele>
        <time>2013-04-07T06:25:14.000Z</time>
      </trkpt>
      <trkpt lat="43.21226" lon="5.47152">
        <ele>334.67615</ele>
        <time>2013-04-07T06:25:18.000Z</time>
      </trkpt>
      <trkpt lat="43.21228" lon="5.47153">
        <ele>336.11816</ele>
        <time>2013-04-07T06:25:22.000Z</time>
      </trkpt>
      <trkpt lat="43.21232" lon="5.47154">
        <ele>338.04077</ele>
        <time>2013-04-07T06:25:26.000Z</time>
      </trkpt>
      <trkpt lat="43.21235" lon="5.47152">
        <ele>339.96338</ele>
        <time>2013-04-07T06:25:31.000Z</time>
      </trkpt>
      <trkpt lat="43.2124" lon="5.4715">
        <ele>343.32788</ele>
        <time>2013-04-07T06:25:36.000Z</time>
      </trkpt>
      <trkpt lat="43.21244" lon="5.47147">
        <ele>344.77002</ele>
        <time>2013-04-07T06:25:40.000Z</time>
      </trkpt>
      <trkpt lat="43.21247" lon="5.47144">
        <ele>345.73132</ele>
        <time>2013-04-07T06:25:43.000Z</time>
      </trkpt>
      <trkpt lat="43.2125" lon="5.47146">
        <ele>346.69263</ele>
        <time>2013-04-07T06:25:47.000Z</time>
      </trkpt>
      <trkpt lat="43.21255" lon="5.47144">
        <ele>347.17322</ele>
        <time>2013-04-07T06:25:53.000Z</time>
      </trkpt>
      <trkpt lat="43.21259" lon="5.47141">
        <ele>349.57654</ele>
        <time>2013-04-07T06:25:57.000Z</time>
      </trkpt>
      <trkpt lat="43.21263" lon="5.4714">
        <ele>351.01843</ele>
        <time>2013-04-07T06:26:01.000Z</time>
      </trkpt>
      <trkpt lat="43.21267" lon="5.47143">
        <ele>351.97986</ele>
        <time>2013-04-07T06:26:06.000Z</time>
      </trkpt>
      <trkpt lat="43.21274" lon="5.47141">
        <ele>354.86377</ele>
        <time>2013-04-07T06:26:14.000Z</time>
      </trkpt>
      <trkpt lat="43.21278" lon="5.47139">
        <ele>356.3058</ele>
        <time>2013-04-07T06:26:19.000Z</time>
      </trkpt>
      <trkpt lat="43.2128" lon="5.4714">
        <ele>356.78638</ele>
        <time>2013-04-07T06:26:21.000Z</time>
      </trkpt>
      <trkpt lat="43.21282" lon="5.4714">
        <ele>357.2671</ele>
        <time>2013-04-07T06:26:23.000Z</time>
      </trkpt>
      <trkpt lat="43.21288" lon="5.47144">
        <ele>358.2284</ele>
        <time>2013-04-07T06:26:29.000Z</time>
      </trkpt>
      <trkpt lat="43.21292" lon="5.47139">
        <ele>361.59314</ele>
        <time>2013-04-07T06:26:35.000Z</time>
      </trkpt>
      <trkpt lat="43.21295" lon="5.47139">
        <ele>362.55432</ele>
        <time>2013-04-07T06:26:40.000Z</time>
      </trkpt>
      <trkpt lat="43.21298" lon="5.4714">
        <ele>363.99634</ele>
        <time>2013-04-07T06:26:44.000Z</time>
      </trkpt>
      <trkpt lat="43.21301" lon="5.47142">
        <ele>363.99634</ele>
        <time>2013-04-07T06:26:48.000Z</time>
      </trkpt>
      <trkpt lat="43.21304" lon="5.47142">
        <ele>365.43835</ele>
        <time>2013-04-07T06:26:54.000Z</time>
      </trkpt>
      <trkpt lat="43.2131" lon="5.47139">
        <ele>366.88025</ele>
        <time>2013-04-07T06:27:00.000Z</time>
      </trkpt>
      <trkpt lat="43.21314" lon="5.47138">
        <ele>368.32227</ele>
        <time>2013-04-07T06:27:04.000Z</time>
      </trkpt>
      <trkpt lat="43.21319" lon="5.47138">
        <ele>369.2837</ele>
        <time>2013-04-07T06:27:08.000Z</time>
      </trkpt>
      <trkpt lat="43.21326" lon="5.47139">
        <ele>371.2063</ele>
        <time>2013-04-07T06:27:15.000Z</time>
      </trkpt>
      <trkpt lat="43.2133" lon="5.47138">
        <ele>372.6482</ele>
        <time>2013-04-07T06:27:19.000Z</time>
      </trkpt>
      <trkpt lat="43.21339" lon="5.47131">
        <ele>373.1289</ele>
        <time>2013-04-07T06:27:25.000Z</time>
      </trkpt>
      <trkpt lat="43.21343" lon="5.47125">
        <ele>372.6482</ele>
        <time>2013-04-07T06:27:28.000Z</time>
      </trkpt>
      <trkpt lat="43.21341" lon="5.4711">
        <ele>372.16748</ele>
        <time>2013-04-07T06:27:34.000Z</time>
      </trkpt>
      <trkpt lat="43.21337" lon="5.47099">
        <ele>372.6482</ele>
        <time>2013-04-07T06:27:38.000Z</time>
      </trkpt>
      <trkpt lat="43.21338" lon="5.4709">
        <ele>372.6482</ele>
        <time>2013-04-07T06:27:42.000Z</time>
      </trkpt>
      <trkpt lat="43.21338" lon="5.47085">
        <ele>371.2063</ele>
        <time>2013-04-07T06:27:45.000Z</time>
      </trkpt>
      <trkpt lat="43.2134" lon="5.4707">
        <ele>369.2837</ele>
        <time>2013-04-07T06:27:50.000Z</time>
      </trkpt>
      <trkpt lat="43.2134" lon="5.47066">
        <ele>369.76428</ele>
        <time>2013-04-07T06:27:51.000Z</time>
      </trkpt>
      <trkpt lat="43.21343" lon="5.47058">
        <ele>368.80298</ele>
        <time>2013-04-07T06:27:54.000Z</time>
      </trkpt>
      <trkpt lat="43.2134" lon="5.47048">
        <ele>369.76428</ele>
        <time>2013-04-07T06:27:58.000Z</time>
      </trkpt>
      <trkpt lat="43.21337" lon="5.47036">
        <ele>371.6869</ele>
        <time>2013-04-07T06:28:03.000Z</time>
      </trkpt>
      <trkpt lat="43.21338" lon="5.47029">
        <ele>373.6095</ele>
        <time>2013-04-07T06:28:07.000Z</time>
      </trkpt>
      <trkpt lat="43.21337" lon="5.47019">
        <ele>374.5708</ele>
        <time>2013-04-07T06:28:11.000Z</time>
      </trkpt>
      <trkpt lat="43.21341" lon="5.4701">
        <ele>374.0901</ele>
        <time>2013-04-07T06:28:15.000Z</time>
      </trkpt>
      <trkpt lat="43.21347" lon="5.47003">
        <ele>375.5321</ele>
        <time>2013-04-07T06:28:20.000Z</time>
      </trkpt>
      <trkpt lat="43.21351" lon="5.46993">
        <ele>375.0515</ele>
        <time>2013-04-07T06:28:24.000Z</time>
      </trkpt>
      <trkpt lat="43.21352" lon="5.46988">
        <ele>374.5708</ele>
        <time>2013-04-07T06:28:29.000Z</time>
      </trkpt>
      <trkpt lat="43.21353" lon="5.46985">
        <ele>374.5708</ele>
        <time>2013-04-07T06:28:34.000Z</time>
      </trkpt>
      <trkpt lat="43.21353" lon="5.46984">
        <ele>376.01282</ele>
        <time>2013-04-07T06:28:39.000Z</time>
      </trkpt>
      <trkpt lat="43.21353" lon="5.46986">
        <ele>376.01282</ele>
        <time>2013-04-07T06:28:43.000Z</time>
      </trkpt>
      <trkpt lat="43.21349" lon="5.4699">
        <ele>376.49353</ele>
        <time>2013-04-07T06:28:49.000Z</time>
      </trkpt>
      <trkpt lat="43.21345" lon="5.46991">
        <ele>375.0515</ele>
        <time>2013-04-07T06:28:53.000Z</time>
      </trkpt>
      <trkpt lat="43.21345" lon="5.46991">
        <ele>374.5708</ele>
        <time>2013-04-07T06:28:54.000Z</time>
      </trkpt>
      <trkpt lat="43.21337" lon="5.46993">
        <ele>371.2063</ele>
        <time>2013-04-07T06:29:00.000Z</time>
      </trkpt>
      <trkpt lat="43.21338" lon="5.46988">
        <ele>368.32227</ele>
        <time>2013-04-07T06:29:04.000Z</time>
      </trkpt>
      <trkpt lat="43.21339" lon="5.46986">
        <ele>367.36096</ele>
        <time>2013-04-07T06:29:05.000Z</time>
      </trkpt>
      <trkpt lat="43.21333" lon="5.4699">
        <ele>363.51575</ele>
        <time>2013-04-07T06:29:11.000Z</time>
      </trkpt>
      <trkpt lat="43.21327" lon="5.46989">
        <ele>361.11243</ele>
        <time>2013-04-07T06:29:15.000Z</time>
      </trkpt>
      <trkpt lat="43.21319" lon="5.46992">
        <ele>355.8252</ele>
        <time>2013-04-07T06:29:20.000Z</time>
      </trkpt>
      <trkpt lat="43.21314" lon="5.46996">
        <ele>352.46057</ele>
        <time>2013-04-07T06:29:23.000Z</time>
      </trkpt>
      <trkpt lat="43.21312" lon="5.46998">
        <ele>351.01843</ele>
        <time>2013-04-07T06:29:26.000Z</time>
      </trkpt>
      <trkpt lat="43.21308" lon="5.46999">
        <ele>348.61523</ele>
        <time>2013-04-07T06:29:31.000Z</time>
      </trkpt>
      <trkpt lat="43.21307" lon="5.47">
        <ele>348.61523</ele>
        <time>2013-04-07T06:29:36.000Z</time>
      </trkpt>
      <trkpt lat="43.21307" lon="5.47">
        <ele>347.65393</ele>
        <time>2013-04-07T06:29:42.000Z</time>
      </trkpt>
      <trkpt lat="43.21306" lon="5.47001">
        <ele>346.21204</ele>
        <time>2013-04-07T06:29:47.000Z</time>
      </trkpt>
      <trkpt lat="43.21307" lon="5.47006">
        <ele>344.77002</ele>
        <time>2013-04-07T06:29:53.000Z</time>
      </trkpt>
      <trkpt lat="43.21306" lon="5.47004">
        <ele>344.28943</ele>
        <time>2013-04-07T06:29:59.000Z</time>
      </trkpt>
      <trkpt lat="43.21299" lon="5.47002">
        <ele>344.28943</ele>
        <time>2013-04-07T06:30:15.000Z</time>
      </trkpt>
      <trkpt lat="43.213" lon="5.47">
        <ele>340.92468</ele>
        <time>2013-04-07T06:30:19.000Z</time>
      </trkpt>
      <trkpt lat="43.21299" lon="5.46998">
        <ele>339.48267</ele>
        <time>2013-04-07T06:30:26.000Z</time>
      </trkpt>
      <trkpt lat="43.21298" lon="5.46999">
        <ele>335.63733</ele>
        <time>2013-04-07T06:30:36.000Z</time>
      </trkpt>
      <trkpt lat="43.21298" lon="5.46996">
        <ele>335.15674</ele>
        <time>2013-04-07T06:30:43.000Z</time>
      </trkpt>
      <trkpt lat="43.21297" lon="5.46997">
        <ele>334.19543</ele>
        <time>2013-04-07T06:31:02.000Z</time>
      </trkpt>
      <trkpt lat="43.21297" lon="5.46995">
        <ele>332.75354</ele>
        <time>2013-04-07T06:31:10.000Z</time>
      </trkpt>
      <trkpt lat="43.21296" lon="5.46995">
        <ele>333.23413</ele>
        <time>2013-04-07T06:31:28.000Z</time>
      </trkpt>
      <trkpt lat="43.21293" lon="5.46994">
        <ele>331.31152</ele>
        <time>2013-04-07T06:31:48.000Z</time>
      </trkpt>
      <trkpt lat="43.21296" lon="5.46993">
        <ele>327.4662</ele>
        <time>2013-04-07T06:31:58.000Z</time>
      </trkpt>
      <trkpt lat="43.21294" lon="5.46994">
        <ele>331.7921</ele>
        <time>2013-04-07T06:32:12.000Z</time>
      </trkpt>
      <trkpt lat="43.21293" lon="5.46994">
        <ele>332.75354</ele>
        <time>2013-04-07T06:32:22.000Z</time>
      </trkpt>
      <trkpt lat="43.2129" lon="5.4699">
        <ele>332.75354</ele>
        <time>2013-04-07T06:32:35.000Z</time>
      </trkpt>
      <trkpt lat="43.21287" lon="5.46991">
        <ele>331.7921</ele>
        <time>2013-04-07T06:32:41.000Z</time>
      </trkpt>
      <trkpt lat="43.21287" lon="5.46991">
        <ele>329.38892</ele>
        <time>2013-04-07T06:32:45.000Z</time>
      </trkpt>
      <trkpt lat="43.2128" lon="5.4699">
        <ele>322.17896</ele>
        <time>2013-04-07T06:33:05.000Z</time>
      </trkpt>
      <trkpt lat="43.2128" lon="5.46989">
        <ele>318.81433</ele>
        <time>2013-04-07T06:33:11.000Z</time>
      </trkpt>
      <trkpt lat="43.21277" lon="5.4699">
        <ele>316.411</ele>
        <time>2013-04-07T06:33:21.000Z</time>
      </trkpt>
      <trkpt lat="43.21275" lon="5.4699">
        <ele>315.93042</ele>
        <time>2013-04-07T06:33:26.000Z</time>
      </trkpt>
      <trkpt lat="43.21274" lon="5.46988">
        <ele>314.4884</ele>
        <time>2013-04-07T06:33:32.000Z</time>
      </trkpt>
      <trkpt lat="43.21272" lon="5.46983">
        <ele>309.20117</ele>
        <time>2013-04-07T06:33:42.000Z</time>
      </trkpt>
      <trkpt lat="43.21271" lon="5.46981">
        <ele>300.54932</ele>
        <time>2013-04-07T06:33:59.000Z</time>
      </trkpt>
      <trkpt lat="43.21268" lon="5.46983">
        <ele>298.14612</ele>
        <time>2013-04-07T06:34:17.000Z</time>
      </trkpt>
      <trkpt lat="43.21266" lon="5.46985">
        <ele>295.26196</ele>
        <time>2013-04-07T06:34:27.000Z</time>
      </trkpt>
      <trkpt lat="43.21265" lon="5.46987">
        <ele>293.82007</ele>
        <time>2013-04-07T06:34:35.000Z</time>
      </trkpt>
      <trkpt lat="43.21264" lon="5.46989">
        <ele>292.85876</ele>
        <time>2013-04-07T06:34:39.000Z</time>
      </trkpt>
      <trkpt lat="43.2126" lon="5.46989">
        <ele>287.5714</ele>
        <time>2013-04-07T06:34:56.000Z</time>
      </trkpt>
      <trkpt lat="43.21255" lon="5.4699">
        <ele>283.7262</ele>
        <time>2013-04-07T06:35:07.000Z</time>
      </trkpt>
      <trkpt lat="43.21249" lon="5.46991">
        <ele>281.8036</ele>
        <time>2013-04-07T06:35:13.000Z</time>
      </trkpt>
      <trkpt lat="43.21247" lon="5.4699">
        <ele>279.88086</ele>
        <time>2013-04-07T06:35:17.000Z</time>
      </trkpt>
      <trkpt lat="43.21242" lon="5.46993">
        <ele>276.51636</ele>
        <time>2013-04-07T06:35:24.000Z</time>
      </trkpt>
      <trkpt lat="43.2124" lon="5.46992">
        <ele>275.55505</ele>
        <time>2013-04-07T06:35:26.000Z</time>
      </trkpt>
      <trkpt lat="43.21234" lon="5.46993">
        <ele>275.07446</ele>
        <time>2013-04-07T06:35:31.000Z</time>
      </trkpt>
      <trkpt lat="43.21229" lon="5.46991">
        <ele>276.51636</ele>
        <time>2013-04-07T06:35:36.000Z</time>
      </trkpt>
      <trkpt lat="43.21227" lon="5.46988">
        <ele>277.95825</ele>
        <time>2013-04-07T06:35:40.000Z</time>
      </trkpt>
      <trkpt lat="43.21222" lon="5.46982">
        <ele>277.47766</ele>
        <time>2013-04-07T06:35:45.000Z</time>
      </trkpt>
      <trkpt lat="43.2122" lon="5.46982">
        <ele>276.03564</ele>
        <time>2013-04-07T06:35:48.000Z</time>
      </trkpt>
      <trkpt lat="43.21214" lon="5.46981">
        <ele>273.63245</ele>
        <time>2013-04-07T06:35:57.000Z</time>
      </trkpt>
      <trkpt lat="43.21213" lon="5.46988">
        <ele>268.8258</ele>
        <time>2013-04-07T06:36:06.000Z</time>
      </trkpt>
      <trkpt lat="43.21209" lon="5.46992">
        <ele>266.4225</ele>
        <time>2013-04-07T06:36:14.000Z</time>
      </trkpt>
      <trkpt lat="43.21208" lon="5.46996">
        <ele>268.3451</ele>
        <time>2013-04-07T06:36:20.000Z</time>
      </trkpt>
      <trkpt lat="43.21205" lon="5.47">
        <ele>265.4613</ele>
        <time>2013-04-07T06:36:26.000Z</time>
      </trkpt>
      <trkpt lat="43.21205" lon="5.47006">
        <ele>264.49988</ele>
        <time>2013-04-07T06:36:29.000Z</time>
      </trkpt>
      <trkpt lat="43.21202" lon="5.47007">
        <ele>263.05786</ele>
        <time>2013-04-07T06:36:32.000Z</time>
      </trkpt>
      <trkpt lat="43.212" lon="5.47005">
        <ele>263.53857</ele>
        <time>2013-04-07T06:36:35.000Z</time>
      </trkpt>
      <trkpt lat="43.21196" lon="5.47004">
        <ele>261.13525</ele>
        <time>2013-04-07T06:36:39.000Z</time>
      </trkpt>
      <trkpt lat="43.21195" lon="5.47007">
        <ele>260.65454</ele>
        <time>2013-04-07T06:36:41.000Z</time>
      </trkpt>
      <trkpt lat="43.2119" lon="5.47009">
        <ele>259.69336</ele>
        <time>2013-04-07T06:36:46.000Z</time>
      </trkpt>
      <trkpt lat="43.21188" lon="5.47014">
        <ele>257.29004</ele>
        <time>2013-04-07T06:36:50.000Z</time>
      </trkpt>
      <trkpt lat="43.21187" lon="5.47019">
        <ele>253.4447</ele>
        <time>2013-04-07T06:36:54.000Z</time>
      </trkpt>
      <trkpt lat="43.21187" lon="5.4702">
        <ele>252.4834</ele>
        <time>2013-04-07T06:36:56.000Z</time>
      </trkpt>
      <trkpt lat="43.21182" lon="5.47018">
        <ele>249.11877</ele>
        <time>2013-04-07T06:37:01.000Z</time>
      </trkpt>
      <trkpt lat="43.21178" lon="5.4702">
        <ele>246.71545</ele>
        <time>2013-04-07T06:37:05.000Z</time>
      </trkpt>
      <trkpt lat="43.21177" lon="5.47019">
        <ele>245.75415</ele>
        <time>2013-04-07T06:37:06.000Z</time>
      </trkpt>
      <trkpt lat="43.21168" lon="5.47019">
        <ele>241.42822</ele>
        <time>2013-04-07T06:37:13.000Z</time>
      </trkpt>
      <trkpt lat="43.21166" lon="5.47019">
        <ele>239.9862</ele>
        <time>2013-04-07T06:37:15.000Z</time>
      </trkpt>
      <trkpt lat="43.21162" lon="5.47019">
        <ele>237.58289</ele>
        <time>2013-04-07T06:37:19.000Z</time>
      </trkpt>
      <trkpt lat="43.2116" lon="5.47021">
        <ele>236.6217</ele>
        <time>2013-04-07T06:37:21.000Z</time>
      </trkpt>
      <trkpt lat="43.21155" lon="5.47023">
        <ele>233.73767</ele>
        <time>2013-04-07T06:37:26.000Z</time>
      </trkpt>
      <trkpt lat="43.21151" lon="5.47022">
        <ele>231.33435</ele>
        <time>2013-04-07T06:37:31.000Z</time>
      </trkpt>
      <trkpt lat="43.21147" lon="5.47019">
        <ele>229.41174</ele>
        <time>2013-04-07T06:37:35.000Z</time>
      </trkpt>
      <trkpt lat="43.21143" lon="5.4702">
        <ele>227.00854</ele>
        <time>2013-04-07T06:37:40.000Z</time>
      </trkpt>
      <trkpt lat="43.21139" lon="5.47021">
        <ele>226.04712</ele>
        <time>2013-04-07T06:37:43.000Z</time>
      </trkpt>
      <trkpt lat="43.2114" lon="5.47028">
        <ele>218.83728</ele>
        <time>2013-04-07T06:37:51.000Z</time>
      </trkpt>
      <trkpt lat="43.21135" lon="5.47027">
        <ele>216.91467</ele>
        <time>2013-04-07T06:37:54.000Z</time>
      </trkpt>
      <trkpt lat="43.21133" lon="5.47027">
        <ele>214.99194</ele>
        <time>2013-04-07T06:37:58.000Z</time>
      </trkpt>
      <trkpt lat="43.21129" lon="5.47022">
        <ele>214.03064</ele>
        <time>2013-04-07T06:38:03.000Z</time>
      </trkpt>
      <trkpt lat="43.21127" lon="5.4702">
        <ele>212.58862</ele>
        <time>2013-04-07T06:38:07.000Z</time>
      </trkpt>
      <trkpt lat="43.21124" lon="5.47021">
        <ele>211.14673</ele>
        <time>2013-04-07T06:38:11.000Z</time>
      </trkpt>
      <trkpt lat="43.21122" lon="5.47023">
        <ele>209.70483</ele>
        <time>2013-04-07T06:38:15.000Z</time>
      </trkpt>
      <trkpt lat="43.21118" lon="5.47022">
        <ele>208.74341</ele>
        <time>2013-04-07T06:38:21.000Z</time>
      </trkpt>
      <trkpt lat="43.21115" lon="5.47023">
        <ele>208.26282</ele>
        <time>2013-04-07T06:38:25.000Z</time>
      </trkpt>
      <trkpt lat="43.2111" lon="5.47024">
        <ele>208.26282</ele>
        <time>2013-04-07T06:38:30.000Z</time>
      </trkpt>
      <trkpt lat="43.21107" lon="5.47026">
        <ele>207.7821</ele>
        <time>2013-04-07T06:38:34.000Z</time>
      </trkpt>
      <trkpt lat="43.21104" lon="5.47026">
        <ele>204.89807</ele>
        <time>2013-04-07T06:38:38.000Z</time>
      </trkpt>
      <trkpt lat="43.21101" lon="5.47024">
        <ele>203.45618</ele>
        <time>2013-04-07T06:38:42.000Z</time>
      </trkpt>
      <trkpt lat="43.211" lon="5.47024">
        <ele>203.45618</ele>
        <time>2013-04-07T06:38:43.000Z</time>
      </trkpt>
      <trkpt lat="43.21097" lon="5.47018">
        <ele>201.05286</ele>
        <time>2013-04-07T06:38:48.000Z</time>
      </trkpt>
      <trkpt lat="43.21097" lon="5.47011">
        <ele>199.13013</ele>
        <time>2013-04-07T06:38:57.000Z</time>
      </trkpt>
      <trkpt lat="43.21095" lon="5.47007">
        <ele>195.76562</ele>
        <time>2013-04-07T06:39:06.000Z</time>
      </trkpt>
      <trkpt lat="43.21091" lon="5.47009">
        <ele>192.88171</ele>
        <time>2013-04-07T06:39:12.000Z</time>
      </trkpt>
      <trkpt lat="43.21086" lon="5.47013">
        <ele>190.95898</ele>
        <time>2013-04-07T06:39:22.000Z</time>
      </trkpt>
      <trkpt lat="43.21083" lon="5.47011">
        <ele>190.4784</ele>
        <time>2013-04-07T06:39:27.000Z</time>
      </trkpt>
      <trkpt lat="43.21079" lon="5.4701">
        <ele>188.07507</ele>
        <time>2013-04-07T06:39:33.000Z</time>
      </trkpt>
      <trkpt lat="43.21077" lon="5.47008">
        <ele>185.19116</ele>
        <time>2013-04-07T06:39:36.000Z</time>
      </trkpt>
      <trkpt lat="43.21076" lon="5.47012">
        <ele>183.26843</ele>
        <time>2013-04-07T06:39:39.000Z</time>
      </trkpt>
      <trkpt lat="43.21073" lon="5.47013">
        <ele>182.78784</ele>
        <time>2013-04-07T06:39:42.000Z</time>
      </trkpt>
      <trkpt lat="43.2107" lon="5.4701">
        <ele>177.02002</ele>
        <time>2013-04-07T06:39:49.000Z</time>
      </trkpt>
      <trkpt lat="43.21067" lon="5.47012">
        <ele>173.65527</ele>
        <time>2013-04-07T06:39:53.000Z</time>
      </trkpt>
      <trkpt lat="43.21066" lon="5.47013">
        <ele>173.17468</ele>
        <time>2013-04-07T06:39:54.000Z</time>
      </trkpt>
      <trkpt lat="43.21063" lon="5.47019">
        <ele>171.73267</ele>
        <time>2013-04-07T06:39:56.000Z</time>
      </trkpt>
      <trkpt lat="43.21063" lon="5.47022">
        <ele>171.25208</ele>
        <time>2013-04-07T06:39:58.000Z</time>
      </trkpt>
      <trkpt lat="43.2106" lon="5.47025">
        <ele>168.36804</ele>
        <time>2013-04-07T06:40:03.000Z</time>
      </trkpt>
      <trkpt lat="43.21056" lon="5.47028">
        <ele>167.88733</ele>
        <time>2013-04-07T06:40:08.000Z</time>
      </trkpt>
      <trkpt lat="43.21054" lon="5.4703">
        <ele>165.96472</ele>
        <time>2013-04-07T06:40:11.000Z</time>
      </trkpt>
      <trkpt lat="43.21045" lon="5.47038">
        <ele>168.36804</ele>
        <time>2013-04-07T06:40:17.000Z</time>
      </trkpt>
      <trkpt lat="43.21043" lon="5.47041">
        <ele>165.48413</ele>
        <time>2013-04-07T06:40:21.000Z</time>
      </trkpt>
      <trkpt lat="43.21036" lon="5.47046">
        <ele>160.67749</ele>
        <time>2013-04-07T06:40:27.000Z</time>
      </trkpt>
      <trkpt lat="43.21033" lon="5.47047">
        <ele>158.75476</ele>
        <time>2013-04-07T06:40:29.000Z</time>
      </trkpt>
      <trkpt lat="43.21028" lon="5.47054">
        <ele>154.90955</ele>
        <time>2013-04-07T06:40:35.000Z</time>
      </trkpt>
      <trkpt lat="43.21028" lon="5.47059">
        <ele>153.94836</ele>
        <time>2013-04-07T06:40:37.000Z</time>
      </trkpt>
      <trkpt lat="43.21026" lon="5.47061">
        <ele>152.98694</ele>
        <time>2013-04-07T06:40:39.000Z</time>
      </trkpt>
      <trkpt lat="43.21022" lon="5.47061">
        <ele>151.06421</ele>
        <time>2013-04-07T06:40:43.000Z</time>
      </trkpt>
      <trkpt lat="43.21017" lon="5.47064">
        <ele>148.66101</ele>
        <time>2013-04-07T06:40:48.000Z</time>
      </trkpt>
      <trkpt lat="43.21013" lon="5.47067">
        <ele>146.25781</ele>
        <time>2013-04-07T06:40:52.000Z</time>
      </trkpt>
      <trkpt lat="43.2101" lon="5.47065">
        <ele>143.37366</ele>
        <time>2013-04-07T06:40:57.000Z</time>
      </trkpt>
      <trkpt lat="43.21005" lon="5.47067">
        <ele>140.97046</ele>
        <time>2013-04-07T06:41:01.000Z</time>
      </trkpt>
      <trkpt lat="43.20997" lon="5.47067">
        <ele>139.04785</ele>
        <time>2013-04-07T06:41:07.000Z</time>
      </trkpt>
      <trkpt lat="43.2099" lon="5.47064">
        <ele>137.60583</ele>
        <time>2013-04-07T06:41:11.000Z</time>
      </trkpt>
      <trkpt lat="43.20984" lon="5.47068">
        <ele>133.7605</ele>
        <time>2013-04-07T06:41:16.000Z</time>
      </trkpt>
      <trkpt lat="43.2098" lon="5.47067">
        <ele>132.79932</ele>
        <time>2013-04-07T06:41:18.000Z</time>
      </trkpt>
      <trkpt lat="43.20975" lon="5.47065">
        <ele>130.87671</ele>
        <time>2013-04-07T06:41:21.000Z</time>
      </trkpt>
      <trkpt lat="43.20969" lon="5.47066">
        <ele>129.91528</ele>
        <time>2013-04-07T06:41:25.000Z</time>
      </trkpt>
      <trkpt lat="43.2096" lon="5.47066">
        <ele>126.06995</ele>
        <time>2013-04-07T06:41:31.000Z</time>
      </trkpt>
      <trkpt lat="43.2096" lon="5.47068">
        <ele>125.589355</ele>
        <time>2013-04-07T06:41:32.000Z</time>
      </trkpt>
      <trkpt lat="43.20958" lon="5.47069">
        <ele>122.705444</ele>
        <time>2013-04-07T06:41:35.000Z</time>
      </trkpt>
      <trkpt lat="43.20953" lon="5.47069">
        <ele>120.302124</ele>
        <time>2013-04-07T06:41:39.000Z</time>
      </trkpt>
      <trkpt lat="43.2095" lon="5.47069">
        <ele>118.379395</ele>
        <time>2013-04-07T06:41:42.000Z</time>
      </trkpt>
      <trkpt lat="43.20948" lon="5.47066">
        <ele>114.53418</ele>
        <time>2013-04-07T06:41:47.000Z</time>
      </trkpt>
      <trkpt lat="43.20944" lon="5.47065">
        <ele>112.13098</ele>
        <time>2013-04-07T06:41:51.000Z</time>
      </trkpt>
      <trkpt lat="43.2094" lon="5.47066">
        <ele>110.20825</ele>
        <time>2013-04-07T06:41:56.000Z</time>
      </trkpt>
      <trkpt lat="43.20938" lon="5.47064">
        <ele>108.285645</ele>
        <time>2013-04-07T06:42:00.000Z</time>
      </trkpt>
      <trkpt lat="43.20933" lon="5.47065">
        <ele>106.84363</ele>
        <time>2013-04-07T06:42:04.000Z</time>
      </trkpt>
      <trkpt lat="43.20932" lon="5.47063">
        <ele>106.84363</ele>
        <time>2013-04-07T06:42:10.000Z</time>
      </trkpt>
      <trkpt lat="43.20932" lon="5.4706">
        <ele>105.88245</ele>
        <time>2013-04-07T06:42:15.000Z</time>
      </trkpt>
      <trkpt lat="43.20931" lon="5.47058">
        <ele>105.40173</ele>
        <time>2013-04-07T06:42:21.000Z</time>
      </trkpt>
      <trkpt lat="43.20928" lon="5.47057">
        <ele>104.44043</ele>
        <time>2013-04-07T06:42:27.000Z</time>
      </trkpt>
      <trkpt lat="43.20922" lon="5.47041">
        <ele>123.66675</ele>
        <time>2013-04-07T06:42:46.000Z</time>
      </trkpt>
      <trkpt lat="43.20924" lon="5.47037">
        <ele>126.55066</ele>
        <time>2013-04-07T06:42:51.000Z</time>
      </trkpt>
      <trkpt lat="43.20923" lon="5.47028">
        <ele>141.45105</ele>
        <time>2013-04-07T06:42:59.000Z</time>
      </trkpt>
      <trkpt lat="43.20924" lon="5.4702">
        <ele>156.83215</ele>
        <time>2013-04-07T06:43:06.000Z</time>
      </trkpt>
      <trkpt lat="43.20924" lon="5.47021">
        <ele>151.06421</ele>
        <time>2013-04-07T06:43:12.000Z</time>
      </trkpt>
      <trkpt lat="43.20924" lon="5.47025">
        <ele>135.20251</ele>
        <time>2013-04-07T06:43:19.000Z</time>
      </trkpt>
      <trkpt lat="43.20922" lon="5.47032">
        <ele>113.092285</ele>
        <time>2013-04-07T06:43:30.000Z</time>
      </trkpt>
      <trkpt lat="43.20921" lon="5.47036">
        <ele>100.1145</ele>
        <time>2013-04-07T06:43:39.000Z</time>
      </trkpt>
      <trkpt lat="43.20912" lon="5.47035">
        <ele>97.23047</ele>
        <time>2013-04-07T06:43:44.000Z</time>
      </trkpt>
      <trkpt lat="43.20909" lon="5.47036">
        <ele>96.74988</ele>
        <time>2013-04-07T06:43:46.000Z</time>
      </trkpt>
      <trkpt lat="43.209" lon="5.47035">
        <ele>92.42395</ele>
        <time>2013-04-07T06:43:51.000Z</time>
      </trkpt>
      <trkpt lat="43.20894" lon="5.47034">
        <ele>91.462524</ele>
        <time>2013-04-07T06:43:54.000Z</time>
      </trkpt>
      <trkpt lat="43.20888" lon="5.47037">
        <ele>91.462524</ele>
        <time>2013-04-07T06:43:59.000Z</time>
      </trkpt>
      <trkpt lat="43.20885" lon="5.47036">
        <ele>90.02063</ele>
        <time>2013-04-07T06:44:03.000Z</time>
      </trkpt>
      <trkpt lat="43.20883" lon="5.47037">
        <ele>86.656006</ele>
        <time>2013-04-07T06:44:09.000Z</time>
      </trkpt>
      <trkpt lat="43.20881" lon="5.4703">
        <ele>93.865845</ele>
        <time>2013-04-07T06:44:14.000Z</time>
      </trkpt>
      <trkpt lat="43.20882" lon="5.47027">
        <ele>95.78845</ele>
        <time>2013-04-07T06:44:20.000Z</time>
      </trkpt>
      <trkpt lat="43.20884" lon="5.4702">
        <ele>96.74988</ele>
        <time>2013-04-07T06:44:25.000Z</time>
      </trkpt>
      <trkpt lat="43.20882" lon="5.47018">
        <ele>85.21399</ele>
        <time>2013-04-07T06:44:29.000Z</time>
      </trkpt>
      <trkpt lat="43.20883" lon="5.47013">
        <ele>78.48474</ele>
        <time>2013-04-07T06:44:33.000Z</time>
      </trkpt>
      <trkpt lat="43.20881" lon="5.47007">
        <ele>73.67822</ele>
        <time>2013-04-07T06:44:37.000Z</time>
      </trkpt>
      <trkpt lat="43.20882" lon="5.47004">
        <ele>72.71692</ele>
        <time>2013-04-07T06:44:39.000Z</time>
      </trkpt>
      <trkpt lat="43.20885" lon="5.47005">
        <ele>68.87158</ele>
        <time>2013-04-07T06:44:43.000Z</time>
      </trkpt>
      <trkpt lat="43.20887" lon="5.47006">
        <ele>67.91028</ele>
        <time>2013-04-07T06:44:46.000Z</time>
      </trkpt>
      <trkpt lat="43.20888" lon="5.47007">
        <ele>67.42969</ele>
        <time>2013-04-07T06:44:47.000Z</time>
      </trkpt>
      <trkpt lat="43.2089" lon="5.47013">
        <ele>67.42969</ele>
        <time>2013-04-07T06:44:52.000Z</time>
      </trkpt>
      <trkpt lat="43.20892" lon="5.47012">
        <ele>64.545654</ele>
        <time>2013-04-07T06:44:56.000Z</time>
      </trkpt>
      <trkpt lat="43.20889" lon="5.47011">
        <ele>62.142334</ele>
        <time>2013-04-07T06:45:02.000Z</time>
      </trkpt>
      <trkpt lat="43.20893" lon="5.47009">
        <ele>62.142334</ele>
        <time>2013-04-07T06:45:08.000Z</time>
      </trkpt>
      <trkpt lat="43.20896" lon="5.47003">
        <ele>65.98767</ele>
        <time>2013-04-07T06:45:14.000Z</time>
      </trkpt>
      <trkpt lat="43.20898" lon="5.47">
        <ele>65.50708</ele>
        <time>2013-04-07T06:45:16.000Z</time>
      </trkpt>
      <trkpt lat="43.20901" lon="5.46999">
        <ele>65.02637</ele>
        <time>2013-04-07T06:45:20.000Z</time>
      </trkpt>
      <trkpt lat="43.20905" lon="5.46998">
        <ele>57.81653</ele>
        <time>2013-04-07T06:45:25.000Z</time>
      </trkpt>
      <trkpt lat="43.20905" lon="5.46996">
        <ele>55.413086</ele>
        <time>2013-04-07T06:45:27.000Z</time>
      </trkpt>
      <trkpt lat="43.20911" lon="5.4699">
        <ele>51.08716</ele>
        <time>2013-04-07T06:45:33.000Z</time>
      </trkpt>
      <trkpt lat="43.20915" lon="5.46986">
        <ele>47.722534</ele>
        <time>2013-04-07T06:45:38.000Z</time>
      </trkpt>
      <trkpt lat="43.20918" lon="5.4698">
        <ele>44.358032</ele>
        <time>2013-04-07T06:45:43.000Z</time>
      </trkpt>
      <trkpt lat="43.20921" lon="5.46974">
        <ele>36.186768</ele>
        <time>2013-04-07T06:45:49.000Z</time>
      </trkpt>
      <trkpt lat="43.20924" lon="5.46968">
        <ele>32.822266</ele>
        <time>2013-04-07T06:45:53.000Z</time>
      </trkpt>
      <trkpt lat="43.20923" lon="5.46962">
        <ele>30.899536</ele>
        <time>2013-04-07T06:45:57.000Z</time>
      </trkpt>
      <trkpt lat="43.2092" lon="5.46958">
        <ele>30.418823</ele>
        <time>2013-04-07T06:46:01.000Z</time>
      </trkpt>
      <trkpt lat="43.20921" lon="5.46952">
        <ele>27.534912</ele>
        <time>2013-04-07T06:46:05.000Z</time>
      </trkpt>
      <trkpt lat="43.20923" lon="5.4695">
        <ele>25.131714</ele>
        <time>2013-04-07T06:46:08.000Z</time>
      </trkpt>
      <trkpt lat="43.20924" lon="5.46941">
        <ele>21.766968</ele>
        <time>2013-04-07T06:46:13.000Z</time>
      </trkpt>
      <trkpt lat="43.20927" lon="5.46936">
        <ele>18.883057</ele>
        <time>2013-04-07T06:46:18.000Z</time>
      </trkpt>
      <trkpt lat="43.2093" lon="5.46929">
        <ele>14.557007</ele>
        <time>2013-04-07T06:46:24.000Z</time>
      </trkpt>
      <trkpt lat="43.20931" lon="5.46916">
        <ele>17.921753</ele>
        <time>2013-04-07T06:46:29.000Z</time>
      </trkpt>
      <trkpt lat="43.20928" lon="5.46906">
        <ele>21.286377</ele>
        <time>2013-04-07T06:46:33.000Z</time>
      </trkpt>
      <trkpt lat="43.20927" lon="5.46902">
        <ele>22.247559</ele>
        <time>2013-04-07T06:46:35.000Z</time>
      </trkpt>
      <trkpt lat="43.20923" lon="5.46888">
        <ele>21.766968</ele>
        <time>2013-04-07T06:46:42.000Z</time>
      </trkpt>
      <trkpt lat="43.20922" lon="5.46885">
        <ele>21.766968</ele>
        <time>2013-04-07T06:46:43.000Z</time>
      </trkpt>
      <trkpt lat="43.20921" lon="5.46866">
        <ele>21.766968</ele>
        <time>2013-04-07T06:46:49.000Z</time>
      </trkpt>
      <trkpt lat="43.20919" lon="5.4686">
        <ele>21.766968</ele>
        <time>2013-04-07T06:46:51.000Z</time>
      </trkpt>
      <trkpt lat="43.20922" lon="5.46842">
        <ele>24.170288</ele>
        <time>2013-04-07T06:46:56.000Z</time>
      </trkpt>
      <trkpt lat="43.20923" lon="5.46837">
        <ele>25.131714</ele>
        <time>2013-04-07T06:47:00.000Z</time>
      </trkpt>
      <trkpt lat="43.20921" lon="5.46832">
        <ele>26.573608</ele>
        <time>2013-04-07T06:47:03.000Z</time>
      </trkpt>
      <trkpt lat="43.20921" lon="5.46825">
        <ele>27.534912</ele>
        <time>2013-04-07T06:47:08.000Z</time>
      </trkpt>
      <trkpt lat="43.20924" lon="5.46821">
        <ele>28.496216</ele>
        <time>2013-04-07T06:47:13.000Z</time>
      </trkpt>
      <trkpt lat="43.20926" lon="5.46815">
        <ele>31.860718</ele>
        <time>2013-04-07T06:47:18.000Z</time>
      </trkpt>
      <trkpt lat="43.20926" lon="5.46809">
        <ele>32.341553</ele>
        <time>2013-04-07T06:47:22.000Z</time>
      </trkpt>
      <trkpt lat="43.20927" lon="5.46804">
        <ele>32.822266</ele>
        <time>2013-04-07T06:47:27.000Z</time>
      </trkpt>
      <trkpt lat="43.20926" lon="5.46797">
        <ele>35.225464</ele>
        <time>2013-04-07T06:47:33.000Z</time>
      </trkpt>
      <trkpt lat="43.20924" lon="5.4679">
        <ele>40.512817</ele>
        <time>2013-04-07T06:47:39.000Z</time>
      </trkpt>
      <trkpt lat="43.2092" lon="5.46785">
        <ele>41.954712</ele>
        <time>2013-04-07T06:47:43.000Z</time>
      </trkpt>
      <trkpt lat="43.20919" lon="5.46775">
        <ele>43.396606</ele>
        <time>2013-04-07T06:47:48.000Z</time>
      </trkpt>
      <trkpt lat="43.20921" lon="5.46774">
        <ele>44.358032</ele>
        <time>2013-04-07T06:47:51.000Z</time>
      </trkpt>
      <trkpt lat="43.20924" lon="5.46771">
        <ele>44.358032</ele>
        <time>2013-04-07T06:47:55.000Z</time>
      </trkpt>
      <trkpt lat="43.20924" lon="5.46764">
        <ele>44.838623</ele>
        <time>2013-04-07T06:47:59.000Z</time>
      </trkpt>
      <trkpt lat="43.20926" lon="5.46758">
        <ele>44.838623</ele>
        <time>2013-04-07T06:48:03.000Z</time>
      </trkpt>
      <trkpt lat="43.20927" lon="5.46747">
        <ele>47.24182</ele>
        <time>2013-04-07T06:48:08.000Z</time>
      </trkpt>
      <trkpt lat="43.20927" lon="5.46743">
        <ele>47.24182</ele>
        <time>2013-04-07T06:48:09.000Z</time>
      </trkpt>
      <trkpt lat="43.20926" lon="5.46738">
        <ele>48.20337</ele>
        <time>2013-04-07T06:48:11.000Z</time>
      </trkpt>
      <trkpt lat="43.20927" lon="5.46735">
        <ele>47.722534</ele>
        <time>2013-04-07T06:48:13.000Z</time>
      </trkpt>
      <trkpt lat="43.20924" lon="5.46726">
        <ele>48.20337</ele>
        <time>2013-04-07T06:48:17.000Z</time>
      </trkpt>
      <trkpt lat="43.20923" lon="5.46722">
        <ele>49.16455</ele>
        <time>2013-04-07T06:48:20.000Z</time>
      </trkpt>
      <trkpt lat="43.20923" lon="5.4672">
        <ele>50.125977</ele>
        <time>2013-04-07T06:48:21.000Z</time>
      </trkpt>
      <trkpt lat="43.20923" lon="5.46716">
        <ele>53.009766</ele>
        <time>2013-04-07T06:48:27.000Z</time>
      </trkpt>
      <trkpt lat="43.20923" lon="5.46713">
        <ele>53.49048</ele>
        <time>2013-04-07T06:48:29.000Z</time>
      </trkpt>
      <trkpt lat="43.20926" lon="5.46703">
        <ele>56.37451</ele>
        <time>2013-04-07T06:48:36.000Z</time>
      </trkpt>
      <trkpt lat="43.20927" lon="5.46702">
        <ele>57.335815</ele>
        <time>2013-04-07T06:48:37.000Z</time>
      </trkpt>
      <trkpt lat="43.20928" lon="5.46692">
        <ele>59.739136</ele>
        <time>2013-04-07T06:48:43.000Z</time>
      </trkpt>
      <trkpt lat="43.20927" lon="5.46685">
        <ele>64.06506</ele>
        <time>2013-04-07T06:48:48.000Z</time>
      </trkpt>
      <trkpt lat="43.20926" lon="5.46679">
        <ele>68.87158</ele>
        <time>2013-04-07T06:48:52.000Z</time>
      </trkpt>
      <trkpt lat="43.20926" lon="5.46677">
        <ele>68.39087</ele>
        <time>2013-04-07T06:48:53.000Z</time>
      </trkpt>
      <trkpt lat="43.20926" lon="5.46672">
        <ele>68.87158</ele>
        <time>2013-04-07T06:48:59.000Z</time>
      </trkpt>
      <trkpt lat="43.20926" lon="5.46668">
        <ele>68.39087</ele>
        <time>2013-04-07T06:49:04.000Z</time>
      </trkpt>
      <trkpt lat="43.20925" lon="5.46663">
        <ele>70.79419</ele>
        <time>2013-04-07T06:49:09.000Z</time>
      </trkpt>
      <trkpt lat="43.20925" lon="5.46658">
        <ele>73.67822</ele>
        <time>2013-04-07T06:49:14.000Z</time>
      </trkpt>
      <trkpt lat="43.20927" lon="5.46655">
        <ele>75.60083</ele>
        <time>2013-04-07T06:49:20.000Z</time>
      </trkpt>
      <trkpt lat="43.20928" lon="5.46655">
        <ele>77.04285</ele>
        <time>2013-04-07T06:49:23.000Z</time>
      </trkpt>
      <trkpt lat="43.20928" lon="5.46652">
        <ele>76.56213</ele>
        <time>2013-04-07T06:49:26.000Z</time>
      </trkpt>
      <trkpt lat="43.20927" lon="5.46639">
        <ele>79.446045</ele>
        <time>2013-04-07T06:49:31.000Z</time>
      </trkpt>
      <trkpt lat="43.20928" lon="5.46638">
        <ele>79.926636</ele>
        <time>2013-04-07T06:49:32.000Z</time>
      </trkpt>
      <trkpt lat="43.20929" lon="5.46632">
        <ele>80.88818</ele>
        <time>2013-04-07T06:49:37.000Z</time>
      </trkpt>
      <trkpt lat="43.20929" lon="5.46631">
        <ele>80.88818</ele>
        <time>2013-04-07T06:49:38.000Z</time>
      </trkpt>
      <trkpt lat="43.20931" lon="5.4662">
        <ele>81.368774</ele>
        <time>2013-04-07T06:49:43.000Z</time>
      </trkpt>
      <trkpt lat="43.20931" lon="5.46616">
        <ele>83.29138</ele>
        <time>2013-04-07T06:49:45.000Z</time>
      </trkpt>
      <trkpt lat="43.20933" lon="5.4661">
        <ele>81.368774</ele>
        <time>2013-04-07T06:49:48.000Z</time>
      </trkpt>
      <trkpt lat="43.20932" lon="5.466">
        <ele>81.849365</ele>
        <time>2013-04-07T06:49:53.000Z</time>
      </trkpt>
      <trkpt lat="43.20933" lon="5.46593">
        <ele>79.926636</ele>
        <time>2013-04-07T06:49:56.000Z</time>
      </trkpt>
      <trkpt lat="43.20932" lon="5.46587">
        <ele>78.965454</ele>
        <time>2013-04-07T06:49:58.000Z</time>
      </trkpt>
      <trkpt lat="43.20932" lon="5.46579">
        <ele>76.56213</ele>
        <time>2013-04-07T06:50:02.000Z</time>
      </trkpt>
      <trkpt lat="43.20932" lon="5.46575">
        <ele>75.60083</ele>
        <time>2013-04-07T06:50:04.000Z</time>
      </trkpt>
      <trkpt lat="43.2093" lon="5.46565">
        <ele>72.71692</ele>
        <time>2013-04-07T06:50:09.000Z</time>
      </trkpt>
      <trkpt lat="43.2093" lon="5.46562">
        <ele>72.236206</ele>
        <time>2013-04-07T06:50:10.000Z</time>
      </trkpt>
      <trkpt lat="43.20932" lon="5.46549">
        <ele>68.39087</ele>
        <time>2013-04-07T06:50:15.000Z</time>
      </trkpt>
      <trkpt lat="43.20933" lon="5.46543">
        <ele>67.42969</ele>
        <time>2013-04-07T06:50:18.000Z</time>
      </trkpt>
      <trkpt lat="43.20932" lon="5.46541">
        <ele>65.50708</ele>
        <time>2013-04-07T06:50:21.000Z</time>
      </trkpt>
      <trkpt lat="43.20929" lon="5.46527">
        <ele>65.02637</ele>
        <time>2013-04-07T06:50:26.000Z</time>
      </trkpt>
      <trkpt lat="43.20928" lon="5.46517">
        <ele>64.06506</ele>
        <time>2013-04-07T06:50:30.000Z</time>
      </trkpt>
      <trkpt lat="43.20926" lon="5.46506">
        <ele>66.46826</ele>
        <time>2013-04-07T06:50:36.000Z</time>
      </trkpt>
      <trkpt lat="43.20927" lon="5.46495">
        <ele>66.46826</ele>
        <time>2013-04-07T06:50:42.000Z</time>
      </trkpt>
      <trkpt lat="43.20929" lon="5.46485">
        <ele>67.91028</ele>
        <time>2013-04-07T06:50:45.000Z</time>
      </trkpt>
      <trkpt lat="43.2093" lon="5.46479">
        <ele>68.39087</ele>
        <time>2013-04-07T06:50:50.000Z</time>
      </trkpt>
      <trkpt lat="43.20933" lon="5.46471">
        <ele>69.832886</ele>
        <time>2013-04-07T06:50:54.000Z</time>
      </trkpt>
      <trkpt lat="43.20942" lon="5.46464">
        <ele>66.948975</ele>
        <time>2013-04-07T06:50:59.000Z</time>
      </trkpt>
      <trkpt lat="43.20948" lon="5.46452">
        <ele>66.46826</ele>
        <time>2013-04-07T06:51:03.000Z</time>
      </trkpt>
      <trkpt lat="43.20955" lon="5.46444">
        <ele>65.98767</ele>
        <time>2013-04-07T06:51:09.000Z</time>
      </trkpt>
      <trkpt lat="43.20955" lon="5.4644">
        <ele>64.545654</ele>
        <time>2013-04-07T06:51:11.000Z</time>
      </trkpt>
      <trkpt lat="43.20955" lon="5.46438">
        <ele>62.622925</ele>
        <time>2013-04-07T06:51:19.000Z</time>
      </trkpt>
      <trkpt lat="43.20957" lon="5.46429">
        <ele>59.739136</ele>
        <time>2013-04-07T06:51:25.000Z</time>
      </trkpt>
      <trkpt lat="43.20959" lon="5.46418">
        <ele>59.739136</ele>
        <time>2013-04-07T06:51:30.000Z</time>
      </trkpt>
      <trkpt lat="43.20959" lon="5.46412">
        <ele>59.739136</ele>
        <time>2013-04-07T06:51:36.000Z</time>
      </trkpt>
      <trkpt lat="43.20959" lon="5.4641">
        <ele>59.739136</ele>
        <time>2013-04-07T06:51:37.000Z</time>
      </trkpt>
      <trkpt lat="43.20961" lon="5.464">
        <ele>59.258423</ele>
        <time>2013-04-07T06:51:42.000Z</time>
      </trkpt>
      <trkpt lat="43.20965" lon="5.46388">
        <ele>58.29712</ele>
        <time>2013-04-07T06:51:46.000Z</time>
      </trkpt>
      <trkpt lat="43.20969" lon="5.46385">
        <ele>58.77771</ele>
        <time>2013-04-07T06:51:48.000Z</time>
      </trkpt>
      <trkpt lat="43.20973" lon="5.46383">
        <ele>59.258423</ele>
        <time>2013-04-07T06:51:51.000Z</time>
      </trkpt>
      <trkpt lat="43.20982" lon="5.46372">
        <ele>61.661743</ele>
        <time>2013-04-07T06:51:56.000Z</time>
      </trkpt>
      <trkpt lat="43.20983" lon="5.4637">
        <ele>61.661743</ele>
        <time>2013-04-07T06:51:57.000Z</time>
      </trkpt>
      <trkpt lat="43.20991" lon="5.46361">
        <ele>62.622925</ele>
        <time>2013-04-07T06:52:03.000Z</time>
      </trkpt>
      <trkpt lat="43.20998" lon="5.46352">
        <ele>64.545654</ele>
        <time>2013-04-07T06:52:08.000Z</time>
      </trkpt>
      <trkpt lat="43.21005" lon="5.46351">
        <ele>65.98767</ele>
        <time>2013-04-07T06:52:12.000Z</time>
      </trkpt>
      <trkpt lat="43.21007" lon="5.46351">
        <ele>67.42969</ele>
        <time>2013-04-07T06:52:13.000Z</time>
      </trkpt>
      <trkpt lat="43.21009" lon="5.46349">
        <ele>68.87158</ele>
        <time>2013-04-07T06:52:15.000Z</time>
      </trkpt>
      <trkpt lat="43.21014" lon="5.46342">
        <ele>68.39087</ele>
        <time>2013-04-07T06:52:20.000Z</time>
      </trkpt>
      <trkpt lat="43.21016" lon="5.46337">
        <ele>70.79419</ele>
        <time>2013-04-07T06:52:25.000Z</time>
      </trkpt>
      <trkpt lat="43.21021" lon="5.46333">
        <ele>73.67822</ele>
        <time>2013-04-07T06:52:29.000Z</time>
      </trkpt>
      <trkpt lat="43.21024" lon="5.46333">
        <ele>75.12024</ele>
        <time>2013-04-07T06:52:31.000Z</time>
      </trkpt>
      <trkpt lat="43.21029" lon="5.46329">
        <ele>76.08142</ele>
        <time>2013-04-07T06:52:35.000Z</time>
      </trkpt>
      <trkpt lat="43.21033" lon="5.46325">
        <ele>77.04285</ele>
        <time>2013-04-07T06:52:39.000Z</time>
      </trkpt>
      <trkpt lat="43.21034" lon="5.46319">
        <ele>78.965454</ele>
        <time>2013-04-07T06:52:42.000Z</time>
      </trkpt>
      <trkpt lat="43.21039" lon="5.46315">
        <ele>80.40747</ele>
        <time>2013-04-07T06:52:48.000Z</time>
      </trkpt>
      <trkpt lat="43.21041" lon="5.46311">
        <ele>81.368774</ele>
        <time>2013-04-07T06:52:53.000Z</time>
      </trkpt>
      <trkpt lat="43.21044" lon="5.4631">
        <ele>79.926636</ele>
        <time>2013-04-07T06:52:56.000Z</time>
      </trkpt>
      <trkpt lat="43.21045" lon="5.46308">
        <ele>80.40747</ele>
        <time>2013-04-07T06:52:57.000Z</time>
      </trkpt>
      <trkpt lat="43.2105" lon="5.46298">
        <ele>83.77197</ele>
        <time>2013-04-07T06:53:06.000Z</time>
      </trkpt>
      <trkpt lat="43.21053" lon="5.46295">
        <ele>84.7334</ele>
        <time>2013-04-07T06:53:10.000Z</time>
      </trkpt>
      <trkpt lat="43.21058" lon="5.46291">
        <ele>86.656006</ele>
        <time>2013-04-07T06:53:16.000Z</time>
      </trkpt>
      <trkpt lat="43.21062" lon="5.46289">
        <ele>87.61719</ele>
        <time>2013-04-07T06:53:21.000Z</time>
      </trkpt>
      <trkpt lat="43.21065" lon="5.46286">
        <ele>90.02063</ele>
        <time>2013-04-07T06:53:25.000Z</time>
      </trkpt>
      <trkpt lat="43.21068" lon="5.46287">
        <ele>90.02063</ele>
        <time>2013-04-07T06:53:29.000Z</time>
      </trkpt>
      <trkpt lat="43.21073" lon="5.46285">
        <ele>88.578735</ele>
        <time>2013-04-07T06:53:36.000Z</time>
      </trkpt>
      <trkpt lat="43.21075" lon="5.46278">
        <ele>90.02063</ele>
        <time>2013-04-07T06:53:42.000Z</time>
      </trkpt>
      <trkpt lat="43.21077" lon="5.46272">
        <ele>92.42395</ele>
        <time>2013-04-07T06:53:48.000Z</time>
      </trkpt>
      <trkpt lat="43.21078" lon="5.46266">
        <ele>93.865845</ele>
        <time>2013-04-07T06:53:52.000Z</time>
      </trkpt>
      <trkpt lat="43.21083" lon="5.46257">
        <ele>97.23047</ele>
        <time>2013-04-07T06:53:59.000Z</time>
      </trkpt>
      <trkpt lat="43.21087" lon="5.46249">
        <ele>99.63379</ele>
        <time>2013-04-07T06:54:04.000Z</time>
      </trkpt>
      <trkpt lat="43.21089" lon="5.46243">
        <ele>101.5564</ele>
        <time>2013-04-07T06:54:07.000Z</time>
      </trkpt>
      <trkpt lat="43.21093" lon="5.46237">
        <ele>103.95972</ele>
        <time>2013-04-07T06:54:11.000Z</time>
      </trkpt>
      <trkpt lat="43.21103" lon="5.46226">
        <ele>105.88245</ele>
        <time>2013-04-07T06:54:17.000Z</time>
      </trkpt>
      <trkpt lat="43.21109" lon="5.46216">
        <ele>106.84363</ele>
        <time>2013-04-07T06:54:21.000Z</time>
      </trkpt>
      <trkpt lat="43.2111" lon="5.46213">
        <ele>105.88245</ele>
        <time>2013-04-07T06:54:24.000Z</time>
      </trkpt>
      <trkpt lat="43.21113" lon="5.462">
        <ele>106.84363</ele>
        <time>2013-04-07T06:54:29.000Z</time>
      </trkpt>
      <trkpt lat="43.21112" lon="5.46177">
        <ele>104.92102</ele>
        <time>2013-04-07T06:54:37.000Z</time>
      </trkpt>
      <trkpt lat="43.21112" lon="5.46166">
        <ele>106.84363</ele>
        <time>2013-04-07T06:54:41.000Z</time>
      </trkpt>
      <trkpt lat="43.21111" lon="5.46149">
        <ele>110.68884</ele>
        <time>2013-04-07T06:54:46.000Z</time>
      </trkpt>
      <trkpt lat="43.21113" lon="5.46141">
        <ele>110.68884</ele>
        <time>2013-04-07T06:54:49.000Z</time>
      </trkpt>
      <trkpt lat="43.21124" lon="5.4613">
        <ele>113.573</ele>
        <time>2013-04-07T06:54:56.000Z</time>
      </trkpt>
      <trkpt lat="43.21129" lon="5.46116">
        <ele>113.092285</ele>
        <time>2013-04-07T06:55:02.000Z</time>
      </trkpt>
      <trkpt lat="43.21132" lon="5.46099">
        <ele>111.169556</ele>
        <time>2013-04-07T06:55:08.000Z</time>
      </trkpt>
      <trkpt lat="43.2114" lon="5.46085">
        <ele>110.20825</ele>
        <time>2013-04-07T06:55:13.000Z</time>
      </trkpt>
      <trkpt lat="43.21141" lon="5.46082">
        <ele>109.72766</ele>
        <time>2013-04-07T06:55:14.000Z</time>
      </trkpt>
      <trkpt lat="43.21146" lon="5.46064">
        <ele>108.285645</ele>
        <time>2013-04-07T06:55:19.000Z</time>
      </trkpt>
      <trkpt lat="43.21158" lon="5.46047">
        <ele>104.92102</ele>
        <time>2013-04-07T06:55:25.000Z</time>
      </trkpt>
      <trkpt lat="43.2117" lon="5.46034">
        <ele>104.44043</ele>
        <time>2013-04-07T06:55:31.000Z</time>
      </trkpt>
      <trkpt lat="43.21181" lon="5.46023">
        <ele>104.44043</ele>
        <time>2013-04-07T06:55:37.000Z</time>
      </trkpt>
      <trkpt lat="43.2119" lon="5.46012">
        <ele>106.36304</ele>
        <time>2013-04-07T06:55:42.000Z</time>
      </trkpt>
      <trkpt lat="43.21199" lon="5.46003">
        <ele>107.80505</ele>
        <time>2013-04-07T06:55:47.000Z</time>
      </trkpt>
      <trkpt lat="43.21209" lon="5.45994">
        <ele>109.72766</ele>
        <time>2013-04-07T06:55:52.000Z</time>
      </trkpt>
      <trkpt lat="43.21218" lon="5.45989">
        <ele>111.169556</ele>
        <time>2013-04-07T06:55:56.000Z</time>
      </trkpt>
      <trkpt lat="43.21228" lon="5.45986">
        <ele>113.573</ele>
        <time>2013-04-07T06:56:01.000Z</time>
      </trkpt>
      <trkpt lat="43.21238" lon="5.45979">
        <ele>115.9762</ele>
        <time>2013-04-07T06:56:06.000Z</time>
      </trkpt>
      <trkpt lat="43.21248" lon="5.45961">
        <ele>117.41821</ele>
        <time>2013-04-07T06:56:13.000Z</time>
      </trkpt>
      <trkpt lat="43.21255" lon="5.45955">
        <ele>118.379395</ele>
        <time>2013-04-07T06:56:17.000Z</time>
      </trkpt>
      <trkpt lat="43.21264" lon="5.45947">
        <ele>119.82141</ele>
        <time>2013-04-07T06:56:22.000Z</time>
      </trkpt>
      <trkpt lat="43.21272" lon="5.45933">
        <ele>120.302124</ele>
        <time>2013-04-07T06:56:28.000Z</time>
      </trkpt>
      <trkpt lat="43.21278" lon="5.4592">
        <ele>121.26355</ele>
        <time>2013-04-07T06:56:33.000Z</time>
      </trkpt>
      <trkpt lat="43.21284" lon="5.45909">
        <ele>121.74414</ele>
        <time>2013-04-07T06:56:38.000Z</time>
      </trkpt>
      <trkpt lat="43.21292" lon="5.45898">
        <ele>123.66675</ele>
        <time>2013-04-07T06:56:44.000Z</time>
      </trkpt>
      <trkpt lat="43.21296" lon="5.45888">
        <ele>125.108765</ele>
        <time>2013-04-07T06:56:48.000Z</time>
      </trkpt>
      <trkpt lat="43.21298" lon="5.45883">
        <ele>125.108765</ele>
        <time>2013-04-07T06:56:50.000Z</time>
      </trkpt>
      <trkpt lat="43.21306" lon="5.45869">
        <ele>125.589355</ele>
        <time>2013-04-07T06:56:57.000Z</time>
      </trkpt>
      <trkpt lat="43.21309" lon="5.45859">
        <ele>126.55066</ele>
        <time>2013-04-07T06:57:01.000Z</time>
      </trkpt>
      <trkpt lat="43.21314" lon="5.45845">
        <ele>127.03137</ele>
        <time>2013-04-07T06:57:07.000Z</time>
      </trkpt>
      <trkpt lat="43.21318" lon="5.45834">
        <ele>128.47339</ele>
        <time>2013-04-07T06:57:12.000Z</time>
      </trkpt>
      <trkpt lat="43.21323" lon="5.45824">
        <ele>129.4347</ele>
        <time>2013-04-07T06:57:17.000Z</time>
      </trkpt>
      <trkpt lat="43.21329" lon="5.45815">
        <ele>130.396</ele>
        <time>2013-04-07T06:57:22.000Z</time>
      </trkpt>
      <trkpt lat="43.21335" lon="5.45805">
        <ele>130.87671</ele>
        <time>2013-04-07T06:57:27.000Z</time>
      </trkpt>
      <trkpt lat="43.21336" lon="5.45803">
        <ele>130.87671</ele>
        <time>2013-04-07T06:57:28.000Z</time>
      </trkpt>
      <trkpt lat="43.21335" lon="5.45786">
        <ele>132.3186</ele>
        <time>2013-04-07T06:57:34.000Z</time>
      </trkpt>
      <trkpt lat="43.21333" lon="5.45781">
        <ele>133.2799</ele>
        <time>2013-04-07T06:57:36.000Z</time>
      </trkpt>
      <trkpt lat="43.21332" lon="5.45777">
        <ele>132.79932</ele>
        <time>2013-04-07T06:57:38.000Z</time>
      </trkpt>
      <trkpt lat="43.21329" lon="5.4576">
        <ele>134.24121</ele>
        <time>2013-04-07T06:57:44.000Z</time>
      </trkpt>
      <trkpt lat="43.21328" lon="5.45749">
        <ele>135.20251</ele>
        <time>2013-04-07T06:57:48.000Z</time>
      </trkpt>
      <trkpt lat="43.21329" lon="5.45732">
        <ele>136.16394</ele>
        <time>2013-04-07T06:57:54.000Z</time>
      </trkpt>
      <trkpt lat="43.2133" lon="5.45717">
        <ele>136.16394</ele>
        <time>2013-04-07T06:57:59.000Z</time>
      </trkpt>
      <trkpt lat="43.21335" lon="5.45701">
        <ele>137.60583</ele>
        <time>2013-04-07T06:58:05.000Z</time>
      </trkpt>
      <trkpt lat="43.21339" lon="5.45692">
        <ele>137.60583</ele>
        <time>2013-04-07T06:58:09.000Z</time>
      </trkpt>
      <trkpt lat="43.21342" lon="5.45687">
        <ele>137.60583</ele>
        <time>2013-04-07T06:58:12.000Z</time>
      </trkpt>
      <trkpt lat="43.21347" lon="5.45684">
        <ele>138.56726</ele>
        <time>2013-04-07T06:58:17.000Z</time>
      </trkpt>
      <trkpt lat="43.2135" lon="5.45682">
        <ele>139.52844</ele>
        <time>2013-04-07T06:58:20.000Z</time>
      </trkpt>
      <trkpt lat="43.21354" lon="5.45682">
        <ele>141.45105</ele>
        <time>2013-04-07T06:58:25.000Z</time>
      </trkpt>
      <trkpt lat="43.21358" lon="5.45688">
        <ele>143.85437</ele>
        <time>2013-04-07T06:58:31.000Z</time>
      </trkpt>
      <trkpt lat="43.21362" lon="5.45686">
        <ele>146.25781</ele>
        <time>2013-04-07T06:58:36.000Z</time>
      </trkpt>
      <trkpt lat="43.21367" lon="5.45689">
        <ele>149.1416</ele>
        <time>2013-04-07T06:58:42.000Z</time>
      </trkpt>
      <trkpt lat="43.21377" lon="5.45688">
        <ele>152.98694</ele>
        <time>2013-04-07T06:58:49.000Z</time>
      </trkpt>
      <trkpt lat="43.21384" lon="5.45684">
        <ele>156.35156</ele>
        <time>2013-04-07T06:58:55.000Z</time>
      </trkpt>
      <trkpt lat="43.21391" lon="5.4568">
        <ele>158.75476</ele>
        <time>2013-04-07T06:59:01.000Z</time>
      </trkpt>
      <trkpt lat="43.21399" lon="5.45677">
        <ele>159.23547</ele>
        <time>2013-04-07T06:59:07.000Z</time>
      </trkpt>
      <trkpt lat="43.2141" lon="5.45669">
        <ele>162.1195</ele>
        <time>2013-04-07T06:59:16.000Z</time>
      </trkpt>
      <trkpt lat="43.21416" lon="5.45658">
        <ele>163.08081</ele>
        <time>2013-04-07T06:59:23.000Z</time>
      </trkpt>
      <trkpt lat="43.21418" lon="5.45651">
        <ele>163.08081</ele>
        <time>2013-04-07T06:59:27.000Z</time>
      </trkpt>
      <trkpt lat="43.21419" lon="5.45638">
        <ele>164.5227</ele>
        <time>2013-04-07T06:59:34.000Z</time>
      </trkpt>
      <trkpt lat="43.21419" lon="5.45632">
        <ele>165.00342</ele>
        <time>2013-04-07T06:59:37.000Z</time>
      </trkpt>
      <trkpt lat="43.21418" lon="5.4563">
        <ele>165.48413</ele>
        <time>2013-04-07T06:59:38.000Z</time>
      </trkpt>
      <trkpt lat="43.21418" lon="5.45626">
        <ele>166.44531</ele>
        <time>2013-04-07T06:59:40.000Z</time>
      </trkpt>
      <trkpt lat="43.21415" lon="5.45613">
        <ele>166.92603</ele>
        <time>2013-04-07T06:59:45.000Z</time>
      </trkpt>
      <trkpt lat="43.21411" lon="5.456">
        <ele>166.92603</ele>
        <time>2013-04-07T06:59:49.000Z</time>
      </trkpt>
      <trkpt lat="43.21409" lon="5.45594">
        <ele>166.92603</ele>
        <time>2013-04-07T06:59:51.000Z</time>
      </trkpt>
      <trkpt lat="43.21405" lon="5.45577">
        <ele>165.96472</ele>
        <time>2013-04-07T06:59:57.000Z</time>
      </trkpt>
      <trkpt lat="43.21405" lon="5.4556">
        <ele>165.48413</ele>
        <time>2013-04-07T07:00:02.000Z</time>
      </trkpt>
      <trkpt lat="43.21405" lon="5.45546">
        <ele>165.48413</ele>
        <time>2013-04-07T07:00:07.000Z</time>
      </trkpt>
      <trkpt lat="43.21404" lon="5.45533">
        <ele>167.88733</ele>
        <time>2013-04-07T07:00:11.000Z</time>
      </trkpt>
      <trkpt lat="43.21403" lon="5.45531">
        <ele>168.84875</ele>
        <time>2013-04-07T07:00:12.000Z</time>
      </trkpt>
      <trkpt lat="43.21405" lon="5.45524">
        <ele>171.25208</ele>
        <time>2013-04-07T07:00:16.000Z</time>
      </trkpt>
      <trkpt lat="43.21407" lon="5.45517">
        <ele>173.65527</ele>
        <time>2013-04-07T07:00:21.000Z</time>
      </trkpt>
      <trkpt lat="43.21411" lon="5.45504">
        <ele>176.0586</ele>
        <time>2013-04-07T07:00:28.000Z</time>
      </trkpt>
      <trkpt lat="43.21413" lon="5.45495">
        <ele>178.94263</ele>
        <time>2013-04-07T07:00:34.000Z</time>
      </trkpt>
      <trkpt lat="43.21417" lon="5.4548">
        <ele>181.82642</ele>
        <time>2013-04-07T07:00:42.000Z</time>
      </trkpt>
      <trkpt lat="43.21419" lon="5.45468">
        <ele>181.34583</ele>
        <time>2013-04-07T07:00:48.000Z</time>
      </trkpt>
      <trkpt lat="43.2142" lon="5.45453">
        <ele>181.34583</ele>
        <time>2013-04-07T07:00:55.000Z</time>
      </trkpt>
      <trkpt lat="43.21423" lon="5.4544">
        <ele>181.34583</ele>
        <time>2013-04-07T07:01:00.000Z</time>
      </trkpt>
      <trkpt lat="43.21425" lon="5.45426">
        <ele>181.82642</ele>
        <time>2013-04-07T07:01:05.000Z</time>
      </trkpt>
      <trkpt lat="43.21426" lon="5.45415">
        <ele>182.30713</ele>
        <time>2013-04-07T07:01:09.000Z</time>
      </trkpt>
      <trkpt lat="43.21428" lon="5.45402">
        <ele>183.74902</ele>
        <time>2013-04-07T07:01:14.000Z</time>
      </trkpt>
      <trkpt lat="43.21434" lon="5.4539">
        <ele>185.19116</ele>
        <time>2013-04-07T07:01:19.000Z</time>
      </trkpt>
      <trkpt lat="43.21435" lon="5.45377">
        <ele>185.19116</ele>
        <time>2013-04-07T07:01:24.000Z</time>
      </trkpt>
      <trkpt lat="43.21431" lon="5.45361">
        <ele>187.59436</ele>
        <time>2013-04-07T07:01:30.000Z</time>
      </trkpt>
      <trkpt lat="43.21431" lon="5.45358">
        <ele>188.07507</ele>
        <time>2013-04-07T07:01:31.000Z</time>
      </trkpt>
      <trkpt lat="43.21431" lon="5.45349">
        <ele>188.55579</ele>
        <time>2013-04-07T07:01:35.000Z</time>
      </trkpt>
      <trkpt lat="43.21431" lon="5.45344">
        <ele>189.03638</ele>
        <time>2013-04-07T07:01:37.000Z</time>
      </trkpt>
      <trkpt lat="43.21427" lon="5.45331">
        <ele>191.43958</ele>
        <time>2013-04-07T07:01:42.000Z</time>
      </trkpt>
      <trkpt lat="43.21427" lon="5.45312">
        <ele>192.88171</ele>
        <time>2013-04-07T07:01:50.000Z</time>
      </trkpt>
      <trkpt lat="43.21429" lon="5.45303">
        <ele>194.80432</ele>
        <time>2013-04-07T07:01:54.000Z</time>
      </trkpt>
      <trkpt lat="43.2143" lon="5.45297">
        <ele>196.24634</ele>
        <time>2013-04-07T07:01:57.000Z</time>
      </trkpt>
      <trkpt lat="43.21432" lon="5.45289">
        <ele>196.24634</ele>
        <time>2013-04-07T07:02:02.000Z</time>
      </trkpt>
      <trkpt lat="43.21434" lon="5.4528">
        <ele>196.72693</ele>
        <time>2013-04-07T07:02:08.000Z</time>
      </trkpt>
      <trkpt lat="43.21436" lon="5.45276">
        <ele>197.20752</ele>
        <time>2013-04-07T07:02:11.000Z</time>
      </trkpt>
      <trkpt lat="43.21438" lon="5.45266">
        <ele>199.61084</ele>
        <time>2013-04-07T07:02:17.000Z</time>
      </trkpt>
      <trkpt lat="43.2144" lon="5.45257">
        <ele>201.53357</ele>
        <time>2013-04-07T07:02:23.000Z</time>
      </trkpt>
      <trkpt lat="43.21444" lon="5.45248">
        <ele>202.01428</ele>
        <time>2013-04-07T07:02:27.000Z</time>
      </trkpt>
      <trkpt lat="43.21447" lon="5.45239">
        <ele>203.45618</ele>
        <time>2013-04-07T07:02:31.000Z</time>
      </trkpt>
      <trkpt lat="43.21453" lon="5.45232">
        <ele>204.89807</ele>
        <time>2013-04-07T07:02:35.000Z</time>
      </trkpt>
      <trkpt lat="43.2146" lon="5.45227">
        <ele>205.8595</ele>
        <time>2013-04-07T07:02:41.000Z</time>
      </trkpt>
      <trkpt lat="43.21462" lon="5.45225">
        <ele>205.8595</ele>
        <time>2013-04-07T07:02:44.000Z</time>
      </trkpt>
      <trkpt lat="43.21463" lon="5.45221">
        <ele>207.30139</ele>
        <time>2013-04-07T07:02:51.000Z</time>
      </trkpt>
      <trkpt lat="43.21462" lon="5.45219">
        <ele>207.30139</ele>
        <time>2013-04-07T07:03:05.000Z</time>
      </trkpt>
      <trkpt lat="43.21462" lon="5.45219">
        <ele>206.34009</ele>
        <time>2013-04-07T07:03:11.000Z</time>
      </trkpt>
      <trkpt lat="43.2146" lon="5.45219">
        <ele>207.30139</ele>
        <time>2013-04-07T07:03:17.000Z</time>
      </trkpt>
      <trkpt lat="43.2146" lon="5.45219">
        <ele>207.7821</ele>
        <time>2013-04-07T07:03:28.000Z</time>
      </trkpt>
      <trkpt lat="43.21459" lon="5.45219">
        <ele>209.22412</ele>
        <time>2013-04-07T07:03:34.000Z</time>
      </trkpt>
      <trkpt lat="43.21459" lon="5.45219">
        <ele>208.74341</ele>
        <time>2013-04-07T07:03:42.000Z</time>
      </trkpt>
      <trkpt lat="43.2146" lon="5.45219">
        <ele>208.74341</ele>
        <time>2013-04-07T07:03:55.000Z</time>
      </trkpt>
      <trkpt lat="43.2146" lon="5.45219">
        <ele>208.74341</ele>
        <time>2013-04-07T07:04:01.000Z</time>
      </trkpt>
      <trkpt lat="43.2146" lon="5.45219">
        <ele>209.22412</ele>
        <time>2013-04-07T07:04:05.000Z</time>
      </trkpt>
      <trkpt lat="43.21459" lon="5.45219">
        <ele>209.22412</ele>
        <time>2013-04-07T07:04:10.000Z</time>
      </trkpt>
      <trkpt lat="43.2146" lon="5.45219">
        <ele>208.74341</ele>
        <time>2013-04-07T07:04:18.000Z</time>
      </trkpt>
      <trkpt lat="43.2146" lon="5.45218">
        <ele>209.22412</ele>
        <time>2013-04-07T07:04:38.000Z</time>
      </trkpt>
      <trkpt lat="43.2146" lon="5.45217">
        <ele>210.18542</ele>
        <time>2013-04-07T07:04:43.000Z</time>
      </trkpt>
      <trkpt lat="43.2146" lon="5.45215">
        <ele>210.18542</ele>
        <time>2013-04-07T07:04:48.000Z</time>
      </trkpt>
      <trkpt lat="43.21465" lon="5.45214">
        <ele>210.18542</ele>
        <time>2013-04-07T07:04:52.000Z</time>
      </trkpt>
      <trkpt lat="43.21466" lon="5.45215">
        <ele>210.18542</ele>
        <time>2013-04-07T07:04:54.000Z</time>
      </trkpt>
      <trkpt lat="43.21462" lon="5.45219">
        <ele>209.70483</ele>
        <time>2013-04-07T07:04:59.000Z</time>
      </trkpt>
      <trkpt lat="43.2147" lon="5.45211">
        <ele>209.22412</ele>
        <time>2013-04-07T07:05:04.000Z</time>
      </trkpt>
      <trkpt lat="43.2148" lon="5.45206">
        <ele>209.22412</ele>
        <time>2013-04-07T07:05:09.000Z</time>
      </trkpt>
      <trkpt lat="43.21488" lon="5.45201">
        <ele>211.62744</ele>
        <time>2013-04-07T07:05:13.000Z</time>
      </trkpt>
      <trkpt lat="43.21501" lon="5.45195">
        <ele>213.06934</ele>
        <time>2013-04-07T07:05:20.000Z</time>
      </trkpt>
      <trkpt lat="43.21514" lon="5.45192">
        <ele>214.99194</ele>
        <time>2013-04-07T07:05:26.000Z</time>
      </trkpt>
      <trkpt lat="43.21529" lon="5.45193">
        <ele>215.95325</ele>
        <time>2013-04-07T07:05:32.000Z</time>
      </trkpt>
      <trkpt lat="43.2154" lon="5.45195">
        <ele>217.87598</ele>
        <time>2013-04-07T07:05:37.000Z</time>
      </trkpt>
      <trkpt lat="43.21552" lon="5.45195">
        <ele>218.83728</ele>
        <time>2013-04-07T07:05:42.000Z</time>
      </trkpt>
      <trkpt lat="43.21562" lon="5.45195">
        <ele>220.27917</ele>
        <time>2013-04-07T07:05:47.000Z</time>
      </trkpt>
      <trkpt lat="43.21574" lon="5.45195">
        <ele>221.2406</ele>
        <time>2013-04-07T07:05:52.000Z</time>
      </trkpt>
      <trkpt lat="43.21584" lon="5.45195">
        <ele>221.72119</ele>
        <time>2013-04-07T07:05:57.000Z</time>
      </trkpt>
      <trkpt lat="43.21589" lon="5.45195">
        <ele>221.2406</ele>
        <time>2013-04-07T07:05:59.000Z</time>
      </trkpt>
      <trkpt lat="43.21591" lon="5.45188">
        <ele>221.2406</ele>
        <time>2013-04-07T07:06:03.000Z</time>
      </trkpt>
      <trkpt lat="43.21586" lon="5.45182">
        <ele>219.318</ele>
        <time>2013-04-07T07:06:06.000Z</time>
      </trkpt>
      <trkpt lat="43.21586" lon="5.45175">
        <ele>215.95325</ele>
        <time>2013-04-07T07:06:11.000Z</time>
      </trkpt>
      <trkpt lat="43.21585" lon="5.45168">
        <ele>214.03064</ele>
        <time>2013-04-07T07:06:15.000Z</time>
      </trkpt>
      <trkpt lat="43.2158" lon="5.45156">
        <ele>211.62744</ele>
        <time>2013-04-07T07:06:19.000Z</time>
      </trkpt>
      <trkpt lat="43.21576" lon="5.45151">
        <ele>211.14673</ele>
        <time>2013-04-07T07:06:21.000Z</time>
      </trkpt>
      <trkpt lat="43.21561" lon="5.45142">
        <ele>209.22412</ele>
        <time>2013-04-07T07:06:28.000Z</time>
      </trkpt>
      <trkpt lat="43.2155" lon="5.45138">
        <ele>209.70483</ele>
        <time>2013-04-07T07:06:32.000Z</time>
      </trkpt>
      <trkpt lat="43.21541" lon="5.45131">
        <ele>207.7821</ele>
        <time>2013-04-07T07:06:37.000Z</time>
      </trkpt>
      <trkpt lat="43.21539" lon="5.45124">
        <ele>205.8595</ele>
        <time>2013-04-07T07:06:42.000Z</time>
      </trkpt>
      <trkpt lat="43.21537" lon="5.45123">
        <ele>205.37878</ele>
        <time>2013-04-07T07:06:43.000Z</time>
      </trkpt>
      <trkpt lat="43.21525" lon="5.45116">
        <ele>203.93689</ele>
        <time>2013-04-07T07:06:49.000Z</time>
      </trkpt>
      <trkpt lat="43.21511" lon="5.45112">
        <ele>202.01428</ele>
        <time>2013-04-07T07:06:55.000Z</time>
      </trkpt>
      <trkpt lat="43.21505" lon="5.45109">
        <ele>201.05286</ele>
        <time>2013-04-07T07:06:58.000Z</time>
      </trkpt>
      <trkpt lat="43.21496" lon="5.45108">
        <ele>199.61084</ele>
        <time>2013-04-07T07:07:02.000Z</time>
      </trkpt>
      <trkpt lat="43.21492" lon="5.45107">
        <ele>197.68823</ele>
        <time>2013-04-07T07:07:06.000Z</time>
      </trkpt>
      <trkpt lat="43.21487" lon="5.45108">
        <ele>196.72693</ele>
        <time>2013-04-07T07:07:09.000Z</time>
      </trkpt>
      <trkpt lat="43.21482" lon="5.45114">
        <ele>196.24634</ele>
        <time>2013-04-07T07:07:12.000Z</time>
      </trkpt>
      <trkpt lat="43.21475" lon="5.45125">
        <ele>194.32373</ele>
        <time>2013-04-07T07:07:17.000Z</time>
      </trkpt>
      <trkpt lat="43.21474" lon="5.45127">
        <ele>193.84302</ele>
        <time>2013-04-07T07:07:18.000Z</time>
      </trkpt>
      <trkpt lat="43.21466" lon="5.45135">
        <ele>192.88171</ele>
        <time>2013-04-07T07:07:25.000Z</time>
      </trkpt>
      <trkpt lat="43.21462" lon="5.45141">
        <ele>191.92029</ele>
        <time>2013-04-07T07:07:30.000Z</time>
      </trkpt>
      <trkpt lat="43.21454" lon="5.45151">
        <ele>189.51697</ele>
        <time>2013-04-07T07:07:34.000Z</time>
      </trkpt>
      <trkpt lat="43.21452" lon="5.45152">
        <ele>189.03638</ele>
        <time>2013-04-07T07:07:35.000Z</time>
      </trkpt>
      <trkpt lat="43.2145" lon="5.45154">
        <ele>188.07507</ele>
        <time>2013-04-07T07:07:37.000Z</time>
      </trkpt>
      <trkpt lat="43.21447" lon="5.4516">
        <ele>187.11377</ele>
        <time>2013-04-07T07:07:42.000Z</time>
      </trkpt>
      <trkpt lat="43.21443" lon="5.45165">
        <ele>184.71057</ele>
        <time>2013-04-07T07:07:48.000Z</time>
      </trkpt>
      <trkpt lat="43.21442" lon="5.45168">
        <ele>183.26843</ele>
        <time>2013-04-07T07:07:50.000Z</time>
      </trkpt>
      <trkpt lat="43.21438" lon="5.45172">
        <ele>181.34583</ele>
        <time>2013-04-07T07:07:56.000Z</time>
      </trkpt>
      <trkpt lat="43.21437" lon="5.45178">
        <ele>180.38452</ele>
        <time>2013-04-07T07:08:01.000Z</time>
      </trkpt>
      <trkpt lat="43.2143" lon="5.45179">
        <ele>181.82642</ele>
        <time>2013-04-07T07:08:06.000Z</time>
      </trkpt>
      <trkpt lat="43.21427" lon="5.45186">
        <ele>185.19116</ele>
        <time>2013-04-07T07:08:10.000Z</time>
      </trkpt>
      <trkpt lat="43.21426" lon="5.45187">
        <ele>183.74902</ele>
        <time>2013-04-07T07:08:15.000Z</time>
      </trkpt>
      <trkpt lat="43.21422" lon="5.4519">
        <ele>185.19116</ele>
        <time>2013-04-07T07:08:19.000Z</time>
      </trkpt>
      <trkpt lat="43.21419" lon="5.45191">
        <ele>183.74902</ele>
        <time>2013-04-07T07:08:23.000Z</time>
      </trkpt>
      <trkpt lat="43.21414" lon="5.45192">
        <ele>179.90381</ele>
        <time>2013-04-07T07:08:33.000Z</time>
      </trkpt>
      <trkpt lat="43.21408" lon="5.45203">
        <ele>182.78784</ele>
        <time>2013-04-07T07:08:45.000Z</time>
      </trkpt>
      <trkpt lat="43.21406" lon="5.45211">
        <ele>185.67175</ele>
        <time>2013-04-07T07:08:47.000Z</time>
      </trkpt>
      <trkpt lat="43.21401" lon="5.45221">
        <ele>191.92029</ele>
        <time>2013-04-07T07:08:51.000Z</time>
      </trkpt>
      <trkpt lat="43.21397" lon="5.45223">
        <ele>195.28491</ele>
        <time>2013-04-07T07:08:56.000Z</time>
      </trkpt>
      <trkpt lat="43.21395" lon="5.45222">
        <ele>192.40112</ele>
        <time>2013-04-07T07:08:59.000Z</time>
      </trkpt>
      <trkpt lat="43.21394" lon="5.45223">
        <ele>191.92029</ele>
        <time>2013-04-07T07:09:00.000Z</time>
      </trkpt>
      <trkpt lat="43.21389" lon="5.45232">
        <ele>188.55579</ele>
        <time>2013-04-07T07:09:06.000Z</time>
      </trkpt>
      <trkpt lat="43.21384" lon="5.45239">
        <ele>189.03638</ele>
        <time>2013-04-07T07:09:11.000Z</time>
      </trkpt>
      <trkpt lat="43.21382" lon="5.4524">
        <ele>190.4784</ele>
        <time>2013-04-07T07:09:12.000Z</time>
      </trkpt>
      <trkpt lat="43.21369" lon="5.45248">
        <ele>197.68823</ele>
        <time>2013-04-07T07:09:18.000Z</time>
      </trkpt>
      <trkpt lat="43.21367" lon="5.45251">
        <ele>198.16895</ele>
        <time>2013-04-07T07:09:19.000Z</time>
      </trkpt>
      <trkpt lat="43.21375" lon="5.45262">
        <ele>174.13586</ele>
        <time>2013-04-07T07:09:25.000Z</time>
      </trkpt>
      <trkpt lat="43.21384" lon="5.45266">
        <ele>160.67749</ele>
        <time>2013-04-07T07:09:28.000Z</time>
      </trkpt>
      <trkpt lat="43.21387" lon="5.45287">
        <ele>146.7384</ele>
        <time>2013-04-07T07:09:34.000Z</time>
      </trkpt>
      <trkpt lat="43.21388" lon="5.45296">
        <ele>142.41248</ele>
        <time>2013-04-07T07:09:36.000Z</time>
      </trkpt>
      <trkpt lat="43.21397" lon="5.45323">
        <ele>131.3573</ele>
        <time>2013-04-07T07:09:42.000Z</time>
      </trkpt>
      <trkpt lat="43.21398" lon="5.45336">
        <ele>127.03137</ele>
        <time>2013-04-07T07:09:46.000Z</time>
      </trkpt>
      <trkpt lat="43.21398" lon="5.45341">
        <ele>125.108765</ele>
        <time>2013-04-07T07:09:48.000Z</time>
      </trkpt>
      <trkpt lat="43.21396" lon="5.45357">
        <ele>122.22473</ele>
        <time>2013-04-07T07:09:53.000Z</time>
      </trkpt>
      <trkpt lat="43.21394" lon="5.45366">
        <ele>121.26355</ele>
        <time>2013-04-07T07:09:56.000Z</time>
      </trkpt>
      <trkpt lat="43.21388" lon="5.45374">
        <ele>120.302124</ele>
        <time>2013-04-07T07:10:01.000Z</time>
      </trkpt>
      <trkpt lat="43.21385" lon="5.45376">
        <ele>120.302124</ele>
        <time>2013-04-07T07:10:02.000Z</time>
      </trkpt>
      <trkpt lat="43.2138" lon="5.45391">
        <ele>118.379395</ele>
        <time>2013-04-07T07:10:06.000Z</time>
      </trkpt>
      <trkpt lat="43.21377" lon="5.45405">
        <ele>115.9762</ele>
        <time>2013-04-07T07:10:10.000Z</time>
      </trkpt>
      <trkpt lat="43.21375" lon="5.45417">
        <ele>114.53418</ele>
        <time>2013-04-07T07:10:13.000Z</time>
      </trkpt>
      <trkpt lat="43.21374" lon="5.45435">
        <ele>112.61157</ele>
        <time>2013-04-07T07:10:18.000Z</time>
      </trkpt>
      <trkpt lat="43.21374" lon="5.45436">
        <ele>111.65027</ele>
        <time>2013-04-07T07:10:19.000Z</time>
      </trkpt>
      <trkpt lat="43.21365" lon="5.45445">
        <ele>108.285645</ele>
        <time>2013-04-07T07:10:24.000Z</time>
      </trkpt>
      <trkpt lat="43.21365" lon="5.45447">
        <ele>108.285645</ele>
        <time>2013-04-07T07:10:25.000Z</time>
      </trkpt>
      <trkpt lat="43.21363" lon="5.45459">
        <ele>107.80505</ele>
        <time>2013-04-07T07:10:30.000Z</time>
      </trkpt>
      <trkpt lat="43.21363" lon="5.45469">
        <ele>105.40173</ele>
        <time>2013-04-07T07:10:35.000Z</time>
      </trkpt>
      <trkpt lat="43.2136" lon="5.45482">
        <ele>102.99829</ele>
        <time>2013-04-07T07:10:41.000Z</time>
      </trkpt>
      <trkpt lat="43.21361" lon="5.45487">
        <ele>97.71118</ele>
        <time>2013-04-07T07:10:44.000Z</time>
      </trkpt>
      <trkpt lat="43.21361" lon="5.45494">
        <ele>95.30774</ele>
        <time>2013-04-07T07:10:48.000Z</time>
      </trkpt>
      <trkpt lat="43.21359" lon="5.45497">
        <ele>92.90454</ele>
        <time>2013-04-07T07:10:51.000Z</time>
      </trkpt>
      <trkpt lat="43.2136" lon="5.45504">
        <ele>91.94324</ele>
        <time>2013-04-07T07:10:55.000Z</time>
      </trkpt>
      <trkpt lat="43.21356" lon="5.45516">
        <ele>90.50134</ele>
        <time>2013-04-07T07:10:59.000Z</time>
      </trkpt>
      <trkpt lat="43.2134" lon="5.45534">
        <ele>90.02063</ele>
        <time>2013-04-07T07:11:05.000Z</time>
      </trkpt>
      <trkpt lat="43.21331" lon="5.45539">
        <ele>90.02063</ele>
        <time>2013-04-07T07:11:08.000Z</time>
      </trkpt>
      <trkpt lat="43.21323" lon="5.45548">
        <ele>85.69458</ele>
        <time>2013-04-07T07:11:12.000Z</time>
      </trkpt>
      <trkpt lat="43.21321" lon="5.45554">
        <ele>85.69458</ele>
        <time>2013-04-07T07:11:16.000Z</time>
      </trkpt>
      <trkpt lat="43.21317" lon="5.4555">
        <ele>83.29138</ele>
        <time>2013-04-07T07:11:24.000Z</time>
      </trkpt>
      <trkpt lat="43.2131" lon="5.45557">
        <ele>80.88818</ele>
        <time>2013-04-07T07:11:29.000Z</time>
      </trkpt>
      <trkpt lat="43.21306" lon="5.45565">
        <ele>78.00403</ele>
        <time>2013-04-07T07:11:33.000Z</time>
      </trkpt>
      <trkpt lat="43.21302" lon="5.45568">
        <ele>76.56213</ele>
        <time>2013-04-07T07:11:37.000Z</time>
      </trkpt>
      <trkpt lat="43.213" lon="5.45576">
        <ele>74.63953</ele>
        <time>2013-04-07T07:11:41.000Z</time>
      </trkpt>
      <trkpt lat="43.21298" lon="5.45579">
        <ele>73.19763</ele>
        <time>2013-04-07T07:11:43.000Z</time>
      </trkpt>
      <trkpt lat="43.21297" lon="5.45592">
        <ele>71.2749</ele>
        <time>2013-04-07T07:11:48.000Z</time>
      </trkpt>
      <trkpt lat="43.21293" lon="5.456">
        <ele>69.832886</ele>
        <time>2013-04-07T07:11:52.000Z</time>
      </trkpt>
      <trkpt lat="43.2129" lon="5.45597">
        <ele>67.91028</ele>
        <time>2013-04-07T07:11:54.000Z</time>
      </trkpt>
      <trkpt lat="43.21291" lon="5.45591">
        <ele>66.948975</ele>
        <time>2013-04-07T07:11:56.000Z</time>
      </trkpt>
      <trkpt lat="43.21295" lon="5.45575">
        <ele>65.02637</ele>
        <time>2013-04-07T07:12:02.000Z</time>
      </trkpt>
      <trkpt lat="43.213" lon="5.45562">
        <ele>64.06506</ele>
        <time>2013-04-07T07:12:07.000Z</time>
      </trkpt>
      <trkpt lat="43.21306" lon="5.45548">
        <ele>64.545654</ele>
        <time>2013-04-07T07:12:12.000Z</time>
      </trkpt>
      <trkpt lat="43.2131" lon="5.45533">
        <ele>65.98767</ele>
        <time>2013-04-07T07:12:17.000Z</time>
      </trkpt>
      <trkpt lat="43.21315" lon="5.4551">
        <ele>68.87158</ele>
        <time>2013-04-07T07:12:24.000Z</time>
      </trkpt>
      <trkpt lat="43.21316" lon="5.4549">
        <ele>70.79419</ele>
        <time>2013-04-07T07:12:30.000Z</time>
      </trkpt>
      <trkpt lat="43.21317" lon="5.45474">
        <ele>72.71692</ele>
        <time>2013-04-07T07:12:35.000Z</time>
      </trkpt>
      <trkpt lat="43.21319" lon="5.4546">
        <ele>73.19763</ele>
        <time>2013-04-07T07:12:40.000Z</time>
      </trkpt>
      <trkpt lat="43.21321" lon="5.45443">
        <ele>75.12024</ele>
        <time>2013-04-07T07:12:46.000Z</time>
      </trkpt>
      <trkpt lat="43.21324" lon="5.45425">
        <ele>75.60083</ele>
        <time>2013-04-07T07:12:52.000Z</time>
      </trkpt>
      <trkpt lat="43.21326" lon="5.45409">
        <ele>77.04285</ele>
        <time>2013-04-07T07:12:58.000Z</time>
      </trkpt>
      <trkpt lat="43.21328" lon="5.45398">
        <ele>78.00403</ele>
        <time>2013-04-07T07:13:02.000Z</time>
      </trkpt>
      <trkpt lat="43.21331" lon="5.45383">
        <ele>78.965454</ele>
        <time>2013-04-07T07:13:08.000Z</time>
      </trkpt>
      <trkpt lat="43.21332" lon="5.4537">
        <ele>79.926636</ele>
        <time>2013-04-07T07:13:13.000Z</time>
      </trkpt>
      <trkpt lat="43.21333" lon="5.45359">
        <ele>80.40747</ele>
        <time>2013-04-07T07:13:17.000Z</time>
      </trkpt>
      <trkpt lat="43.21336" lon="5.45346">
        <ele>81.849365</ele>
        <time>2013-04-07T07:13:22.000Z</time>
      </trkpt>
      <trkpt lat="43.21339" lon="5.45338">
        <ele>83.29138</ele>
        <time>2013-04-07T07:13:25.000Z</time>
      </trkpt>
      <trkpt lat="43.21342" lon="5.45324">
        <ele>85.69458</ele>
        <time>2013-04-07T07:13:30.000Z</time>
      </trkpt>
      <trkpt lat="43.21342" lon="5.45319">
        <ele>86.656006</ele>
        <time>2013-04-07T07:13:32.000Z</time>
      </trkpt>
      <trkpt lat="43.21344" lon="5.45302">
        <ele>89.53992</ele>
        <time>2013-04-07T07:13:37.000Z</time>
      </trkpt>
      <trkpt lat="43.21342" lon="5.45278">
        <ele>90.50134</ele>
        <time>2013-04-07T07:13:44.000Z</time>
      </trkpt>
      <trkpt lat="43.21339" lon="5.45264">
        <ele>91.462524</ele>
        <time>2013-04-07T07:13:49.000Z</time>
      </trkpt>
      <trkpt lat="43.21338" lon="5.45258">
        <ele>91.462524</ele>
        <time>2013-04-07T07:13:51.000Z</time>
      </trkpt>
      <trkpt lat="43.21334" lon="5.45245">
        <ele>91.462524</ele>
        <time>2013-04-07T07:13:56.000Z</time>
      </trkpt>
      <trkpt lat="43.21332" lon="5.45243">
        <ele>91.94324</ele>
        <time>2013-04-07T07:13:58.000Z</time>
      </trkpt>
      <trkpt lat="43.2133" lon="5.45244">
        <ele>91.462524</ele>
        <time>2013-04-07T07:14:02.000Z</time>
      </trkpt>
      <trkpt lat="43.21334" lon="5.4525">
        <ele>90.02063</ele>
        <time>2013-04-07T07:14:07.000Z</time>
      </trkpt>
      <trkpt lat="43.21335" lon="5.45256">
        <ele>88.578735</ele>
        <time>2013-04-07T07:14:10.000Z</time>
      </trkpt>
      <trkpt lat="43.21335" lon="5.45261">
        <ele>88.09802</ele>
        <time>2013-04-07T07:14:13.000Z</time>
      </trkpt>
      <trkpt lat="43.21333" lon="5.45271">
        <ele>86.17529</ele>
        <time>2013-04-07T07:14:18.000Z</time>
      </trkpt>
      <trkpt lat="43.21332" lon="5.45281">
        <ele>85.69458</ele>
        <time>2013-04-07T07:14:22.000Z</time>
      </trkpt>
      <trkpt lat="43.2133" lon="5.4529">
        <ele>85.69458</ele>
        <time>2013-04-07T07:14:25.000Z</time>
      </trkpt>
      <trkpt lat="43.21327" lon="5.45314">
        <ele>85.21399</ele>
        <time>2013-04-07T07:14:30.000Z</time>
      </trkpt>
      <trkpt lat="43.21323" lon="5.45324">
        <ele>83.77197</ele>
        <time>2013-04-07T07:14:33.000Z</time>
      </trkpt>
      <trkpt lat="43.21318" lon="5.45343">
        <ele>79.446045</ele>
        <time>2013-04-07T07:14:39.000Z</time>
      </trkpt>
      <trkpt lat="43.21317" lon="5.45349">
        <ele>78.48474</ele>
        <time>2013-04-07T07:14:41.000Z</time>
      </trkpt>
      <trkpt lat="43.21311" lon="5.45362">
        <ele>76.08142</ele>
        <time>2013-04-07T07:14:46.000Z</time>
      </trkpt>
      <trkpt lat="43.21306" lon="5.45372">
        <ele>74.63953</ele>
        <time>2013-04-07T07:14:49.000Z</time>
      </trkpt>
      <trkpt lat="43.21298" lon="5.45389">
        <ele>73.19763</ele>
        <time>2013-04-07T07:14:54.000Z</time>
      </trkpt>
      <trkpt lat="43.21296" lon="5.45394">
        <ele>71.75549</ele>
        <time>2013-04-07T07:14:56.000Z</time>
      </trkpt>
      <trkpt lat="43.21291" lon="5.45393">
        <ele>67.42969</ele>
        <time>2013-04-07T07:15:01.000Z</time>
      </trkpt>
      <trkpt lat="43.2129" lon="5.45395">
        <ele>66.948975</ele>
        <time>2013-04-07T07:15:02.000Z</time>
      </trkpt>
      <trkpt lat="43.21288" lon="5.45397">
        <ele>65.98767</ele>
        <time>2013-04-07T07:15:04.000Z</time>
      </trkpt>
      <trkpt lat="43.21282" lon="5.454">
        <ele>62.622925</ele>
        <time>2013-04-07T07:15:09.000Z</time>
      </trkpt>
      <trkpt lat="43.21277" lon="5.45398">
        <ele>59.258423</ele>
        <time>2013-04-07T07:15:12.000Z</time>
      </trkpt>
      <trkpt lat="43.21279" lon="5.4541">
        <ele>54.451782</ele>
        <time>2013-04-07T07:15:17.000Z</time>
      </trkpt>
      <trkpt lat="43.21277" lon="5.45425">
        <ele>52.529175</ele>
        <time>2013-04-07T07:15:22.000Z</time>
      </trkpt>
      <trkpt lat="43.21277" lon="5.45427">
        <ele>52.529175</ele>
        <time>2013-04-07T07:15:23.000Z</time>
      </trkpt>
      <trkpt lat="43.21274" lon="5.4543">
        <ele>51.56787</ele>
        <time>2013-04-07T07:15:27.000Z</time>
      </trkpt>
      <trkpt lat="43.21272" lon="5.45431">
        <ele>51.56787</ele>
        <time>2013-04-07T07:15:29.000Z</time>
      </trkpt>
      <trkpt lat="43.21271" lon="5.45436">
        <ele>50.606567</ele>
        <time>2013-04-07T07:15:32.000Z</time>
      </trkpt>
      <trkpt lat="43.21266" lon="5.45438">
        <ele>48.68396</ele>
        <time>2013-04-07T07:15:35.000Z</time>
      </trkpt>
      <trkpt lat="43.21262" lon="5.45444">
        <ele>45.319214</ele>
        <time>2013-04-07T07:15:39.000Z</time>
      </trkpt>
      <trkpt lat="43.21255" lon="5.45451">
        <ele>43.87732</ele>
        <time>2013-04-07T07:15:43.000Z</time>
      </trkpt>
      <trkpt lat="43.21248" lon="5.45465">
        <ele>41.954712</ele>
        <time>2013-04-07T07:15:48.000Z</time>
      </trkpt>
      <trkpt lat="43.21239" lon="5.45479">
        <ele>41.954712</ele>
        <time>2013-04-07T07:15:52.000Z</time>
      </trkpt>
      <trkpt lat="43.21232" lon="5.45484">
        <ele>39.07068</ele>
        <time>2013-04-07T07:15:55.000Z</time>
      </trkpt>
      <trkpt lat="43.21225" lon="5.45485">
        <ele>39.55127</ele>
        <time>2013-04-07T07:15:58.000Z</time>
      </trkpt>
      <trkpt lat="43.21222" lon="5.45487">
        <ele>38.590088</ele>
        <time>2013-04-07T07:16:00.000Z</time>
      </trkpt>
      <trkpt lat="43.21219" lon="5.45497">
        <ele>34.744873</ele>
        <time>2013-04-07T07:16:07.000Z</time>
      </trkpt>
      <trkpt lat="43.21216" lon="5.45501">
        <ele>30.418823</ele>
        <time>2013-04-07T07:16:12.000Z</time>
      </trkpt>
      <trkpt lat="43.21216" lon="5.45502">
        <ele>29.45752</ele>
        <time>2013-04-07T07:16:13.000Z</time>
      </trkpt>
      <trkpt lat="43.21212" lon="5.45515">
        <ele>26.573608</ele>
        <time>2013-04-07T07:16:19.000Z</time>
      </trkpt>
      <trkpt lat="43.21209" lon="5.45517">
        <ele>23.689575</ele>
        <time>2013-04-07T07:16:22.000Z</time>
      </trkpt>
      <trkpt lat="43.21207" lon="5.45512">
        <ele>21.766968</ele>
        <time>2013-04-07T07:16:26.000Z</time>
      </trkpt>
      <trkpt lat="43.21207" lon="5.45511">
        <ele>21.286377</ele>
        <time>2013-04-07T07:16:27.000Z</time>
      </trkpt>
      <trkpt lat="43.21206" lon="5.45507">
        <ele>20.324951</ele>
        <time>2013-04-07T07:16:30.000Z</time>
      </trkpt>
      <trkpt lat="43.21206" lon="5.45502">
        <ele>20.805664</ele>
        <time>2013-04-07T07:16:33.000Z</time>
      </trkpt>
      <trkpt lat="43.21209" lon="5.45495">
        <ele>23.208984</ele>
        <time>2013-04-07T07:16:39.000Z</time>
      </trkpt>
      <trkpt lat="43.21211" lon="5.45486">
        <ele>22.728271</ele>
        <time>2013-04-07T07:16:44.000Z</time>
      </trkpt>
      <trkpt lat="43.21211" lon="5.45484">
        <ele>22.728271</ele>
        <time>2013-04-07T07:16:45.000Z</time>
      </trkpt>
      <trkpt lat="43.2122" lon="5.45474">
        <ele>25.612305</ele>
        <time>2013-04-07T07:16:52.000Z</time>
      </trkpt>
      <trkpt lat="43.21221" lon="5.45472">
        <ele>25.612305</ele>
        <time>2013-04-07T07:16:53.000Z</time>
      </trkpt>
      <trkpt lat="43.21225" lon="5.45462">
        <ele>27.534912</ele>
        <time>2013-04-07T07:16:59.000Z</time>
      </trkpt>
      <trkpt lat="43.21231" lon="5.45452">
        <ele>28.015503</ele>
        <time>2013-04-07T07:17:04.000Z</time>
      </trkpt>
      <trkpt lat="43.21234" lon="5.45449">
        <ele>28.015503</ele>
        <time>2013-04-07T07:17:06.000Z</time>
      </trkpt>
      <trkpt lat="43.21235" lon="5.45438">
        <ele>28.976929</ele>
        <time>2013-04-07T07:17:11.000Z</time>
      </trkpt>
      <trkpt lat="43.21234" lon="5.45433">
        <ele>29.45752</ele>
        <time>2013-04-07T07:17:13.000Z</time>
      </trkpt>
      <trkpt lat="43.21236" lon="5.4542">
        <ele>27.054321</ele>
        <time>2013-04-07T07:17:19.000Z</time>
      </trkpt>
      <trkpt lat="43.21234" lon="5.45411">
        <ele>24.651001</ele>
        <time>2013-04-07T07:17:24.000Z</time>
      </trkpt>
      <trkpt lat="43.21232" lon="5.45402">
        <ele>23.689575</ele>
        <time>2013-04-07T07:17:28.000Z</time>
      </trkpt>
      <trkpt lat="43.21228" lon="5.45387">
        <ele>20.324951</ele>
        <time>2013-04-07T07:17:34.000Z</time>
      </trkpt>
      <trkpt lat="43.21227" lon="5.45386">
        <ele>19.84436</ele>
        <time>2013-04-07T07:17:35.000Z</time>
      </trkpt>
      <trkpt lat="43.21223" lon="5.45382">
        <ele>21.286377</ele>
        <time>2013-04-07T07:17:39.000Z</time>
      </trkpt>
      <trkpt lat="43.21216" lon="5.4538">
        <ele>23.208984</ele>
        <time>2013-04-07T07:17:43.000Z</time>
      </trkpt>
      <trkpt lat="43.21213" lon="5.45378">
        <ele>22.247559</ele>
        <time>2013-04-07T07:17:46.000Z</time>
      </trkpt>
      <trkpt lat="43.21211" lon="5.45374">
        <ele>23.208984</ele>
        <time>2013-04-07T07:17:49.000Z</time>
      </trkpt>
      <trkpt lat="43.21212" lon="5.45371">
        <ele>22.728271</ele>
        <time>2013-04-07T07:17:51.000Z</time>
      </trkpt>
      <trkpt lat="43.21211" lon="5.45363">
        <ele>24.170288</ele>
        <time>2013-04-07T07:17:56.000Z</time>
      </trkpt>
      <trkpt lat="43.21208" lon="5.45362">
        <ele>26.092896</ele>
        <time>2013-04-07T07:17:59.000Z</time>
      </trkpt>
      <trkpt lat="43.21206" lon="5.45361">
        <ele>28.496216</ele>
        <time>2013-04-07T07:18:05.000Z</time>
      </trkpt>
      <trkpt lat="43.21204" lon="5.45363">
        <ele>27.534912</ele>
        <time>2013-04-07T07:18:12.000Z</time>
      </trkpt>
      <trkpt lat="43.21203" lon="5.45363">
        <ele>28.015503</ele>
        <time>2013-04-07T07:18:13.000Z</time>
      </trkpt>
      <trkpt lat="43.212" lon="5.45363">
        <ele>29.45752</ele>
        <time>2013-04-07T07:18:18.000Z</time>
      </trkpt>
      <trkpt lat="43.21196" lon="5.45366">
        <ele>29.93811</ele>
        <time>2013-04-07T07:18:22.000Z</time>
      </trkpt>
      <trkpt lat="43.21192" lon="5.45366">
        <ele>28.496216</ele>
        <time>2013-04-07T07:18:26.000Z</time>
      </trkpt>
      <trkpt lat="43.21189" lon="5.45366">
        <ele>30.418823</ele>
        <time>2013-04-07T07:18:29.000Z</time>
      </trkpt>
      <trkpt lat="43.2119" lon="5.45366">
        <ele>36.186768</ele>
        <time>2013-04-07T07:18:36.000Z</time>
      </trkpt>
      <trkpt lat="43.21192" lon="5.45375">
        <ele>46.28064</ele>
        <time>2013-04-07T07:18:42.000Z</time>
      </trkpt>
      <trkpt lat="43.21182" lon="5.45365">
        <ele>43.87732</ele>
        <time>2013-04-07T07:18:59.000Z</time>
      </trkpt>
      <trkpt lat="43.21177" lon="5.45366">
        <ele>44.358032</ele>
        <time>2013-04-07T07:19:05.000Z</time>
      </trkpt>
      <trkpt lat="43.21172" lon="5.45364">
        <ele>46.28064</ele>
        <time>2013-04-07T07:19:11.000Z</time>
      </trkpt>
      <trkpt lat="43.21169" lon="5.4537">
        <ele>47.24182</ele>
        <time>2013-04-07T07:19:15.000Z</time>
      </trkpt>
      <trkpt lat="43.21161" lon="5.45377">
        <ele>46.76123</ele>
        <time>2013-04-07T07:19:21.000Z</time>
      </trkpt>
      <trkpt lat="43.21157" lon="5.45378">
        <ele>46.28064</ele>
        <time>2013-04-07T07:19:25.000Z</time>
      </trkpt>
      <trkpt lat="43.21154" lon="5.4538">
        <ele>46.76123</ele>
        <time>2013-04-07T07:19:27.000Z</time>
      </trkpt>
      <trkpt lat="43.21149" lon="5.45379">
        <ele>49.16455</ele>
        <time>2013-04-07T07:19:33.000Z</time>
      </trkpt>
      <trkpt lat="43.21148" lon="5.45379">
        <ele>49.645264</ele>
        <time>2013-04-07T07:19:34.000Z</time>
      </trkpt>
      <trkpt lat="43.21144" lon="5.4538">
        <ele>52.529175</ele>
        <time>2013-04-07T07:19:38.000Z</time>
      </trkpt>
      <trkpt lat="43.21136" lon="5.4538">
        <ele>53.009766</ele>
        <time>2013-04-07T07:19:43.000Z</time>
      </trkpt>
      <trkpt lat="43.21134" lon="5.45379">
        <ele>53.49048</ele>
        <time>2013-04-07T07:19:45.000Z</time>
      </trkpt>
      <trkpt lat="43.21134" lon="5.45374">
        <ele>55.413086</ele>
        <time>2013-04-07T07:19:50.000Z</time>
      </trkpt>
      <trkpt lat="43.21138" lon="5.4537">
        <ele>57.81653</ele>
        <time>2013-04-07T07:19:56.000Z</time>
      </trkpt>
      <trkpt lat="43.21132" lon="5.45363">
        <ele>61.18103</ele>
        <time>2013-04-07T07:20:05.000Z</time>
      </trkpt>
      <trkpt lat="43.21131" lon="5.45363">
        <ele>62.142334</ele>
        <time>2013-04-07T07:20:06.000Z</time>
      </trkpt>
      <trkpt lat="43.21126" lon="5.45363">
        <ele>64.06506</ele>
        <time>2013-04-07T07:20:12.000Z</time>
      </trkpt>
      <trkpt lat="43.2112" lon="5.45366">
        <ele>66.948975</ele>
        <time>2013-04-07T07:20:29.000Z</time>
      </trkpt>
      <trkpt lat="43.21117" lon="5.45366">
        <ele>67.91028</ele>
        <time>2013-04-07T07:20:33.000Z</time>
      </trkpt>
      <trkpt lat="43.21112" lon="5.45367">
        <ele>67.42969</ele>
        <time>2013-04-07T07:20:37.000Z</time>
      </trkpt>
      <trkpt lat="43.21102" lon="5.45371">
        <ele>67.91028</ele>
        <time>2013-04-07T07:20:41.000Z</time>
      </trkpt>
      <trkpt lat="43.21099" lon="5.45371">
        <ele>67.42969</ele>
        <time>2013-04-07T07:20:42.000Z</time>
      </trkpt>
      <trkpt lat="43.21086" lon="5.45364">
        <ele>66.948975</ele>
        <time>2013-04-07T07:20:47.000Z</time>
      </trkpt>
      <trkpt lat="43.21076" lon="5.45358">
        <ele>64.06506</ele>
        <time>2013-04-07T07:20:51.000Z</time>
      </trkpt>
      <trkpt lat="43.21058" lon="5.45355">
        <ele>59.258423</ele>
        <time>2013-04-07T07:20:56.000Z</time>
      </trkpt>
      <trkpt lat="43.21043" lon="5.45361">
        <ele>57.81653</ele>
        <time>2013-04-07T07:21:00.000Z</time>
      </trkpt>
      <trkpt lat="43.2103" lon="5.45361">
        <ele>54.451782</ele>
        <time>2013-04-07T07:21:04.000Z</time>
      </trkpt>
      <trkpt lat="43.21017" lon="5.45359">
        <ele>51.08716</ele>
        <time>2013-04-07T07:21:08.000Z</time>
      </trkpt>
      <trkpt lat="43.21013" lon="5.45357">
        <ele>50.125977</ele>
        <time>2013-04-07T07:21:10.000Z</time>
      </trkpt>
      <trkpt lat="43.21005" lon="5.45348">
        <ele>47.24182</ele>
        <time>2013-04-07T07:21:14.000Z</time>
      </trkpt>
      <trkpt lat="43.21011" lon="5.45334">
        <ele>44.358032</ele>
        <time>2013-04-07T07:21:18.000Z</time>
      </trkpt>
      <trkpt lat="43.21012" lon="5.45331">
        <ele>44.358032</ele>
        <time>2013-04-07T07:21:19.000Z</time>
      </trkpt>
      <trkpt lat="43.21018" lon="5.45324">
        <ele>45.319214</ele>
        <time>2013-04-07T07:21:22.000Z</time>
      </trkpt>
      <trkpt lat="43.21023" lon="5.45318">
        <ele>45.319214</ele>
        <time>2013-04-07T07:21:28.000Z</time>
      </trkpt>
      <trkpt lat="43.21025" lon="5.45317">
        <ele>44.358032</ele>
        <time>2013-04-07T07:21:35.000Z</time>
      </trkpt>
      <trkpt lat="43.21024" lon="5.45316">
        <ele>44.838623</ele>
        <time>2013-04-07T07:21:45.000Z</time>
      </trkpt>
      <trkpt lat="43.21022" lon="5.45314">
        <ele>42.916016</ele>
        <time>2013-04-07T07:21:54.000Z</time>
      </trkpt>
      <trkpt lat="43.2102" lon="5.45313">
        <ele>39.55127</ele>
        <time>2013-04-07T07:21:59.000Z</time>
      </trkpt>
      <trkpt lat="43.21018" lon="5.45311">
        <ele>38.109375</ele>
        <time>2013-04-07T07:22:01.000Z</time>
      </trkpt>
      <trkpt lat="43.21015" lon="5.45305">
        <ele>37.628662</ele>
        <time>2013-04-07T07:22:06.000Z</time>
      </trkpt>
      <trkpt lat="43.21014" lon="5.45298">
        <ele>36.66748</ele>
        <time>2013-04-07T07:22:08.000Z</time>
      </trkpt>
      <trkpt lat="43.21015" lon="5.45291">
        <ele>37.14807</ele>
        <time>2013-04-07T07:22:12.000Z</time>
      </trkpt>
      <trkpt lat="43.21012" lon="5.45281">
        <ele>38.590088</ele>
        <time>2013-04-07T07:22:17.000Z</time>
      </trkpt>
      <trkpt lat="43.21011" lon="5.45274">
        <ele>40.032104</ele>
        <time>2013-04-07T07:22:22.000Z</time>
      </trkpt>
      <trkpt lat="43.21014" lon="5.45262">
        <ele>39.55127</ele>
        <time>2013-04-07T07:22:27.000Z</time>
      </trkpt>
      <trkpt lat="43.21022" lon="5.45246">
        <ele>40.032104</ele>
        <time>2013-04-07T07:22:33.000Z</time>
      </trkpt>
      <trkpt lat="43.21024" lon="5.45231">
        <ele>40.99341</ele>
        <time>2013-04-07T07:22:38.000Z</time>
      </trkpt>
      <trkpt lat="43.21025" lon="5.45226">
        <ele>40.032104</ele>
        <time>2013-04-07T07:22:41.000Z</time>
      </trkpt>
      <trkpt lat="43.21024" lon="5.4522">
        <ele>39.55127</ele>
        <time>2013-04-07T07:22:46.000Z</time>
      </trkpt>
      <trkpt lat="43.21024" lon="5.45217">
        <ele>38.109375</ele>
        <time>2013-04-07T07:22:49.000Z</time>
      </trkpt>
      <trkpt lat="43.21029" lon="5.45205">
        <ele>37.628662</ele>
        <time>2013-04-07T07:22:54.000Z</time>
      </trkpt>
      <trkpt lat="43.21033" lon="5.45205">
        <ele>37.628662</ele>
        <time>2013-04-07T07:22:57.000Z</time>
      </trkpt>
      <trkpt lat="43.21035" lon="5.45205">
        <ele>38.109375</ele>
        <time>2013-04-07T07:23:00.000Z</time>
      </trkpt>
      <trkpt lat="43.21042" lon="5.45201">
        <ele>40.032104</ele>
        <time>2013-04-07T07:23:04.000Z</time>
      </trkpt>
      <trkpt lat="43.21051" lon="5.45195">
        <ele>41.954712</ele>
        <time>2013-04-07T07:23:09.000Z</time>
      </trkpt>
      <trkpt lat="43.21056" lon="5.45182">
        <ele>42.916016</ele>
        <time>2013-04-07T07:23:13.000Z</time>
      </trkpt>
      <trkpt lat="43.2106" lon="5.45175">
        <ele>44.838623</ele>
        <time>2013-04-07T07:23:17.000Z</time>
      </trkpt>
      <trkpt lat="43.21063" lon="5.45168">
        <ele>46.76123</ele>
        <time>2013-04-07T07:23:21.000Z</time>
      </trkpt>
      <trkpt lat="43.21065" lon="5.45163">
        <ele>49.16455</ele>
        <time>2013-04-07T07:23:24.000Z</time>
      </trkpt>
      <trkpt lat="43.21066" lon="5.45154">
        <ele>49.645264</ele>
        <time>2013-04-07T07:23:30.000Z</time>
      </trkpt>
      <trkpt lat="43.21069" lon="5.45144">
        <ele>51.56787</ele>
        <time>2013-04-07T07:23:36.000Z</time>
      </trkpt>
      <trkpt lat="43.21069" lon="5.45142">
        <ele>52.048584</ele>
        <time>2013-04-07T07:23:37.000Z</time>
      </trkpt>
      <trkpt lat="43.21068" lon="5.45131">
        <ele>53.49048</ele>
        <time>2013-04-07T07:23:44.000Z</time>
      </trkpt>
      <trkpt lat="43.21067" lon="5.4513">
        <ele>54.451782</ele>
        <time>2013-04-07T07:23:46.000Z</time>
      </trkpt>
      <trkpt lat="43.2107" lon="5.45124">
        <ele>56.855103</ele>
        <time>2013-04-07T07:23:51.000Z</time>
      </trkpt>
      <trkpt lat="43.21076" lon="5.45115">
        <ele>57.81653</ele>
        <time>2013-04-07T07:23:55.000Z</time>
      </trkpt>
      <trkpt lat="43.21085" lon="5.45109">
        <ele>58.77771</ele>
        <time>2013-04-07T07:24:00.000Z</time>
      </trkpt>
      <trkpt lat="43.21086" lon="5.45108">
        <ele>59.258423</ele>
        <time>2013-04-07T07:24:01.000Z</time>
      </trkpt>
      <trkpt lat="43.21094" lon="5.451">
        <ele>60.219727</ele>
        <time>2013-04-07T07:24:05.000Z</time>
      </trkpt>
      <trkpt lat="43.21101" lon="5.45082">
        <ele>58.77771</ele>
        <time>2013-04-07T07:24:11.000Z</time>
      </trkpt>
      <trkpt lat="43.21102" lon="5.45079">
        <ele>58.77771</ele>
        <time>2013-04-07T07:24:12.000Z</time>
      </trkpt>
      <trkpt lat="43.21111" lon="5.45071">
        <ele>58.77771</ele>
        <time>2013-04-07T07:24:17.000Z</time>
      </trkpt>
      <trkpt lat="43.21114" lon="5.45067">
        <ele>57.81653</ele>
        <time>2013-04-07T07:24:20.000Z</time>
      </trkpt>
      <trkpt lat="43.21122" lon="5.45055">
        <ele>56.855103</ele>
        <time>2013-04-07T07:24:25.000Z</time>
      </trkpt>
      <trkpt lat="43.21124" lon="5.45051">
        <ele>56.37451</ele>
        <time>2013-04-07T07:24:27.000Z</time>
      </trkpt>
      <trkpt lat="43.21127" lon="5.45038">
        <ele>53.49048</ele>
        <time>2013-04-07T07:24:31.000Z</time>
      </trkpt>
      <trkpt lat="43.21119" lon="5.45022">
        <ele>52.529175</ele>
        <time>2013-04-07T07:24:36.000Z</time>
      </trkpt>
      <trkpt lat="43.21113" lon="5.45016">
        <ele>52.529175</ele>
        <time>2013-04-07T07:24:40.000Z</time>
      </trkpt>
      <trkpt lat="43.21104" lon="5.45004">
        <ele>54.451782</ele>
        <time>2013-04-07T07:24:45.000Z</time>
      </trkpt>
      <trkpt lat="43.211" lon="5.44988">
        <ele>53.97119</ele>
        <time>2013-04-07T07:24:50.000Z</time>
      </trkpt>
      <trkpt lat="43.21102" lon="5.44971">
        <ele>53.49048</ele>
        <time>2013-04-07T07:24:55.000Z</time>
      </trkpt>
      <trkpt lat="43.21107" lon="5.44956">
        <ele>53.49048</ele>
        <time>2013-04-07T07:25:00.000Z</time>
      </trkpt>
      <trkpt lat="43.21114" lon="5.44943">
        <ele>50.606567</ele>
        <time>2013-04-07T07:25:05.000Z</time>
      </trkpt>
      <trkpt lat="43.21115" lon="5.44932">
        <ele>48.68396</ele>
        <time>2013-04-07T07:25:09.000Z</time>
      </trkpt>
      <trkpt lat="43.21105" lon="5.44926">
        <ele>47.722534</ele>
        <time>2013-04-07T07:25:13.000Z</time>
      </trkpt>
      <trkpt lat="43.21094" lon="5.44915">
        <ele>49.16455</ele>
        <time>2013-04-07T07:25:18.000Z</time>
      </trkpt>
      <trkpt lat="43.21089" lon="5.44911">
        <ele>49.16455</ele>
        <time>2013-04-07T07:25:20.000Z</time>
      </trkpt>
      <trkpt lat="43.21085" lon="5.44898">
        <ele>49.645264</ele>
        <time>2013-04-07T07:25:26.000Z</time>
      </trkpt>
      <trkpt lat="43.21086" lon="5.44895">
        <ele>50.125977</ele>
        <time>2013-04-07T07:25:28.000Z</time>
      </trkpt>
      <trkpt lat="43.21089" lon="5.44885">
        <ele>51.08716</ele>
        <time>2013-04-07T07:25:33.000Z</time>
      </trkpt>
      <trkpt lat="43.21094" lon="5.44877">
        <ele>49.645264</ele>
        <time>2013-04-07T07:25:38.000Z</time>
      </trkpt>
      <trkpt lat="43.21096" lon="5.4487">
        <ele>47.722534</ele>
        <time>2013-04-07T07:25:42.000Z</time>
      </trkpt>
      <trkpt lat="43.21098" lon="5.44856">
        <ele>45.799927</ele>
        <time>2013-04-07T07:25:46.000Z</time>
      </trkpt>
      <trkpt lat="43.21097" lon="5.44847">
        <ele>44.358032</ele>
        <time>2013-04-07T07:25:50.000Z</time>
      </trkpt>
      <trkpt lat="43.211" lon="5.44841">
        <ele>42.916016</ele>
        <time>2013-04-07T07:25:55.000Z</time>
      </trkpt>
      <trkpt lat="43.21101" lon="5.44839">
        <ele>42.435425</ele>
        <time>2013-04-07T07:25:56.000Z</time>
      </trkpt>
      <trkpt lat="43.21108" lon="5.44837">
        <ele>40.512817</ele>
        <time>2013-04-07T07:26:03.000Z</time>
      </trkpt>
      <trkpt lat="43.21109" lon="5.44836">
        <ele>40.032104</ele>
        <time>2013-04-07T07:26:05.000Z</time>
      </trkpt>
      <trkpt lat="43.21105" lon="5.4483">
        <ele>40.032104</ele>
        <time>2013-04-07T07:26:11.000Z</time>
      </trkpt>
      <trkpt lat="43.21112" lon="5.44828">
        <ele>41.954712</ele>
        <time>2013-04-07T07:26:16.000Z</time>
      </trkpt>
      <trkpt lat="43.21112" lon="5.44825">
        <ele>41.954712</ele>
        <time>2013-04-07T07:26:21.000Z</time>
      </trkpt>
      <trkpt lat="43.21112" lon="5.44823">
        <ele>41.954712</ele>
        <time>2013-04-07T07:26:23.000Z</time>
      </trkpt>
      <trkpt lat="43.21111" lon="5.4482">
        <ele>40.032104</ele>
        <time>2013-04-07T07:26:27.000Z</time>
      </trkpt>
      <trkpt lat="43.21113" lon="5.44817">
        <ele>40.032104</ele>
        <time>2013-04-07T07:26:33.000Z</time>
      </trkpt>
      <trkpt lat="43.21117" lon="5.44816">
        <ele>37.14807</ele>
        <time>2013-04-07T07:26:37.000Z</time>
      </trkpt>
      <trkpt lat="43.21122" lon="5.44809">
        <ele>37.628662</ele>
        <time>2013-04-07T07:26:40.000Z</time>
      </trkpt>
      <trkpt lat="43.21129" lon="5.44797">
        <ele>35.225464</ele>
        <time>2013-04-07T07:26:44.000Z</time>
      </trkpt>
      <trkpt lat="43.21136" lon="5.44785">
        <ele>34.26416</ele>
        <time>2013-04-07T07:26:49.000Z</time>
      </trkpt>
      <trkpt lat="43.21141" lon="5.44779">
        <ele>34.26416</ele>
        <time>2013-04-07T07:26:53.000Z</time>
      </trkpt>
      <trkpt lat="43.21143" lon="5.44779">
        <ele>34.26416</ele>
        <time>2013-04-07T07:26:55.000Z</time>
      </trkpt>
      <trkpt lat="43.21146" lon="5.4478">
        <ele>33.302856</ele>
        <time>2013-04-07T07:26:57.000Z</time>
      </trkpt>
      <trkpt lat="43.21154" lon="5.44774">
        <ele>31.380127</ele>
        <time>2013-04-07T07:27:02.000Z</time>
      </trkpt>
      <trkpt lat="43.21164" lon="5.44767">
        <ele>30.418823</ele>
        <time>2013-04-07T07:27:06.000Z</time>
      </trkpt>
      <trkpt lat="43.21168" lon="5.44766">
        <ele>29.93811</ele>
        <time>2013-04-07T07:27:08.000Z</time>
      </trkpt>
      <trkpt lat="43.21174" lon="5.44764">
        <ele>31.860718</ele>
        <time>2013-04-07T07:27:12.000Z</time>
      </trkpt>
      <trkpt lat="43.21187" lon="5.44756">
        <ele>31.380127</ele>
        <time>2013-04-07T07:27:18.000Z</time>
      </trkpt>
      <trkpt lat="43.21197" lon="5.44745">
        <ele>32.341553</ele>
        <time>2013-04-07T07:27:23.000Z</time>
      </trkpt>
      <trkpt lat="43.21203" lon="5.44738">
        <ele>32.822266</ele>
        <time>2013-04-07T07:27:27.000Z</time>
      </trkpt>
      <trkpt lat="43.21205" lon="5.44732">
        <ele>33.302856</ele>
        <time>2013-04-07T07:27:29.000Z</time>
      </trkpt>
      <trkpt lat="43.21204" lon="5.44718">
        <ele>34.744873</ele>
        <time>2013-04-07T07:27:34.000Z</time>
      </trkpt>
      <trkpt lat="43.21205" lon="5.44712">
        <ele>36.186768</ele>
        <time>2013-04-07T07:27:36.000Z</time>
      </trkpt>
      <trkpt lat="43.21206" lon="5.44708">
        <ele>36.66748</ele>
        <time>2013-04-07T07:27:38.000Z</time>
      </trkpt>
      <trkpt lat="43.21208" lon="5.44696">
        <ele>40.032104</ele>
        <time>2013-04-07T07:27:44.000Z</time>
      </trkpt>
      <trkpt lat="43.21213" lon="5.44688">
        <ele>41.474</ele>
        <time>2013-04-07T07:27:48.000Z</time>
      </trkpt>
      <trkpt lat="43.21218" lon="5.44678">
        <ele>42.435425</ele>
        <time>2013-04-07T07:27:52.000Z</time>
      </trkpt>
      <trkpt lat="43.2122" lon="5.44676">
        <ele>42.435425</ele>
        <time>2013-04-07T07:27:53.000Z</time>
      </trkpt>
      <trkpt lat="43.2123" lon="5.44661">
        <ele>40.99341</ele>
        <time>2013-04-07T07:27:59.000Z</time>
      </trkpt>
      <trkpt lat="43.21237" lon="5.44656">
        <ele>40.99341</ele>
        <time>2013-04-07T07:28:03.000Z</time>
      </trkpt>
      <trkpt lat="43.2124" lon="5.44654">
        <ele>41.954712</ele>
        <time>2013-04-07T07:28:05.000Z</time>
      </trkpt>
      <trkpt lat="43.21244" lon="5.44646">
        <ele>43.87732</ele>
        <time>2013-04-07T07:28:10.000Z</time>
      </trkpt>
      <trkpt lat="43.21246" lon="5.44637">
        <ele>44.358032</ele>
        <time>2013-04-07T07:28:13.000Z</time>
      </trkpt>
      <trkpt lat="43.21248" lon="5.44627">
        <ele>44.358032</ele>
        <time>2013-04-07T07:28:17.000Z</time>
      </trkpt>
      <trkpt lat="43.21249" lon="5.44626">
        <ele>44.838623</ele>
        <time>2013-04-07T07:28:18.000Z</time>
      </trkpt>
      <trkpt lat="43.2125" lon="5.44624">
        <ele>44.838623</ele>
        <time>2013-04-07T07:28:20.000Z</time>
      </trkpt>
      <trkpt lat="43.21254" lon="5.44616">
        <ele>47.24182</ele>
        <time>2013-04-07T07:28:25.000Z</time>
      </trkpt>
      <trkpt lat="43.21258" lon="5.44613">
        <ele>47.722534</ele>
        <time>2013-04-07T07:28:29.000Z</time>
      </trkpt>
      <trkpt lat="43.2126" lon="5.44611">
        <ele>47.722534</ele>
        <time>2013-04-07T07:28:30.000Z</time>
      </trkpt>
      <trkpt lat="43.2127" lon="5.44595">
        <ele>46.28064</ele>
        <time>2013-04-07T07:28:36.000Z</time>
      </trkpt>
      <trkpt lat="43.21276" lon="5.44588">
        <ele>42.916016</ele>
        <time>2013-04-07T07:28:40.000Z</time>
      </trkpt>
      <trkpt lat="43.21279" lon="5.44585">
        <ele>41.954712</ele>
        <time>2013-04-07T07:28:42.000Z</time>
      </trkpt>
      <trkpt lat="43.21288" lon="5.44574">
        <ele>40.512817</ele>
        <time>2013-04-07T07:28:48.000Z</time>
      </trkpt>
      <trkpt lat="43.21289" lon="5.44573">
        <ele>40.512817</ele>
        <time>2013-04-07T07:28:49.000Z</time>
      </trkpt>
      <trkpt lat="43.21288" lon="5.44569">
        <ele>41.954712</ele>
        <time>2013-04-07T07:28:52.000Z</time>
      </trkpt>
      <trkpt lat="43.2129" lon="5.44563">
        <ele>43.396606</ele>
        <time>2013-04-07T07:28:56.000Z</time>
      </trkpt>
      <trkpt lat="43.21294" lon="5.44555">
        <ele>40.99341</ele>
        <time>2013-04-07T07:29:02.000Z</time>
      </trkpt>
      <trkpt lat="43.21292" lon="5.44545">
        <ele>38.109375</ele>
        <time>2013-04-07T07:29:08.000Z</time>
      </trkpt>
      <trkpt lat="43.21289" lon="5.44538">
        <ele>33.783447</ele>
        <time>2013-04-07T07:29:13.000Z</time>
      </trkpt>
      <trkpt lat="43.21289" lon="5.44536">
        <ele>29.45752</ele>
        <time>2013-04-07T07:29:16.000Z</time>
      </trkpt>
      <trkpt lat="43.21285" lon="5.44536">
        <ele>27.534912</ele>
        <time>2013-04-07T07:29:19.000Z</time>
      </trkpt>
      <trkpt lat="43.21283" lon="5.44524">
        <ele>22.728271</ele>
        <time>2013-04-07T07:29:24.000Z</time>
      </trkpt>
      <trkpt lat="43.21282" lon="5.44514">
        <ele>19.84436</ele>
        <time>2013-04-07T07:29:28.000Z</time>
      </trkpt>
      <trkpt lat="43.21285" lon="5.44503">
        <ele>18.402344</ele>
        <time>2013-04-07T07:29:33.000Z</time>
      </trkpt>
      <trkpt lat="43.21287" lon="5.44497">
        <ele>18.883057</ele>
        <time>2013-04-07T07:29:39.000Z</time>
      </trkpt>
      <trkpt lat="43.21286" lon="5.44496">
        <ele>17.921753</ele>
        <time>2013-04-07T07:29:41.000Z</time>
      </trkpt>
      <trkpt lat="43.21283" lon="5.44487">
        <ele>14.557007</ele>
        <time>2013-04-07T07:29:45.000Z</time>
      </trkpt>
      <trkpt lat="43.21277" lon="5.44475">
        <ele>13.595825</ele>
        <time>2013-04-07T07:29:49.000Z</time>
      </trkpt>
      <trkpt lat="43.21276" lon="5.44465">
        <ele>10.231201</ele>
        <time>2013-04-07T07:29:54.000Z</time>
      </trkpt>
      <trkpt lat="43.21277" lon="5.44456">
        <ele>7.827881</ele>
        <time>2013-04-07T07:29:58.000Z</time>
      </trkpt>
      <trkpt lat="43.21278" lon="5.44452">
        <ele>6.866455</ele>
        <time>2013-04-07T07:30:00.000Z</time>
      </trkpt>
      <trkpt lat="43.21282" lon="5.44445">
        <ele>5.4245605</ele>
        <time>2013-04-07T07:30:03.000Z</time>
      </trkpt>
      <trkpt lat="43.21288" lon="5.4444">
        <ele>4.463257</ele>
        <time>2013-04-07T07:30:07.000Z</time>
      </trkpt>
      <trkpt lat="43.21291" lon="5.44433">
        <ele>3.982666</ele>
        <time>2013-04-07T07:30:11.000Z</time>
      </trkpt>
      <trkpt lat="43.21292" lon="5.44423">
        <ele>3.5019531</ele>
        <time>2013-04-07T07:30:16.000Z</time>
      </trkpt>
      <trkpt lat="43.21296" lon="5.44416">
        <ele>2.5406494</ele>
        <time>2013-04-07T07:30:20.000Z</time>
      </trkpt>
      <trkpt lat="43.21299" lon="5.44412">
        <ele>2.0600586</ele>
        <time>2013-04-07T07:30:23.000Z</time>
      </trkpt>
      <trkpt lat="43.21297" lon="5.44407">
        <ele>0.618042</ele>
        <time>2013-04-07T07:30:28.000Z</time>
      </trkpt>
      <trkpt lat="43.21301" lon="5.44393">
        <ele>-1.7852783</ele>
        <time>2013-04-07T07:30:34.000Z</time>
      </trkpt>
      <trkpt lat="43.21303" lon="5.44383">
        <ele>-2.746704</ele>
        <time>2013-04-07T07:30:37.000Z</time>
      </trkpt>
      <trkpt lat="43.21308" lon="5.44362">
        <ele>-2.746704</ele>
        <time>2013-04-07T07:30:44.000Z</time>
      </trkpt>
      <trkpt lat="43.2131" lon="5.44357">
        <ele>-2.746704</ele>
        <time>2013-04-07T07:30:46.000Z</time>
      </trkpt>
      <trkpt lat="43.21309" lon="5.44341">
        <ele>-1.7852783</ele>
        <time>2013-04-07T07:30:51.000Z</time>
      </trkpt>
      <trkpt lat="43.21313" lon="5.44322">
        <ele>-1.3046875</ele>
        <time>2013-04-07T07:30:57.000Z</time>
      </trkpt>
      <trkpt lat="43.21317" lon="5.44303">
        <ele>-2.2659912</ele>
        <time>2013-04-07T07:31:03.000Z</time>
      </trkpt>
      <trkpt lat="43.2132" lon="5.44291">
        <ele>-0.8240967</ele>
        <time>2013-04-07T07:31:08.000Z</time>
      </trkpt>
      <trkpt lat="43.2132" lon="5.44279">
        <ele>1.0986328</ele>
        <time>2013-04-07T07:31:14.000Z</time>
      </trkpt>
      <trkpt lat="43.21319" lon="5.44265">
        <ele>1.0986328</ele>
        <time>2013-04-07T07:31:22.000Z</time>
      </trkpt>
      <trkpt lat="43.21318" lon="5.44256">
        <ele>1.0986328</ele>
        <time>2013-04-07T07:31:27.000Z</time>
      </trkpt>
      <trkpt lat="43.21315" lon="5.44248">
        <ele>0.618042</ele>
        <time>2013-04-07T07:31:33.000Z</time>
      </trkpt>
      <trkpt lat="43.21315" lon="5.44239">
        <ele>0.13745117</ele>
        <time>2013-04-07T07:31:39.000Z</time>
      </trkpt>
      <trkpt lat="43.21316" lon="5.44224">
        <ele>0.13745117</ele>
        <time>2013-04-07T07:31:48.000Z</time>
      </trkpt>
      <trkpt lat="43.21319" lon="5.44209">
        <ele>-1.3046875</ele>
        <time>2013-04-07T07:31:57.000Z</time>
      </trkpt>
      <trkpt lat="43.21323" lon="5.44189">
        <ele>-1.7852783</ele>
        <time>2013-04-07T07:32:08.000Z</time>
      </trkpt>
      <trkpt lat="43.21325" lon="5.44173">
        <ele>-1.7852783</ele>
        <time>2013-04-07T07:32:17.000Z</time>
      </trkpt>
      <trkpt lat="43.21329" lon="5.44157">
        <ele>-1.3046875</ele>
        <time>2013-04-07T07:32:25.000Z</time>
      </trkpt>
      <trkpt lat="43.21335" lon="5.44146">
        <ele>-0.8240967</ele>
        <time>2013-04-07T07:32:32.000Z</time>
      </trkpt>
      <trkpt lat="43.21337" lon="5.44144">
        <ele>-0.8240967</ele>
        <time>2013-04-07T07:32:34.000Z</time>
      </trkpt>
      <trkpt lat="43.21343" lon="5.4414">
        <ele>-0.3433838</ele>
        <time>2013-04-07T07:32:38.000Z</time>
      </trkpt>
      <trkpt lat="43.21355" lon="5.44133">
        <ele>1.0986328</ele>
        <time>2013-04-07T07:32:45.000Z</time>
      </trkpt>
      <trkpt lat="43.21367" lon="5.44127">
        <ele>2.5406494</ele>
        <time>2013-04-07T07:32:50.000Z</time>
      </trkpt>
      <trkpt lat="43.21376" lon="5.44121">
        <ele>3.0212402</ele>
        <time>2013-04-07T07:32:54.000Z</time>
      </trkpt>
      <trkpt lat="43.21386" lon="5.44111">
        <ele>3.5019531</ele>
        <time>2013-04-07T07:32:59.000Z</time>
      </trkpt>
      <trkpt lat="43.2139" lon="5.44107">
        <ele>3.982666</ele>
        <time>2013-04-07T07:33:01.000Z</time>
      </trkpt>
      <trkpt lat="43.21399" lon="5.44088">
        <ele>5.9052734</ele>
        <time>2013-04-07T07:33:08.000Z</time>
      </trkpt>
      <trkpt lat="43.21406" lon="5.44072">
        <ele>5.9052734</ele>
        <time>2013-04-07T07:33:14.000Z</time>
      </trkpt>
      <trkpt lat="43.21407" lon="5.44063">
        <ele>5.9052734</ele>
        <time>2013-04-07T07:33:17.000Z</time>
      </trkpt>
      <trkpt lat="43.21406" lon="5.44041">
        <ele>7.347168</ele>
        <time>2013-04-07T07:33:24.000Z</time>
      </trkpt>
      <trkpt lat="43.2141" lon="5.44026">
        <ele>6.866455</ele>
        <time>2013-04-07T07:33:29.000Z</time>
      </trkpt>
      <trkpt lat="43.21416" lon="5.44011">
        <ele>4.9438477</ele>
        <time>2013-04-07T07:33:35.000Z</time>
      </trkpt>
      <trkpt lat="43.21424" lon="5.43998">
        <ele>5.4245605</ele>
        <time>2013-04-07T07:33:40.000Z</time>
      </trkpt>
      <trkpt lat="43.21434" lon="5.43982">
        <ele>5.4245605</ele>
        <time>2013-04-07T07:33:46.000Z</time>
      </trkpt>
      <trkpt lat="43.21441" lon="5.43968">
        <ele>5.4245605</ele>
        <time>2013-04-07T07:33:51.000Z</time>
      </trkpt>
      <trkpt lat="43.21442" lon="5.43965">
        <ele>5.4245605</ele>
        <time>2013-04-07T07:33:52.000Z</time>
      </trkpt>
      <trkpt lat="43.2144" lon="5.43965">
        <ele>7.347168</ele>
        <time>2013-04-07T07:33:57.000Z</time>
      </trkpt>
      <trkpt lat="43.21436" lon="5.43965">
        <ele>8.308594</ele>
        <time>2013-04-07T07:34:01.000Z</time>
      </trkpt>
      <trkpt lat="43.21433" lon="5.43969">
        <ele>11.673218</ele>
        <time>2013-04-07T07:34:07.000Z</time>
      </trkpt>
      <trkpt lat="43.21429" lon="5.4397">
        <ele>15.03772</ele>
        <time>2013-04-07T07:34:12.000Z</time>
      </trkpt>
      <trkpt lat="43.21424" lon="5.43973">
        <ele>17.441162</ele>
        <time>2013-04-07T07:34:17.000Z</time>
      </trkpt>
      <trkpt lat="43.21418" lon="5.43973">
        <ele>19.84436</ele>
        <time>2013-04-07T07:34:24.000Z</time>
      </trkpt>
      <trkpt lat="43.21414" lon="5.43973">
        <ele>22.728271</ele>
        <time>2013-04-07T07:34:30.000Z</time>
      </trkpt>
      <trkpt lat="43.21409" lon="5.43972">
        <ele>24.651001</ele>
        <time>2013-04-07T07:34:36.000Z</time>
      </trkpt>
      <trkpt lat="43.21405" lon="5.43969">
        <ele>25.131714</ele>
        <time>2013-04-07T07:34:40.000Z</time>
      </trkpt>
      <trkpt lat="43.21404" lon="5.43965">
        <ele>25.612305</ele>
        <time>2013-04-07T07:34:43.000Z</time>
      </trkpt>
      <trkpt lat="43.21404" lon="5.43956">
        <ele>27.054321</ele>
        <time>2013-04-07T07:34:49.000Z</time>
      </trkpt>
      <trkpt lat="43.21403" lon="5.43949">
        <ele>28.496216</ele>
        <time>2013-04-07T07:34:55.000Z</time>
      </trkpt>
      <trkpt lat="43.21398" lon="5.43952">
        <ele>30.418823</ele>
        <time>2013-04-07T07:35:01.000Z</time>
      </trkpt>
      <trkpt lat="43.21396" lon="5.43953">
        <ele>30.899536</ele>
        <time>2013-04-07T07:35:03.000Z</time>
      </trkpt>
      <trkpt lat="43.21393" lon="5.43952">
        <ele>32.341553</ele>
        <time>2013-04-07T07:35:09.000Z</time>
      </trkpt>
      <trkpt lat="43.21392" lon="5.43947">
        <ele>33.302856</ele>
        <time>2013-04-07T07:35:14.000Z</time>
      </trkpt>
      <trkpt lat="43.21392" lon="5.43943">
        <ele>33.783447</ele>
        <time>2013-04-07T07:35:18.000Z</time>
      </trkpt>
      <trkpt lat="43.21393" lon="5.43936">
        <ele>35.225464</ele>
        <time>2013-04-07T07:35:23.000Z</time>
      </trkpt>
      <trkpt lat="43.21393" lon="5.43931">
        <ele>35.225464</ele>
        <time>2013-04-07T07:35:26.000Z</time>
      </trkpt>
      <trkpt lat="43.21397" lon="5.4392">
        <ele>34.744873</ele>
        <time>2013-04-07T07:35:31.000Z</time>
      </trkpt>
      <trkpt lat="43.21397" lon="5.43919">
        <ele>35.225464</ele>
        <time>2013-04-07T07:35:33.000Z</time>
      </trkpt>
      <trkpt lat="43.21398" lon="5.43916">
        <ele>36.186768</ele>
        <time>2013-04-07T07:35:37.000Z</time>
      </trkpt>
      <trkpt lat="43.21399" lon="5.43909">
        <ele>39.55127</ele>
        <time>2013-04-07T07:35:43.000Z</time>
      </trkpt>
      <trkpt lat="43.21394" lon="5.43908">
        <ele>42.916016</ele>
        <time>2013-04-07T07:35:48.000Z</time>
      </trkpt>
      <trkpt lat="43.21392" lon="5.43903">
        <ele>44.838623</ele>
        <time>2013-04-07T07:35:53.000Z</time>
      </trkpt>
      <trkpt lat="43.21388" lon="5.43903">
        <ele>46.28064</ele>
        <time>2013-04-07T07:35:58.000Z</time>
      </trkpt>
      <trkpt lat="43.21385" lon="5.43899">
        <ele>49.16455</ele>
        <time>2013-04-07T07:36:03.000Z</time>
      </trkpt>
      <trkpt lat="43.21383" lon="5.43895">
        <ele>50.125977</ele>
        <time>2013-04-07T07:36:09.000Z</time>
      </trkpt>
      <trkpt lat="43.21381" lon="5.43889">
        <ele>52.529175</ele>
        <time>2013-04-07T07:36:15.000Z</time>
      </trkpt>
      <trkpt lat="43.21378" lon="5.43891">
        <ele>53.97119</ele>
        <time>2013-04-07T07:36:18.000Z</time>
      </trkpt>
      <trkpt lat="43.21372" lon="5.43897">
        <ele>54.451782</ele>
        <time>2013-04-07T07:36:23.000Z</time>
      </trkpt>
      <trkpt lat="43.21364" lon="5.43905">
        <ele>54.932373</ele>
        <time>2013-04-07T07:36:29.000Z</time>
      </trkpt>
      <trkpt lat="43.21359" lon="5.43913">
        <ele>54.932373</ele>
        <time>2013-04-07T07:36:33.000Z</time>
      </trkpt>
      <trkpt lat="43.21353" lon="5.43922">
        <ele>56.37451</ele>
        <time>2013-04-07T07:36:39.000Z</time>
      </trkpt>
      <trkpt lat="43.21346" lon="5.43931">
        <ele>58.29712</ele>
        <time>2013-04-07T07:36:45.000Z</time>
      </trkpt>
      <trkpt lat="43.21337" lon="5.43939">
        <ele>61.661743</ele>
        <time>2013-04-07T07:36:51.000Z</time>
      </trkpt>
      <trkpt lat="43.21329" lon="5.43947">
        <ele>64.06506</ele>
        <time>2013-04-07T07:36:58.000Z</time>
      </trkpt>
      <trkpt lat="43.21326" lon="5.4395">
        <ele>64.545654</ele>
        <time>2013-04-07T07:37:01.000Z</time>
      </trkpt>
      <trkpt lat="43.21325" lon="5.43946">
        <ele>65.02637</ele>
        <time>2013-04-07T07:37:06.000Z</time>
      </trkpt>
      <trkpt lat="43.21329" lon="5.43939">
        <ele>65.02637</ele>
        <time>2013-04-07T07:37:11.000Z</time>
      </trkpt>
      <trkpt lat="43.21335" lon="5.43927">
        <ele>66.948975</ele>
        <time>2013-04-07T07:37:18.000Z</time>
      </trkpt>
      <trkpt lat="43.21338" lon="5.43918">
        <ele>67.91028</ele>
        <time>2013-04-07T07:37:23.000Z</time>
      </trkpt>
      <trkpt lat="43.21341" lon="5.43907">
        <ele>69.832886</ele>
        <time>2013-04-07T07:37:30.000Z</time>
      </trkpt>
      <trkpt lat="43.21342" lon="5.43904">
        <ele>70.31348</ele>
        <time>2013-04-07T07:37:32.000Z</time>
      </trkpt>
      <trkpt lat="43.21346" lon="5.43894">
        <ele>73.19763</ele>
        <time>2013-04-07T07:37:39.000Z</time>
      </trkpt>
      <trkpt lat="43.2135" lon="5.43882">
        <ele>77.04285</ele>
        <time>2013-04-07T07:37:46.000Z</time>
      </trkpt>
      <trkpt lat="43.21352" lon="5.43873">
        <ele>79.446045</ele>
        <time>2013-04-07T07:37:52.000Z</time>
      </trkpt>
      <trkpt lat="43.21352" lon="5.4387">
        <ele>79.926636</ele>
        <time>2013-04-07T07:37:54.000Z</time>
      </trkpt>
      <trkpt lat="43.21354" lon="5.4386">
        <ele>82.33008</ele>
        <time>2013-04-07T07:38:01.000Z</time>
      </trkpt>
      <trkpt lat="43.21356" lon="5.43852">
        <ele>83.29138</ele>
        <time>2013-04-07T07:38:07.000Z</time>
      </trkpt>
      <trkpt lat="43.2136" lon="5.43845">
        <ele>84.7334</ele>
        <time>2013-04-07T07:38:13.000Z</time>
      </trkpt>
      <trkpt lat="43.21365" lon="5.43835">
        <ele>87.61719</ele>
        <time>2013-04-07T07:38:21.000Z</time>
      </trkpt>
      <trkpt lat="43.21366" lon="5.4382">
        <ele>90.02063</ele>
        <time>2013-04-07T07:38:30.000Z</time>
      </trkpt>
      <trkpt lat="43.21366" lon="5.43801">
        <ele>90.98193</ele>
        <time>2013-04-07T07:38:38.000Z</time>
      </trkpt>
      <trkpt lat="43.21365" lon="5.43788">
        <ele>91.462524</ele>
        <time>2013-04-07T07:38:43.000Z</time>
      </trkpt>
      <trkpt lat="43.21365" lon="5.43771">
        <ele>92.42395</ele>
        <time>2013-04-07T07:38:49.000Z</time>
      </trkpt>
      <trkpt lat="43.21365" lon="5.43752">
        <ele>93.865845</ele>
        <time>2013-04-07T07:38:57.000Z</time>
      </trkpt>
      <trkpt lat="43.21365" lon="5.4375">
        <ele>93.865845</ele>
        <time>2013-04-07T07:38:58.000Z</time>
      </trkpt>
      <trkpt lat="43.2137" lon="5.43741">
        <ele>96.74988</ele>
        <time>2013-04-07T07:39:04.000Z</time>
      </trkpt>
      <trkpt lat="43.21371" lon="5.43739">
        <ele>97.23047</ele>
        <time>2013-04-07T07:39:05.000Z</time>
      </trkpt>
      <trkpt lat="43.21378" lon="5.43731">
        <ele>99.63379</ele>
        <time>2013-04-07T07:39:12.000Z</time>
      </trkpt>
      <trkpt lat="43.21384" lon="5.43726">
        <ele>100.1145</ele>
        <time>2013-04-07T07:39:18.000Z</time>
      </trkpt>
      <trkpt lat="43.21385" lon="5.43725">
        <ele>100.1145</ele>
        <time>2013-04-07T07:39:19.000Z</time>
      </trkpt>
      <trkpt lat="43.21388" lon="5.43724">
        <ele>100.59509</ele>
        <time>2013-04-07T07:39:22.000Z</time>
      </trkpt>
      <trkpt lat="43.21398" lon="5.43718">
        <ele>103.479004</ele>
        <time>2013-04-07T07:39:30.000Z</time>
      </trkpt>
      <trkpt lat="43.21399" lon="5.43718">
        <ele>104.44043</ele>
        <time>2013-04-07T07:39:31.000Z</time>
      </trkpt>
      <trkpt lat="43.21406" lon="5.43711">
        <ele>107.32434</ele>
        <time>2013-04-07T07:39:38.000Z</time>
      </trkpt>
      <trkpt lat="43.21409" lon="5.43708">
        <ele>108.285645</ele>
        <time>2013-04-07T07:39:41.000Z</time>
      </trkpt>
      <trkpt lat="43.21416" lon="5.43697">
        <ele>110.20825</ele>
        <time>2013-04-07T07:39:49.000Z</time>
      </trkpt>
      <trkpt lat="43.2142" lon="5.43686">
        <ele>110.20825</ele>
        <time>2013-04-07T07:39:55.000Z</time>
      </trkpt>
      <trkpt lat="43.21422" lon="5.4368">
        <ele>111.169556</ele>
        <time>2013-04-07T07:39:58.000Z</time>
      </trkpt>
      <trkpt lat="43.21429" lon="5.43665">
        <ele>112.61157</ele>
        <time>2013-04-07T07:40:05.000Z</time>
      </trkpt>
      <trkpt lat="43.21432" lon="5.43655">
        <ele>113.092285</ele>
        <time>2013-04-07T07:40:09.000Z</time>
      </trkpt>
      <trkpt lat="43.21433" lon="5.43647">
        <ele>112.61157</ele>
        <time>2013-04-07T07:40:12.000Z</time>
      </trkpt>
      <trkpt lat="43.21435" lon="5.43642">
        <ele>113.092285</ele>
        <time>2013-04-07T07:40:14.000Z</time>
      </trkpt>
      <trkpt lat="43.2144" lon="5.43631">
        <ele>114.05359</ele>
        <time>2013-04-07T07:40:19.000Z</time>
      </trkpt>
      <trkpt lat="43.21444" lon="5.43623">
        <ele>115.495605</ele>
        <time>2013-04-07T07:40:23.000Z</time>
      </trkpt>
      <trkpt lat="43.21449" lon="5.43607">
        <ele>117.8988</ele>
        <time>2013-04-07T07:40:32.000Z</time>
      </trkpt>
      <trkpt lat="43.21455" lon="5.43596">
        <ele>120.302124</ele>
        <time>2013-04-07T07:40:40.000Z</time>
      </trkpt>
      <trkpt lat="43.21458" lon="5.43585">
        <ele>121.74414</ele>
        <time>2013-04-07T07:40:46.000Z</time>
      </trkpt>
      <trkpt lat="43.21459" lon="5.43579">
        <ele>123.18616</ele>
        <time>2013-04-07T07:40:50.000Z</time>
      </trkpt>
      <trkpt lat="43.21467" lon="5.43568">
        <ele>126.55066</ele>
        <time>2013-04-07T07:40:59.000Z</time>
      </trkpt>
      <trkpt lat="43.2147" lon="5.43561">
        <ele>128.47339</ele>
        <time>2013-04-07T07:41:06.000Z</time>
      </trkpt>
      <trkpt lat="43.21474" lon="5.43555">
        <ele>129.4347</ele>
        <time>2013-04-07T07:41:11.000Z</time>
      </trkpt>
      <trkpt lat="43.21472" lon="5.4355">
        <ele>131.3573</ele>
        <time>2013-04-07T07:41:17.000Z</time>
      </trkpt>
      <trkpt lat="43.21473" lon="5.43545">
        <ele>132.79932</ele>
        <time>2013-04-07T07:41:22.000Z</time>
      </trkpt>
      <trkpt lat="43.21477" lon="5.43541">
        <ele>134.72192</ele>
        <time>2013-04-07T07:41:27.000Z</time>
      </trkpt>
      <trkpt lat="43.21481" lon="5.43532">
        <ele>137.12524</ele>
        <time>2013-04-07T07:41:34.000Z</time>
      </trkpt>
      <trkpt lat="43.21483" lon="5.43526">
        <ele>138.08655</ele>
        <time>2013-04-07T07:41:39.000Z</time>
      </trkpt>
      <trkpt lat="43.21489" lon="5.43519">
        <ele>140.97046</ele>
        <time>2013-04-07T07:41:47.000Z</time>
      </trkpt>
      <trkpt lat="43.21493" lon="5.43514">
        <ele>142.89307</ele>
        <time>2013-04-07T07:41:52.000Z</time>
      </trkpt>
      <trkpt lat="43.21494" lon="5.43511">
        <ele>143.37366</ele>
        <time>2013-04-07T07:41:54.000Z</time>
      </trkpt>
      <trkpt lat="43.21497" lon="5.43504">
        <ele>144.8158</ele>
        <time>2013-04-07T07:42:00.000Z</time>
      </trkpt>
      <trkpt lat="43.21501" lon="5.43497">
        <ele>147.219</ele>
        <time>2013-04-07T07:42:07.000Z</time>
      </trkpt>
      <trkpt lat="43.215" lon="5.43491">
        <ele>148.18042</ele>
        <time>2013-04-07T07:42:12.000Z</time>
      </trkpt>
      <trkpt lat="43.215" lon="5.43488">
        <ele>148.66101</ele>
        <time>2013-04-07T07:42:14.000Z</time>
      </trkpt>
      <trkpt lat="43.21501" lon="5.4348">
        <ele>149.1416</ele>
        <time>2013-04-07T07:42:18.000Z</time>
      </trkpt>
      <trkpt lat="43.21496" lon="5.4347">
        <ele>150.10303</ele>
        <time>2013-04-07T07:42:24.000Z</time>
      </trkpt>
      <trkpt lat="43.21493" lon="5.43467">
        <ele>151.06421</ele>
        <time>2013-04-07T07:42:28.000Z</time>
      </trkpt>
      <trkpt lat="43.21488" lon="5.43459">
        <ele>153.94836</ele>
        <time>2013-04-07T07:42:34.000Z</time>
      </trkpt>
      <trkpt lat="43.21484" lon="5.43457">
        <ele>155.39026</ele>
        <time>2013-04-07T07:42:38.000Z</time>
      </trkpt>
      <trkpt lat="43.2148" lon="5.43453">
        <ele>157.31287</ele>
        <time>2013-04-07T07:42:42.000Z</time>
      </trkpt>
      <trkpt lat="43.21475" lon="5.43447">
        <ele>158.27417</ele>
        <time>2013-04-07T07:42:47.000Z</time>
      </trkpt>
      <trkpt lat="43.21472" lon="5.43444">
        <ele>160.1969</ele>
        <time>2013-04-07T07:42:52.000Z</time>
      </trkpt>
      <trkpt lat="43.21465" lon="5.43441">
        <ele>162.6001</ele>
        <time>2013-04-07T07:42:59.000Z</time>
      </trkpt>
      <trkpt lat="43.21464" lon="5.4344">
        <ele>162.6001</ele>
        <time>2013-04-07T07:43:00.000Z</time>
      </trkpt>
      <trkpt lat="43.21461" lon="5.43432">
        <ele>163.56152</ele>
        <time>2013-04-07T07:43:05.000Z</time>
      </trkpt>
      <trkpt lat="43.21457" lon="5.43422">
        <ele>162.6001</ele>
        <time>2013-04-07T07:43:10.000Z</time>
      </trkpt>
      <trkpt lat="43.21454" lon="5.43412">
        <ele>161.63892</ele>
        <time>2013-04-07T07:43:14.000Z</time>
      </trkpt>
      <trkpt lat="43.21448" lon="5.43405">
        <ele>161.63892</ele>
        <time>2013-04-07T07:43:18.000Z</time>
      </trkpt>
      <trkpt lat="43.21442" lon="5.43396">
        <ele>162.6001</ele>
        <time>2013-04-07T07:43:23.000Z</time>
      </trkpt>
      <trkpt lat="43.2144" lon="5.43394">
        <ele>163.56152</ele>
        <time>2013-04-07T07:43:25.000Z</time>
      </trkpt>
      <trkpt lat="43.21434" lon="5.43389">
        <ele>165.00342</ele>
        <time>2013-04-07T07:43:31.000Z</time>
      </trkpt>
      <trkpt lat="43.21429" lon="5.43382">
        <ele>165.96472</ele>
        <time>2013-04-07T07:43:37.000Z</time>
      </trkpt>
      <trkpt lat="43.21431" lon="5.4337">
        <ele>166.44531</ele>
        <time>2013-04-07T07:43:42.000Z</time>
      </trkpt>
      <trkpt lat="43.21427" lon="5.43362">
        <ele>167.40674</ele>
        <time>2013-04-07T07:43:45.000Z</time>
      </trkpt>
      <trkpt lat="43.21423" lon="5.4336">
        <ele>168.36804</ele>
        <time>2013-04-07T07:43:47.000Z</time>
      </trkpt>
      <trkpt lat="43.21419" lon="5.43355">
        <ele>169.32947</ele>
        <time>2013-04-07T07:43:50.000Z</time>
      </trkpt>
      <trkpt lat="43.21413" lon="5.43352">
        <ele>170.29065</ele>
        <time>2013-04-07T07:43:54.000Z</time>
      </trkpt>
      <trkpt lat="43.21407" lon="5.43348">
        <ele>173.17468</ele>
        <time>2013-04-07T07:44:00.000Z</time>
      </trkpt>
      <trkpt lat="43.21405" lon="5.43341">
        <ele>178.46191</ele>
        <time>2013-04-07T07:44:07.000Z</time>
      </trkpt>
      <trkpt lat="43.21405" lon="5.43338">
        <ele>178.94263</ele>
        <time>2013-04-07T07:44:08.000Z</time>
      </trkpt>
      <trkpt lat="43.21406" lon="5.43328">
        <ele>179.42322</ele>
        <time>2013-04-07T07:44:13.000Z</time>
      </trkpt>
      <trkpt lat="43.21408" lon="5.4332">
        <ele>179.42322</ele>
        <time>2013-04-07T07:44:16.000Z</time>
      </trkpt>
      <trkpt lat="43.21411" lon="5.43308">
        <ele>178.46191</ele>
        <time>2013-04-07T07:44:21.000Z</time>
      </trkpt>
      <trkpt lat="43.2141" lon="5.43305">
        <ele>178.46191</ele>
        <time>2013-04-07T07:44:22.000Z</time>
      </trkpt>
      <trkpt lat="43.21405" lon="5.43288">
        <ele>175.57788</ele>
        <time>2013-04-07T07:44:28.000Z</time>
      </trkpt>
      <trkpt lat="43.21401" lon="5.43277">
        <ele>174.13586</ele>
        <time>2013-04-07T07:44:32.000Z</time>
      </trkpt>
      <trkpt lat="43.21397" lon="5.4327">
        <ele>174.13586</ele>
        <time>2013-04-07T07:44:35.000Z</time>
      </trkpt>
      <trkpt lat="43.21393" lon="5.43265">
        <ele>174.61658</ele>
        <time>2013-04-07T07:44:38.000Z</time>
      </trkpt>
      <trkpt lat="43.21387" lon="5.43259">
        <ele>176.0586</ele>
        <time>2013-04-07T07:44:43.000Z</time>
      </trkpt>
      <trkpt lat="43.21382" lon="5.43258">
        <ele>177.50061</ele>
        <time>2013-04-07T07:44:47.000Z</time>
      </trkpt>
      <trkpt lat="43.21374" lon="5.43257">
        <ele>181.34583</ele>
        <time>2013-04-07T07:44:54.000Z</time>
      </trkpt>
      <trkpt lat="43.21369" lon="5.43256">
        <ele>182.78784</ele>
        <time>2013-04-07T07:45:00.000Z</time>
      </trkpt>
      <trkpt lat="43.21365" lon="5.43256">
        <ele>184.22986</ele>
        <time>2013-04-07T07:45:05.000Z</time>
      </trkpt>
      <trkpt lat="43.21361" lon="5.43254">
        <ele>185.19116</ele>
        <time>2013-04-07T07:45:09.000Z</time>
      </trkpt>
      <trkpt lat="43.21356" lon="5.43254">
        <ele>187.59436</ele>
        <time>2013-04-07T07:45:15.000Z</time>
      </trkpt>
      <trkpt lat="43.21358" lon="5.43248">
        <ele>188.07507</ele>
        <time>2013-04-07T07:45:19.000Z</time>
      </trkpt>
      <trkpt lat="43.21359" lon="5.43244">
        <ele>188.55579</ele>
        <time>2013-04-07T07:45:22.000Z</time>
      </trkpt>
      <trkpt lat="43.21367" lon="5.43233">
        <ele>189.51697</ele>
        <time>2013-04-07T07:45:28.000Z</time>
      </trkpt>
      <trkpt lat="43.21372" lon="5.43225">
        <ele>189.03638</ele>
        <time>2013-04-07T07:45:32.000Z</time>
      </trkpt>
      <trkpt lat="43.21373" lon="5.43212">
        <ele>188.07507</ele>
        <time>2013-04-07T07:45:37.000Z</time>
      </trkpt>
      <trkpt lat="43.21371" lon="5.43202">
        <ele>189.03638</ele>
        <time>2013-04-07T07:45:42.000Z</time>
      </trkpt>
      <trkpt lat="43.21371" lon="5.432">
        <ele>189.51697</ele>
        <time>2013-04-07T07:45:43.000Z</time>
      </trkpt>
      <trkpt lat="43.21371" lon="5.43188">
        <ele>189.99768</ele>
        <time>2013-04-07T07:45:49.000Z</time>
      </trkpt>
      <trkpt lat="43.21371" lon="5.43186">
        <ele>190.4784</ele>
        <time>2013-04-07T07:45:50.000Z</time>
      </trkpt>
      <trkpt lat="43.21374" lon="5.43179">
        <ele>193.84302</ele>
        <time>2013-04-07T07:45:55.000Z</time>
      </trkpt>
      <trkpt lat="43.21377" lon="5.43166">
        <ele>196.72693</ele>
        <time>2013-04-07T07:46:02.000Z</time>
      </trkpt>
      <trkpt lat="43.21381" lon="5.43156">
        <ele>197.68823</ele>
        <time>2013-04-07T07:46:07.000Z</time>
      </trkpt>
      <trkpt lat="43.21386" lon="5.43151">
        <ele>199.13013</ele>
        <time>2013-04-07T07:46:12.000Z</time>
      </trkpt>
      <trkpt lat="43.21391" lon="5.43152">
        <ele>199.61084</ele>
        <time>2013-04-07T07:46:16.000Z</time>
      </trkpt>
      <trkpt lat="43.21395" lon="5.43153">
        <ele>199.61084</ele>
        <time>2013-04-07T07:46:19.000Z</time>
      </trkpt>
      <trkpt lat="43.21403" lon="5.43156">
        <ele>199.61084</ele>
        <time>2013-04-07T07:46:25.000Z</time>
      </trkpt>
      <trkpt lat="43.21407" lon="5.4316">
        <ele>200.57227</ele>
        <time>2013-04-07T07:46:29.000Z</time>
      </trkpt>
      <trkpt lat="43.21407" lon="5.43154">
        <ele>202.49487</ele>
        <time>2013-04-07T07:46:34.000Z</time>
      </trkpt>
      <trkpt lat="43.21402" lon="5.43143">
        <ele>206.34009</ele>
        <time>2013-04-07T07:46:41.000Z</time>
      </trkpt>
      <trkpt lat="43.21399" lon="5.43138">
        <ele>208.26282</ele>
        <time>2013-04-07T07:46:45.000Z</time>
      </trkpt>
      <trkpt lat="43.21396" lon="5.43132">
        <ele>208.26282</ele>
        <time>2013-04-07T07:46:48.000Z</time>
      </trkpt>
      <trkpt lat="43.2139" lon="5.43123">
        <ele>208.26282</ele>
        <time>2013-04-07T07:46:53.000Z</time>
      </trkpt>
      <trkpt lat="43.21389" lon="5.43121">
        <ele>208.26282</ele>
        <time>2013-04-07T07:46:54.000Z</time>
      </trkpt>
      <trkpt lat="43.21378" lon="5.43122">
        <ele>210.18542</ele>
        <time>2013-04-07T07:47:00.000Z</time>
      </trkpt>
      <trkpt lat="43.21373" lon="5.4312">
        <ele>210.18542</ele>
        <time>2013-04-07T07:47:03.000Z</time>
      </trkpt>
      <trkpt lat="43.21369" lon="5.43121">
        <ele>210.66602</ele>
        <time>2013-04-07T07:47:05.000Z</time>
      </trkpt>
      <trkpt lat="43.21361" lon="5.43133">
        <ele>210.66602</ele>
        <time>2013-04-07T07:47:11.000Z</time>
      </trkpt>
      <trkpt lat="43.21356" lon="5.43143">
        <ele>211.14673</ele>
        <time>2013-04-07T07:47:15.000Z</time>
      </trkpt>
      <trkpt lat="43.21355" lon="5.43145">
        <ele>211.14673</ele>
        <time>2013-04-07T07:47:16.000Z</time>
      </trkpt>
      <trkpt lat="43.21348" lon="5.43156">
        <ele>212.58862</ele>
        <time>2013-04-07T07:47:22.000Z</time>
      </trkpt>
      <trkpt lat="43.21344" lon="5.43161">
        <ele>213.06934</ele>
        <time>2013-04-07T07:47:25.000Z</time>
      </trkpt>
      <trkpt lat="43.21336" lon="5.43172">
        <ele>214.51123</ele>
        <time>2013-04-07T07:47:31.000Z</time>
      </trkpt>
      <trkpt lat="43.21327" lon="5.43183">
        <ele>214.99194</ele>
        <time>2013-04-07T07:47:37.000Z</time>
      </trkpt>
      <trkpt lat="43.21323" lon="5.43188">
        <ele>215.47266</ele>
        <time>2013-04-07T07:47:40.000Z</time>
      </trkpt>
      <trkpt lat="43.21315" lon="5.43194">
        <ele>215.95325</ele>
        <time>2013-04-07T07:47:45.000Z</time>
      </trkpt>
      <trkpt lat="43.21308" lon="5.43199">
        <ele>218.35657</ele>
        <time>2013-04-07T07:47:50.000Z</time>
      </trkpt>
      <trkpt lat="43.213" lon="5.43204">
        <ele>220.75989</ele>
        <time>2013-04-07T07:47:55.000Z</time>
      </trkpt>
      <trkpt lat="43.21299" lon="5.43206">
        <ele>221.2406</ele>
        <time>2013-04-07T07:47:56.000Z</time>
      </trkpt>
      <trkpt lat="43.21291" lon="5.43216">
        <ele>223.16321</ele>
        <time>2013-04-07T07:48:02.000Z</time>
      </trkpt>
      <trkpt lat="43.21284" lon="5.43225">
        <ele>225.08594</ele>
        <time>2013-04-07T07:48:08.000Z</time>
      </trkpt>
      <trkpt lat="43.21281" lon="5.43231">
        <ele>226.04712</ele>
        <time>2013-04-07T07:48:12.000Z</time>
      </trkpt>
      <trkpt lat="43.21274" lon="5.43236">
        <ele>227.48914</ele>
        <time>2013-04-07T07:48:17.000Z</time>
      </trkpt>
      <trkpt lat="43.21268" lon="5.43238">
        <ele>228.45044</ele>
        <time>2013-04-07T07:48:21.000Z</time>
      </trkpt>
      <trkpt lat="43.21263" lon="5.43234">
        <ele>228.93115</ele>
        <time>2013-04-07T07:48:24.000Z</time>
      </trkpt>
      <trkpt lat="43.21263" lon="5.43228">
        <ele>228.93115</ele>
        <time>2013-04-07T07:48:27.000Z</time>
      </trkpt>
      <trkpt lat="43.21263" lon="5.43226">
        <ele>229.89233</ele>
        <time>2013-04-07T07:48:34.000Z</time>
      </trkpt>
      <trkpt lat="43.21263" lon="5.43225">
        <ele>230.85376</ele>
        <time>2013-04-07T07:48:40.000Z</time>
      </trkpt>
      <trkpt lat="43.21259" lon="5.43224">
        <ele>231.81494</ele>
        <time>2013-04-07T07:48:49.000Z</time>
      </trkpt>
      <trkpt lat="43.21254" lon="5.43215">
        <ele>230.37305</ele>
        <time>2013-04-07T07:48:54.000Z</time>
      </trkpt>
      <trkpt lat="43.21249" lon="5.4321">
        <ele>228.45044</ele>
        <time>2013-04-07T07:48:58.000Z</time>
      </trkpt>
      <trkpt lat="43.21243" lon="5.43205">
        <ele>227.00854</ele>
        <time>2013-04-07T07:49:02.000Z</time>
      </trkpt>
      <trkpt lat="43.21237" lon="5.43194">
        <ele>224.60522</ele>
        <time>2013-04-07T07:49:08.000Z</time>
      </trkpt>
      <trkpt lat="43.21234" lon="5.43188">
        <ele>222.6825</ele>
        <time>2013-04-07T07:49:12.000Z</time>
      </trkpt>
      <trkpt lat="43.21228" lon="5.43183">
        <ele>219.79858</ele>
        <time>2013-04-07T07:49:17.000Z</time>
      </trkpt>
      <trkpt lat="43.21227" lon="5.43179">
        <ele>218.83728</ele>
        <time>2013-04-07T07:49:19.000Z</time>
      </trkpt>
      <trkpt lat="43.21222" lon="5.4317">
        <ele>215.47266</ele>
        <time>2013-04-07T07:49:24.000Z</time>
      </trkpt>
      <trkpt lat="43.21219" lon="5.43156">
        <ele>212.10803</ele>
        <time>2013-04-07T07:49:29.000Z</time>
      </trkpt>
      <trkpt lat="43.21216" lon="5.43138">
        <ele>208.74341</ele>
        <time>2013-04-07T07:49:34.000Z</time>
      </trkpt>
      <trkpt lat="43.21218" lon="5.43118">
        <ele>205.37878</ele>
        <time>2013-04-07T07:49:39.000Z</time>
      </trkpt>
      <trkpt lat="43.21219" lon="5.43104">
        <ele>202.49487</ele>
        <time>2013-04-07T07:49:43.000Z</time>
      </trkpt>
      <trkpt lat="43.21226" lon="5.43093">
        <ele>200.09167</ele>
        <time>2013-04-07T07:49:47.000Z</time>
      </trkpt>
      <trkpt lat="43.21233" lon="5.43082">
        <ele>199.13013</ele>
        <time>2013-04-07T07:49:51.000Z</time>
      </trkpt>
      <trkpt lat="43.21245" lon="5.43071">
        <ele>198.16895</ele>
        <time>2013-04-07T07:49:57.000Z</time>
      </trkpt>
      <trkpt lat="43.21251" lon="5.43053">
        <ele>195.28491</ele>
        <time>2013-04-07T07:50:03.000Z</time>
      </trkpt>
      <trkpt lat="43.21252" lon="5.43049">
        <ele>195.28491</ele>
        <time>2013-04-07T07:50:04.000Z</time>
      </trkpt>
      <trkpt lat="43.21259" lon="5.43031">
        <ele>192.40112</ele>
        <time>2013-04-07T07:50:09.000Z</time>
      </trkpt>
      <trkpt lat="43.21269" lon="5.43022">
        <ele>192.40112</ele>
        <time>2013-04-07T07:50:14.000Z</time>
      </trkpt>
      <trkpt lat="43.21283" lon="5.43019">
        <ele>194.32373</ele>
        <time>2013-04-07T07:50:19.000Z</time>
      </trkpt>
      <trkpt lat="43.21293" lon="5.43017">
        <ele>195.28491</ele>
        <time>2013-04-07T07:50:23.000Z</time>
      </trkpt>
      <trkpt lat="43.21304" lon="5.43011">
        <ele>195.76562</ele>
        <time>2013-04-07T07:50:28.000Z</time>
      </trkpt>
      <trkpt lat="43.21315" lon="5.42996">
        <ele>195.28491</ele>
        <time>2013-04-07T07:50:33.000Z</time>
      </trkpt>
      <trkpt lat="43.21322" lon="5.42984">
        <ele>195.28491</ele>
        <time>2013-04-07T07:50:37.000Z</time>
      </trkpt>
      <trkpt lat="43.21324" lon="5.42978">
        <ele>194.80432</ele>
        <time>2013-04-07T07:50:39.000Z</time>
      </trkpt>
      <trkpt lat="43.21327" lon="5.42965">
        <ele>196.72693</ele>
        <time>2013-04-07T07:50:43.000Z</time>
      </trkpt>
      <trkpt lat="43.21333" lon="5.42955">
        <ele>199.13013</ele>
        <time>2013-04-07T07:50:47.000Z</time>
      </trkpt>
      <trkpt lat="43.21343" lon="5.42949">
        <ele>199.61084</ele>
        <time>2013-04-07T07:50:52.000Z</time>
      </trkpt>
      <trkpt lat="43.21352" lon="5.42939">
        <ele>199.13013</ele>
        <time>2013-04-07T07:50:57.000Z</time>
      </trkpt>
      <trkpt lat="43.21358" lon="5.42918">
        <ele>198.16895</ele>
        <time>2013-04-07T07:51:02.000Z</time>
      </trkpt>
      <trkpt lat="43.21359" lon="5.42894">
        <ele>196.24634</ele>
        <time>2013-04-07T07:51:07.000Z</time>
      </trkpt>
      <trkpt lat="43.21361" lon="5.4288">
        <ele>195.76562</ele>
        <time>2013-04-07T07:51:11.000Z</time>
      </trkpt>
      <trkpt lat="43.21363" lon="5.42868">
        <ele>195.76562</ele>
        <time>2013-04-07T07:51:15.000Z</time>
      </trkpt>
      <trkpt lat="43.21363" lon="5.42855">
        <ele>196.24634</ele>
        <time>2013-04-07T07:51:19.000Z</time>
      </trkpt>
      <trkpt lat="43.21356" lon="5.42842">
        <ele>193.3623</ele>
        <time>2013-04-07T07:51:24.000Z</time>
      </trkpt>
      <trkpt lat="43.21352" lon="5.42838">
        <ele>192.40112</ele>
        <time>2013-04-07T07:51:26.000Z</time>
      </trkpt>
      <trkpt lat="43.21347" lon="5.42836">
        <ele>190.95898</ele>
        <time>2013-04-07T07:51:28.000Z</time>
      </trkpt>
      <trkpt lat="43.21339" lon="5.42826">
        <ele>188.55579</ele>
        <time>2013-04-07T07:51:32.000Z</time>
      </trkpt>
      <trkpt lat="43.21336" lon="5.42819">
        <ele>186.63318</ele>
        <time>2013-04-07T07:51:36.000Z</time>
      </trkpt>
      <trkpt lat="43.21326" lon="5.42818">
        <ele>184.71057</ele>
        <time>2013-04-07T07:51:41.000Z</time>
      </trkpt>
      <trkpt lat="43.21315" lon="5.42809">
        <ele>184.22986</ele>
        <time>2013-04-07T07:51:45.000Z</time>
      </trkpt>
      <trkpt lat="43.21308" lon="5.42798">
        <ele>183.74902</ele>
        <time>2013-04-07T07:51:48.000Z</time>
      </trkpt>
      <trkpt lat="43.21301" lon="5.42784">
        <ele>182.30713</ele>
        <time>2013-04-07T07:51:53.000Z</time>
      </trkpt>
      <trkpt lat="43.213" lon="5.42769">
        <ele>179.90381</ele>
        <time>2013-04-07T07:51:58.000Z</time>
      </trkpt>
      <trkpt lat="43.21299" lon="5.42766">
        <ele>179.90381</ele>
        <time>2013-04-07T07:51:59.000Z</time>
      </trkpt>
      <trkpt lat="43.21295" lon="5.42767">
        <ele>177.50061</ele>
        <time>2013-04-07T07:52:04.000Z</time>
      </trkpt>
      <trkpt lat="43.21291" lon="5.42767">
        <ele>176.0586</ele>
        <time>2013-04-07T07:52:08.000Z</time>
      </trkpt>
      <trkpt lat="43.2129" lon="5.42767">
        <ele>175.57788</ele>
        <time>2013-04-07T07:52:09.000Z</time>
      </trkpt>
      <trkpt lat="43.21286" lon="5.42763">
        <ele>173.65527</ele>
        <time>2013-04-07T07:52:12.000Z</time>
      </trkpt>
      <trkpt lat="43.2128" lon="5.42757">
        <ele>171.25208</ele>
        <time>2013-04-07T07:52:17.000Z</time>
      </trkpt>
      <trkpt lat="43.21271" lon="5.42756">
        <ele>168.36804</ele>
        <time>2013-04-07T07:52:22.000Z</time>
      </trkpt>
      <trkpt lat="43.21271" lon="5.42746">
        <ele>166.92603</ele>
        <time>2013-04-07T07:52:25.000Z</time>
      </trkpt>
      <trkpt lat="43.21274" lon="5.42741">
        <ele>165.96472</ele>
        <time>2013-04-07T07:52:27.000Z</time>
      </trkpt>
      <trkpt lat="43.21278" lon="5.42739">
        <ele>163.56152</ele>
        <time>2013-04-07T07:52:32.000Z</time>
      </trkpt>
      <trkpt lat="43.21279" lon="5.42738">
        <ele>163.08081</ele>
        <time>2013-04-07T07:52:39.000Z</time>
      </trkpt>
      <trkpt lat="43.2128" lon="5.42738">
        <ele>162.6001</ele>
        <time>2013-04-07T07:52:43.000Z</time>
      </trkpt>
      <trkpt lat="43.21283" lon="5.42732">
        <ele>161.1582</ele>
        <time>2013-04-07T07:52:51.000Z</time>
      </trkpt>
      <trkpt lat="43.21286" lon="5.42727">
        <ele>160.67749</ele>
        <time>2013-04-07T07:52:54.000Z</time>
      </trkpt>
      <trkpt lat="43.21283" lon="5.42724">
        <ele>158.75476</ele>
        <time>2013-04-07T07:52:58.000Z</time>
      </trkpt>
      <trkpt lat="43.21278" lon="5.42724">
        <ele>156.83215</ele>
        <time>2013-04-07T07:53:02.000Z</time>
      </trkpt>
      <trkpt lat="43.21271" lon="5.42719">
        <ele>153.46765</ele>
        <time>2013-04-07T07:53:08.000Z</time>
      </trkpt>
      <trkpt lat="43.21271" lon="5.42717">
        <ele>152.98694</ele>
        <time>2013-04-07T07:53:09.000Z</time>
      </trkpt>
      <trkpt lat="43.21269" lon="5.42716">
        <ele>152.02576</ele>
        <time>2013-04-07T07:53:11.000Z</time>
      </trkpt>
      <trkpt lat="43.21261" lon="5.42711">
        <ele>149.62231</ele>
        <time>2013-04-07T07:53:16.000Z</time>
      </trkpt>
      <trkpt lat="43.21256" lon="5.42706">
        <ele>147.6997</ele>
        <time>2013-04-07T07:53:19.000Z</time>
      </trkpt>
      <trkpt lat="43.21254" lon="5.427">
        <ele>147.219</ele>
        <time>2013-04-07T07:53:22.000Z</time>
      </trkpt>
      <trkpt lat="43.21245" lon="5.42697">
        <ele>146.7384</ele>
        <time>2013-04-07T07:53:27.000Z</time>
      </trkpt>
      <trkpt lat="43.21238" lon="5.42696">
        <ele>142.41248</ele>
        <time>2013-04-07T07:53:31.000Z</time>
      </trkpt>
      <trkpt lat="43.21238" lon="5.42693">
        <ele>140.97046</ele>
        <time>2013-04-07T07:53:33.000Z</time>
      </trkpt>
      <trkpt lat="43.21236" lon="5.42688">
        <ele>139.04785</ele>
        <time>2013-04-07T07:53:37.000Z</time>
      </trkpt>
      <trkpt lat="43.21233" lon="5.4268">
        <ele>136.64465</ele>
        <time>2013-04-07T07:53:41.000Z</time>
      </trkpt>
      <trkpt lat="43.21226" lon="5.42676">
        <ele>133.2799</ele>
        <time>2013-04-07T07:53:46.000Z</time>
      </trkpt>
      <trkpt lat="43.21225" lon="5.42675">
        <ele>133.2799</ele>
        <time>2013-04-07T07:53:47.000Z</time>
      </trkpt>
      <trkpt lat="43.21224" lon="5.42674">
        <ele>128.47339</ele>
        <time>2013-04-07T07:53:50.000Z</time>
      </trkpt>
      <trkpt lat="43.21222" lon="5.4267">
        <ele>123.66675</ele>
        <time>2013-04-07T07:53:55.000Z</time>
      </trkpt>
      <trkpt lat="43.2122" lon="5.42669">
        <ele>120.78284</ele>
        <time>2013-04-07T07:53:58.000Z</time>
      </trkpt>
      <trkpt lat="43.21217" lon="5.42669">
        <ele>119.34082</ele>
        <time>2013-04-07T07:54:00.000Z</time>
      </trkpt>
      <trkpt lat="43.21215" lon="5.42667">
        <ele>117.41821</ele>
        <time>2013-04-07T07:54:03.000Z</time>
      </trkpt>
      <trkpt lat="43.21205" lon="5.42665">
        <ele>114.53418</ele>
        <time>2013-04-07T07:54:09.000Z</time>
      </trkpt>
      <trkpt lat="43.21198" lon="5.42662">
        <ele>112.13098</ele>
        <time>2013-04-07T07:54:14.000Z</time>
      </trkpt>
      <trkpt lat="43.21196" lon="5.42659">
        <ele>110.68884</ele>
        <time>2013-04-07T07:54:16.000Z</time>
      </trkpt>
      <trkpt lat="43.21193" lon="5.42657">
        <ele>108.766235</ele>
        <time>2013-04-07T07:54:21.000Z</time>
      </trkpt>
      <trkpt lat="43.21194" lon="5.42654">
        <ele>107.32434</ele>
        <time>2013-04-07T07:54:24.000Z</time>
      </trkpt>
      <trkpt lat="43.21201" lon="5.42645">
        <ele>105.40173</ele>
        <time>2013-04-07T07:54:30.000Z</time>
      </trkpt>
      <trkpt lat="43.21206" lon="5.42639">
        <ele>104.44043</ele>
        <time>2013-04-07T07:54:34.000Z</time>
      </trkpt>
      <trkpt lat="43.21205" lon="5.42637">
        <ele>103.479004</ele>
        <time>2013-04-07T07:54:37.000Z</time>
      </trkpt>
      <trkpt lat="43.21199" lon="5.42637">
        <ele>101.5564</ele>
        <time>2013-04-07T07:54:41.000Z</time>
      </trkpt>
      <trkpt lat="43.21195" lon="5.42636">
        <ele>100.59509</ele>
        <time>2013-04-07T07:54:43.000Z</time>
      </trkpt>
      <trkpt lat="43.21185" lon="5.4264">
        <ele>100.1145</ele>
        <time>2013-04-07T07:54:47.000Z</time>
      </trkpt>
      <trkpt lat="43.21176" lon="5.42635">
        <ele>96.74988</ele>
        <time>2013-04-07T07:54:52.000Z</time>
      </trkpt>
      <trkpt lat="43.21175" lon="5.42635">
        <ele>96.26929</ele>
        <time>2013-04-07T07:54:53.000Z</time>
      </trkpt>
      <trkpt lat="43.21171" lon="5.42633">
        <ele>94.34656</ele>
        <time>2013-04-07T07:54:57.000Z</time>
      </trkpt>
      <trkpt lat="43.2117" lon="5.42631">
        <ele>93.38513</ele>
        <time>2013-04-07T07:54:59.000Z</time>
      </trkpt>
      <trkpt lat="43.21166" lon="5.42623">
        <ele>91.462524</ele>
        <time>2013-04-07T07:55:04.000Z</time>
      </trkpt>
      <trkpt lat="43.21158" lon="5.42618">
        <ele>89.53992</ele>
        <time>2013-04-07T07:55:10.000Z</time>
      </trkpt>
      <trkpt lat="43.21158" lon="5.42616">
        <ele>88.578735</ele>
        <time>2013-04-07T07:55:12.000Z</time>
      </trkpt>
      <trkpt lat="43.2116" lon="5.42613">
        <ele>87.1366</ele>
        <time>2013-04-07T07:55:15.000Z</time>
      </trkpt>
      <trkpt lat="43.21156" lon="5.42607">
        <ele>85.69458</ele>
        <time>2013-04-07T07:55:19.000Z</time>
      </trkpt>
      <trkpt lat="43.21153" lon="5.42604">
        <ele>83.77197</ele>
        <time>2013-04-07T07:55:23.000Z</time>
      </trkpt>
      <trkpt lat="43.21148" lon="5.42598">
        <ele>80.88818</ele>
        <time>2013-04-07T07:55:28.000Z</time>
      </trkpt>
      <trkpt lat="43.21143" lon="5.42595">
        <ele>78.00403</ele>
        <time>2013-04-07T07:55:32.000Z</time>
      </trkpt>
      <trkpt lat="43.2114" lon="5.42591">
        <ele>75.12024</ele>
        <time>2013-04-07T07:55:36.000Z</time>
      </trkpt>
      <trkpt lat="43.21139" lon="5.42588">
        <ele>73.67822</ele>
        <time>2013-04-07T07:55:38.000Z</time>
      </trkpt>
      <trkpt lat="43.21132" lon="5.42584">
        <ele>69.832886</ele>
        <time>2013-04-07T07:55:43.000Z</time>
      </trkpt>
      <trkpt lat="43.21133" lon="5.42579">
        <ele>67.91028</ele>
        <time>2013-04-07T07:55:46.000Z</time>
      </trkpt>
      <trkpt lat="43.21132" lon="5.42575">
        <ele>66.46826</ele>
        <time>2013-04-07T07:55:48.000Z</time>
      </trkpt>
      <trkpt lat="43.21129" lon="5.42563">
        <ele>62.622925</ele>
        <time>2013-04-07T07:55:54.000Z</time>
      </trkpt>
      <trkpt lat="43.21124" lon="5.42555">
        <ele>59.739136</ele>
        <time>2013-04-07T07:55:59.000Z</time>
      </trkpt>
      <trkpt lat="43.21122" lon="5.42546">
        <ele>57.335815</ele>
        <time>2013-04-07T07:56:03.000Z</time>
      </trkpt>
      <trkpt lat="43.21121" lon="5.42541">
        <ele>56.37451</ele>
        <time>2013-04-07T07:56:05.000Z</time>
      </trkpt>
      <trkpt lat="43.21116" lon="5.42533">
        <ele>54.932373</ele>
        <time>2013-04-07T07:56:10.000Z</time>
      </trkpt>
      <trkpt lat="43.21114" lon="5.42531">
        <ele>53.97119</ele>
        <time>2013-04-07T07:56:14.000Z</time>
      </trkpt>
      <trkpt lat="43.21105" lon="5.42525">
        <ele>51.08716</ele>
        <time>2013-04-07T07:56:21.000Z</time>
      </trkpt>
      <trkpt lat="43.21096" lon="5.4252">
        <ele>49.16455</ele>
        <time>2013-04-07T07:56:25.000Z</time>
      </trkpt>
      <trkpt lat="43.21089" lon="5.42515">
        <ele>47.722534</ele>
        <time>2013-04-07T07:56:29.000Z</time>
      </trkpt>
      <trkpt lat="43.2108" lon="5.425">
        <ele>45.319214</ele>
        <time>2013-04-07T07:56:34.000Z</time>
      </trkpt>
      <trkpt lat="43.21077" lon="5.42496">
        <ele>44.358032</ele>
        <time>2013-04-07T07:56:36.000Z</time>
      </trkpt>
      <trkpt lat="43.21081" lon="5.42483">
        <ele>41.474</ele>
        <time>2013-04-07T07:56:42.000Z</time>
      </trkpt>
      <trkpt lat="43.21083" lon="5.42481">
        <ele>40.99341</ele>
        <time>2013-04-07T07:56:43.000Z</time>
      </trkpt>
      <trkpt lat="43.21088" lon="5.42476">
        <ele>37.628662</ele>
        <time>2013-04-07T07:56:48.000Z</time>
      </trkpt>
      <trkpt lat="43.21086" lon="5.42473">
        <ele>36.66748</ele>
        <time>2013-04-07T07:56:50.000Z</time>
      </trkpt>
      <trkpt lat="43.21076" lon="5.42467">
        <ele>33.302856</ele>
        <time>2013-04-07T07:56:56.000Z</time>
      </trkpt>
      <trkpt lat="43.21069" lon="5.42464">
        <ele>30.418823</ele>
        <time>2013-04-07T07:57:01.000Z</time>
      </trkpt>
      <trkpt lat="43.21065" lon="5.42463">
        <ele>28.015503</ele>
        <time>2013-04-07T07:57:05.000Z</time>
      </trkpt>
      <trkpt lat="43.21063" lon="5.42461">
        <ele>27.054321</ele>
        <time>2013-04-07T07:57:08.000Z</time>
      </trkpt>
      <trkpt lat="43.21059" lon="5.42457">
        <ele>24.170288</ele>
        <time>2013-04-07T07:57:13.000Z</time>
      </trkpt>
      <trkpt lat="43.2106" lon="5.42446">
        <ele>21.766968</ele>
        <time>2013-04-07T07:57:17.000Z</time>
      </trkpt>
      <trkpt lat="43.21064" lon="5.42437">
        <ele>19.84436</ele>
        <time>2013-04-07T07:57:21.000Z</time>
      </trkpt>
      <trkpt lat="43.21068" lon="5.42429">
        <ele>16.479736</ele>
        <time>2013-04-07T07:57:28.000Z</time>
      </trkpt>
      <trkpt lat="43.2107" lon="5.42429">
        <ele>14.076416</ele>
        <time>2013-04-07T07:57:37.000Z</time>
      </trkpt>
      <trkpt lat="43.21069" lon="5.42427">
        <ele>16.479736</ele>
        <time>2013-04-07T07:57:48.000Z</time>
      </trkpt>
      <trkpt lat="43.2107" lon="5.42426">
        <ele>17.441162</ele>
        <time>2013-04-07T07:57:55.000Z</time>
      </trkpt>
      <trkpt lat="43.21071" lon="5.42426">
        <ele>9.75061</ele>
        <time>2013-04-07T07:58:21.000Z</time>
      </trkpt>
      <trkpt lat="43.21069" lon="5.42425">
        <ele>12.634399</ele>
        <time>2013-04-07T07:58:36.000Z</time>
      </trkpt>
      <trkpt lat="43.21068" lon="5.42425">
        <ele>14.557007</ele>
        <time>2013-04-07T07:58:46.000Z</time>
      </trkpt>
      <trkpt lat="43.21069" lon="5.42426">
        <ele>15.518433</ele>
        <time>2013-04-07T07:58:58.000Z</time>
      </trkpt>
      <trkpt lat="43.21068" lon="5.42423">
        <ele>19.36377</ele>
        <time>2013-04-07T07:59:18.000Z</time>
      </trkpt>
      <trkpt lat="43.2107" lon="5.42419">
        <ele>16.96045</ele>
        <time>2013-04-07T07:59:41.000Z</time>
      </trkpt>
      <trkpt lat="43.21074" lon="5.42417">
        <ele>16.96045</ele>
        <time>2013-04-07T07:59:47.000Z</time>
      </trkpt>
      <trkpt lat="43.21077" lon="5.42418">
        <ele>15.518433</ele>
        <time>2013-04-07T07:59:53.000Z</time>
      </trkpt>
      <trkpt lat="43.21083" lon="5.42419">
        <ele>15.03772</ele>
        <time>2013-04-07T08:00:02.000Z</time>
      </trkpt>
      <trkpt lat="43.21087" lon="5.42419">
        <ele>14.076416</ele>
        <time>2013-04-07T08:00:09.000Z</time>
      </trkpt>
      <trkpt lat="43.21092" lon="5.42419">
        <ele>15.03772</ele>
        <time>2013-04-07T08:00:15.000Z</time>
      </trkpt>
      <trkpt lat="43.21097" lon="5.42419">
        <ele>14.557007</ele>
        <time>2013-04-07T08:00:21.000Z</time>
      </trkpt>
      <trkpt lat="43.21099" lon="5.42417">
        <ele>15.518433</ele>
        <time>2013-04-07T08:00:25.000Z</time>
      </trkpt>
      <trkpt lat="43.21103" lon="5.42415">
        <ele>15.518433</ele>
        <time>2013-04-07T08:00:31.000Z</time>
      </trkpt>
      <trkpt lat="43.2111" lon="5.42409">
        <ele>14.557007</ele>
        <time>2013-04-07T08:00:39.000Z</time>
      </trkpt>
      <trkpt lat="43.21112" lon="5.42407">
        <ele>13.595825</ele>
        <time>2013-04-07T08:00:42.000Z</time>
      </trkpt>
      <trkpt lat="43.21116" lon="5.42402">
        <ele>12.153809</ele>
        <time>2013-04-07T08:00:47.000Z</time>
      </trkpt>
      <trkpt lat="43.2112" lon="5.42398">
        <ele>11.192505</ele>
        <time>2013-04-07T08:00:52.000Z</time>
      </trkpt>
      <trkpt lat="43.21127" lon="5.42393">
        <ele>9.269897</ele>
        <time>2013-04-07T08:01:00.000Z</time>
      </trkpt>
      <trkpt lat="43.21132" lon="5.42389">
        <ele>7.827881</ele>
        <time>2013-04-07T08:01:07.000Z</time>
      </trkpt>
      <trkpt lat="43.21134" lon="5.42386">
        <ele>6.3858643</ele>
        <time>2013-04-07T08:01:13.000Z</time>
      </trkpt>
      <trkpt lat="43.21134" lon="5.42383">
        <ele>7.827881</ele>
        <time>2013-04-07T08:01:20.000Z</time>
      </trkpt>
      <trkpt lat="43.21134" lon="5.42383">
        <ele>8.308594</ele>
        <time>2013-04-07T08:01:41.000Z</time>
      </trkpt>
      <trkpt lat="43.21134" lon="5.42382">
        <ele>11.192505</ele>
        <time>2013-04-07T08:01:58.000Z</time>
      </trkpt>
      <trkpt lat="43.21134" lon="5.42379">
        <ele>11.673218</ele>
        <time>2013-04-07T08:02:00.000Z</time>
      </trkpt>
      <trkpt lat="43.21135" lon="5.42368">
        <ele>11.192505</ele>
        <time>2013-04-07T08:02:06.000Z</time>
      </trkpt>
      <trkpt lat="43.21135" lon="5.42366">
        <ele>10.711792</ele>
        <time>2013-04-07T08:02:07.000Z</time>
      </trkpt>
      <trkpt lat="43.2114" lon="5.42354">
        <ele>10.711792</ele>
        <time>2013-04-07T08:02:15.000Z</time>
      </trkpt>
      <trkpt lat="43.21149" lon="5.42345">
        <ele>9.75061</ele>
        <time>2013-04-07T08:02:22.000Z</time>
      </trkpt>
      <trkpt lat="43.21159" lon="5.42336">
        <ele>7.827881</ele>
        <time>2013-04-07T08:02:29.000Z</time>
      </trkpt>
      <trkpt lat="43.2116" lon="5.42335">
        <ele>7.347168</ele>
        <time>2013-04-07T08:02:30.000Z</time>
      </trkpt>
      <trkpt lat="43.21165" lon="5.42335">
        <ele>6.3858643</ele>
        <time>2013-04-07T08:02:35.000Z</time>
      </trkpt>
      <trkpt lat="43.21166" lon="5.42335">
        <ele>8.789185</ele>
        <time>2013-04-07T08:02:43.000Z</time>
      </trkpt>
      <trkpt lat="43.2117" lon="5.42335">
        <ele>4.463257</ele>
        <time>2013-04-07T08:03:09.000Z</time>
      </trkpt>
      <trkpt lat="43.21168" lon="5.42328">
        <ele>10.711792</ele>
        <time>2013-04-07T08:03:48.000Z</time>
      </trkpt>
      <trkpt lat="43.21171" lon="5.42331">
        <ele>5.9052734</ele>
        <time>2013-04-07T08:04:11.000Z</time>
      </trkpt>
      <trkpt lat="43.21171" lon="5.42333">
        <ele>6.3858643</ele>
        <time>2013-04-07T08:04:21.000Z</time>
      </trkpt>
      <trkpt lat="43.21171" lon="5.42336">
        <ele>5.9052734</ele>
        <time>2013-04-07T08:04:26.000Z</time>
      </trkpt>
      <trkpt lat="43.21171" lon="5.42336">
        <ele>7.827881</ele>
        <time>2013-04-07T08:04:32.000Z</time>
      </trkpt>
      <trkpt lat="43.21173" lon="5.42334">
        <ele>5.4245605</ele>
        <time>2013-04-07T08:04:39.000Z</time>
      </trkpt>
      <trkpt lat="43.21174" lon="5.42333">
        <ele>4.463257</ele>
        <time>2013-04-07T08:04:49.000Z</time>
      </trkpt>
      <trkpt lat="43.21173" lon="5.42331">
        <ele>6.866455</ele>
        <time>2013-04-07T08:05:05.000Z</time>
      </trkpt>
      <trkpt lat="43.21172" lon="5.4233">
        <ele>7.827881</ele>
        <time>2013-04-07T08:05:18.000Z</time>
      </trkpt>
      <trkpt lat="43.21171" lon="5.4233">
        <ele>7.347168</ele>
        <time>2013-04-07T08:05:28.000Z</time>
      </trkpt>
      <trkpt lat="43.21169" lon="5.4233">
        <ele>11.192505</ele>
        <time>2013-04-07T08:05:39.000Z</time>
      </trkpt>
      <trkpt lat="43.21169" lon="5.42328">
        <ele>12.153809</ele>
        <time>2013-04-07T08:05:53.000Z</time>
      </trkpt>
      <trkpt lat="43.21171" lon="5.4233">
        <ele>12.153809</ele>
        <time>2013-04-07T08:06:06.000Z</time>
      </trkpt>
      <trkpt lat="43.21172" lon="5.4233">
        <ele>12.634399</ele>
        <time>2013-04-07T08:06:17.000Z</time>
      </trkpt>
      <trkpt lat="43.21172" lon="5.4233">
        <ele>12.634399</ele>
        <time>2013-04-07T08:06:23.000Z</time>
      </trkpt>
      <trkpt lat="43.21173" lon="5.4233">
        <ele>12.153809</ele>
        <time>2013-04-07T08:06:35.000Z</time>
      </trkpt>
      <trkpt lat="43.21173" lon="5.42327">
        <ele>12.153809</ele>
        <time>2013-04-07T08:06:38.000Z</time>
      </trkpt>
      <trkpt lat="43.21172" lon="5.42314">
        <ele>11.673218</ele>
        <time>2013-04-07T08:06:44.000Z</time>
      </trkpt>
      <trkpt lat="43.21166" lon="5.42301">
        <ele>11.673218</ele>
        <time>2013-04-07T08:06:49.000Z</time>
      </trkpt>
      <trkpt lat="43.21165" lon="5.42299">
        <ele>11.673218</ele>
        <time>2013-04-07T08:06:50.000Z</time>
      </trkpt>
      <trkpt lat="43.21159" lon="5.42292">
        <ele>12.634399</ele>
        <time>2013-04-07T08:06:54.000Z</time>
      </trkpt>
      <trkpt lat="43.2115" lon="5.42282">
        <ele>13.595825</ele>
        <time>2013-04-07T08:06:59.000Z</time>
      </trkpt>
      <trkpt lat="43.21141" lon="5.42276">
        <ele>14.557007</ele>
        <time>2013-04-07T08:07:04.000Z</time>
      </trkpt>
      <trkpt lat="43.21138" lon="5.42272">
        <ele>14.076416</ele>
        <time>2013-04-07T08:07:06.000Z</time>
      </trkpt>
      <trkpt lat="43.21128" lon="5.42265">
        <ele>13.115112</ele>
        <time>2013-04-07T08:07:11.000Z</time>
      </trkpt>
      <trkpt lat="43.21114" lon="5.42256">
        <ele>11.192505</ele>
        <time>2013-04-07T08:07:17.000Z</time>
      </trkpt>
      <trkpt lat="43.21111" lon="5.42255">
        <ele>11.192505</ele>
        <time>2013-04-07T08:07:18.000Z</time>
      </trkpt>
      <trkpt lat="43.21106" lon="5.42254">
        <ele>10.231201</ele>
        <time>2013-04-07T08:07:20.000Z</time>
      </trkpt>
      <trkpt lat="43.21099" lon="5.42246">
        <ele>9.75061</ele>
        <time>2013-04-07T08:07:24.000Z</time>
      </trkpt>
      <trkpt lat="43.21092" lon="5.42232">
        <ele>9.75061</ele>
        <time>2013-04-07T08:07:29.000Z</time>
      </trkpt>
      <trkpt lat="43.21089" lon="5.42222">
        <ele>9.269897</ele>
        <time>2013-04-07T08:07:32.000Z</time>
      </trkpt>
      <trkpt lat="43.21085" lon="5.42201">
        <ele>10.231201</ele>
        <time>2013-04-07T08:07:38.000Z</time>
      </trkpt>
      <trkpt lat="43.21085" lon="5.42187">
        <ele>11.192505</ele>
        <time>2013-04-07T08:07:42.000Z</time>
      </trkpt>
      <trkpt lat="43.21085" lon="5.42173">
        <ele>11.673218</ele>
        <time>2013-04-07T08:07:47.000Z</time>
      </trkpt>
      <trkpt lat="43.21085" lon="5.42151">
        <ele>10.231201</ele>
        <time>2013-04-07T08:07:53.000Z</time>
      </trkpt>
      <trkpt lat="43.21088" lon="5.42137">
        <ele>9.75061</ele>
        <time>2013-04-07T08:07:57.000Z</time>
      </trkpt>
      <trkpt lat="43.21092" lon="5.42118">
        <ele>9.75061</ele>
        <time>2013-04-07T08:08:03.000Z</time>
      </trkpt>
      <trkpt lat="43.21094" lon="5.42105">
        <ele>9.269897</ele>
        <time>2013-04-07T08:08:07.000Z</time>
      </trkpt>
      <trkpt lat="43.21103" lon="5.4209">
        <ele>9.269897</ele>
        <time>2013-04-07T08:08:13.000Z</time>
      </trkpt>
      <trkpt lat="43.21105" lon="5.4207">
        <ele>11.192505</ele>
        <time>2013-04-07T08:08:19.000Z</time>
      </trkpt>
      <trkpt lat="43.21105" lon="5.42066">
        <ele>11.192505</ele>
        <time>2013-04-07T08:08:20.000Z</time>
      </trkpt>
      <trkpt lat="43.21106" lon="5.42056">
        <ele>11.673218</ele>
        <time>2013-04-07T08:08:23.000Z</time>
      </trkpt>
      <trkpt lat="43.21112" lon="5.42042">
        <ele>12.153809</ele>
        <time>2013-04-07T08:08:28.000Z</time>
      </trkpt>
      <trkpt lat="43.21115" lon="5.42033">
        <ele>12.634399</ele>
        <time>2013-04-07T08:08:31.000Z</time>
      </trkpt>
      <trkpt lat="43.21118" lon="5.4202">
        <ele>13.595825</ele>
        <time>2013-04-07T08:08:35.000Z</time>
      </trkpt>
      <trkpt lat="43.21123" lon="5.42005">
        <ele>14.557007</ele>
        <time>2013-04-07T08:08:40.000Z</time>
      </trkpt>
      <trkpt lat="43.21126" lon="5.41994">
        <ele>15.03772</ele>
        <time>2013-04-07T08:08:44.000Z</time>
      </trkpt>
      <trkpt lat="43.21127" lon="5.41985">
        <ele>15.518433</ele>
        <time>2013-04-07T08:08:47.000Z</time>
      </trkpt>
      <trkpt lat="43.21127" lon="5.41983">
        <ele>15.999023</ele>
        <time>2013-04-07T08:08:48.000Z</time>
      </trkpt>
      <trkpt lat="43.2113" lon="5.41965">
        <ele>16.479736</ele>
        <time>2013-04-07T08:08:54.000Z</time>
      </trkpt>
      <trkpt lat="43.21134" lon="5.41951">
        <ele>17.441162</ele>
        <time>2013-04-07T08:08:59.000Z</time>
      </trkpt>
      <trkpt lat="43.21138" lon="5.41945">
        <ele>18.402344</ele>
        <time>2013-04-07T08:09:02.000Z</time>
      </trkpt>
      <trkpt lat="43.21146" lon="5.41931">
        <ele>19.84436</ele>
        <time>2013-04-07T08:09:09.000Z</time>
      </trkpt>
      <trkpt lat="43.21146" lon="5.41928">
        <ele>20.324951</ele>
        <time>2013-04-07T08:09:10.000Z</time>
      </trkpt>
      <trkpt lat="43.21154" lon="5.41919">
        <ele>22.247559</ele>
        <time>2013-04-07T08:09:16.000Z</time>
      </trkpt>
      <trkpt lat="43.21159" lon="5.41913">
        <ele>22.728271</ele>
        <time>2013-04-07T08:09:20.000Z</time>
      </trkpt>
      <trkpt lat="43.21168" lon="5.41906">
        <ele>25.612305</ele>
        <time>2013-04-07T08:09:26.000Z</time>
      </trkpt>
      <trkpt lat="43.21177" lon="5.41902">
        <ele>27.534912</ele>
        <time>2013-04-07T08:09:30.000Z</time>
      </trkpt>
      <trkpt lat="43.21188" lon="5.41896">
        <ele>29.45752</ele>
        <time>2013-04-07T08:09:36.000Z</time>
      </trkpt>
      <trkpt lat="43.21198" lon="5.41888">
        <ele>29.45752</ele>
        <time>2013-04-07T08:09:41.000Z</time>
      </trkpt>
      <trkpt lat="43.21204" lon="5.41883">
        <ele>28.976929</ele>
        <time>2013-04-07T08:09:44.000Z</time>
      </trkpt>
      <trkpt lat="43.21217" lon="5.41879">
        <ele>27.534912</ele>
        <time>2013-04-07T08:09:50.000Z</time>
      </trkpt>
      <trkpt lat="43.21226" lon="5.41876">
        <ele>26.573608</ele>
        <time>2013-04-07T08:09:54.000Z</time>
      </trkpt>
      <trkpt lat="43.2123" lon="5.41874">
        <ele>26.092896</ele>
        <time>2013-04-07T08:09:56.000Z</time>
      </trkpt>
      <trkpt lat="43.21237" lon="5.4187">
        <ele>26.573608</ele>
        <time>2013-04-07T08:10:00.000Z</time>
      </trkpt>
      <trkpt lat="43.21244" lon="5.41863">
        <ele>26.573608</ele>
        <time>2013-04-07T08:10:04.000Z</time>
      </trkpt>
      <trkpt lat="43.2125" lon="5.41859">
        <ele>27.534912</ele>
        <time>2013-04-07T08:10:08.000Z</time>
      </trkpt>
      <trkpt lat="43.2126" lon="5.41855">
        <ele>29.93811</ele>
        <time>2013-04-07T08:10:13.000Z</time>
      </trkpt>
      <trkpt lat="43.21264" lon="5.41852">
        <ele>31.380127</ele>
        <time>2013-04-07T08:10:16.000Z</time>
      </trkpt>
      <trkpt lat="43.21267" lon="5.41851">
        <ele>31.860718</ele>
        <time>2013-04-07T08:10:18.000Z</time>
      </trkpt>
      <trkpt lat="43.21269" lon="5.41845">
        <ele>32.822266</ele>
        <time>2013-04-07T08:10:22.000Z</time>
      </trkpt>
      <trkpt lat="43.21276" lon="5.41838">
        <ele>35.225464</ele>
        <time>2013-04-07T08:10:30.000Z</time>
      </trkpt>
      <trkpt lat="43.2128" lon="5.41836">
        <ele>36.66748</ele>
        <time>2013-04-07T08:10:34.000Z</time>
      </trkpt>
      <trkpt lat="43.21283" lon="5.41834">
        <ele>37.628662</ele>
        <time>2013-04-07T08:10:38.000Z</time>
      </trkpt>
      <trkpt lat="43.21277" lon="5.41824">
        <ele>40.512817</ele>
        <time>2013-04-07T08:10:43.000Z</time>
      </trkpt>
      <trkpt lat="43.2128" lon="5.41818">
        <ele>41.474</ele>
        <time>2013-04-07T08:10:47.000Z</time>
      </trkpt>
      <trkpt lat="43.21282" lon="5.41817">
        <ele>41.954712</ele>
        <time>2013-04-07T08:10:49.000Z</time>
      </trkpt>
      <trkpt lat="43.21288" lon="5.41817">
        <ele>43.396606</ele>
        <time>2013-04-07T08:10:54.000Z</time>
      </trkpt>
      <trkpt lat="43.21297" lon="5.41812">
        <ele>45.799927</ele>
        <time>2013-04-07T08:11:03.000Z</time>
      </trkpt>
      <trkpt lat="43.21299" lon="5.41806">
        <ele>47.24182</ele>
        <time>2013-04-07T08:11:10.000Z</time>
      </trkpt>
      <trkpt lat="43.213" lon="5.418">
        <ele>49.16455</ele>
        <time>2013-04-07T08:11:16.000Z</time>
      </trkpt>
      <trkpt lat="43.21304" lon="5.41795">
        <ele>50.606567</ele>
        <time>2013-04-07T08:11:22.000Z</time>
      </trkpt>
      <trkpt lat="43.21305" lon="5.41788">
        <ele>51.56787</ele>
        <time>2013-04-07T08:11:26.000Z</time>
      </trkpt>
      <trkpt lat="43.21304" lon="5.41777">
        <ele>53.49048</ele>
        <time>2013-04-07T08:11:32.000Z</time>
      </trkpt>
      <trkpt lat="43.21309" lon="5.41776">
        <ele>54.932373</ele>
        <time>2013-04-07T08:11:37.000Z</time>
      </trkpt>
      <trkpt lat="43.21311" lon="5.41773">
        <ele>55.8938</ele>
        <time>2013-04-07T08:11:40.000Z</time>
      </trkpt>
      <trkpt lat="43.21313" lon="5.41768">
        <ele>56.855103</ele>
        <time>2013-04-07T08:11:44.000Z</time>
      </trkpt>
      <trkpt lat="43.21313" lon="5.4176">
        <ele>57.81653</ele>
        <time>2013-04-07T08:11:47.000Z</time>
      </trkpt>
      <trkpt lat="43.21316" lon="5.41752">
        <ele>58.29712</ele>
        <time>2013-04-07T08:11:51.000Z</time>
      </trkpt>
      <trkpt lat="43.21317" lon="5.41747">
        <ele>58.29712</ele>
        <time>2013-04-07T08:11:53.000Z</time>
      </trkpt>
      <trkpt lat="43.21318" lon="5.41743">
        <ele>57.81653</ele>
        <time>2013-04-07T08:11:55.000Z</time>
      </trkpt>
      <trkpt lat="43.21329" lon="5.41731">
        <ele>58.29712</ele>
        <time>2013-04-07T08:12:02.000Z</time>
      </trkpt>
      <trkpt lat="43.21331" lon="5.41729">
        <ele>58.29712</ele>
        <time>2013-04-07T08:12:03.000Z</time>
      </trkpt>
      <trkpt lat="43.21341" lon="5.41723">
        <ele>59.258423</ele>
        <time>2013-04-07T08:12:08.000Z</time>
      </trkpt>
      <trkpt lat="43.21343" lon="5.41723">
        <ele>59.258423</ele>
        <time>2013-04-07T08:12:09.000Z</time>
      </trkpt>
      <trkpt lat="43.21352" lon="5.41718">
        <ele>60.219727</ele>
        <time>2013-04-07T08:12:13.000Z</time>
      </trkpt>
      <trkpt lat="43.21354" lon="5.41716">
        <ele>60.219727</ele>
        <time>2013-04-07T08:12:14.000Z</time>
      </trkpt>
      <trkpt lat="43.2136" lon="5.41708">
        <ele>60.700317</ele>
        <time>2013-04-07T08:12:19.000Z</time>
      </trkpt>
      <trkpt lat="43.2137" lon="5.417">
        <ele>63.103638</ele>
        <time>2013-04-07T08:12:25.000Z</time>
      </trkpt>
      <trkpt lat="43.21376" lon="5.41696">
        <ele>65.02637</ele>
        <time>2013-04-07T08:12:28.000Z</time>
      </trkpt>
      <trkpt lat="43.21381" lon="5.4169">
        <ele>65.98767</ele>
        <time>2013-04-07T08:12:32.000Z</time>
      </trkpt>
      <trkpt lat="43.21383" lon="5.41687">
        <ele>66.46826</ele>
        <time>2013-04-07T08:12:35.000Z</time>
      </trkpt>
      <trkpt lat="43.21384" lon="5.41684">
        <ele>67.42969</ele>
        <time>2013-04-07T08:12:37.000Z</time>
      </trkpt>
      <trkpt lat="43.21383" lon="5.41679">
        <ele>68.39087</ele>
        <time>2013-04-07T08:12:40.000Z</time>
      </trkpt>
      <trkpt lat="43.21386" lon="5.41673">
        <ele>69.832886</ele>
        <time>2013-04-07T08:12:45.000Z</time>
      </trkpt>
      <trkpt lat="43.21387" lon="5.4167">
        <ele>71.2749</ele>
        <time>2013-04-07T08:12:47.000Z</time>
      </trkpt>
      <trkpt lat="43.2139" lon="5.41664">
        <ele>72.71692</ele>
        <time>2013-04-07T08:12:54.000Z</time>
      </trkpt>
      <trkpt lat="43.21392" lon="5.41657">
        <ele>74.63953</ele>
        <time>2013-04-07T08:13:00.000Z</time>
      </trkpt>
      <trkpt lat="43.21394" lon="5.41654">
        <ele>75.60083</ele>
        <time>2013-04-07T08:13:03.000Z</time>
      </trkpt>
      <trkpt lat="43.214" lon="5.4165">
        <ele>78.00403</ele>
        <time>2013-04-07T08:13:09.000Z</time>
      </trkpt>
      <trkpt lat="43.21405" lon="5.41645">
        <ele>80.88818</ele>
        <time>2013-04-07T08:13:17.000Z</time>
      </trkpt>
      <trkpt lat="43.21408" lon="5.41639">
        <ele>82.81079</ele>
        <time>2013-04-07T08:13:23.000Z</time>
      </trkpt>
      <trkpt lat="43.2141" lon="5.41635">
        <ele>83.29138</ele>
        <time>2013-04-07T08:13:25.000Z</time>
      </trkpt>
      <trkpt lat="43.21412" lon="5.41631">
        <ele>83.77197</ele>
        <time>2013-04-07T08:13:28.000Z</time>
      </trkpt>
      <trkpt lat="43.21419" lon="5.41623">
        <ele>85.21399</ele>
        <time>2013-04-07T08:13:34.000Z</time>
      </trkpt>
      <trkpt lat="43.2142" lon="5.41616">
        <ele>86.656006</ele>
        <time>2013-04-07T08:13:38.000Z</time>
      </trkpt>
      <trkpt lat="43.21421" lon="5.41614">
        <ele>87.61719</ele>
        <time>2013-04-07T08:13:41.000Z</time>
      </trkpt>
      <trkpt lat="43.21424" lon="5.41606">
        <ele>90.02063</ele>
        <time>2013-04-07T08:13:48.000Z</time>
      </trkpt>
      <trkpt lat="43.21428" lon="5.41603">
        <ele>91.462524</ele>
        <time>2013-04-07T08:13:52.000Z</time>
      </trkpt>
      <trkpt lat="43.21431" lon="5.416">
        <ele>92.42395</ele>
        <time>2013-04-07T08:13:56.000Z</time>
      </trkpt>
      <trkpt lat="43.21437" lon="5.41598">
        <ele>93.38513</ele>
        <time>2013-04-07T08:14:01.000Z</time>
      </trkpt>
      <trkpt lat="43.21439" lon="5.41598">
        <ele>93.38513</ele>
        <time>2013-04-07T08:14:02.000Z</time>
      </trkpt>
      <trkpt lat="43.2145" lon="5.41604">
        <ele>92.90454</ele>
        <time>2013-04-07T08:14:08.000Z</time>
      </trkpt>
      <trkpt lat="43.2146" lon="5.41607">
        <ele>95.30774</ele>
        <time>2013-04-07T08:14:13.000Z</time>
      </trkpt>
      <trkpt lat="43.21461" lon="5.41608">
        <ele>94.82715</ele>
        <time>2013-04-07T08:14:14.000Z</time>
      </trkpt>
      <trkpt lat="43.21469" lon="5.4161">
        <ele>95.30774</ele>
        <time>2013-04-07T08:14:19.000Z</time>
      </trkpt>
      <trkpt lat="43.21477" lon="5.4161">
        <ele>97.23047</ele>
        <time>2013-04-07T08:14:24.000Z</time>
      </trkpt>
      <trkpt lat="43.21485" lon="5.41608">
        <ele>99.63379</ele>
        <time>2013-04-07T08:14:29.000Z</time>
      </trkpt>
      <trkpt lat="43.21492" lon="5.4161">
        <ele>101.5564</ele>
        <time>2013-04-07T08:14:34.000Z</time>
      </trkpt>
      <trkpt lat="43.21496" lon="5.41614">
        <ele>102.5177</ele>
        <time>2013-04-07T08:14:38.000Z</time>
      </trkpt>
      <trkpt lat="43.21498" lon="5.41616">
        <ele>103.479004</ele>
        <time>2013-04-07T08:14:41.000Z</time>
      </trkpt>
      <trkpt lat="43.21501" lon="5.41619">
        <ele>104.44043</ele>
        <time>2013-04-07T08:14:44.000Z</time>
      </trkpt>
      <trkpt lat="43.21506" lon="5.4162">
        <ele>105.40173</ele>
        <time>2013-04-07T08:14:48.000Z</time>
      </trkpt>
      <trkpt lat="43.21511" lon="5.41618">
        <ele>105.40173</ele>
        <time>2013-04-07T08:14:51.000Z</time>
      </trkpt>
      <trkpt lat="43.21515" lon="5.41619">
        <ele>105.88245</ele>
        <time>2013-04-07T08:14:54.000Z</time>
      </trkpt>
      <trkpt lat="43.21521" lon="5.41622">
        <ele>104.92102</ele>
        <time>2013-04-07T08:14:59.000Z</time>
      </trkpt>
      <trkpt lat="43.21523" lon="5.41623">
        <ele>105.40173</ele>
        <time>2013-04-07T08:15:01.000Z</time>
      </trkpt>
      <trkpt lat="43.21529" lon="5.41622">
        <ele>108.285645</ele>
        <time>2013-04-07T08:15:07.000Z</time>
      </trkpt>
      <trkpt lat="43.21535" lon="5.41622">
        <ele>109.72766</ele>
        <time>2013-04-07T08:15:13.000Z</time>
      </trkpt>
      <trkpt lat="43.21541" lon="5.41623">
        <ele>110.20825</ele>
        <time>2013-04-07T08:15:18.000Z</time>
      </trkpt>
      <trkpt lat="43.21542" lon="5.41623">
        <ele>110.20825</ele>
        <time>2013-04-07T08:15:19.000Z</time>
      </trkpt>
      <trkpt lat="43.21544" lon="5.41622">
        <ele>110.20825</ele>
        <time>2013-04-07T08:15:21.000Z</time>
      </trkpt>
      <trkpt lat="43.21548" lon="5.41623">
        <ele>113.092285</ele>
        <time>2013-04-07T08:15:27.000Z</time>
      </trkpt>
      <trkpt lat="43.21551" lon="5.4162">
        <ele>114.53418</ele>
        <time>2013-04-07T08:15:31.000Z</time>
      </trkpt>
      <trkpt lat="43.21556" lon="5.41618">
        <ele>115.9762</ele>
        <time>2013-04-07T08:15:36.000Z</time>
      </trkpt>
      <trkpt lat="43.21556" lon="5.41613">
        <ele>117.41821</ele>
        <time>2013-04-07T08:15:41.000Z</time>
      </trkpt>
      <trkpt lat="43.21554" lon="5.41604">
        <ele>120.302124</ele>
        <time>2013-04-07T08:15:47.000Z</time>
      </trkpt>
      <trkpt lat="43.21554" lon="5.416">
        <ele>121.26355</ele>
        <time>2013-04-07T08:15:50.000Z</time>
      </trkpt>
      <trkpt lat="43.21558" lon="5.41599">
        <ele>122.705444</ele>
        <time>2013-04-07T08:15:55.000Z</time>
      </trkpt>
      <trkpt lat="43.2156" lon="5.41601">
        <ele>123.66675</ele>
        <time>2013-04-07T08:15:57.000Z</time>
      </trkpt>
      <trkpt lat="43.21562" lon="5.416">
        <ele>125.108765</ele>
        <time>2013-04-07T08:16:02.000Z</time>
      </trkpt>
      <trkpt lat="43.21561" lon="5.41598">
        <ele>125.108765</ele>
        <time>2013-04-07T08:16:03.000Z</time>
      </trkpt>
      <trkpt lat="43.21556" lon="5.41588">
        <ele>127.51196</ele>
        <time>2013-04-07T08:16:08.000Z</time>
      </trkpt>
      <trkpt lat="43.21554" lon="5.41585">
        <ele>128.47339</ele>
        <time>2013-04-07T08:16:11.000Z</time>
      </trkpt>
      <trkpt lat="43.21548" lon="5.41583">
        <ele>130.396</ele>
        <time>2013-04-07T08:16:16.000Z</time>
      </trkpt>
      <trkpt lat="43.21545" lon="5.41579">
        <ele>130.396</ele>
        <time>2013-04-07T08:16:20.000Z</time>
      </trkpt>
      <trkpt lat="43.21549" lon="5.41576">
        <ele>130.87671</ele>
        <time>2013-04-07T08:16:25.000Z</time>
      </trkpt>
      <trkpt lat="43.21555" lon="5.41575">
        <ele>131.83789</ele>
        <time>2013-04-07T08:16:29.000Z</time>
      </trkpt>
      <trkpt lat="43.21558" lon="5.41574">
        <ele>132.79932</ele>
        <time>2013-04-07T08:16:31.000Z</time>
      </trkpt>
      <trkpt lat="43.21563" lon="5.41572">
        <ele>134.72192</ele>
        <time>2013-04-07T08:16:36.000Z</time>
      </trkpt>
      <trkpt lat="43.21565" lon="5.41568">
        <ele>136.16394</ele>
        <time>2013-04-07T08:16:41.000Z</time>
      </trkpt>
      <trkpt lat="43.21565" lon="5.41562">
        <ele>138.08655</ele>
        <time>2013-04-07T08:16:46.000Z</time>
      </trkpt>
      <trkpt lat="43.21569" lon="5.4156">
        <ele>139.04785</ele>
        <time>2013-04-07T08:16:51.000Z</time>
      </trkpt>
      <trkpt lat="43.21576" lon="5.41554">
        <ele>140.48987</ele>
        <time>2013-04-07T08:16:59.000Z</time>
      </trkpt>
      <trkpt lat="43.21581" lon="5.41551">
        <ele>141.45105</ele>
        <time>2013-04-07T08:17:03.000Z</time>
      </trkpt>
      <trkpt lat="43.21585" lon="5.41553">
        <ele>142.89307</ele>
        <time>2013-04-07T08:17:07.000Z</time>
      </trkpt>
      <trkpt lat="43.21587" lon="5.41552">
        <ele>143.85437</ele>
        <time>2013-04-07T08:17:10.000Z</time>
      </trkpt>
      <trkpt lat="43.21596" lon="5.41549">
        <ele>145.7771</ele>
        <time>2013-04-07T08:17:17.000Z</time>
      </trkpt>
      <trkpt lat="43.21607" lon="5.41546">
        <ele>147.219</ele>
        <time>2013-04-07T08:17:22.000Z</time>
      </trkpt>
      <trkpt lat="43.21618" lon="5.4155">
        <ele>147.6997</ele>
        <time>2013-04-07T08:17:27.000Z</time>
      </trkpt>
      <trkpt lat="43.21628" lon="5.41555">
        <ele>147.6997</ele>
        <time>2013-04-07T08:17:32.000Z</time>
      </trkpt>
      <trkpt lat="43.21636" lon="5.41558">
        <ele>147.219</ele>
        <time>2013-04-07T08:17:35.000Z</time>
      </trkpt>
      <trkpt lat="43.21649" lon="5.41554">
        <ele>147.219</ele>
        <time>2013-04-07T08:17:41.000Z</time>
      </trkpt>
      <trkpt lat="43.21664" lon="5.41547">
        <ele>147.219</ele>
        <time>2013-04-07T08:17:47.000Z</time>
      </trkpt>
      <trkpt lat="43.21672" lon="5.41544">
        <ele>148.18042</ele>
        <time>2013-04-07T08:17:51.000Z</time>
      </trkpt>
      <trkpt lat="43.21682" lon="5.41541">
        <ele>149.62231</ele>
        <time>2013-04-07T08:17:56.000Z</time>
      </trkpt>
      <trkpt lat="43.21692" lon="5.41538">
        <ele>151.06421</ele>
        <time>2013-04-07T08:18:01.000Z</time>
      </trkpt>
      <trkpt lat="43.217" lon="5.41535">
        <ele>152.50635</ele>
        <time>2013-04-07T08:18:06.000Z</time>
      </trkpt>
      <trkpt lat="43.21704" lon="5.41534">
        <ele>152.98694</ele>
        <time>2013-04-07T08:18:09.000Z</time>
      </trkpt>
      <trkpt lat="43.2171" lon="5.4153">
        <ele>154.42896</ele>
        <time>2013-04-07T08:18:14.000Z</time>
      </trkpt>
      <trkpt lat="43.21716" lon="5.41531">
        <ele>156.35156</ele>
        <time>2013-04-07T08:18:20.000Z</time>
      </trkpt>
      <trkpt lat="43.21717" lon="5.41532">
        <ele>156.83215</ele>
        <time>2013-04-07T08:18:21.000Z</time>
      </trkpt>
      <trkpt lat="43.21719" lon="5.41532">
        <ele>157.31287</ele>
        <time>2013-04-07T08:18:23.000Z</time>
      </trkpt>
      <trkpt lat="43.21723" lon="5.41535">
        <ele>157.79358</ele>
        <time>2013-04-07T08:18:27.000Z</time>
      </trkpt>
      <trkpt lat="43.21725" lon="5.41535">
        <ele>158.27417</ele>
        <time>2013-04-07T08:18:29.000Z</time>
      </trkpt>
      <trkpt lat="43.21731" lon="5.41537">
        <ele>159.71619</ele>
        <time>2013-04-07T08:18:35.000Z</time>
      </trkpt>
      <trkpt lat="43.21737" lon="5.41537">
        <ele>162.1195</ele>
        <time>2013-04-07T08:18:41.000Z</time>
      </trkpt>
      <trkpt lat="43.2174" lon="5.41542">
        <ele>164.04211</ele>
        <time>2013-04-07T08:18:46.000Z</time>
      </trkpt>
      <trkpt lat="43.21742" lon="5.41544">
        <ele>164.5227</ele>
        <time>2013-04-07T08:18:48.000Z</time>
      </trkpt>
      <trkpt lat="43.21743" lon="5.41547">
        <ele>165.00342</ele>
        <time>2013-04-07T08:18:51.000Z</time>
      </trkpt>
      <trkpt lat="43.21749" lon="5.41546">
        <ele>165.96472</ele>
        <time>2013-04-07T08:18:56.000Z</time>
      </trkpt>
      <trkpt lat="43.21754" lon="5.4155">
        <ele>167.40674</ele>
        <time>2013-04-07T08:19:01.000Z</time>
      </trkpt>
      <trkpt lat="43.21758" lon="5.41553">
        <ele>168.36804</ele>
        <time>2013-04-07T08:19:05.000Z</time>
      </trkpt>
      <trkpt lat="43.2176" lon="5.41557">
        <ele>169.81006</ele>
        <time>2013-04-07T08:19:09.000Z</time>
      </trkpt>
      <trkpt lat="43.21764" lon="5.41563">
        <ele>172.21326</ele>
        <time>2013-04-07T08:19:15.000Z</time>
      </trkpt>
      <trkpt lat="43.21764" lon="5.41565">
        <ele>172.69397</ele>
        <time>2013-04-07T08:19:16.000Z</time>
      </trkpt>
      <trkpt lat="43.21767" lon="5.41568">
        <ele>172.21326</ele>
        <time>2013-04-07T08:19:19.000Z</time>
      </trkpt>
      <trkpt lat="43.21773" lon="5.41575">
        <ele>173.17468</ele>
        <time>2013-04-07T08:19:26.000Z</time>
      </trkpt>
      <trkpt lat="43.21776" lon="5.41576">
        <ele>173.65527</ele>
        <time>2013-04-07T08:19:29.000Z</time>
      </trkpt>
      <trkpt lat="43.21778" lon="5.41578">
        <ele>174.13586</ele>
        <time>2013-04-07T08:19:31.000Z</time>
      </trkpt>
      <trkpt lat="43.21784" lon="5.41579">
        <ele>175.57788</ele>
        <time>2013-04-07T08:19:36.000Z</time>
      </trkpt>
      <trkpt lat="43.21787" lon="5.41581">
        <ele>176.0586</ele>
        <time>2013-04-07T08:19:39.000Z</time>
      </trkpt>
      <trkpt lat="43.21792" lon="5.4158">
        <ele>176.0586</ele>
        <time>2013-04-07T08:19:43.000Z</time>
      </trkpt>
      <trkpt lat="43.21794" lon="5.41578">
        <ele>176.0586</ele>
        <time>2013-04-07T08:19:45.000Z</time>
      </trkpt>
      <trkpt lat="43.21803" lon="5.41569">
        <ele>176.5393</ele>
        <time>2013-04-07T08:19:52.000Z</time>
      </trkpt>
      <trkpt lat="43.21807" lon="5.41564">
        <ele>176.0586</ele>
        <time>2013-04-07T08:19:55.000Z</time>
      </trkpt>
      <trkpt lat="43.21814" lon="5.41549">
        <ele>174.61658</ele>
        <time>2013-04-07T08:20:01.000Z</time>
      </trkpt>
      <trkpt lat="43.21819" lon="5.41539">
        <ele>175.57788</ele>
        <time>2013-04-07T08:20:05.000Z</time>
      </trkpt>
      <trkpt lat="43.21827" lon="5.41532">
        <ele>176.5393</ele>
        <time>2013-04-07T08:20:10.000Z</time>
      </trkpt>
      <trkpt lat="43.2183" lon="5.41524">
        <ele>176.5393</ele>
        <time>2013-04-07T08:20:15.000Z</time>
      </trkpt>
      <trkpt lat="43.21833" lon="5.4152">
        <ele>177.50061</ele>
        <time>2013-04-07T08:20:18.000Z</time>
      </trkpt>
      <trkpt lat="43.21833" lon="5.4151">
        <ele>179.90381</ele>
        <time>2013-04-07T08:20:23.000Z</time>
      </trkpt>
      <trkpt lat="43.21834" lon="5.41506">
        <ele>179.90381</ele>
        <time>2013-04-07T08:20:26.000Z</time>
      </trkpt>
      <trkpt lat="43.21832" lon="5.41497">
        <ele>180.86523</ele>
        <time>2013-04-07T08:20:32.000Z</time>
      </trkpt>
      <trkpt lat="43.21832" lon="5.41489">
        <ele>182.30713</ele>
        <time>2013-04-07T08:20:37.000Z</time>
      </trkpt>
      <trkpt lat="43.21832" lon="5.4148">
        <ele>184.71057</ele>
        <time>2013-04-07T08:20:42.000Z</time>
      </trkpt>
      <trkpt lat="43.21835" lon="5.41473">
        <ele>186.15247</ele>
        <time>2013-04-07T08:20:48.000Z</time>
      </trkpt>
      <trkpt lat="43.21836" lon="5.41468">
        <ele>187.11377</ele>
        <time>2013-04-07T08:20:51.000Z</time>
      </trkpt>
      <trkpt lat="43.21835" lon="5.41464">
        <ele>188.07507</ele>
        <time>2013-04-07T08:20:53.000Z</time>
      </trkpt>
      <trkpt lat="43.21834" lon="5.41453">
        <ele>190.4784</ele>
        <time>2013-04-07T08:20:59.000Z</time>
      </trkpt>
      <trkpt lat="43.21829" lon="5.4144">
        <ele>192.40112</ele>
        <time>2013-04-07T08:21:05.000Z</time>
      </trkpt>
      <trkpt lat="43.21826" lon="5.41429">
        <ele>192.88171</ele>
        <time>2013-04-07T08:21:09.000Z</time>
      </trkpt>
      <trkpt lat="43.21825" lon="5.41414">
        <ele>191.92029</ele>
        <time>2013-04-07T08:21:15.000Z</time>
      </trkpt>
      <trkpt lat="43.21824" lon="5.41409">
        <ele>192.40112</ele>
        <time>2013-04-07T08:21:17.000Z</time>
      </trkpt>
      <trkpt lat="43.2182" lon="5.41402">
        <ele>193.84302</ele>
        <time>2013-04-07T08:21:20.000Z</time>
      </trkpt>
      <trkpt lat="43.21813" lon="5.41395">
        <ele>197.20752</ele>
        <time>2013-04-07T08:21:24.000Z</time>
      </trkpt>
      <trkpt lat="43.21806" lon="5.41386">
        <ele>199.61084</ele>
        <time>2013-04-07T08:21:28.000Z</time>
      </trkpt>
      <trkpt lat="43.21804" lon="5.41382">
        <ele>200.57227</ele>
        <time>2013-04-07T08:21:30.000Z</time>
      </trkpt>
      <trkpt lat="43.21798" lon="5.41369">
        <ele>201.05286</ele>
        <time>2013-04-07T08:21:36.000Z</time>
      </trkpt>
      <trkpt lat="43.21796" lon="5.41354">
        <ele>201.53357</ele>
        <time>2013-04-07T08:21:42.000Z</time>
      </trkpt>
      <trkpt lat="43.21797" lon="5.4134">
        <ele>202.01428</ele>
        <time>2013-04-07T08:21:47.000Z</time>
      </trkpt>
      <trkpt lat="43.21797" lon="5.41324">
        <ele>203.93689</ele>
        <time>2013-04-07T08:21:53.000Z</time>
      </trkpt>
      <trkpt lat="43.21796" lon="5.41312">
        <ele>204.41748</ele>
        <time>2013-04-07T08:21:57.000Z</time>
      </trkpt>
      <trkpt lat="43.21799" lon="5.4129">
        <ele>204.41748</ele>
        <time>2013-04-07T08:22:04.000Z</time>
      </trkpt>
      <trkpt lat="43.21803" lon="5.41274">
        <ele>205.37878</ele>
        <time>2013-04-07T08:22:09.000Z</time>
      </trkpt>
      <trkpt lat="43.21806" lon="5.41256">
        <ele>204.41748</ele>
        <time>2013-04-07T08:22:15.000Z</time>
      </trkpt>
      <trkpt lat="43.21802" lon="5.41246">
        <ele>204.89807</ele>
        <time>2013-04-07T08:22:19.000Z</time>
      </trkpt>
      <trkpt lat="43.21792" lon="5.41237">
        <ele>205.8595</ele>
        <time>2013-04-07T08:22:24.000Z</time>
      </trkpt>
      <trkpt lat="43.21783" lon="5.41228">
        <ele>205.37878</ele>
        <time>2013-04-07T08:22:29.000Z</time>
      </trkpt>
      <trkpt lat="43.21772" lon="5.41216">
        <ele>204.41748</ele>
        <time>2013-04-07T08:22:35.000Z</time>
      </trkpt>
      <trkpt lat="43.21763" lon="5.41207">
        <ele>203.45618</ele>
        <time>2013-04-07T08:22:40.000Z</time>
      </trkpt>
      <trkpt lat="43.2175" lon="5.41204">
        <ele>202.97546</ele>
        <time>2013-04-07T08:22:46.000Z</time>
      </trkpt>
      <trkpt lat="43.21737" lon="5.41207">
        <ele>203.45618</ele>
        <time>2013-04-07T08:22:52.000Z</time>
      </trkpt>
      <trkpt lat="43.21726" lon="5.41201">
        <ele>203.45618</ele>
        <time>2013-04-07T08:22:57.000Z</time>
      </trkpt>
      <trkpt lat="43.21722" lon="5.41185">
        <ele>202.49487</ele>
        <time>2013-04-07T08:23:02.000Z</time>
      </trkpt>
      <trkpt lat="43.21716" lon="5.41166">
        <ele>202.01428</ele>
        <time>2013-04-07T08:23:07.000Z</time>
      </trkpt>
      <trkpt lat="43.21716" lon="5.41151">
        <ele>200.57227</ele>
        <time>2013-04-07T08:23:11.000Z</time>
      </trkpt>
      <trkpt lat="43.21718" lon="5.41135">
        <ele>198.64954</ele>
        <time>2013-04-07T08:23:15.000Z</time>
      </trkpt>
      <trkpt lat="43.2172" lon="5.41116">
        <ele>197.20752</ele>
        <time>2013-04-07T08:23:20.000Z</time>
      </trkpt>
      <trkpt lat="43.21718" lon="5.411">
        <ele>196.24634</ele>
        <time>2013-04-07T08:23:24.000Z</time>
      </trkpt>
      <trkpt lat="43.21713" lon="5.41081">
        <ele>194.80432</ele>
        <time>2013-04-07T08:23:29.000Z</time>
      </trkpt>
      <trkpt lat="43.21709" lon="5.41066">
        <ele>192.88171</ele>
        <time>2013-04-07T08:23:33.000Z</time>
      </trkpt>
      <trkpt lat="43.21704" lon="5.41049">
        <ele>190.4784</ele>
        <time>2013-04-07T08:23:38.000Z</time>
      </trkpt>
      <trkpt lat="43.21695" lon="5.41027">
        <ele>189.51697</ele>
        <time>2013-04-07T08:23:44.000Z</time>
      </trkpt>
      <trkpt lat="43.21686" lon="5.41008">
        <ele>188.07507</ele>
        <time>2013-04-07T08:23:49.000Z</time>
      </trkpt>
      <trkpt lat="43.21679" lon="5.40995">
        <ele>187.59436</ele>
        <time>2013-04-07T08:23:53.000Z</time>
      </trkpt>
      <trkpt lat="43.21671" lon="5.4098">
        <ele>186.15247</ele>
        <time>2013-04-07T08:23:58.000Z</time>
      </trkpt>
      <trkpt lat="43.21661" lon="5.40965">
        <ele>184.71057</ele>
        <time>2013-04-07T08:24:03.000Z</time>
      </trkpt>
      <trkpt lat="43.2165" lon="5.40954">
        <ele>184.22986</ele>
        <time>2013-04-07T08:24:08.000Z</time>
      </trkpt>
      <trkpt lat="43.21641" lon="5.40941">
        <ele>182.30713</ele>
        <time>2013-04-07T08:24:13.000Z</time>
      </trkpt>
      <trkpt lat="43.21637" lon="5.40921">
        <ele>181.82642</ele>
        <time>2013-04-07T08:24:18.000Z</time>
      </trkpt>
      <trkpt lat="43.21642" lon="5.40903">
        <ele>180.38452</ele>
        <time>2013-04-07T08:24:23.000Z</time>
      </trkpt>
      <trkpt lat="43.21645" lon="5.40893">
        <ele>179.90381</ele>
        <time>2013-04-07T08:24:26.000Z</time>
      </trkpt>
      <trkpt lat="43.21647" lon="5.40878">
        <ele>177.9812</ele>
        <time>2013-04-07T08:24:31.000Z</time>
      </trkpt>
      <trkpt lat="43.21647" lon="5.40868">
        <ele>177.50061</ele>
        <time>2013-04-07T08:24:34.000Z</time>
      </trkpt>
      <trkpt lat="43.21646" lon="5.40856">
        <ele>180.86523</ele>
        <time>2013-04-07T08:24:42.000Z</time>
      </trkpt>
      <trkpt lat="43.21643" lon="5.40845">
        <ele>184.22986</ele>
        <time>2013-04-07T08:24:49.000Z</time>
      </trkpt>
      <trkpt lat="43.21644" lon="5.40837">
        <ele>186.63318</ele>
        <time>2013-04-07T08:24:54.000Z</time>
      </trkpt>
      <trkpt lat="43.21642" lon="5.40835">
        <ele>188.07507</ele>
        <time>2013-04-07T08:24:58.000Z</time>
      </trkpt>
      <trkpt lat="43.21642" lon="5.40826">
        <ele>190.95898</ele>
        <time>2013-04-07T08:25:05.000Z</time>
      </trkpt>
      <trkpt lat="43.2164" lon="5.40821">
        <ele>192.40112</ele>
        <time>2013-04-07T08:25:09.000Z</time>
      </trkpt>
      <trkpt lat="43.21637" lon="5.40819">
        <ele>193.84302</ele>
        <time>2013-04-07T08:25:12.000Z</time>
      </trkpt>
      <trkpt lat="43.21636" lon="5.4081">
        <ele>195.28491</ele>
        <time>2013-04-07T08:25:18.000Z</time>
      </trkpt>
      <trkpt lat="43.21636" lon="5.40803">
        <ele>196.72693</ele>
        <time>2013-04-07T08:25:23.000Z</time>
      </trkpt>
      <trkpt lat="43.21636" lon="5.40802">
        <ele>196.72693</ele>
        <time>2013-04-07T08:25:24.000Z</time>
      </trkpt>
      <trkpt lat="43.21635" lon="5.40793">
        <ele>198.64954</ele>
        <time>2013-04-07T08:25:30.000Z</time>
      </trkpt>
      <trkpt lat="43.21636" lon="5.40786">
        <ele>200.09167</ele>
        <time>2013-04-07T08:25:37.000Z</time>
      </trkpt>
      <trkpt lat="43.21638" lon="5.40781">
        <ele>202.01428</ele>
        <time>2013-04-07T08:25:42.000Z</time>
      </trkpt>
      <trkpt lat="43.21637" lon="5.40776">
        <ele>203.93689</ele>
        <time>2013-04-07T08:25:47.000Z</time>
      </trkpt>
      <trkpt lat="43.21637" lon="5.40773">
        <ele>206.34009</ele>
        <time>2013-04-07T08:25:52.000Z</time>
      </trkpt>
      <trkpt lat="43.21639" lon="5.40766">
        <ele>208.74341</ele>
        <time>2013-04-07T08:25:58.000Z</time>
      </trkpt>
      <trkpt lat="43.21643" lon="5.40764">
        <ele>208.26282</ele>
        <time>2013-04-07T08:26:02.000Z</time>
      </trkpt>
      <trkpt lat="43.21651" lon="5.40757">
        <ele>209.70483</ele>
        <time>2013-04-07T08:26:11.000Z</time>
      </trkpt>
      <trkpt lat="43.21651" lon="5.40751">
        <ele>211.14673</ele>
        <time>2013-04-07T08:26:15.000Z</time>
      </trkpt>
      <trkpt lat="43.21649" lon="5.40735">
        <ele>213.55005</ele>
        <time>2013-04-07T08:26:22.000Z</time>
      </trkpt>
      <trkpt lat="43.21648" lon="5.40722">
        <ele>214.03064</ele>
        <time>2013-04-07T08:26:26.000Z</time>
      </trkpt>
      <trkpt lat="43.21648" lon="5.40719">
        <ele>214.03064</ele>
        <time>2013-04-07T08:26:27.000Z</time>
      </trkpt>
      <trkpt lat="43.21652" lon="5.40703">
        <ele>216.43396</ele>
        <time>2013-04-07T08:26:34.000Z</time>
      </trkpt>
      <trkpt lat="43.2165" lon="5.40691">
        <ele>216.43396</ele>
        <time>2013-04-07T08:26:39.000Z</time>
      </trkpt>
      <trkpt lat="43.2165" lon="5.40684">
        <ele>215.47266</ele>
        <time>2013-04-07T08:26:41.000Z</time>
      </trkpt>
      <trkpt lat="43.21651" lon="5.40667">
        <ele>214.51123</ele>
        <time>2013-04-07T08:26:47.000Z</time>
      </trkpt>
      <trkpt lat="43.21652" lon="5.40653">
        <ele>214.03064</ele>
        <time>2013-04-07T08:26:52.000Z</time>
      </trkpt>
      <trkpt lat="43.2165" lon="5.40641">
        <ele>214.51123</ele>
        <time>2013-04-07T08:26:56.000Z</time>
      </trkpt>
      <trkpt lat="43.21649" lon="5.40628">
        <ele>214.51123</ele>
        <time>2013-04-07T08:27:01.000Z</time>
      </trkpt>
      <trkpt lat="43.21649" lon="5.40625">
        <ele>214.51123</ele>
        <time>2013-04-07T08:27:02.000Z</time>
      </trkpt>
      <trkpt lat="43.21648" lon="5.40621">
        <ele>215.95325</ele>
        <time>2013-04-07T08:27:04.000Z</time>
      </trkpt>
      <trkpt lat="43.2165" lon="5.40612">
        <ele>220.27917</ele>
        <time>2013-04-07T08:27:10.000Z</time>
      </trkpt>
      <trkpt lat="43.21648" lon="5.40603">
        <ele>221.72119</ele>
        <time>2013-04-07T08:27:16.000Z</time>
      </trkpt>
      <trkpt lat="43.21649" lon="5.40595">
        <ele>224.12451</ele>
        <time>2013-04-07T08:27:22.000Z</time>
      </trkpt>
      <trkpt lat="43.21648" lon="5.40591">
        <ele>225.08594</ele>
        <time>2013-04-07T08:27:25.000Z</time>
      </trkpt>
      <trkpt lat="43.21644" lon="5.40584">
        <ele>227.96973</ele>
        <time>2013-04-07T08:27:32.000Z</time>
      </trkpt>
      <trkpt lat="43.21646" lon="5.40577">
        <ele>231.81494</ele>
        <time>2013-04-07T08:27:38.000Z</time>
      </trkpt>
      <trkpt lat="43.21644" lon="5.40573">
        <ele>231.81494</ele>
        <time>2013-04-07T08:27:40.000Z</time>
      </trkpt>
      <trkpt lat="43.21643" lon="5.4057">
        <ele>231.81494</ele>
        <time>2013-04-07T08:27:42.000Z</time>
      </trkpt>
      <trkpt lat="43.21642" lon="5.40567">
        <ele>232.29578</ele>
        <time>2013-04-07T08:27:44.000Z</time>
      </trkpt>
      <trkpt lat="43.2164" lon="5.40559">
        <ele>233.73767</ele>
        <time>2013-04-07T08:27:49.000Z</time>
      </trkpt>
      <trkpt lat="43.21639" lon="5.40555">
        <ele>235.17969</ele>
        <time>2013-04-07T08:27:52.000Z</time>
      </trkpt>
      <trkpt lat="43.2164" lon="5.40549">
        <ele>237.1023</ele>
        <time>2013-04-07T08:27:57.000Z</time>
      </trkpt>
      <trkpt lat="43.2164" lon="5.40543">
        <ele>237.58289</ele>
        <time>2013-04-07T08:28:02.000Z</time>
      </trkpt>
      <trkpt lat="43.21641" lon="5.40535">
        <ele>239.5055</ele>
        <time>2013-04-07T08:28:07.000Z</time>
      </trkpt>
      <trkpt lat="43.2164" lon="5.4053">
        <ele>239.9862</ele>
        <time>2013-04-07T08:28:11.000Z</time>
      </trkpt>
      <trkpt lat="43.2164" lon="5.40526">
        <ele>239.5055</ele>
        <time>2013-04-07T08:28:13.000Z</time>
      </trkpt>
      <trkpt lat="43.21644" lon="5.4051">
        <ele>239.0249</ele>
        <time>2013-04-07T08:28:21.000Z</time>
      </trkpt>
      <trkpt lat="43.21657" lon="5.405">
        <ele>240.46704</ele>
        <time>2013-04-07T08:28:28.000Z</time>
      </trkpt>
      <trkpt lat="43.21669" lon="5.40499">
        <ele>239.9862</ele>
        <time>2013-04-07T08:28:34.000Z</time>
      </trkpt>
      <trkpt lat="43.2168" lon="5.40495">
        <ele>239.5055</ele>
        <time>2013-04-07T08:28:40.000Z</time>
      </trkpt>
      <trkpt lat="43.21685" lon="5.40482">
        <ele>239.0249</ele>
        <time>2013-04-07T08:28:44.000Z</time>
      </trkpt>
      <trkpt lat="43.21689" lon="5.40469">
        <ele>239.9862</ele>
        <time>2013-04-07T08:28:48.000Z</time>
      </trkpt>
      <trkpt lat="43.21688" lon="5.40464">
        <ele>239.9862</ele>
        <time>2013-04-07T08:28:50.000Z</time>
      </trkpt>
      <trkpt lat="43.21687" lon="5.40456">
        <ele>240.46704</ele>
        <time>2013-04-07T08:28:54.000Z</time>
      </trkpt>
      <trkpt lat="43.21684" lon="5.40451">
        <ele>242.87024</ele>
        <time>2013-04-07T08:28:59.000Z</time>
      </trkpt>
      <trkpt lat="43.21685" lon="5.40445">
        <ele>246.23486</ele>
        <time>2013-04-07T08:29:05.000Z</time>
      </trkpt>
      <trkpt lat="43.21681" lon="5.40443">
        <ele>247.19604</ele>
        <time>2013-04-07T08:29:11.000Z</time>
      </trkpt>
      <trkpt lat="43.2168" lon="5.4044">
        <ele>248.1576</ele>
        <time>2013-04-07T08:29:17.000Z</time>
      </trkpt>
      <trkpt lat="43.21683" lon="5.40435">
        <ele>248.63818</ele>
        <time>2013-04-07T08:29:23.000Z</time>
      </trkpt>
      <trkpt lat="43.21688" lon="5.40433">
        <ele>250.56079</ele>
        <time>2013-04-07T08:29:30.000Z</time>
      </trkpt>
      <trkpt lat="43.21691" lon="5.40429">
        <ele>251.5221</ele>
        <time>2013-04-07T08:29:37.000Z</time>
      </trkpt>
      <trkpt lat="43.2169" lon="5.40426">
        <ele>252.0028</ele>
        <time>2013-04-07T08:29:42.000Z</time>
      </trkpt>
      <trkpt lat="43.21689" lon="5.40423">
        <ele>251.5221</ele>
        <time>2013-04-07T08:29:48.000Z</time>
      </trkpt>
      <trkpt lat="43.21688" lon="5.40423">
        <ele>251.04138</ele>
        <time>2013-04-07T08:29:54.000Z</time>
      </trkpt>
      <trkpt lat="43.21688" lon="5.40423">
        <ele>251.04138</ele>
        <time>2013-04-07T08:30:09.000Z</time>
      </trkpt>
      <trkpt lat="43.21688" lon="5.40423">
        <ele>251.5221</ele>
        <time>2013-04-07T08:30:23.000Z</time>
      </trkpt>
      <trkpt lat="43.21689" lon="5.40424">
        <ele>250.56079</ele>
        <time>2013-04-07T08:30:55.000Z</time>
      </trkpt>
      <trkpt lat="43.21689" lon="5.40424">
        <ele>250.56079</ele>
        <time>2013-04-07T08:31:07.000Z</time>
      </trkpt>
      <trkpt lat="43.21688" lon="5.40423">
        <ele>251.5221</ele>
        <time>2013-04-07T08:31:13.000Z</time>
      </trkpt>
      <trkpt lat="43.21689" lon="5.40423">
        <ele>253.4447</ele>
        <time>2013-04-07T08:31:33.000Z</time>
      </trkpt>
      <trkpt lat="43.21688" lon="5.40423">
        <ele>254.406</ele>
        <time>2013-04-07T08:31:41.000Z</time>
      </trkpt>
      <trkpt lat="43.21688" lon="5.40423">
        <ele>252.96399</ele>
        <time>2013-04-07T08:31:56.000Z</time>
      </trkpt>
      <trkpt lat="43.21687" lon="5.40423">
        <ele>252.96399</ele>
        <time>2013-04-07T08:32:08.000Z</time>
      </trkpt>
      <trkpt lat="43.21687" lon="5.40422">
        <ele>252.96399</ele>
        <time>2013-04-07T08:32:14.000Z</time>
      </trkpt>
      <trkpt lat="43.21689" lon="5.40422">
        <ele>250.0802</ele>
        <time>2013-04-07T08:32:28.000Z</time>
      </trkpt>
      <trkpt lat="43.2169" lon="5.40422">
        <ele>248.63818</ele>
        <time>2013-04-07T08:32:35.000Z</time>
      </trkpt>
      <trkpt lat="43.2169" lon="5.40421">
        <ele>248.63818</ele>
        <time>2013-04-07T08:32:49.000Z</time>
      </trkpt>
      <trkpt lat="43.21689" lon="5.4042">
        <ele>249.59949</ele>
        <time>2013-04-07T08:33:02.000Z</time>
      </trkpt>
      <trkpt lat="43.21689" lon="5.40422">
        <ele>250.0802</ele>
        <time>2013-04-07T08:33:14.000Z</time>
      </trkpt>
      <trkpt lat="43.21689" lon="5.40422">
        <ele>250.0802</ele>
        <time>2013-04-07T08:33:22.000Z</time>
      </trkpt>
      <trkpt lat="43.21689" lon="5.40421">
        <ele>249.11877</ele>
        <time>2013-04-07T08:33:32.000Z</time>
      </trkpt>
      <trkpt lat="43.21689" lon="5.40421">
        <ele>249.59949</ele>
        <time>2013-04-07T08:33:48.000Z</time>
      </trkpt>
      <trkpt lat="43.21689" lon="5.40421">
        <ele>252.4834</ele>
        <time>2013-04-07T08:34:16.000Z</time>
      </trkpt>
      <trkpt lat="43.21688" lon="5.40421">
        <ele>253.4447</ele>
        <time>2013-04-07T08:34:25.000Z</time>
      </trkpt>
      <trkpt lat="43.21688" lon="5.4042">
        <ele>255.84802</ele>
        <time>2013-04-07T08:34:37.000Z</time>
      </trkpt>
      <trkpt lat="43.21687" lon="5.40421">
        <ele>254.8866</ele>
        <time>2013-04-07T08:34:45.000Z</time>
      </trkpt>
      <trkpt lat="43.21687" lon="5.40421">
        <ele>253.92542</ele>
        <time>2013-04-07T08:34:55.000Z</time>
      </trkpt>
      <trkpt lat="43.21688" lon="5.40421">
        <ele>252.0028</ele>
        <time>2013-04-07T08:35:37.000Z</time>
      </trkpt>
      <trkpt lat="43.21688" lon="5.40422">
        <ele>252.96399</ele>
        <time>2013-04-07T08:35:47.000Z</time>
      </trkpt>
      <trkpt lat="43.21688" lon="5.40422">
        <ele>252.96399</ele>
        <time>2013-04-07T08:35:54.000Z</time>
      </trkpt>
      <trkpt lat="43.21689" lon="5.40423">
        <ele>254.406</ele>
        <time>2013-04-07T08:36:45.000Z</time>
      </trkpt>
      <trkpt lat="43.21691" lon="5.40423">
        <ele>254.406</ele>
        <time>2013-04-07T08:37:03.000Z</time>
      </trkpt>
      <trkpt lat="43.21691" lon="5.40424">
        <ele>252.96399</ele>
        <time>2013-04-07T08:37:15.000Z</time>
      </trkpt>
      <trkpt lat="43.2169" lon="5.40425">
        <ele>252.96399</ele>
        <time>2013-04-07T08:37:23.000Z</time>
      </trkpt>
      <trkpt lat="43.2169" lon="5.40426">
        <ele>254.406</ele>
        <time>2013-04-07T08:37:35.000Z</time>
      </trkpt>
      <trkpt lat="43.21691" lon="5.40427">
        <ele>255.36731</ele>
        <time>2013-04-07T08:37:41.000Z</time>
      </trkpt>
      <trkpt lat="43.21693" lon="5.40428">
        <ele>257.29004</ele>
        <time>2013-04-07T08:37:46.000Z</time>
      </trkpt>
      <trkpt lat="43.21695" lon="5.40429">
        <ele>258.73193</ele>
        <time>2013-04-07T08:37:50.000Z</time>
      </trkpt>
      <trkpt lat="43.21697" lon="5.40424">
        <ele>259.69336</ele>
        <time>2013-04-07T08:37:56.000Z</time>
      </trkpt>
      <trkpt lat="43.21699" lon="5.40421">
        <ele>260.17395</ele>
        <time>2013-04-07T08:38:01.000Z</time>
      </trkpt>
      <trkpt lat="43.21701" lon="5.40419">
        <ele>259.69336</ele>
        <time>2013-04-07T08:38:06.000Z</time>
      </trkpt>
      <trkpt lat="43.21702" lon="5.40416">
        <ele>261.13525</ele>
        <time>2013-04-07T08:38:11.000Z</time>
      </trkpt>
      <trkpt lat="43.21703" lon="5.40412">
        <ele>262.57715</ele>
        <time>2013-04-07T08:38:17.000Z</time>
      </trkpt>
      <trkpt lat="43.21705" lon="5.40409">
        <ele>264.49988</ele>
        <time>2013-04-07T08:38:22.000Z</time>
      </trkpt>
      <trkpt lat="43.21708" lon="5.40407">
        <ele>267.3839</ele>
        <time>2013-04-07T08:38:27.000Z</time>
      </trkpt>
      <trkpt lat="43.21713" lon="5.40404">
        <ele>269.7871</ele>
        <time>2013-04-07T08:38:33.000Z</time>
      </trkpt>
      <trkpt lat="43.21716" lon="5.40398">
        <ele>270.7484</ele>
        <time>2013-04-07T08:38:38.000Z</time>
      </trkpt>
      <trkpt lat="43.21718" lon="5.40394">
        <ele>271.70972</ele>
        <time>2013-04-07T08:38:42.000Z</time>
      </trkpt>
      <trkpt lat="43.21723" lon="5.40389">
        <ele>274.11304</ele>
        <time>2013-04-07T08:38:49.000Z</time>
      </trkpt>
      <trkpt lat="43.21726" lon="5.40385">
        <ele>275.55505</ele>
        <time>2013-04-07T08:38:53.000Z</time>
      </trkpt>
      <trkpt lat="43.21729" lon="5.40381">
        <ele>276.51636</ele>
        <time>2013-04-07T08:38:57.000Z</time>
      </trkpt>
      <trkpt lat="43.21731" lon="5.40375">
        <ele>277.95825</ele>
        <time>2013-04-07T08:39:01.000Z</time>
      </trkpt>
      <trkpt lat="43.21731" lon="5.40371">
        <ele>278.91968</ele>
        <time>2013-04-07T08:39:03.000Z</time>
      </trkpt>
      <trkpt lat="43.21733" lon="5.40361">
        <ele>280.3617</ele>
        <time>2013-04-07T08:39:09.000Z</time>
      </trkpt>
      <trkpt lat="43.21734" lon="5.40353">
        <ele>280.8424</ele>
        <time>2013-04-07T08:39:11.000Z</time>
      </trkpt>
      <trkpt lat="43.21736" lon="5.40345">
        <ele>281.323</ele>
        <time>2013-04-07T08:39:15.000Z</time>
      </trkpt>
      <trkpt lat="43.21741" lon="5.40343">
        <ele>283.2456</ele>
        <time>2013-04-07T08:39:20.000Z</time>
      </trkpt>
      <trkpt lat="43.21744" lon="5.40333">
        <ele>285.6488</ele>
        <time>2013-04-07T08:39:27.000Z</time>
      </trkpt>
      <trkpt lat="43.21745" lon="5.40325">
        <ele>288.05225</ele>
        <time>2013-04-07T08:39:31.000Z</time>
      </trkpt>
      <trkpt lat="43.21747" lon="5.40318">
        <ele>288.53296</ele>
        <time>2013-04-07T08:39:34.000Z</time>
      </trkpt>
      <trkpt lat="43.21748" lon="5.40307">
        <ele>289.97485</ele>
        <time>2013-04-07T08:39:40.000Z</time>
      </trkpt>
      <trkpt lat="43.21747" lon="5.40299">
        <ele>291.41675</ele>
        <time>2013-04-07T08:39:45.000Z</time>
      </trkpt>
      <trkpt lat="43.21748" lon="5.40293">
        <ele>291.89746</ele>
        <time>2013-04-07T08:39:49.000Z</time>
      </trkpt>
      <trkpt lat="43.21748" lon="5.40292">
        <ele>291.89746</ele>
        <time>2013-04-07T08:39:51.000Z</time>
      </trkpt>
      <trkpt lat="43.21749" lon="5.40286">
        <ele>294.30078</ele>
        <time>2013-04-07T08:39:58.000Z</time>
      </trkpt>
      <trkpt lat="43.2175" lon="5.40281">
        <ele>295.74268</ele>
        <time>2013-04-07T08:40:03.000Z</time>
      </trkpt>
      <trkpt lat="43.2175" lon="5.4028">
        <ele>295.74268</ele>
        <time>2013-04-07T08:40:04.000Z</time>
      </trkpt>
      <trkpt lat="43.21752" lon="5.40267">
        <ele>297.6654</ele>
        <time>2013-04-07T08:40:13.000Z</time>
      </trkpt>
      <trkpt lat="43.21754" lon="5.40262">
        <ele>298.6267</ele>
        <time>2013-04-07T08:40:18.000Z</time>
      </trkpt>
      <trkpt lat="43.21753" lon="5.40254">
        <ele>299.588</ele>
        <time>2013-04-07T08:40:21.000Z</time>
      </trkpt>
      <trkpt lat="43.21751" lon="5.40251">
        <ele>300.54932</ele>
        <time>2013-04-07T08:40:22.000Z</time>
      </trkpt>
      <trkpt lat="43.21752" lon="5.40236">
        <ele>301.0299</ele>
        <time>2013-04-07T08:40:26.000Z</time>
      </trkpt>
      <trkpt lat="43.21751" lon="5.40226">
        <ele>300.54932</ele>
        <time>2013-04-07T08:40:29.000Z</time>
      </trkpt>
      <trkpt lat="43.21751" lon="5.40212">
        <ele>299.588</ele>
        <time>2013-04-07T08:40:33.000Z</time>
      </trkpt>
      <trkpt lat="43.21751" lon="5.402">
        <ele>298.14612</ele>
        <time>2013-04-07T08:40:37.000Z</time>
      </trkpt>
      <trkpt lat="43.21756" lon="5.40187">
        <ele>298.14612</ele>
        <time>2013-04-07T08:40:43.000Z</time>
      </trkpt>
      <trkpt lat="43.21756" lon="5.40184">
        <ele>298.14612</ele>
        <time>2013-04-07T08:40:44.000Z</time>
      </trkpt>
      <trkpt lat="43.21759" lon="5.40174">
        <ele>299.588</ele>
        <time>2013-04-07T08:40:48.000Z</time>
      </trkpt>
      <trkpt lat="43.2176" lon="5.40154">
        <ele>299.588</ele>
        <time>2013-04-07T08:40:53.000Z</time>
      </trkpt>
      <trkpt lat="43.21765" lon="5.40144">
        <ele>299.588</ele>
        <time>2013-04-07T08:40:57.000Z</time>
      </trkpt>
      <trkpt lat="43.21763" lon="5.40133">
        <ele>300.54932</ele>
        <time>2013-04-07T08:41:01.000Z</time>
      </trkpt>
      <trkpt lat="43.21763" lon="5.40123">
        <ele>300.06873</ele>
        <time>2013-04-07T08:41:06.000Z</time>
      </trkpt>
      <trkpt lat="43.21757" lon="5.40111">
        <ele>300.54932</ele>
        <time>2013-04-07T08:41:10.000Z</time>
      </trkpt>
      <trkpt lat="43.21755" lon="5.40097">
        <ele>301.0299</ele>
        <time>2013-04-07T08:41:15.000Z</time>
      </trkpt>
      <trkpt lat="43.21759" lon="5.40083">
        <ele>302.47192</ele>
        <time>2013-04-07T08:41:22.000Z</time>
      </trkpt>
      <trkpt lat="43.21759" lon="5.40082">
        <ele>302.9525</ele>
        <time>2013-04-07T08:41:23.000Z</time>
      </trkpt>
      <trkpt lat="43.21763" lon="5.40075">
        <ele>304.87524</ele>
        <time>2013-04-07T08:41:28.000Z</time>
      </trkpt>
      <trkpt lat="43.21766" lon="5.40068">
        <ele>306.79785</ele>
        <time>2013-04-07T08:41:32.000Z</time>
      </trkpt>
      <trkpt lat="43.21767" lon="5.40061">
        <ele>308.23987</ele>
        <time>2013-04-07T08:41:36.000Z</time>
      </trkpt>
      <trkpt lat="43.21771" lon="5.40054">
        <ele>308.72046</ele>
        <time>2013-04-07T08:41:40.000Z</time>
      </trkpt>
      <trkpt lat="43.21773" lon="5.40053">
        <ele>308.72046</ele>
        <time>2013-04-07T08:41:41.000Z</time>
      </trkpt>
      <trkpt lat="43.21783" lon="5.40045">
        <ele>309.6819</ele>
        <time>2013-04-07T08:41:47.000Z</time>
      </trkpt>
      <trkpt lat="43.21786" lon="5.40041">
        <ele>309.6819</ele>
        <time>2013-04-07T08:41:49.000Z</time>
      </trkpt>
      <trkpt lat="43.21791" lon="5.40031">
        <ele>311.12378</ele>
        <time>2013-04-07T08:41:54.000Z</time>
      </trkpt>
      <trkpt lat="43.21794" lon="5.40019">
        <ele>312.0852</ele>
        <time>2013-04-07T08:41:59.000Z</time>
      </trkpt>
      <trkpt lat="43.21794" lon="5.40002">
        <ele>313.52722</ele>
        <time>2013-04-07T08:42:05.000Z</time>
      </trkpt>
      <trkpt lat="43.21794" lon="5.39998">
        <ele>314.0078</ele>
        <time>2013-04-07T08:42:06.000Z</time>
      </trkpt>
      <trkpt lat="43.21789" lon="5.39985">
        <ele>315.44983</ele>
        <time>2013-04-07T08:42:11.000Z</time>
      </trkpt>
      <trkpt lat="43.21785" lon="5.39969">
        <ele>315.93042</ele>
        <time>2013-04-07T08:42:16.000Z</time>
      </trkpt>
      <trkpt lat="43.21781" lon="5.39952">
        <ele>316.411</ele>
        <time>2013-04-07T08:42:21.000Z</time>
      </trkpt>
      <trkpt lat="43.2178" lon="5.39946">
        <ele>316.89172</ele>
        <time>2013-04-07T08:42:23.000Z</time>
      </trkpt>
      <trkpt lat="43.21778" lon="5.39936">
        <ele>316.89172</ele>
        <time>2013-04-07T08:42:29.000Z</time>
      </trkpt>
      <trkpt lat="43.21779" lon="5.39929">
        <ele>318.81433</ele>
        <time>2013-04-07T08:42:35.000Z</time>
      </trkpt>
      <trkpt lat="43.21779" lon="5.39925">
        <ele>319.77563</ele>
        <time>2013-04-07T08:42:40.000Z</time>
      </trkpt>
      <trkpt lat="43.21778" lon="5.39922">
        <ele>321.69836</ele>
        <time>2013-04-07T08:42:45.000Z</time>
      </trkpt>
      <trkpt lat="43.2178" lon="5.39915">
        <ele>322.17896</ele>
        <time>2013-04-07T08:42:50.000Z</time>
      </trkpt>
      <trkpt lat="43.21782" lon="5.3991">
        <ele>323.14038</ele>
        <time>2013-04-07T08:42:54.000Z</time>
      </trkpt>
      <trkpt lat="43.21782" lon="5.39909">
        <ele>323.62097</ele>
        <time>2013-04-07T08:42:55.000Z</time>
      </trkpt>
      <trkpt lat="43.21783" lon="5.39904">
        <ele>325.063</ele>
        <time>2013-04-07T08:42:58.000Z</time>
      </trkpt>
      <trkpt lat="43.21783" lon="5.39901">
        <ele>326.02417</ele>
        <time>2013-04-07T08:43:00.000Z</time>
      </trkpt>
      <trkpt lat="43.21783" lon="5.39897">
        <ele>326.9856</ele>
        <time>2013-04-07T08:43:03.000Z</time>
      </trkpt>
      <trkpt lat="43.2178" lon="5.39889">
        <ele>330.83093</ele>
        <time>2013-04-07T08:43:08.000Z</time>
      </trkpt>
      <trkpt lat="43.21782" lon="5.39884">
        <ele>330.83093</ele>
        <time>2013-04-07T08:43:10.000Z</time>
      </trkpt>
      <trkpt lat="43.21779" lon="5.39876">
        <ele>331.7921</ele>
        <time>2013-04-07T08:43:12.000Z</time>
      </trkpt>
      <trkpt lat="43.21781" lon="5.39867">
        <ele>333.23413</ele>
        <time>2013-04-07T08:43:16.000Z</time>
      </trkpt>
      <trkpt lat="43.2178" lon="5.39861">
        <ele>335.15674</ele>
        <time>2013-04-07T08:43:19.000Z</time>
      </trkpt>
      <trkpt lat="43.21781" lon="5.39857">
        <ele>335.63733</ele>
        <time>2013-04-07T08:43:21.000Z</time>
      </trkpt>
      <trkpt lat="43.21781" lon="5.39853">
        <ele>335.63733</ele>
        <time>2013-04-07T08:43:23.000Z</time>
      </trkpt>
      <trkpt lat="43.21781" lon="5.39845">
        <ele>337.07947</ele>
        <time>2013-04-07T08:43:27.000Z</time>
      </trkpt>
      <trkpt lat="43.21786" lon="5.39836">
        <ele>337.07947</ele>
        <time>2013-04-07T08:43:30.000Z</time>
      </trkpt>
      <trkpt lat="43.2179" lon="5.39826">
        <ele>336.11816</ele>
        <time>2013-04-07T08:43:33.000Z</time>
      </trkpt>
      <trkpt lat="43.21791" lon="5.39816">
        <ele>336.11816</ele>
        <time>2013-04-07T08:43:36.000Z</time>
      </trkpt>
      <trkpt lat="43.21794" lon="5.39808">
        <ele>335.15674</ele>
        <time>2013-04-07T08:43:39.000Z</time>
      </trkpt>
      <trkpt lat="43.21802" lon="5.39803">
        <ele>335.15674</ele>
        <time>2013-04-07T08:43:43.000Z</time>
      </trkpt>
      <trkpt lat="43.21808" lon="5.39798">
        <ele>336.59888</ele>
        <time>2013-04-07T08:43:51.000Z</time>
      </trkpt>
      <trkpt lat="43.21808" lon="5.39797">
        <ele>337.07947</ele>
        <time>2013-04-07T08:43:52.000Z</time>
      </trkpt>
      <trkpt lat="43.21809" lon="5.39793">
        <ele>337.56006</ele>
        <time>2013-04-07T08:43:56.000Z</time>
      </trkpt>
      <trkpt lat="43.21806" lon="5.3979">
        <ele>338.52148</ele>
        <time>2013-04-07T08:44:01.000Z</time>
      </trkpt>
      <trkpt lat="43.21807" lon="5.39787">
        <ele>339.00208</ele>
        <time>2013-04-07T08:44:05.000Z</time>
      </trkpt>
      <trkpt lat="43.21807" lon="5.39783">
        <ele>340.4441</ele>
        <time>2013-04-07T08:44:11.000Z</time>
      </trkpt>
      <trkpt lat="43.2181" lon="5.39782">
        <ele>341.40527</ele>
        <time>2013-04-07T08:44:15.000Z</time>
      </trkpt>
      <trkpt lat="43.21815" lon="5.39778">
        <ele>342.8473</ele>
        <time>2013-04-07T08:44:20.000Z</time>
      </trkpt>
      <trkpt lat="43.21816" lon="5.39775">
        <ele>344.28943</ele>
        <time>2013-04-07T08:44:23.000Z</time>
      </trkpt>
      <trkpt lat="43.21817" lon="5.3977">
        <ele>347.65393</ele>
        <time>2013-04-07T08:44:28.000Z</time>
      </trkpt>
      <trkpt lat="43.21818" lon="5.39765">
        <ele>350.53784</ele>
        <time>2013-04-07T08:44:35.000Z</time>
      </trkpt>
      <trkpt lat="43.21817" lon="5.39765">
        <ele>351.97986</ele>
        <time>2013-04-07T08:44:39.000Z</time>
      </trkpt>
      <trkpt lat="43.21817" lon="5.39763">
        <ele>351.49915</ele>
        <time>2013-04-07T08:44:45.000Z</time>
      </trkpt>
      <trkpt lat="43.21817" lon="5.3976">
        <ele>351.01843</ele>
        <time>2013-04-07T08:44:55.000Z</time>
      </trkpt>
      <trkpt lat="43.21816" lon="5.39759">
        <ele>352.46057</ele>
        <time>2013-04-07T08:44:59.000Z</time>
      </trkpt>
      <trkpt lat="43.21816" lon="5.39754">
        <ele>354.86377</ele>
        <time>2013-04-07T08:45:06.000Z</time>
      </trkpt>
      <trkpt lat="43.21815" lon="5.39753">
        <ele>357.2671</ele>
        <time>2013-04-07T08:45:11.000Z</time>
      </trkpt>
      <trkpt lat="43.21815" lon="5.3975">
        <ele>358.2284</ele>
        <time>2013-04-07T08:45:15.000Z</time>
      </trkpt>
      <trkpt lat="43.21815" lon="5.39747">
        <ele>359.6704</ele>
        <time>2013-04-07T08:45:21.000Z</time>
      </trkpt>
      <trkpt lat="43.21812" lon="5.39747">
        <ele>361.11243</ele>
        <time>2013-04-07T08:45:26.000Z</time>
      </trkpt>
      <trkpt lat="43.21813" lon="5.39743">
        <ele>362.55432</ele>
        <time>2013-04-07T08:45:31.000Z</time>
      </trkpt>
      <trkpt lat="43.21812" lon="5.3974">
        <ele>364.47693</ele>
        <time>2013-04-07T08:45:36.000Z</time>
      </trkpt>
      <trkpt lat="43.2181" lon="5.39739">
        <ele>365.91895</ele>
        <time>2013-04-07T08:45:41.000Z</time>
      </trkpt>
      <trkpt lat="43.2181" lon="5.39737">
        <ele>365.43835</ele>
        <time>2013-04-07T08:45:43.000Z</time>
      </trkpt>
      <trkpt lat="43.21815" lon="5.39726">
        <ele>364.47693</ele>
        <time>2013-04-07T08:45:48.000Z</time>
      </trkpt>
      <trkpt lat="43.2182" lon="5.39718">
        <ele>364.47693</ele>
        <time>2013-04-07T08:45:52.000Z</time>
      </trkpt>
      <trkpt lat="43.21823" lon="5.39708">
        <ele>363.51575</ele>
        <time>2013-04-07T08:45:55.000Z</time>
      </trkpt>
      <trkpt lat="43.2183" lon="5.39702">
        <ele>363.99634</ele>
        <time>2013-04-07T08:45:59.000Z</time>
      </trkpt>
      <trkpt lat="43.21831" lon="5.39702">
        <ele>364.47693</ele>
        <time>2013-04-07T08:46:00.000Z</time>
      </trkpt>
      <trkpt lat="43.21832" lon="5.39699">
        <ele>366.88025</ele>
        <time>2013-04-07T08:46:06.000Z</time>
      </trkpt>
      <trkpt lat="43.21833" lon="5.39697">
        <ele>368.32227</ele>
        <time>2013-04-07T08:46:09.000Z</time>
      </trkpt>
      <trkpt lat="43.21839" lon="5.39694">
        <ele>369.2837</ele>
        <time>2013-04-07T08:46:14.000Z</time>
      </trkpt>
      <trkpt lat="43.21842" lon="5.39691">
        <ele>370.7256</ele>
        <time>2013-04-07T08:46:18.000Z</time>
      </trkpt>
      <trkpt lat="43.21849" lon="5.39687">
        <ele>374.0901</ele>
        <time>2013-04-07T08:46:26.000Z</time>
      </trkpt>
      <trkpt lat="43.21852" lon="5.39685">
        <ele>376.49353</ele>
        <time>2013-04-07T08:46:32.000Z</time>
      </trkpt>
      <trkpt lat="43.21854" lon="5.39681">
        <ele>378.89685</ele>
        <time>2013-04-07T08:46:38.000Z</time>
      </trkpt>
      <trkpt lat="43.21853" lon="5.39678">
        <ele>380.81946</ele>
        <time>2013-04-07T08:46:43.000Z</time>
      </trkpt>
      <trkpt lat="43.2185" lon="5.39673">
        <ele>383.22266</ele>
        <time>2013-04-07T08:46:49.000Z</time>
      </trkpt>
      <trkpt lat="43.21852" lon="5.39671">
        <ele>384.18408</ele>
        <time>2013-04-07T08:46:53.000Z</time>
      </trkpt>
      <trkpt lat="43.21856" lon="5.3967">
        <ele>386.1067</ele>
        <time>2013-04-07T08:46:59.000Z</time>
      </trkpt>
      <trkpt lat="43.21862" lon="5.39668">
        <ele>386.5874</ele>
        <time>2013-04-07T08:47:05.000Z</time>
      </trkpt>
      <trkpt lat="43.21865" lon="5.39667">
        <ele>386.5874</ele>
        <time>2013-04-07T08:47:12.000Z</time>
      </trkpt>
      <trkpt lat="43.21867" lon="5.39663">
        <ele>387.54858</ele>
        <time>2013-04-07T08:47:18.000Z</time>
      </trkpt>
      <trkpt lat="43.21865" lon="5.39662">
        <ele>388.51</ele>
        <time>2013-04-07T08:47:21.000Z</time>
      </trkpt>
      <trkpt lat="43.21865" lon="5.39658">
        <ele>391.8745</ele>
        <time>2013-04-07T08:47:27.000Z</time>
      </trkpt>
      <trkpt lat="43.21866" lon="5.39655">
        <ele>394.75854</ele>
        <time>2013-04-07T08:47:32.000Z</time>
      </trkpt>
      <trkpt lat="43.21866" lon="5.39651">
        <ele>395.71985</ele>
        <time>2013-04-07T08:47:37.000Z</time>
      </trkpt>
      <trkpt lat="43.21866" lon="5.39649">
        <ele>395.23914</ele>
        <time>2013-04-07T08:47:42.000Z</time>
      </trkpt>
      <trkpt lat="43.21867" lon="5.39646">
        <ele>396.68115</ele>
        <time>2013-04-07T08:47:46.000Z</time>
      </trkpt>
      <trkpt lat="43.21866" lon="5.39641">
        <ele>397.16174</ele>
        <time>2013-04-07T08:47:51.000Z</time>
      </trkpt>
      <trkpt lat="43.21866" lon="5.39641">
        <ele>397.64246</ele>
        <time>2013-04-07T08:47:56.000Z</time>
      </trkpt>
      <trkpt lat="43.21867" lon="5.39636">
        <ele>397.16174</ele>
        <time>2013-04-07T08:48:04.000Z</time>
      </trkpt>
      <trkpt lat="43.21871" lon="5.39629">
        <ele>398.12317</ele>
        <time>2013-04-07T08:48:10.000Z</time>
      </trkpt>
      <trkpt lat="43.21872" lon="5.39626">
        <ele>398.60376</ele>
        <time>2013-04-07T08:48:13.000Z</time>
      </trkpt>
      <trkpt lat="43.21873" lon="5.39613">
        <ele>398.60376</ele>
        <time>2013-04-07T08:48:19.000Z</time>
      </trkpt>
      <trkpt lat="43.21877" lon="5.39601">
        <ele>397.16174</ele>
        <time>2013-04-07T08:48:23.000Z</time>
      </trkpt>
      <trkpt lat="43.21875" lon="5.39587">
        <ele>396.68115</ele>
        <time>2013-04-07T08:48:27.000Z</time>
      </trkpt>
      <trkpt lat="43.21874" lon="5.39578">
        <ele>395.71985</ele>
        <time>2013-04-07T08:48:29.000Z</time>
      </trkpt>
      <trkpt lat="43.21874" lon="5.39572">
        <ele>394.75854</ele>
        <time>2013-04-07T08:48:31.000Z</time>
      </trkpt>
      <trkpt lat="43.21874" lon="5.39551">
        <ele>394.27795</ele>
        <time>2013-04-07T08:48:37.000Z</time>
      </trkpt>
      <trkpt lat="43.21874" lon="5.39543">
        <ele>393.79724</ele>
        <time>2013-04-07T08:48:39.000Z</time>
      </trkpt>
      <trkpt lat="43.21875" lon="5.39524">
        <ele>393.31653</ele>
        <time>2013-04-07T08:48:44.000Z</time>
      </trkpt>
      <trkpt lat="43.21876" lon="5.3952">
        <ele>393.31653</ele>
        <time>2013-04-07T08:48:45.000Z</time>
      </trkpt>
      <trkpt lat="43.21873" lon="5.39504">
        <ele>393.79724</ele>
        <time>2013-04-07T08:48:50.000Z</time>
      </trkpt>
      <trkpt lat="43.21873" lon="5.39484">
        <ele>393.79724</ele>
        <time>2013-04-07T08:48:55.000Z</time>
      </trkpt>
      <trkpt lat="43.21872" lon="5.39467">
        <ele>393.31653</ele>
        <time>2013-04-07T08:49:00.000Z</time>
      </trkpt>
      <trkpt lat="43.21872" lon="5.39457">
        <ele>393.31653</ele>
        <time>2013-04-07T08:49:03.000Z</time>
      </trkpt>
      <trkpt lat="43.21867" lon="5.3944">
        <ele>393.79724</ele>
        <time>2013-04-07T08:49:08.000Z</time>
      </trkpt>
      <trkpt lat="43.21866" lon="5.39431">
        <ele>393.79724</ele>
        <time>2013-04-07T08:49:11.000Z</time>
      </trkpt>
      <trkpt lat="43.21859" lon="5.39413">
        <ele>394.27795</ele>
        <time>2013-04-07T08:49:16.000Z</time>
      </trkpt>
      <trkpt lat="43.21859" lon="5.3941">
        <ele>394.27795</ele>
        <time>2013-04-07T08:49:17.000Z</time>
      </trkpt>
      <trkpt lat="43.21864" lon="5.3939">
        <ele>392.35535</ele>
        <time>2013-04-07T08:49:23.000Z</time>
      </trkpt>
      <trkpt lat="43.21869" lon="5.3937">
        <ele>388.51</ele>
        <time>2013-04-07T08:49:29.000Z</time>
      </trkpt>
      <trkpt lat="43.21867" lon="5.39353">
        <ele>386.1067</ele>
        <time>2013-04-07T08:49:33.000Z</time>
      </trkpt>
      <trkpt lat="43.21863" lon="5.39344">
        <ele>384.18408</ele>
        <time>2013-04-07T08:49:36.000Z</time>
      </trkpt>
      <trkpt lat="43.21862" lon="5.39332">
        <ele>382.74207</ele>
        <time>2013-04-07T08:49:40.000Z</time>
      </trkpt>
      <trkpt lat="43.21857" lon="5.39318">
        <ele>380.33875</ele>
        <time>2013-04-07T08:49:45.000Z</time>
      </trkpt>
      <trkpt lat="43.21857" lon="5.39314">
        <ele>379.85803</ele>
        <time>2013-04-07T08:49:46.000Z</time>
      </trkpt>
      <trkpt lat="43.2185" lon="5.39298">
        <ele>377.93542</ele>
        <time>2013-04-07T08:49:51.000Z</time>
      </trkpt>
      <trkpt lat="43.21843" lon="5.39288">
        <ele>377.45483</ele>
        <time>2013-04-07T08:49:55.000Z</time>
      </trkpt>
      <trkpt lat="43.2184" lon="5.39269">
        <ele>376.01282</ele>
        <time>2013-04-07T08:50:00.000Z</time>
      </trkpt>
      <trkpt lat="43.21836" lon="5.39252">
        <ele>375.0515</ele>
        <time>2013-04-07T08:50:05.000Z</time>
      </trkpt>
      <trkpt lat="43.21834" lon="5.39248">
        <ele>375.0515</ele>
        <time>2013-04-07T08:50:06.000Z</time>
      </trkpt>
      <trkpt lat="43.21833" lon="5.39229">
        <ele>374.0901</ele>
        <time>2013-04-07T08:50:11.000Z</time>
      </trkpt>
      <trkpt lat="43.21831" lon="5.39204">
        <ele>374.5708</ele>
        <time>2013-04-07T08:50:18.000Z</time>
      </trkpt>
      <trkpt lat="43.21824" lon="5.39185">
        <ele>375.0515</ele>
        <time>2013-04-07T08:50:24.000Z</time>
      </trkpt>
      <trkpt lat="43.21818" lon="5.39171">
        <ele>375.0515</ele>
        <time>2013-04-07T08:50:29.000Z</time>
      </trkpt>
      <trkpt lat="43.21815" lon="5.39159">
        <ele>375.5321</ele>
        <time>2013-04-07T08:50:33.000Z</time>
      </trkpt>
      <trkpt lat="43.21813" lon="5.3914">
        <ele>377.45483</ele>
        <time>2013-04-07T08:50:39.000Z</time>
      </trkpt>
      <trkpt lat="43.21815" lon="5.3913">
        <ele>377.93542</ele>
        <time>2013-04-07T08:50:43.000Z</time>
      </trkpt>
      <trkpt lat="43.21817" lon="5.39126">
        <ele>378.41614</ele>
        <time>2013-04-07T08:50:45.000Z</time>
      </trkpt>
      <trkpt lat="43.21819" lon="5.39118">
        <ele>378.89685</ele>
        <time>2013-04-07T08:50:49.000Z</time>
      </trkpt>
      <trkpt lat="43.21824" lon="5.3911">
        <ele>379.85803</ele>
        <time>2013-04-07T08:50:53.000Z</time>
      </trkpt>
      <trkpt lat="43.21829" lon="5.39094">
        <ele>379.85803</ele>
        <time>2013-04-07T08:50:59.000Z</time>
      </trkpt>
      <trkpt lat="43.2183" lon="5.39083">
        <ele>380.33875</ele>
        <time>2013-04-07T08:51:03.000Z</time>
      </trkpt>
      <trkpt lat="43.21832" lon="5.39069">
        <ele>379.85803</ele>
        <time>2013-04-07T08:51:09.000Z</time>
      </trkpt>
      <trkpt lat="43.21835" lon="5.39058">
        <ele>379.37744</ele>
        <time>2013-04-07T08:51:14.000Z</time>
      </trkpt>
      <trkpt lat="43.21838" lon="5.39048">
        <ele>378.41614</ele>
        <time>2013-04-07T08:51:18.000Z</time>
      </trkpt>
      <trkpt lat="43.21841" lon="5.39041">
        <ele>378.41614</ele>
        <time>2013-04-07T08:51:21.000Z</time>
      </trkpt>
      <trkpt lat="43.21843" lon="5.39026">
        <ele>377.93542</ele>
        <time>2013-04-07T08:51:26.000Z</time>
      </trkpt>
      <trkpt lat="43.21844" lon="5.3902">
        <ele>378.41614</ele>
        <time>2013-04-07T08:51:28.000Z</time>
      </trkpt>
      <trkpt lat="43.21847" lon="5.39006">
        <ele>379.37744</ele>
        <time>2013-04-07T08:51:33.000Z</time>
      </trkpt>
      <trkpt lat="43.21848" lon="5.38993">
        <ele>380.81946</ele>
        <time>2013-04-07T08:51:38.000Z</time>
      </trkpt>
      <trkpt lat="43.2185" lon="5.38977">
        <ele>381.78064</ele>
        <time>2013-04-07T08:51:44.000Z</time>
      </trkpt>
      <trkpt lat="43.21849" lon="5.38967">
        <ele>382.74207</ele>
        <time>2013-04-07T08:51:48.000Z</time>
      </trkpt>
      <trkpt lat="43.21853" lon="5.38961">
        <ele>382.26135</ele>
        <time>2013-04-07T08:51:51.000Z</time>
      </trkpt>
      <trkpt lat="43.21855" lon="5.3896">
        <ele>382.26135</ele>
        <time>2013-04-07T08:51:52.000Z</time>
      </trkpt>
      <trkpt lat="43.21865" lon="5.38953">
        <ele>381.30005</ele>
        <time>2013-04-07T08:51:57.000Z</time>
      </trkpt>
      <trkpt lat="43.21871" lon="5.38942">
        <ele>379.37744</ele>
        <time>2013-04-07T08:52:01.000Z</time>
      </trkpt>
      <trkpt lat="43.21877" lon="5.38932">
        <ele>377.45483</ele>
        <time>2013-04-07T08:52:05.000Z</time>
      </trkpt>
      <trkpt lat="43.21883" lon="5.38922">
        <ele>375.5321</ele>
        <time>2013-04-07T08:52:09.000Z</time>
      </trkpt>
      <trkpt lat="43.21886" lon="5.38915">
        <ele>375.0515</ele>
        <time>2013-04-07T08:52:12.000Z</time>
      </trkpt>
      <trkpt lat="43.21892" lon="5.389">
        <ele>373.6095</ele>
        <time>2013-04-07T08:52:18.000Z</time>
      </trkpt>
      <trkpt lat="43.21895" lon="5.38894">
        <ele>372.6482</ele>
        <time>2013-04-07T08:52:20.000Z</time>
      </trkpt>
      <trkpt lat="43.21903" lon="5.38887">
        <ele>371.6869</ele>
        <time>2013-04-07T08:52:25.000Z</time>
      </trkpt>
      <trkpt lat="43.21904" lon="5.38886">
        <ele>371.2063</ele>
        <time>2013-04-07T08:52:26.000Z</time>
      </trkpt>
      <trkpt lat="43.21907" lon="5.38884">
        <ele>370.24487</ele>
        <time>2013-04-07T08:52:28.000Z</time>
      </trkpt>
      <trkpt lat="43.21913" lon="5.3888">
        <ele>367.84155</ele>
        <time>2013-04-07T08:52:33.000Z</time>
      </trkpt>
      <trkpt lat="43.21913" lon="5.38873">
        <ele>368.32227</ele>
        <time>2013-04-07T08:52:36.000Z</time>
      </trkpt>
      <trkpt lat="43.21916" lon="5.38863">
        <ele>366.39954</ele>
        <time>2013-04-07T08:52:41.000Z</time>
      </trkpt>
      <trkpt lat="43.21923" lon="5.38859">
        <ele>365.91895</ele>
        <time>2013-04-07T08:52:45.000Z</time>
      </trkpt>
      <trkpt lat="43.21927" lon="5.38853">
        <ele>364.47693</ele>
        <time>2013-04-07T08:52:49.000Z</time>
      </trkpt>
      <trkpt lat="43.2193" lon="5.38851">
        <ele>363.99634</ele>
        <time>2013-04-07T08:52:51.000Z</time>
      </trkpt>
      <trkpt lat="43.21932" lon="5.38844">
        <ele>363.51575</ele>
        <time>2013-04-07T08:52:54.000Z</time>
      </trkpt>
      <trkpt lat="43.21933" lon="5.38837">
        <ele>363.51575</ele>
        <time>2013-04-07T08:52:57.000Z</time>
      </trkpt>
      <trkpt lat="43.21935" lon="5.38823">
        <ele>363.51575</ele>
        <time>2013-04-07T08:53:03.000Z</time>
      </trkpt>
      <trkpt lat="43.21939" lon="5.38816">
        <ele>362.55432</ele>
        <time>2013-04-07T08:53:08.000Z</time>
      </trkpt>
      <trkpt lat="43.21941" lon="5.38816">
        <ele>363.51575</ele>
        <time>2013-04-07T08:53:10.000Z</time>
      </trkpt>
      <trkpt lat="43.21945" lon="5.38811">
        <ele>363.51575</ele>
        <time>2013-04-07T08:53:14.000Z</time>
      </trkpt>
      <trkpt lat="43.21949" lon="5.38811">
        <ele>364.47693</ele>
        <time>2013-04-07T08:53:17.000Z</time>
      </trkpt>
      <trkpt lat="43.21954" lon="5.3881">
        <ele>364.47693</ele>
        <time>2013-04-07T08:53:22.000Z</time>
      </trkpt>
      <trkpt lat="43.21957" lon="5.38808">
        <ele>363.51575</ele>
        <time>2013-04-07T08:53:24.000Z</time>
      </trkpt>
      <trkpt lat="43.21965" lon="5.38803">
        <ele>362.07373</ele>
        <time>2013-04-07T08:53:30.000Z</time>
      </trkpt>
      <trkpt lat="43.21969" lon="5.38796">
        <ele>360.6317</ele>
        <time>2013-04-07T08:53:33.000Z</time>
      </trkpt>
      <trkpt lat="43.21971" lon="5.38796">
        <ele>360.15112</ele>
        <time>2013-04-07T08:53:35.000Z</time>
      </trkpt>
      <trkpt lat="43.21977" lon="5.3879">
        <ele>359.1897</ele>
        <time>2013-04-07T08:53:40.000Z</time>
      </trkpt>
      <trkpt lat="43.21984" lon="5.38784">
        <ele>360.15112</ele>
        <time>2013-04-07T08:53:44.000Z</time>
      </trkpt>
      <trkpt lat="43.21989" lon="5.38781">
        <ele>360.15112</ele>
        <time>2013-04-07T08:53:46.000Z</time>
      </trkpt>
      <trkpt lat="43.21992" lon="5.3878">
        <ele>359.6704</ele>
        <time>2013-04-07T08:53:48.000Z</time>
      </trkpt>
      <trkpt lat="43.22" lon="5.38775">
        <ele>359.1897</ele>
        <time>2013-04-07T08:53:52.000Z</time>
      </trkpt>
      <trkpt lat="43.22002" lon="5.38772">
        <ele>359.1897</ele>
        <time>2013-04-07T08:53:54.000Z</time>
      </trkpt>
      <trkpt lat="43.22013" lon="5.3877">
        <ele>357.7478</ele>
        <time>2013-04-07T08:54:00.000Z</time>
      </trkpt>
      <trkpt lat="43.22015" lon="5.3877">
        <ele>357.2671</ele>
        <time>2013-04-07T08:54:01.000Z</time>
      </trkpt>
      <trkpt lat="43.22019" lon="5.38771">
        <ele>357.2671</ele>
        <time>2013-04-07T08:54:03.000Z</time>
      </trkpt>
      <trkpt lat="43.22029" lon="5.38766">
        <ele>355.34448</ele>
        <time>2013-04-07T08:54:08.000Z</time>
      </trkpt>
      <trkpt lat="43.22033" lon="5.38764">
        <ele>354.86377</ele>
        <time>2013-04-07T08:54:10.000Z</time>
      </trkpt>
      <trkpt lat="43.2204" lon="5.38763">
        <ele>353.9026</ele>
        <time>2013-04-07T08:54:13.000Z</time>
      </trkpt>
      <trkpt lat="43.22044" lon="5.38762">
        <ele>353.9026</ele>
        <time>2013-04-07T08:54:15.000Z</time>
      </trkpt>
      <trkpt lat="43.22051" lon="5.38766">
        <ele>352.94116</ele>
        <time>2013-04-07T08:54:18.000Z</time>
      </trkpt>
      <trkpt lat="43.2206" lon="5.38765">
        <ele>351.97986</ele>
        <time>2013-04-07T08:54:22.000Z</time>
      </trkpt>
      <trkpt lat="43.22072" lon="5.38763">
        <ele>351.01843</ele>
        <time>2013-04-07T08:54:27.000Z</time>
      </trkpt>
      <trkpt lat="43.22078" lon="5.38763">
        <ele>350.53784</ele>
        <time>2013-04-07T08:54:29.000Z</time>
      </trkpt>
      <trkpt lat="43.22083" lon="5.38762">
        <ele>350.05725</ele>
        <time>2013-04-07T08:54:32.000Z</time>
      </trkpt>
      <trkpt lat="43.22093" lon="5.38757">
        <ele>350.53784</ele>
        <time>2013-04-07T08:54:37.000Z</time>
      </trkpt>
      <trkpt lat="43.22102" lon="5.38751">
        <ele>351.01843</ele>
        <time>2013-04-07T08:54:41.000Z</time>
      </trkpt>
      <trkpt lat="43.22105" lon="5.38747">
        <ele>351.49915</ele>
        <time>2013-04-07T08:54:43.000Z</time>
      </trkpt>
      <trkpt lat="43.22115" lon="5.38739">
        <ele>351.01843</ele>
        <time>2013-04-07T08:54:49.000Z</time>
      </trkpt>
      <trkpt lat="43.22119" lon="5.38739">
        <ele>351.01843</ele>
        <time>2013-04-07T08:54:51.000Z</time>
      </trkpt>
      <trkpt lat="43.22124" lon="5.38732">
        <ele>350.53784</ele>
        <time>2013-04-07T08:54:55.000Z</time>
      </trkpt>
      <trkpt lat="43.22127" lon="5.38728">
        <ele>350.53784</ele>
        <time>2013-04-07T08:54:57.000Z</time>
      </trkpt>
      <trkpt lat="43.22134" lon="5.38721">
        <ele>350.53784</ele>
        <time>2013-04-07T08:55:03.000Z</time>
      </trkpt>
      <trkpt lat="43.22142" lon="5.38715">
        <ele>351.01843</ele>
        <time>2013-04-07T08:55:08.000Z</time>
      </trkpt>
      <trkpt lat="43.22143" lon="5.38712">
        <ele>351.01843</ele>
        <time>2013-04-07T08:55:09.000Z</time>
      </trkpt>
      <trkpt lat="43.2215" lon="5.387">
        <ele>351.49915</ele>
        <time>2013-04-07T08:55:14.000Z</time>
      </trkpt>
      <trkpt lat="43.22161" lon="5.38697">
        <ele>350.05725</ele>
        <time>2013-04-07T08:55:19.000Z</time>
      </trkpt>
      <trkpt lat="43.22162" lon="5.38696">
        <ele>350.05725</ele>
        <time>2013-04-07T08:55:20.000Z</time>
      </trkpt>
      <trkpt lat="43.2217" lon="5.3869">
        <ele>348.61523</ele>
        <time>2013-04-07T08:55:24.000Z</time>
      </trkpt>
      <trkpt lat="43.22179" lon="5.38678">
        <ele>347.65393</ele>
        <time>2013-04-07T08:55:30.000Z</time>
      </trkpt>
      <trkpt lat="43.22185" lon="5.38668">
        <ele>347.17322</ele>
        <time>2013-04-07T08:55:35.000Z</time>
      </trkpt>
      <trkpt lat="43.22198" lon="5.38657">
        <ele>346.69263</ele>
        <time>2013-04-07T08:55:42.000Z</time>
      </trkpt>
      <trkpt lat="43.22203" lon="5.38656">
        <ele>347.17322</ele>
        <time>2013-04-07T08:55:45.000Z</time>
      </trkpt>
      <trkpt lat="43.22214" lon="5.38647">
        <ele>349.09583</ele>
        <time>2013-04-07T08:55:52.000Z</time>
      </trkpt>
      <trkpt lat="43.2222" lon="5.38641">
        <ele>350.05725</ele>
        <time>2013-04-07T08:55:56.000Z</time>
      </trkpt>
      <trkpt lat="43.22226" lon="5.38635">
        <ele>351.97986</ele>
        <time>2013-04-07T08:56:01.000Z</time>
      </trkpt>
      <trkpt lat="43.22229" lon="5.38632">
        <ele>352.94116</ele>
        <time>2013-04-07T08:56:04.000Z</time>
      </trkpt>
      <trkpt lat="43.2223" lon="5.38628">
        <ele>353.42188</ele>
        <time>2013-04-07T08:56:06.000Z</time>
      </trkpt>
      <trkpt lat="43.22233" lon="5.3862">
        <ele>354.86377</ele>
        <time>2013-04-07T08:56:10.000Z</time>
      </trkpt>
      <trkpt lat="43.22237" lon="5.38611">
        <ele>354.86377</ele>
        <time>2013-04-07T08:56:14.000Z</time>
      </trkpt>
      <trkpt lat="43.22242" lon="5.38602">
        <ele>354.38318</ele>
        <time>2013-04-07T08:56:19.000Z</time>
      </trkpt>
      <trkpt lat="43.22245" lon="5.38594">
        <ele>354.38318</ele>
        <time>2013-04-07T08:56:22.000Z</time>
      </trkpt>
      <trkpt lat="43.22247" lon="5.38589">
        <ele>354.38318</ele>
        <time>2013-04-07T08:56:24.000Z</time>
      </trkpt>
      <trkpt lat="43.22251" lon="5.38584">
        <ele>354.86377</ele>
        <time>2013-04-07T08:56:27.000Z</time>
      </trkpt>
      <trkpt lat="43.22257" lon="5.38573">
        <ele>354.86377</ele>
        <time>2013-04-07T08:56:32.000Z</time>
      </trkpt>
      <trkpt lat="43.22259" lon="5.38565">
        <ele>355.34448</ele>
        <time>2013-04-07T08:56:35.000Z</time>
      </trkpt>
      <trkpt lat="43.22262" lon="5.3856">
        <ele>355.34448</ele>
        <time>2013-04-07T08:56:38.000Z</time>
      </trkpt>
      <trkpt lat="43.22266" lon="5.38548">
        <ele>354.86377</ele>
        <time>2013-04-07T08:56:44.000Z</time>
      </trkpt>
      <trkpt lat="43.2227" lon="5.3854">
        <ele>355.8252</ele>
        <time>2013-04-07T08:56:48.000Z</time>
      </trkpt>
      <trkpt lat="43.22273" lon="5.38531">
        <ele>356.3058</ele>
        <time>2013-04-07T08:56:52.000Z</time>
      </trkpt>
      <trkpt lat="43.22282" lon="5.38524">
        <ele>356.78638</ele>
        <time>2013-04-07T08:56:58.000Z</time>
      </trkpt>
      <trkpt lat="43.22288" lon="5.38519">
        <ele>357.2671</ele>
        <time>2013-04-07T08:57:01.000Z</time>
      </trkpt>
      <trkpt lat="43.2229" lon="5.38514">
        <ele>356.78638</ele>
        <time>2013-04-07T08:57:03.000Z</time>
      </trkpt>
      <trkpt lat="43.22292" lon="5.38505">
        <ele>355.34448</ele>
        <time>2013-04-07T08:57:07.000Z</time>
      </trkpt>
      <trkpt lat="43.22297" lon="5.38497">
        <ele>355.34448</ele>
        <time>2013-04-07T08:57:11.000Z</time>
      </trkpt>
      <trkpt lat="43.22299" lon="5.38494">
        <ele>355.8252</ele>
        <time>2013-04-07T08:57:13.000Z</time>
      </trkpt>
      <trkpt lat="43.22306" lon="5.38481">
        <ele>356.78638</ele>
        <time>2013-04-07T08:57:19.000Z</time>
      </trkpt>
      <trkpt lat="43.22307" lon="5.38478">
        <ele>356.78638</ele>
        <time>2013-04-07T08:57:20.000Z</time>
      </trkpt>
      <trkpt lat="43.22313" lon="5.38468">
        <ele>356.3058</ele>
        <time>2013-04-07T08:57:25.000Z</time>
      </trkpt>
      <trkpt lat="43.22315" lon="5.38459">
        <ele>357.7478</ele>
        <time>2013-04-07T08:57:29.000Z</time>
      </trkpt>
      <trkpt lat="43.22319" lon="5.38451">
        <ele>357.2671</ele>
        <time>2013-04-07T08:57:33.000Z</time>
      </trkpt>
      <trkpt lat="43.22323" lon="5.38445">
        <ele>357.2671</ele>
        <time>2013-04-07T08:57:37.000Z</time>
      </trkpt>
      <trkpt lat="43.22323" lon="5.38443">
        <ele>357.7478</ele>
        <time>2013-04-07T08:57:38.000Z</time>
      </trkpt>
      <trkpt lat="43.22328" lon="5.38431">
        <ele>360.15112</ele>
        <time>2013-04-07T08:57:46.000Z</time>
      </trkpt>
      <trkpt lat="43.22331" lon="5.38425">
        <ele>360.6317</ele>
        <time>2013-04-07T08:57:49.000Z</time>
      </trkpt>
      <trkpt lat="43.22336" lon="5.38415">
        <ele>361.59314</ele>
        <time>2013-04-07T08:57:54.000Z</time>
      </trkpt>
      <trkpt lat="43.22335" lon="5.38407">
        <ele>364.47693</ele>
        <time>2013-04-07T08:57:58.000Z</time>
      </trkpt>
      <trkpt lat="43.22333" lon="5.38402">
        <ele>366.39954</ele>
        <time>2013-04-07T08:58:00.000Z</time>
      </trkpt>
      <trkpt lat="43.22334" lon="5.38394">
        <ele>369.2837</ele>
        <time>2013-04-07T08:58:04.000Z</time>
      </trkpt>
      <trkpt lat="43.22334" lon="5.38385">
        <ele>372.16748</ele>
        <time>2013-04-07T08:58:09.000Z</time>
      </trkpt>
      <trkpt lat="43.22333" lon="5.38382">
        <ele>372.6482</ele>
        <time>2013-04-07T08:58:11.000Z</time>
      </trkpt>
      <trkpt lat="43.22331" lon="5.38375">
        <ele>374.0901</ele>
        <time>2013-04-07T08:58:14.000Z</time>
      </trkpt>
      <trkpt lat="43.22335" lon="5.38366">
        <ele>375.0515</ele>
        <time>2013-04-07T08:58:20.000Z</time>
      </trkpt>
      <trkpt lat="43.2234" lon="5.38356">
        <ele>376.49353</ele>
        <time>2013-04-07T08:58:27.000Z</time>
      </trkpt>
      <trkpt lat="43.22342" lon="5.38353">
        <ele>376.01282</ele>
        <time>2013-04-07T08:58:29.000Z</time>
      </trkpt>
      <trkpt lat="43.22344" lon="5.38347">
        <ele>376.49353</ele>
        <time>2013-04-07T08:58:33.000Z</time>
      </trkpt>
      <trkpt lat="43.22345" lon="5.38343">
        <ele>376.49353</ele>
        <time>2013-04-07T08:58:36.000Z</time>
      </trkpt>
      <trkpt lat="43.22346" lon="5.38339">
        <ele>376.49353</ele>
        <time>2013-04-07T08:58:39.000Z</time>
      </trkpt>
      <trkpt lat="43.22346" lon="5.38336">
        <ele>375.0515</ele>
        <time>2013-04-07T08:58:45.000Z</time>
      </trkpt>
      <trkpt lat="43.22346" lon="5.38333">
        <ele>373.6095</ele>
        <time>2013-04-07T08:58:54.000Z</time>
      </trkpt>
      <trkpt lat="43.22346" lon="5.38331">
        <ele>373.1289</ele>
        <time>2013-04-07T08:58:55.000Z</time>
      </trkpt>
      <trkpt lat="43.22343" lon="5.38327">
        <ele>372.16748</ele>
        <time>2013-04-07T08:58:57.000Z</time>
      </trkpt>
      <trkpt lat="43.22337" lon="5.38323">
        <ele>370.7256</ele>
        <time>2013-04-07T08:59:01.000Z</time>
      </trkpt>
      <trkpt lat="43.22334" lon="5.38316">
        <ele>367.36096</ele>
        <time>2013-04-07T08:59:07.000Z</time>
      </trkpt>
      <trkpt lat="43.22335" lon="5.38315">
        <ele>366.88025</ele>
        <time>2013-04-07T08:59:08.000Z</time>
      </trkpt>
      <trkpt lat="43.22335" lon="5.3831">
        <ele>365.43835</ele>
        <time>2013-04-07T08:59:11.000Z</time>
      </trkpt>
      <trkpt lat="43.22335" lon="5.38307">
        <ele>364.47693</ele>
        <time>2013-04-07T08:59:13.000Z</time>
      </trkpt>
      <trkpt lat="43.22337" lon="5.38299">
        <ele>361.11243</ele>
        <time>2013-04-07T08:59:18.000Z</time>
      </trkpt>
      <trkpt lat="43.22338" lon="5.38294">
        <ele>357.7478</ele>
        <time>2013-04-07T08:59:23.000Z</time>
      </trkpt>
      <trkpt lat="43.22338" lon="5.38294">
        <ele>357.2671</ele>
        <time>2013-04-07T08:59:24.000Z</time>
      </trkpt>
      <trkpt lat="43.22336" lon="5.3829">
        <ele>356.3058</ele>
        <time>2013-04-07T08:59:28.000Z</time>
      </trkpt>
      <trkpt lat="43.22335" lon="5.38287">
        <ele>355.34448</ele>
        <time>2013-04-07T08:59:31.000Z</time>
      </trkpt>
      <trkpt lat="43.22334" lon="5.38282">
        <ele>353.9026</ele>
        <time>2013-04-07T08:59:34.000Z</time>
      </trkpt>
      <trkpt lat="43.22332" lon="5.38275">
        <ele>351.97986</ele>
        <time>2013-04-07T08:59:37.000Z</time>
      </trkpt>
      <trkpt lat="43.22331" lon="5.38264">
        <ele>350.05725</ele>
        <time>2013-04-07T08:59:42.000Z</time>
      </trkpt>
      <trkpt lat="43.22332" lon="5.38253">
        <ele>347.65393</ele>
        <time>2013-04-07T08:59:47.000Z</time>
      </trkpt>
      <trkpt lat="43.22329" lon="5.38246">
        <ele>344.28943</ele>
        <time>2013-04-07T08:59:52.000Z</time>
      </trkpt>
      <trkpt lat="43.22331" lon="5.3824">
        <ele>340.92468</ele>
        <time>2013-04-07T08:59:56.000Z</time>
      </trkpt>
      <trkpt lat="43.22331" lon="5.38237">
        <ele>339.48267</ele>
        <time>2013-04-07T08:59:58.000Z</time>
      </trkpt>
      <trkpt lat="43.22325" lon="5.3823">
        <ele>336.11816</ele>
        <time>2013-04-07T09:00:03.000Z</time>
      </trkpt>
      <trkpt lat="43.22323" lon="5.38224">
        <ele>334.19543</ele>
        <time>2013-04-07T09:00:07.000Z</time>
      </trkpt>
      <trkpt lat="43.22325" lon="5.38216">
        <ele>330.83093</ele>
        <time>2013-04-07T09:00:12.000Z</time>
      </trkpt>
      <trkpt lat="43.22328" lon="5.38207">
        <ele>328.90833</ele>
        <time>2013-04-07T09:00:18.000Z</time>
      </trkpt>
      <trkpt lat="43.22324" lon="5.38202">
        <ele>327.4662</ele>
        <time>2013-04-07T09:00:23.000Z</time>
      </trkpt>
      <trkpt lat="43.2232" lon="5.38201">
        <ele>325.063</ele>
        <time>2013-04-07T09:00:28.000Z</time>
      </trkpt>
      <trkpt lat="43.22311" lon="5.382">
        <ele>321.21777</ele>
        <time>2013-04-07T09:00:34.000Z</time>
      </trkpt>
      <trkpt lat="43.22308" lon="5.382">
        <ele>318.81433</ele>
        <time>2013-04-07T09:00:37.000Z</time>
      </trkpt>
      <trkpt lat="43.22309" lon="5.38197">
        <ele>314.4884</ele>
        <time>2013-04-07T09:00:44.000Z</time>
      </trkpt>
      <trkpt lat="43.22307" lon="5.38196">
        <ele>313.0465</ele>
        <time>2013-04-07T09:00:49.000Z</time>
      </trkpt>
      <trkpt lat="43.22307" lon="5.38193">
        <ele>312.5658</ele>
        <time>2013-04-07T09:00:53.000Z</time>
      </trkpt>
      <trkpt lat="43.22305" lon="5.38188">
        <ele>311.6045</ele>
        <time>2013-04-07T09:00:58.000Z</time>
      </trkpt>
      <trkpt lat="43.22303" lon="5.38184">
        <ele>309.20117</ele>
        <time>2013-04-07T09:01:02.000Z</time>
      </trkpt>
      <trkpt lat="43.22294" lon="5.38175">
        <ele>307.27856</ele>
        <time>2013-04-07T09:01:07.000Z</time>
      </trkpt>
      <trkpt lat="43.22288" lon="5.38167">
        <ele>305.83667</ele>
        <time>2013-04-07T09:01:12.000Z</time>
      </trkpt>
      <trkpt lat="43.22285" lon="5.38159">
        <ele>303.43323</ele>
        <time>2013-04-07T09:01:17.000Z</time>
      </trkpt>
      <trkpt lat="43.22277" lon="5.38138">
        <ele>301.0299</ele>
        <time>2013-04-07T09:01:23.000Z</time>
      </trkpt>
      <trkpt lat="43.22279" lon="5.38117">
        <ele>298.6267</ele>
        <time>2013-04-07T09:01:28.000Z</time>
      </trkpt>
      <trkpt lat="43.22283" lon="5.38101">
        <ele>294.78137</ele>
        <time>2013-04-07T09:01:33.000Z</time>
      </trkpt>
      <trkpt lat="43.22286" lon="5.38097">
        <ele>293.33936</ele>
        <time>2013-04-07T09:01:35.000Z</time>
      </trkpt>
      <trkpt lat="43.22292" lon="5.38084">
        <ele>290.93616</ele>
        <time>2013-04-07T09:01:39.000Z</time>
      </trkpt>
      <trkpt lat="43.22292" lon="5.38081">
        <ele>289.97485</ele>
        <time>2013-04-07T09:01:40.000Z</time>
      </trkpt>
      <trkpt lat="43.22292" lon="5.38073">
        <ele>289.01355</ele>
        <time>2013-04-07T09:01:42.000Z</time>
      </trkpt>
      <trkpt lat="43.22296" lon="5.38059">
        <ele>283.7262</ele>
        <time>2013-04-07T09:01:46.000Z</time>
      </trkpt>
      <trkpt lat="43.22298" lon="5.38051">
        <ele>283.7262</ele>
        <time>2013-04-07T09:01:49.000Z</time>
      </trkpt>
      <trkpt lat="43.22307" lon="5.38035">
        <ele>280.8424</ele>
        <time>2013-04-07T09:01:55.000Z</time>
      </trkpt>
      <trkpt lat="43.22311" lon="5.38027">
        <ele>278.91968</ele>
        <time>2013-04-07T09:01:59.000Z</time>
      </trkpt>
      <trkpt lat="43.22313" lon="5.38017">
        <ele>278.91968</ele>
        <time>2013-04-07T09:02:04.000Z</time>
      </trkpt>
      <trkpt lat="43.22318" lon="5.38006">
        <ele>277.95825</ele>
        <time>2013-04-07T09:02:08.000Z</time>
      </trkpt>
      <trkpt lat="43.22319" lon="5.37991">
        <ele>277.95825</ele>
        <time>2013-04-07T09:02:14.000Z</time>
      </trkpt>
      <trkpt lat="43.22315" lon="5.37981">
        <ele>279.40027</ele>
        <time>2013-04-07T09:02:17.000Z</time>
      </trkpt>
      <trkpt lat="43.22319" lon="5.37961">
        <ele>279.88086</ele>
        <time>2013-04-07T09:02:23.000Z</time>
      </trkpt>
      <trkpt lat="43.2232" lon="5.37942">
        <ele>281.323</ele>
        <time>2013-04-07T09:02:29.000Z</time>
      </trkpt>
      <trkpt lat="43.2232" lon="5.37938">
        <ele>280.8424</ele>
        <time>2013-04-07T09:02:30.000Z</time>
      </trkpt>
      <trkpt lat="43.22323" lon="5.37922">
        <ele>281.8036</ele>
        <time>2013-04-07T09:02:34.000Z</time>
      </trkpt>
      <trkpt lat="43.22334" lon="5.37903">
        <ele>280.8424</ele>
        <time>2013-04-07T09:02:40.000Z</time>
      </trkpt>
      <trkpt lat="43.22344" lon="5.37888">
        <ele>277.47766</ele>
        <time>2013-04-07T09:02:46.000Z</time>
      </trkpt>
      <trkpt lat="43.22345" lon="5.37878">
        <ele>275.07446</ele>
        <time>2013-04-07T09:02:50.000Z</time>
      </trkpt>
      <trkpt lat="43.22345" lon="5.37873">
        <ele>273.63245</ele>
        <time>2013-04-07T09:02:55.000Z</time>
      </trkpt>
      <trkpt lat="43.22345" lon="5.37866">
        <ele>273.15186</ele>
        <time>2013-04-07T09:02:58.000Z</time>
      </trkpt>
      <trkpt lat="43.22346" lon="5.37858">
        <ele>273.15186</ele>
        <time>2013-04-07T09:03:01.000Z</time>
      </trkpt>
      <trkpt lat="43.22343" lon="5.37845">
        <ele>271.22913</ele>
        <time>2013-04-07T09:03:06.000Z</time>
      </trkpt>
      <trkpt lat="43.22343" lon="5.37837">
        <ele>271.70972</ele>
        <time>2013-04-07T09:03:10.000Z</time>
      </trkpt>
      <trkpt lat="43.22342" lon="5.37831">
        <ele>275.07446</ele>
        <time>2013-04-07T09:03:14.000Z</time>
      </trkpt>
      <trkpt lat="43.22342" lon="5.37823">
        <ele>277.95825</ele>
        <time>2013-04-07T09:03:18.000Z</time>
      </trkpt>
      <trkpt lat="43.22343" lon="5.37821">
        <ele>278.43896</ele>
        <time>2013-04-07T09:03:20.000Z</time>
      </trkpt>
      <trkpt lat="43.22343" lon="5.37813">
        <ele>280.8424</ele>
        <time>2013-04-07T09:03:25.000Z</time>
      </trkpt>
      <trkpt lat="43.22343" lon="5.37809">
        <ele>281.8036</ele>
        <time>2013-04-07T09:03:28.000Z</time>
      </trkpt>
      <trkpt lat="43.22343" lon="5.37809">
        <ele>282.765</ele>
        <time>2013-04-07T09:03:32.000Z</time>
      </trkpt>
      <trkpt lat="43.22345" lon="5.37801">
        <ele>281.8036</ele>
        <time>2013-04-07T09:03:37.000Z</time>
      </trkpt>
      <trkpt lat="43.22346" lon="5.37794">
        <ele>282.765</ele>
        <time>2013-04-07T09:03:41.000Z</time>
      </trkpt>
      <trkpt lat="43.22347" lon="5.3779">
        <ele>283.2456</ele>
        <time>2013-04-07T09:03:43.000Z</time>
      </trkpt>
      <trkpt lat="43.22346" lon="5.37785">
        <ele>285.1682</ele>
        <time>2013-04-07T09:03:50.000Z</time>
      </trkpt>
      <trkpt lat="43.22345" lon="5.37782">
        <ele>285.1682</ele>
        <time>2013-04-07T09:03:53.000Z</time>
      </trkpt>
      <trkpt lat="43.22347" lon="5.37775">
        <ele>285.1682</ele>
        <time>2013-04-07T09:03:59.000Z</time>
      </trkpt>
      <trkpt lat="43.22345" lon="5.37765">
        <ele>289.49414</ele>
        <time>2013-04-07T09:04:05.000Z</time>
      </trkpt>
      <trkpt lat="43.22345" lon="5.37758">
        <ele>291.89746</ele>
        <time>2013-04-07T09:04:10.000Z</time>
      </trkpt>
      <trkpt lat="43.22343" lon="5.37754">
        <ele>294.78137</ele>
        <time>2013-04-07T09:04:14.000Z</time>
      </trkpt>
      <trkpt lat="43.22345" lon="5.37747">
        <ele>296.7041</ele>
        <time>2013-04-07T09:04:20.000Z</time>
      </trkpt>
      <trkpt lat="43.22344" lon="5.37744">
        <ele>298.14612</ele>
        <time>2013-04-07T09:04:23.000Z</time>
      </trkpt>
      <trkpt lat="43.22343" lon="5.37741">
        <ele>299.1073</ele>
        <time>2013-04-07T09:04:27.000Z</time>
      </trkpt>
      <trkpt lat="43.22346" lon="5.37737">
        <ele>300.06873</ele>
        <time>2013-04-07T09:04:31.000Z</time>
      </trkpt>
      <trkpt lat="43.22344" lon="5.37735">
        <ele>301.51062</ele>
        <time>2013-04-07T09:04:38.000Z</time>
      </trkpt>
      <trkpt lat="43.22342" lon="5.37733">
        <ele>302.9525</ele>
        <time>2013-04-07T09:04:43.000Z</time>
      </trkpt>
      <trkpt lat="43.22341" lon="5.3773">
        <ele>304.39465</ele>
        <time>2013-04-07T09:04:50.000Z</time>
      </trkpt>
      <trkpt lat="43.22343" lon="5.37727">
        <ele>306.31726</ele>
        <time>2013-04-07T09:04:56.000Z</time>
      </trkpt>
      <trkpt lat="43.22342" lon="5.37723">
        <ele>307.27856</ele>
        <time>2013-04-07T09:05:02.000Z</time>
      </trkpt>
      <trkpt lat="43.22339" lon="5.37722">
        <ele>307.75928</ele>
        <time>2013-04-07T09:05:07.000Z</time>
      </trkpt>
      <trkpt lat="43.22339" lon="5.3772">
        <ele>308.72046</ele>
        <time>2013-04-07T09:05:11.000Z</time>
      </trkpt>
      <trkpt lat="43.22338" lon="5.37716">
        <ele>308.72046</ele>
        <time>2013-04-07T09:05:16.000Z</time>
      </trkpt>
      <trkpt lat="43.22341" lon="5.37712">
        <ele>308.72046</ele>
        <time>2013-04-07T09:05:21.000Z</time>
      </trkpt>
      <trkpt lat="43.22343" lon="5.37707">
        <ele>310.16248</ele>
        <time>2013-04-07T09:05:27.000Z</time>
      </trkpt>
      <trkpt lat="43.22342" lon="5.37704">
        <ele>311.6045</ele>
        <time>2013-04-07T09:05:32.000Z</time>
      </trkpt>
      <trkpt lat="43.22346" lon="5.37701">
        <ele>313.52722</ele>
        <time>2013-04-07T09:05:39.000Z</time>
      </trkpt>
      <trkpt lat="43.22347" lon="5.37698">
        <ele>314.0078</ele>
        <time>2013-04-07T09:05:45.000Z</time>
      </trkpt>
      <trkpt lat="43.22349" lon="5.37695">
        <ele>314.96912</ele>
        <time>2013-04-07T09:05:50.000Z</time>
      </trkpt>
      <trkpt lat="43.22351" lon="5.37693">
        <ele>316.411</ele>
        <time>2013-04-07T09:05:54.000Z</time>
      </trkpt>
      <trkpt lat="43.22352" lon="5.37688">
        <ele>316.89172</ele>
        <time>2013-04-07T09:05:59.000Z</time>
      </trkpt>
      <trkpt lat="43.22354" lon="5.37684">
        <ele>317.37244</ele>
        <time>2013-04-07T09:06:03.000Z</time>
      </trkpt>
      <trkpt lat="43.22356" lon="5.37681">
        <ele>317.37244</ele>
        <time>2013-04-07T09:06:07.000Z</time>
      </trkpt>
      <trkpt lat="43.22357" lon="5.37683">
        <ele>318.33362</ele>
        <time>2013-04-07T09:06:11.000Z</time>
      </trkpt>
      <trkpt lat="43.22359" lon="5.37682">
        <ele>319.29504</ele>
        <time>2013-04-07T09:06:16.000Z</time>
      </trkpt>
      <trkpt lat="43.22362" lon="5.37676">
        <ele>321.69836</ele>
        <time>2013-04-07T09:06:22.000Z</time>
      </trkpt>
      <trkpt lat="43.22364" lon="5.3767">
        <ele>323.14038</ele>
        <time>2013-04-07T09:06:28.000Z</time>
      </trkpt>
      <trkpt lat="43.22365" lon="5.37668">
        <ele>324.58228</ele>
        <time>2013-04-07T09:06:32.000Z</time>
      </trkpt>
      <trkpt lat="43.22365" lon="5.37664">
        <ele>325.063</ele>
        <time>2013-04-07T09:06:35.000Z</time>
      </trkpt>
      <trkpt lat="43.22368" lon="5.37659">
        <ele>326.02417</ele>
        <time>2013-04-07T09:06:41.000Z</time>
      </trkpt>
      <trkpt lat="43.22374" lon="5.37655">
        <ele>326.50488</ele>
        <time>2013-04-07T09:06:47.000Z</time>
      </trkpt>
      <trkpt lat="43.22377" lon="5.3765">
        <ele>328.90833</ele>
        <time>2013-04-07T09:06:53.000Z</time>
      </trkpt>
      <trkpt lat="43.22382" lon="5.37646">
        <ele>330.83093</ele>
        <time>2013-04-07T09:07:00.000Z</time>
      </trkpt>
      <trkpt lat="43.22386" lon="5.37639">
        <ele>333.23413</ele>
        <time>2013-04-07T09:07:07.000Z</time>
      </trkpt>
      <trkpt lat="43.2239" lon="5.37639">
        <ele>335.15674</ele>
        <time>2013-04-07T09:07:12.000Z</time>
      </trkpt>
      <trkpt lat="43.22392" lon="5.37636">
        <ele>336.59888</ele>
        <time>2013-04-07T09:07:17.000Z</time>
      </trkpt>
      <trkpt lat="43.22396" lon="5.37633">
        <ele>338.04077</ele>
        <time>2013-04-07T09:07:22.000Z</time>
      </trkpt>
      <trkpt lat="43.22399" lon="5.37631">
        <ele>339.48267</ele>
        <time>2013-04-07T09:07:28.000Z</time>
      </trkpt>
      <trkpt lat="43.224" lon="5.37628">
        <ele>340.92468</ele>
        <time>2013-04-07T09:07:33.000Z</time>
      </trkpt>
      <trkpt lat="43.22402" lon="5.37625">
        <ele>342.8473</ele>
        <time>2013-04-07T09:07:38.000Z</time>
      </trkpt>
      <trkpt lat="43.22402" lon="5.37622">
        <ele>344.77002</ele>
        <time>2013-04-07T09:07:43.000Z</time>
      </trkpt>
      <trkpt lat="43.22403" lon="5.37614">
        <ele>345.2506</ele>
        <time>2013-04-07T09:07:49.000Z</time>
      </trkpt>
      <trkpt lat="43.22406" lon="5.37611">
        <ele>346.21204</ele>
        <time>2013-04-07T09:07:54.000Z</time>
      </trkpt>
      <trkpt lat="43.22408" lon="5.3761">
        <ele>347.17322</ele>
        <time>2013-04-07T09:07:58.000Z</time>
      </trkpt>
      <trkpt lat="43.2241" lon="5.37608">
        <ele>349.09583</ele>
        <time>2013-04-07T09:08:03.000Z</time>
      </trkpt>
      <trkpt lat="43.22413" lon="5.37602">
        <ele>351.01843</ele>
        <time>2013-04-07T09:08:09.000Z</time>
      </trkpt>
      <trkpt lat="43.22415" lon="5.37594">
        <ele>351.49915</ele>
        <time>2013-04-07T09:08:15.000Z</time>
      </trkpt>
      <trkpt lat="43.22416" lon="5.37589">
        <ele>351.49915</ele>
        <time>2013-04-07T09:08:18.000Z</time>
      </trkpt>
      <trkpt lat="43.22419" lon="5.3758">
        <ele>351.97986</ele>
        <time>2013-04-07T09:08:25.000Z</time>
      </trkpt>
      <trkpt lat="43.2242" lon="5.37576">
        <ele>351.49915</ele>
        <time>2013-04-07T09:08:27.000Z</time>
      </trkpt>
      <trkpt lat="43.22423" lon="5.37569">
        <ele>349.57654</ele>
        <time>2013-04-07T09:08:31.000Z</time>
      </trkpt>
      <trkpt lat="43.22427" lon="5.37563">
        <ele>347.17322</ele>
        <time>2013-04-07T09:08:35.000Z</time>
      </trkpt>
      <trkpt lat="43.22429" lon="5.37555">
        <ele>347.17322</ele>
        <time>2013-04-07T09:08:41.000Z</time>
      </trkpt>
      <trkpt lat="43.22432" lon="5.37551">
        <ele>347.17322</ele>
        <time>2013-04-07T09:08:43.000Z</time>
      </trkpt>
      <trkpt lat="43.22435" lon="5.37543">
        <ele>348.13464</ele>
        <time>2013-04-07T09:08:47.000Z</time>
      </trkpt>
      <trkpt lat="43.22444" lon="5.37537">
        <ele>349.09583</ele>
        <time>2013-04-07T09:08:54.000Z</time>
      </trkpt>
      <trkpt lat="43.22445" lon="5.37536">
        <ele>349.57654</ele>
        <time>2013-04-07T09:08:55.000Z</time>
      </trkpt>
      <trkpt lat="43.22446" lon="5.37532">
        <ele>352.46057</ele>
        <time>2013-04-07T09:08:59.000Z</time>
      </trkpt>
      <trkpt lat="43.22445" lon="5.37525">
        <ele>352.46057</ele>
        <time>2013-04-07T09:09:03.000Z</time>
      </trkpt>
      <trkpt lat="43.2245" lon="5.37517">
        <ele>354.86377</ele>
        <time>2013-04-07T09:09:10.000Z</time>
      </trkpt>
      <trkpt lat="43.22452" lon="5.37513">
        <ele>355.34448</ele>
        <time>2013-04-07T09:09:13.000Z</time>
      </trkpt>
      <trkpt lat="43.22454" lon="5.37508">
        <ele>356.78638</ele>
        <time>2013-04-07T09:09:16.000Z</time>
      </trkpt>
      <trkpt lat="43.22459" lon="5.37505">
        <ele>358.2284</ele>
        <time>2013-04-07T09:09:21.000Z</time>
      </trkpt>
      <trkpt lat="43.22459" lon="5.375">
        <ele>360.15112</ele>
        <time>2013-04-07T09:09:26.000Z</time>
      </trkpt>
      <trkpt lat="43.22461" lon="5.37496">
        <ele>362.07373</ele>
        <time>2013-04-07T09:09:30.000Z</time>
      </trkpt>
      <trkpt lat="43.22463" lon="5.3749">
        <ele>363.99634</ele>
        <time>2013-04-07T09:09:36.000Z</time>
      </trkpt>
      <trkpt lat="43.22463" lon="5.37487">
        <ele>364.47693</ele>
        <time>2013-04-07T09:09:38.000Z</time>
      </trkpt>
      <trkpt lat="43.22466" lon="5.37479">
        <ele>367.36096</ele>
        <time>2013-04-07T09:09:46.000Z</time>
      </trkpt>
      <trkpt lat="43.22468" lon="5.37472">
        <ele>369.2837</ele>
        <time>2013-04-07T09:09:52.000Z</time>
      </trkpt>
      <trkpt lat="43.22468" lon="5.37465">
        <ele>371.6869</ele>
        <time>2013-04-07T09:09:58.000Z</time>
      </trkpt>
      <trkpt lat="43.22468" lon="5.37455">
        <ele>371.6869</ele>
        <time>2013-04-07T09:10:02.000Z</time>
      </trkpt>
      <trkpt lat="43.22467" lon="5.37447">
        <ele>369.76428</ele>
        <time>2013-04-07T09:10:04.000Z</time>
      </trkpt>
      <trkpt lat="43.22462" lon="5.37429">
        <ele>368.32227</ele>
        <time>2013-04-07T09:10:11.000Z</time>
      </trkpt>
      <trkpt lat="43.22457" lon="5.37415">
        <ele>369.2837</ele>
        <time>2013-04-07T09:10:15.000Z</time>
      </trkpt>
      <trkpt lat="43.22456" lon="5.37412">
        <ele>369.2837</ele>
        <time>2013-04-07T09:10:16.000Z</time>
      </trkpt>
      <trkpt lat="43.22454" lon="5.37389">
        <ele>364.95764</ele>
        <time>2013-04-07T09:10:22.000Z</time>
      </trkpt>
      <trkpt lat="43.22453" lon="5.37383">
        <ele>362.07373</ele>
        <time>2013-04-07T09:10:24.000Z</time>
      </trkpt>
      <trkpt lat="43.2245" lon="5.37379">
        <ele>362.55432</ele>
        <time>2013-04-07T09:10:28.000Z</time>
      </trkpt>
      <trkpt lat="43.22448" lon="5.37376">
        <ele>362.07373</ele>
        <time>2013-04-07T09:10:31.000Z</time>
      </trkpt>
      <trkpt lat="43.22448" lon="5.37371">
        <ele>367.36096</ele>
        <time>2013-04-07T09:10:35.000Z</time>
      </trkpt>
      <trkpt lat="43.22449" lon="5.37364">
        <ele>377.93542</ele>
        <time>2013-04-07T09:10:41.000Z</time>
      </trkpt>
      <trkpt lat="43.22449" lon="5.37361">
        <ele>379.37744</ele>
        <time>2013-04-07T09:10:45.000Z</time>
      </trkpt>
      <trkpt lat="43.22449" lon="5.37356">
        <ele>378.41614</ele>
        <time>2013-04-07T09:10:50.000Z</time>
      </trkpt>
      <trkpt lat="43.22448" lon="5.37355">
        <ele>380.33875</ele>
        <time>2013-04-07T09:10:54.000Z</time>
      </trkpt>
      <trkpt lat="43.22447" lon="5.37352">
        <ele>380.33875</ele>
        <time>2013-04-07T09:10:58.000Z</time>
      </trkpt>
      <trkpt lat="43.22449" lon="5.37349">
        <ele>381.30005</ele>
        <time>2013-04-07T09:11:01.000Z</time>
      </trkpt>
      <trkpt lat="43.2245" lon="5.37338">
        <ele>381.78064</ele>
        <time>2013-04-07T09:11:07.000Z</time>
      </trkpt>
      <trkpt lat="43.22451" lon="5.37336">
        <ele>382.26135</ele>
        <time>2013-04-07T09:11:08.000Z</time>
      </trkpt>
      <trkpt lat="43.22459" lon="5.37325">
        <ele>378.89685</ele>
        <time>2013-04-07T09:11:16.000Z</time>
      </trkpt>
      <trkpt lat="43.22458" lon="5.37323">
        <ele>379.85803</ele>
        <time>2013-04-07T09:11:18.000Z</time>
      </trkpt>
      <trkpt lat="43.22454" lon="5.37314">
        <ele>382.26135</ele>
        <time>2013-04-07T09:11:24.000Z</time>
      </trkpt>
      <trkpt lat="43.22453" lon="5.37311">
        <ele>383.70325</ele>
        <time>2013-04-07T09:11:29.000Z</time>
      </trkpt>
      <trkpt lat="43.22454" lon="5.37304">
        <ele>383.22266</ele>
        <time>2013-04-07T09:11:35.000Z</time>
      </trkpt>
      <trkpt lat="43.22452" lon="5.37301">
        <ele>385.1454</ele>
        <time>2013-04-07T09:11:40.000Z</time>
      </trkpt>
      <trkpt lat="43.22451" lon="5.37299">
        <ele>387.068</ele>
        <time>2013-04-07T09:11:45.000Z</time>
      </trkpt>
      <trkpt lat="43.22449" lon="5.373">
        <ele>388.9906</ele>
        <time>2013-04-07T09:11:51.000Z</time>
      </trkpt>
      <trkpt lat="43.22448" lon="5.37299">
        <ele>389.9519</ele>
        <time>2013-04-07T09:11:58.000Z</time>
      </trkpt>
      <trkpt lat="43.22448" lon="5.37296">
        <ele>390.43262</ele>
        <time>2013-04-07T09:12:03.000Z</time>
      </trkpt>
      <trkpt lat="43.22448" lon="5.37294">
        <ele>390.43262</ele>
        <time>2013-04-07T09:12:10.000Z</time>
      </trkpt>
      <trkpt lat="43.22448" lon="5.37292">
        <ele>391.8745</ele>
        <time>2013-04-07T09:12:16.000Z</time>
      </trkpt>
      <trkpt lat="43.22451" lon="5.37289">
        <ele>391.3938</ele>
        <time>2013-04-07T09:12:20.000Z</time>
      </trkpt>
      <trkpt lat="43.22448" lon="5.37283">
        <ele>394.27795</ele>
        <time>2013-04-07T09:12:26.000Z</time>
      </trkpt>
      <trkpt lat="43.22446" lon="5.37284">
        <ele>396.20056</ele>
        <time>2013-04-07T09:12:30.000Z</time>
      </trkpt>
      <trkpt lat="43.22442" lon="5.37282">
        <ele>398.60376</ele>
        <time>2013-04-07T09:12:35.000Z</time>
      </trkpt>
      <trkpt lat="43.22439" lon="5.37282">
        <ele>399.56506</ele>
        <time>2013-04-07T09:12:40.000Z</time>
      </trkpt>
      <trkpt lat="43.22437" lon="5.37283">
        <ele>401.9685</ele>
        <time>2013-04-07T09:12:45.000Z</time>
      </trkpt>
      <trkpt lat="43.22435" lon="5.37287">
        <ele>401.9685</ele>
        <time>2013-04-07T09:12:50.000Z</time>
      </trkpt>
      <trkpt lat="43.22433" lon="5.37285">
        <ele>403.4104</ele>
        <time>2013-04-07T09:12:54.000Z</time>
      </trkpt>
      <trkpt lat="43.22428" lon="5.37282">
        <ele>405.333</ele>
        <time>2013-04-07T09:13:02.000Z</time>
      </trkpt>
      <trkpt lat="43.22428" lon="5.37286">
        <ele>407.2556</ele>
        <time>2013-04-07T09:13:07.000Z</time>
      </trkpt>
      <trkpt lat="43.22425" lon="5.3729">
        <ele>407.2556</ele>
        <time>2013-04-07T09:13:13.000Z</time>
      </trkpt>
      <trkpt lat="43.22423" lon="5.37292">
        <ele>409.17834</ele>
        <time>2013-04-07T09:13:19.000Z</time>
      </trkpt>
      <trkpt lat="43.22421" lon="5.373">
        <ele>411.58167</ele>
        <time>2013-04-07T09:13:26.000Z</time>
      </trkpt>
      <trkpt lat="43.22419" lon="5.37298">
        <ele>413.02356</ele>
        <time>2013-04-07T09:13:31.000Z</time>
      </trkpt>
      <trkpt lat="43.22417" lon="5.37303">
        <ele>414.94617</ele>
        <time>2013-04-07T09:13:37.000Z</time>
      </trkpt>
      <trkpt lat="43.22414" lon="5.37305">
        <ele>415.42688</ele>
        <time>2013-04-07T09:13:42.000Z</time>
      </trkpt>
      <trkpt lat="43.22412" lon="5.37303">
        <ele>416.8689</ele>
        <time>2013-04-07T09:13:48.000Z</time>
      </trkpt>
      <trkpt lat="43.22408" lon="5.373">
        <ele>417.8302</ele>
        <time>2013-04-07T09:13:53.000Z</time>
      </trkpt>
      <trkpt lat="43.22406" lon="5.37297">
        <ele>420.7141</ele>
        <time>2013-04-07T09:13:58.000Z</time>
      </trkpt>
      <trkpt lat="43.22403" lon="5.37295">
        <ele>420.7141</ele>
        <time>2013-04-07T09:14:01.000Z</time>
      </trkpt>
      <trkpt lat="43.22397" lon="5.37288">
        <ele>422.156</ele>
        <time>2013-04-07T09:14:06.000Z</time>
      </trkpt>
      <trkpt lat="43.22387" lon="5.37279">
        <ele>422.63672</ele>
        <time>2013-04-07T09:14:13.000Z</time>
      </trkpt>
      <trkpt lat="43.2238" lon="5.37276">
        <ele>422.63672</ele>
        <time>2013-04-07T09:14:17.000Z</time>
      </trkpt>
      <trkpt lat="43.22376" lon="5.37276">
        <ele>422.156</ele>
        <time>2013-04-07T09:14:20.000Z</time>
      </trkpt>
      <trkpt lat="43.22369" lon="5.37271">
        <ele>422.156</ele>
        <time>2013-04-07T09:14:26.000Z</time>
      </trkpt>
      <trkpt lat="43.22365" lon="5.37268">
        <ele>423.59802</ele>
        <time>2013-04-07T09:14:31.000Z</time>
      </trkpt>
      <trkpt lat="43.2236" lon="5.37262">
        <ele>424.07874</ele>
        <time>2013-04-07T09:14:35.000Z</time>
      </trkpt>
      <trkpt lat="43.22359" lon="5.3726">
        <ele>424.55945</ele>
        <time>2013-04-07T09:14:36.000Z</time>
      </trkpt>
      <trkpt lat="43.22353" lon="5.3725">
        <ele>426.00134</ele>
        <time>2013-04-07T09:14:42.000Z</time>
      </trkpt>
      <trkpt lat="43.22349" lon="5.37247">
        <ele>426.96277</ele>
        <time>2013-04-07T09:14:45.000Z</time>
      </trkpt>
      <trkpt lat="43.22346" lon="5.37248">
        <ele>426.48206</ele>
        <time>2013-04-07T09:14:48.000Z</time>
      </trkpt>
      <trkpt lat="43.22343" lon="5.37246">
        <ele>427.92395</ele>
        <time>2013-04-07T09:14:55.000Z</time>
      </trkpt>
      <trkpt lat="43.22343" lon="5.37243">
        <ele>431.28857</ele>
        <time>2013-04-07T09:15:02.000Z</time>
      </trkpt>
      <trkpt lat="43.22341" lon="5.37241">
        <ele>431.28857</ele>
        <time>2013-04-07T09:15:08.000Z</time>
      </trkpt>
      <trkpt lat="43.2234" lon="5.37239">
        <ele>431.76917</ele>
        <time>2013-04-07T09:15:18.000Z</time>
      </trkpt>
      <trkpt lat="43.2234" lon="5.37238">
        <ele>432.25</ele>
        <time>2013-04-07T09:15:24.000Z</time>
      </trkpt>
      <trkpt lat="43.22341" lon="5.37239">
        <ele>431.76917</ele>
        <time>2013-04-07T09:15:38.000Z</time>
      </trkpt>
      <trkpt lat="43.22341" lon="5.37234">
        <ele>431.28857</ele>
        <time>2013-04-07T09:15:46.000Z</time>
      </trkpt>
      <trkpt lat="43.22341" lon="5.37229">
        <ele>431.28857</ele>
        <time>2013-04-07T09:15:49.000Z</time>
      </trkpt>
      <trkpt lat="43.2234" lon="5.3722">
        <ele>433.2113</ele>
        <time>2013-04-07T09:15:56.000Z</time>
      </trkpt>
      <trkpt lat="43.22339" lon="5.3722">
        <ele>433.6919</ele>
        <time>2013-04-07T09:15:57.000Z</time>
      </trkpt>
      <trkpt lat="43.22334" lon="5.37211">
        <ele>435.6145</ele>
        <time>2013-04-07T09:16:04.000Z</time>
      </trkpt>
      <trkpt lat="43.22334" lon="5.37202">
        <ele>436.0952</ele>
        <time>2013-04-07T09:16:07.000Z</time>
      </trkpt>
      <trkpt lat="43.22332" lon="5.37197">
        <ele>437.05652</ele>
        <time>2013-04-07T09:16:10.000Z</time>
      </trkpt>
      <trkpt lat="43.22331" lon="5.37193">
        <ele>437.05652</ele>
        <time>2013-04-07T09:16:13.000Z</time>
      </trkpt>
      <trkpt lat="43.22333" lon="5.3719">
        <ele>438.01782</ele>
        <time>2013-04-07T09:16:19.000Z</time>
      </trkpt>
      <trkpt lat="43.22332" lon="5.37188">
        <ele>436.57593</ele>
        <time>2013-04-07T09:16:33.000Z</time>
      </trkpt>
      <trkpt lat="43.22332" lon="5.37188">
        <ele>436.57593</ele>
        <time>2013-04-07T09:16:43.000Z</time>
      </trkpt>
      <trkpt lat="43.22332" lon="5.37188">
        <ele>435.6145</ele>
        <time>2013-04-07T09:16:54.000Z</time>
      </trkpt>
      <trkpt lat="43.22332" lon="5.3719">
        <ele>434.65332</ele>
        <time>2013-04-07T09:17:00.000Z</time>
      </trkpt>
      <trkpt lat="43.22331" lon="5.37191">
        <ele>433.6919</ele>
        <time>2013-04-07T09:17:06.000Z</time>
      </trkpt>
      <trkpt lat="43.22331" lon="5.37191">
        <ele>433.6919</ele>
        <time>2013-04-07T09:17:12.000Z</time>
      </trkpt>
      <trkpt lat="43.22331" lon="5.3719">
        <ele>434.1726</ele>
        <time>2013-04-07T09:17:22.000Z</time>
      </trkpt>
      <trkpt lat="43.22332" lon="5.37192">
        <ele>433.6919</ele>
        <time>2013-04-07T09:17:27.000Z</time>
      </trkpt>
      <trkpt lat="43.22332" lon="5.37193">
        <ele>433.2113</ele>
        <time>2013-04-07T09:17:39.000Z</time>
      </trkpt>
      <trkpt lat="43.22332" lon="5.37195">
        <ele>434.1726</ele>
        <time>2013-04-07T09:17:45.000Z</time>
      </trkpt>
      <trkpt lat="43.22332" lon="5.37195">
        <ele>434.1726</ele>
        <time>2013-04-07T09:17:53.000Z</time>
      </trkpt>
      <trkpt lat="43.22331" lon="5.37196">
        <ele>433.6919</ele>
        <time>2013-04-07T09:17:58.000Z</time>
      </trkpt>
      <trkpt lat="43.22332" lon="5.37197">
        <ele>433.2113</ele>
        <time>2013-04-07T09:18:13.000Z</time>
      </trkpt>
      <trkpt lat="43.22333" lon="5.37197">
        <ele>431.76917</ele>
        <time>2013-04-07T09:18:23.000Z</time>
      </trkpt>
      <trkpt lat="43.22333" lon="5.37197">
        <ele>433.6919</ele>
        <time>2013-04-07T09:18:33.000Z</time>
      </trkpt>
      <trkpt lat="43.22332" lon="5.37197">
        <ele>434.1726</ele>
        <time>2013-04-07T09:18:49.000Z</time>
      </trkpt>
      <trkpt lat="43.22332" lon="5.37197">
        <ele>433.2113</ele>
        <time>2013-04-07T09:18:58.000Z</time>
      </trkpt>
      <trkpt lat="43.22331" lon="5.37198">
        <ele>432.25</ele>
        <time>2013-04-07T09:19:09.000Z</time>
      </trkpt>
      <trkpt lat="43.22332" lon="5.37197">
        <ele>432.25</ele>
        <time>2013-04-07T09:19:20.000Z</time>
      </trkpt>
      <trkpt lat="43.22334" lon="5.37202">
        <ele>431.76917</ele>
        <time>2013-04-07T09:19:27.000Z</time>
      </trkpt>
      <trkpt lat="43.22336" lon="5.37208">
        <ele>432.7307</ele>
        <time>2013-04-07T09:19:32.000Z</time>
      </trkpt>
      <trkpt lat="43.22337" lon="5.37209">
        <ele>432.7307</ele>
        <time>2013-04-07T09:19:33.000Z</time>
      </trkpt>
      <trkpt lat="43.2234" lon="5.37224">
        <ele>431.76917</ele>
        <time>2013-04-07T09:19:39.000Z</time>
      </trkpt>
      <trkpt lat="43.22342" lon="5.37234">
        <ele>430.80798</ele>
        <time>2013-04-07T09:19:42.000Z</time>
      </trkpt>
      <trkpt lat="43.2234" lon="5.37246">
        <ele>429.84656</ele>
        <time>2013-04-07T09:19:47.000Z</time>
      </trkpt>
      <trkpt lat="43.22342" lon="5.37249">
        <ele>428.88538</ele>
        <time>2013-04-07T09:19:52.000Z</time>
      </trkpt>
      <trkpt lat="43.22341" lon="5.37251">
        <ele>426.48206</ele>
        <time>2013-04-07T09:19:57.000Z</time>
      </trkpt>
      <trkpt lat="43.22352" lon="5.37254">
        <ele>424.55945</ele>
        <time>2013-04-07T09:20:02.000Z</time>
      </trkpt>
      <trkpt lat="43.22364" lon="5.3727">
        <ele>421.6754</ele>
        <time>2013-04-07T09:20:09.000Z</time>
      </trkpt>
      <trkpt lat="43.22373" lon="5.37279">
        <ele>420.2334</ele>
        <time>2013-04-07T09:20:14.000Z</time>
      </trkpt>
      <trkpt lat="43.22376" lon="5.37281">
        <ele>419.7528</ele>
        <time>2013-04-07T09:20:15.000Z</time>
      </trkpt>
      <trkpt lat="43.22385" lon="5.37281">
        <ele>417.3496</ele>
        <time>2013-04-07T09:20:20.000Z</time>
      </trkpt>
      <trkpt lat="43.22397" lon="5.37282">
        <ele>416.38818</ele>
        <time>2013-04-07T09:20:25.000Z</time>
      </trkpt>
      <trkpt lat="43.22405" lon="5.37288">
        <ele>416.38818</ele>
        <time>2013-04-07T09:20:29.000Z</time>
      </trkpt>
      <trkpt lat="43.22411" lon="5.37296">
        <ele>416.38818</ele>
        <time>2013-04-07T09:20:33.000Z</time>
      </trkpt>
      <trkpt lat="43.22412" lon="5.37302">
        <ele>415.42688</ele>
        <time>2013-04-07T09:20:38.000Z</time>
      </trkpt>
      <trkpt lat="43.22415" lon="5.37304">
        <ele>414.46545</ele>
        <time>2013-04-07T09:20:42.000Z</time>
      </trkpt>
      <trkpt lat="43.22417" lon="5.37298">
        <ele>412.54285</ele>
        <time>2013-04-07T09:20:46.000Z</time>
      </trkpt>
      <trkpt lat="43.22419" lon="5.37298">
        <ele>410.62024</ele>
        <time>2013-04-07T09:20:49.000Z</time>
      </trkpt>
      <trkpt lat="43.22421" lon="5.37293">
        <ele>408.21704</ele>
        <time>2013-04-07T09:20:53.000Z</time>
      </trkpt>
      <trkpt lat="43.22421" lon="5.3729">
        <ele>407.73633</ele>
        <time>2013-04-07T09:20:54.000Z</time>
      </trkpt>
      <trkpt lat="43.22427" lon="5.3729">
        <ele>406.2943</ele>
        <time>2013-04-07T09:20:59.000Z</time>
      </trkpt>
      <trkpt lat="43.22429" lon="5.37284">
        <ele>404.8523</ele>
        <time>2013-04-07T09:21:03.000Z</time>
      </trkpt>
      <trkpt lat="43.2243" lon="5.37282">
        <ele>402.4491</ele>
        <time>2013-04-07T09:21:06.000Z</time>
      </trkpt>
      <trkpt lat="43.22434" lon="5.37287">
        <ele>400.0459</ele>
        <time>2013-04-07T09:21:09.000Z</time>
      </trkpt>
      <trkpt lat="43.22435" lon="5.37288">
        <ele>398.60376</ele>
        <time>2013-04-07T09:21:10.000Z</time>
      </trkpt>
      <trkpt lat="43.22439" lon="5.37282">
        <ele>394.75854</ele>
        <time>2013-04-07T09:21:16.000Z</time>
      </trkpt>
      <trkpt lat="43.22444" lon="5.37283">
        <ele>393.31653</ele>
        <time>2013-04-07T09:21:21.000Z</time>
      </trkpt>
      <trkpt lat="43.22447" lon="5.37283">
        <ele>392.35535</ele>
        <time>2013-04-07T09:21:26.000Z</time>
      </trkpt>
      <trkpt lat="43.2245" lon="5.37286">
        <ele>391.3938</ele>
        <time>2013-04-07T09:21:29.000Z</time>
      </trkpt>
      <trkpt lat="43.22448" lon="5.37293">
        <ele>388.51</ele>
        <time>2013-04-07T09:21:35.000Z</time>
      </trkpt>
      <trkpt lat="43.22447" lon="5.37296">
        <ele>386.1067</ele>
        <time>2013-04-07T09:21:40.000Z</time>
      </trkpt>
      <trkpt lat="43.22447" lon="5.373">
        <ele>384.18408</ele>
        <time>2013-04-07T09:21:45.000Z</time>
      </trkpt>
      <trkpt lat="43.22447" lon="5.37307">
        <ele>382.26135</ele>
        <time>2013-04-07T09:21:50.000Z</time>
      </trkpt>
      <trkpt lat="43.22447" lon="5.37312">
        <ele>380.81946</ele>
        <time>2013-04-07T09:21:54.000Z</time>
      </trkpt>
      <trkpt lat="43.22449" lon="5.37316">
        <ele>379.85803</ele>
        <time>2013-04-07T09:21:58.000Z</time>
      </trkpt>
      <trkpt lat="43.22451" lon="5.37315">
        <ele>378.41614</ele>
        <time>2013-04-07T09:22:02.000Z</time>
      </trkpt>
      <trkpt lat="43.22453" lon="5.37321">
        <ele>376.49353</ele>
        <time>2013-04-07T09:22:06.000Z</time>
      </trkpt>
      <trkpt lat="43.22456" lon="5.3733">
        <ele>374.5708</ele>
        <time>2013-04-07T09:22:11.000Z</time>
      </trkpt>
      <trkpt lat="43.22452" lon="5.37333">
        <ele>372.6482</ele>
        <time>2013-04-07T09:22:14.000Z</time>
      </trkpt>
      <trkpt lat="43.22451" lon="5.37337">
        <ele>371.2063</ele>
        <time>2013-04-07T09:22:18.000Z</time>
      </trkpt>
      <trkpt lat="43.22454" lon="5.3734">
        <ele>368.80298</ele>
        <time>2013-04-07T09:22:23.000Z</time>
      </trkpt>
      <trkpt lat="43.22457" lon="5.37343">
        <ele>368.80298</ele>
        <time>2013-04-07T09:22:29.000Z</time>
      </trkpt>
      <trkpt lat="43.2246" lon="5.37347">
        <ele>367.84155</ele>
        <time>2013-04-07T09:22:34.000Z</time>
      </trkpt>
      <trkpt lat="43.22465" lon="5.37346">
        <ele>365.91895</ele>
        <time>2013-04-07T09:22:38.000Z</time>
      </trkpt>
      <trkpt lat="43.22474" lon="5.37338">
        <ele>362.07373</ele>
        <time>2013-04-07T09:22:43.000Z</time>
      </trkpt>
      <trkpt lat="43.22479" lon="5.3734">
        <ele>359.1897</ele>
        <time>2013-04-07T09:22:47.000Z</time>
      </trkpt>
      <trkpt lat="43.22484" lon="5.37352">
        <ele>355.8252</ele>
        <time>2013-04-07T09:22:51.000Z</time>
      </trkpt>
      <trkpt lat="43.22488" lon="5.37366">
        <ele>352.46057</ele>
        <time>2013-04-07T09:22:55.000Z</time>
      </trkpt>
      <trkpt lat="43.22492" lon="5.37377">
        <ele>348.61523</ele>
        <time>2013-04-07T09:22:59.000Z</time>
      </trkpt>
      <trkpt lat="43.22493" lon="5.37387">
        <ele>346.69263</ele>
        <time>2013-04-07T09:23:03.000Z</time>
      </trkpt>
      <trkpt lat="43.22495" lon="5.37391">
        <ele>344.28943</ele>
        <time>2013-04-07T09:23:07.000Z</time>
      </trkpt>
      <trkpt lat="43.22499" lon="5.37389">
        <ele>342.3667</ele>
        <time>2013-04-07T09:23:10.000Z</time>
      </trkpt>
      <trkpt lat="43.22502" lon="5.37395">
        <ele>340.4441</ele>
        <time>2013-04-07T09:23:16.000Z</time>
      </trkpt>
      <trkpt lat="43.22506" lon="5.37396">
        <ele>339.48267</ele>
        <time>2013-04-07T09:23:20.000Z</time>
      </trkpt>
      <trkpt lat="43.22508" lon="5.3739">
        <ele>336.59888</ele>
        <time>2013-04-07T09:23:25.000Z</time>
      </trkpt>
      <trkpt lat="43.2251" lon="5.37387">
        <ele>333.71472</ele>
        <time>2013-04-07T09:23:29.000Z</time>
      </trkpt>
      <trkpt lat="43.22512" lon="5.37388">
        <ele>331.31152</ele>
        <time>2013-04-07T09:23:34.000Z</time>
      </trkpt>
      <trkpt lat="43.22517" lon="5.37389">
        <ele>327.4662</ele>
        <time>2013-04-07T09:23:44.000Z</time>
      </trkpt>
      <trkpt lat="43.22519" lon="5.37394">
        <ele>327.4662</ele>
        <time>2013-04-07T09:23:47.000Z</time>
      </trkpt>
      <trkpt lat="43.2252" lon="5.37401">
        <ele>326.50488</ele>
        <time>2013-04-07T09:23:52.000Z</time>
      </trkpt>
      <trkpt lat="43.22525" lon="5.37402">
        <ele>326.02417</ele>
        <time>2013-04-07T09:23:56.000Z</time>
      </trkpt>
      <trkpt lat="43.22527" lon="5.37399">
        <ele>324.10156</ele>
        <time>2013-04-07T09:23:59.000Z</time>
      </trkpt>
      <trkpt lat="43.2253" lon="5.37394">
        <ele>321.21777</ele>
        <time>2013-04-07T09:24:04.000Z</time>
      </trkpt>
      <trkpt lat="43.22536" lon="5.37388">
        <ele>318.33362</ele>
        <time>2013-04-07T09:24:09.000Z</time>
      </trkpt>
      <trkpt lat="43.22544" lon="5.37384">
        <ele>316.89172</ele>
        <time>2013-04-07T09:24:13.000Z</time>
      </trkpt>
      <trkpt lat="43.22546" lon="5.37388">
        <ele>312.5658</ele>
        <time>2013-04-07T09:24:18.000Z</time>
      </trkpt>
      <trkpt lat="43.22549" lon="5.37393">
        <ele>310.64307</ele>
        <time>2013-04-07T09:24:24.000Z</time>
      </trkpt>
      <trkpt lat="43.22549" lon="5.374">
        <ele>308.23987</ele>
        <time>2013-04-07T09:24:28.000Z</time>
      </trkpt>
      <trkpt lat="43.22551" lon="5.37404">
        <ele>306.79785</ele>
        <time>2013-04-07T09:24:30.000Z</time>
      </trkpt>
      <trkpt lat="43.22551" lon="5.37408">
        <ele>304.87524</ele>
        <time>2013-04-07T09:24:33.000Z</time>
      </trkpt>
      <trkpt lat="43.22553" lon="5.3741">
        <ele>303.43323</ele>
        <time>2013-04-07T09:24:36.000Z</time>
      </trkpt>
      <trkpt lat="43.22557" lon="5.37418">
        <ele>300.54932</ele>
        <time>2013-04-07T09:24:42.000Z</time>
      </trkpt>
      <trkpt lat="43.22562" lon="5.37432">
        <ele>297.1847</ele>
        <time>2013-04-07T09:24:47.000Z</time>
      </trkpt>
      <trkpt lat="43.22565" lon="5.37444">
        <ele>294.78137</ele>
        <time>2013-04-07T09:24:51.000Z</time>
      </trkpt>
      <trkpt lat="43.22566" lon="5.37447">
        <ele>293.82007</ele>
        <time>2013-04-07T09:24:53.000Z</time>
      </trkpt>
      <trkpt lat="43.22562" lon="5.37455">
        <ele>294.78137</ele>
        <time>2013-04-07T09:24:58.000Z</time>
      </trkpt>
      <trkpt lat="43.22556" lon="5.37464">
        <ele>295.74268</ele>
        <time>2013-04-07T09:25:03.000Z</time>
      </trkpt>
      <trkpt lat="43.22547" lon="5.37473">
        <ele>296.2235</ele>
        <time>2013-04-07T09:25:08.000Z</time>
      </trkpt>
      <trkpt lat="43.22541" lon="5.37477">
        <ele>296.2235</ele>
        <time>2013-04-07T09:25:12.000Z</time>
      </trkpt>
      <trkpt lat="43.22539" lon="5.37484">
        <ele>296.2235</ele>
        <time>2013-04-07T09:25:15.000Z</time>
      </trkpt>
      <trkpt lat="43.22533" lon="5.375">
        <ele>296.7041</ele>
        <time>2013-04-07T09:25:22.000Z</time>
      </trkpt>
      <trkpt lat="43.22532" lon="5.37502">
        <ele>296.2235</ele>
        <time>2013-04-07T09:25:23.000Z</time>
      </trkpt>
      <trkpt lat="43.22526" lon="5.37513">
        <ele>294.78137</ele>
        <time>2013-04-07T09:25:29.000Z</time>
      </trkpt>
      <trkpt lat="43.22521" lon="5.37519">
        <ele>292.85876</ele>
        <time>2013-04-07T09:25:34.000Z</time>
      </trkpt>
      <trkpt lat="43.22519" lon="5.37521">
        <ele>291.41675</ele>
        <time>2013-04-07T09:25:36.000Z</time>
      </trkpt>
      <trkpt lat="43.22513" lon="5.37528">
        <ele>289.01355</ele>
        <time>2013-04-07T09:25:40.000Z</time>
      </trkpt>
      <trkpt lat="43.22507" lon="5.3754">
        <ele>286.61023</ele>
        <time>2013-04-07T09:25:45.000Z</time>
      </trkpt>
      <trkpt lat="43.22504" lon="5.37544">
        <ele>286.12952</ele>
        <time>2013-04-07T09:25:47.000Z</time>
      </trkpt>
      <trkpt lat="43.22496" lon="5.37558">
        <ele>285.6488</ele>
        <time>2013-04-07T09:25:53.000Z</time>
      </trkpt>
      <trkpt lat="43.22496" lon="5.37565">
        <ele>286.12952</ele>
        <time>2013-04-07T09:25:58.000Z</time>
      </trkpt>
      <trkpt lat="43.22493" lon="5.37571">
        <ele>286.61023</ele>
        <time>2013-04-07T09:26:03.000Z</time>
      </trkpt>
      <trkpt lat="43.22492" lon="5.37572">
        <ele>286.61023</ele>
        <time>2013-04-07T09:26:04.000Z</time>
      </trkpt>
      <trkpt lat="43.22487" lon="5.37579">
        <ele>283.7262</ele>
        <time>2013-04-07T09:26:11.000Z</time>
      </trkpt>
      <trkpt lat="43.22485" lon="5.37582">
        <ele>283.7262</ele>
        <time>2013-04-07T09:26:13.000Z</time>
      </trkpt>
      <trkpt lat="43.22478" lon="5.37592">
        <ele>282.2843</ele>
        <time>2013-04-07T09:26:19.000Z</time>
      </trkpt>
      <trkpt lat="43.22481" lon="5.37608">
        <ele>285.6488</ele>
        <time>2013-04-07T09:26:25.000Z</time>
      </trkpt>
      <trkpt lat="43.22479" lon="5.37616">
        <ele>286.12952</ele>
        <time>2013-04-07T09:26:29.000Z</time>
      </trkpt>
      <trkpt lat="43.22479" lon="5.3762">
        <ele>286.61023</ele>
        <time>2013-04-07T09:26:33.000Z</time>
      </trkpt>
      <trkpt lat="43.22473" lon="5.37632">
        <ele>287.5714</ele>
        <time>2013-04-07T09:26:38.000Z</time>
      </trkpt>
      <trkpt lat="43.22474" lon="5.37641">
        <ele>289.01355</ele>
        <time>2013-04-07T09:26:42.000Z</time>
      </trkpt>
      <trkpt lat="43.22473" lon="5.37644">
        <ele>289.97485</ele>
        <time>2013-04-07T09:26:44.000Z</time>
      </trkpt>
      <trkpt lat="43.22465" lon="5.37657">
        <ele>289.97485</ele>
        <time>2013-04-07T09:26:50.000Z</time>
      </trkpt>
      <trkpt lat="43.2246" lon="5.37663">
        <ele>290.93616</ele>
        <time>2013-04-07T09:26:53.000Z</time>
      </trkpt>
      <trkpt lat="43.22459" lon="5.37674">
        <ele>293.33936</ele>
        <time>2013-04-07T09:26:59.000Z</time>
      </trkpt>
      <trkpt lat="43.22454" lon="5.37686">
        <ele>292.37817</ele>
        <time>2013-04-07T09:27:04.000Z</time>
      </trkpt>
      <trkpt lat="43.22449" lon="5.37699">
        <ele>290.93616</ele>
        <time>2013-04-07T09:27:09.000Z</time>
      </trkpt>
      <trkpt lat="43.22443" lon="5.37715">
        <ele>288.53296</ele>
        <time>2013-04-07T09:27:14.000Z</time>
      </trkpt>
      <trkpt lat="43.22438" lon="5.37721">
        <ele>289.01355</ele>
        <time>2013-04-07T09:27:17.000Z</time>
      </trkpt>
      <trkpt lat="43.22437" lon="5.3773">
        <ele>289.49414</ele>
        <time>2013-04-07T09:27:21.000Z</time>
      </trkpt>
      <trkpt lat="43.22438" lon="5.37733">
        <ele>289.97485</ele>
        <time>2013-04-07T09:27:24.000Z</time>
      </trkpt>
      <trkpt lat="43.22437" lon="5.37741">
        <ele>289.49414</ele>
        <time>2013-04-07T09:27:32.000Z</time>
      </trkpt>
      <trkpt lat="43.22434" lon="5.37745">
        <ele>287.09082</ele>
        <time>2013-04-07T09:27:36.000Z</time>
      </trkpt>
      <trkpt lat="43.22431" lon="5.37749">
        <ele>284.68762</ele>
        <time>2013-04-07T09:27:42.000Z</time>
      </trkpt>
      <trkpt lat="43.22432" lon="5.37752">
        <ele>284.2069</ele>
        <time>2013-04-07T09:27:47.000Z</time>
      </trkpt>
      <trkpt lat="43.22435" lon="5.37757">
        <ele>282.765</ele>
        <time>2013-04-07T09:27:52.000Z</time>
      </trkpt>
      <trkpt lat="43.22435" lon="5.37763">
        <ele>281.323</ele>
        <time>2013-04-07T09:27:57.000Z</time>
      </trkpt>
      <trkpt lat="43.22435" lon="5.37772">
        <ele>278.43896</ele>
        <time>2013-04-07T09:28:04.000Z</time>
      </trkpt>
      <trkpt lat="43.22435" lon="5.37777">
        <ele>277.47766</ele>
        <time>2013-04-07T09:28:07.000Z</time>
      </trkpt>
      <trkpt lat="43.22434" lon="5.37783">
        <ele>276.03564</ele>
        <time>2013-04-07T09:28:11.000Z</time>
      </trkpt>
      <trkpt lat="43.22427" lon="5.37785">
        <ele>273.63245</ele>
        <time>2013-04-07T09:28:16.000Z</time>
      </trkpt>
      <trkpt lat="43.22424" lon="5.37784">
        <ele>272.19043</ele>
        <time>2013-04-07T09:28:19.000Z</time>
      </trkpt>
      <trkpt lat="43.22421" lon="5.37783">
        <ele>270.2677</ele>
        <time>2013-04-07T09:28:23.000Z</time>
      </trkpt>
      <trkpt lat="43.22414" lon="5.37781">
        <ele>266.4225</ele>
        <time>2013-04-07T09:28:29.000Z</time>
      </trkpt>
      <trkpt lat="43.22412" lon="5.37778">
        <ele>265.4613</ele>
        <time>2013-04-07T09:28:34.000Z</time>
      </trkpt>
      <trkpt lat="43.22408" lon="5.37776">
        <ele>264.0193</ele>
        <time>2013-04-07T09:28:44.000Z</time>
      </trkpt>
      <trkpt lat="43.22406" lon="5.37776">
        <ele>264.0193</ele>
        <time>2013-04-07T09:28:45.000Z</time>
      </trkpt>
      <trkpt lat="43.224" lon="5.37774">
        <ele>262.09656</ele>
        <time>2013-04-07T09:28:50.000Z</time>
      </trkpt>
      <trkpt lat="43.22399" lon="5.37775">
        <ele>262.09656</ele>
        <time>2013-04-07T09:28:52.000Z</time>
      </trkpt>
      <trkpt lat="43.224" lon="5.3778">
        <ele>261.13525</ele>
        <time>2013-04-07T09:28:56.000Z</time>
      </trkpt>
      <trkpt lat="43.22398" lon="5.37787">
        <ele>260.17395</ele>
        <time>2013-04-07T09:29:01.000Z</time>
      </trkpt>
      <trkpt lat="43.22394" lon="5.37791">
        <ele>257.77075</ele>
        <time>2013-04-07T09:29:06.000Z</time>
      </trkpt>
      <trkpt lat="43.22396" lon="5.37808">
        <ele>254.8866</ele>
        <time>2013-04-07T09:29:13.000Z</time>
      </trkpt>
      <trkpt lat="43.22396" lon="5.3781">
        <ele>253.92542</ele>
        <time>2013-04-07T09:29:14.000Z</time>
      </trkpt>
      <trkpt lat="43.22396" lon="5.37818">
        <ele>253.4447</ele>
        <time>2013-04-07T09:29:18.000Z</time>
      </trkpt>
      <trkpt lat="43.22402" lon="5.37832">
        <ele>248.63818</ele>
        <time>2013-04-07T09:29:24.000Z</time>
      </trkpt>
      <trkpt lat="43.22404" lon="5.3784">
        <ele>246.23486</ele>
        <time>2013-04-07T09:29:28.000Z</time>
      </trkpt>
      <trkpt lat="43.2241" lon="5.37849">
        <ele>243.35083</ele>
        <time>2013-04-07T09:29:32.000Z</time>
      </trkpt>
      <trkpt lat="43.22425" lon="5.37863">
        <ele>236.6217</ele>
        <time>2013-04-07T09:29:38.000Z</time>
      </trkpt>
      <trkpt lat="43.22426" lon="5.37866">
        <ele>235.66028</ele>
        <time>2013-04-07T09:29:39.000Z</time>
      </trkpt>
      <trkpt lat="43.22432" lon="5.37881">
        <ele>232.29578</ele>
        <time>2013-04-07T09:29:43.000Z</time>
      </trkpt>
      <trkpt lat="43.22442" lon="5.37902">
        <ele>229.41174</ele>
        <time>2013-04-07T09:29:49.000Z</time>
      </trkpt>
      <trkpt lat="43.2245" lon="5.37914">
        <ele>226.04712</ele>
        <time>2013-04-07T09:29:53.000Z</time>
      </trkpt>
      <trkpt lat="43.22452" lon="5.37917">
        <ele>225.56653</ele>
        <time>2013-04-07T09:29:54.000Z</time>
      </trkpt>
      <trkpt lat="43.22459" lon="5.37926">
        <ele>220.75989</ele>
        <time>2013-04-07T09:29:58.000Z</time>
      </trkpt>
      <trkpt lat="43.22473" lon="5.37935">
        <ele>218.83728</ele>
        <time>2013-04-07T09:30:03.000Z</time>
      </trkpt>
      <trkpt lat="43.22481" lon="5.37943">
        <ele>222.20178</ele>
        <time>2013-04-07T09:30:06.000Z</time>
      </trkpt>
      <trkpt lat="43.22489" lon="5.3794">
        <ele>221.2406</ele>
        <time>2013-04-07T09:30:10.000Z</time>
      </trkpt>
      <trkpt lat="43.22503" lon="5.37924">
        <ele>222.6825</ele>
        <time>2013-04-07T09:30:16.000Z</time>
      </trkpt>
      <trkpt lat="43.22511" lon="5.37912">
        <ele>225.08594</ele>
        <time>2013-04-07T09:30:21.000Z</time>
      </trkpt>
      <trkpt lat="43.22514" lon="5.37911">
        <ele>225.56653</ele>
        <time>2013-04-07T09:30:23.000Z</time>
      </trkpt>
      <trkpt lat="43.22525" lon="5.37915">
        <ele>225.56653</ele>
        <time>2013-04-07T09:30:30.000Z</time>
      </trkpt>
      <trkpt lat="43.22531" lon="5.3792">
        <ele>226.52783</ele>
        <time>2013-04-07T09:30:35.000Z</time>
      </trkpt>
      <trkpt lat="43.22532" lon="5.37919">
        <ele>228.45044</ele>
        <time>2013-04-07T09:30:36.000Z</time>
      </trkpt>
      <trkpt lat="43.22535" lon="5.37921">
        <ele>229.89233</ele>
        <time>2013-04-07T09:30:39.000Z</time>
      </trkpt>
      <trkpt lat="43.22543" lon="5.37923">
        <ele>231.81494</ele>
        <time>2013-04-07T09:30:45.000Z</time>
      </trkpt>
      <trkpt lat="43.22547" lon="5.37924">
        <ele>232.29578</ele>
        <time>2013-04-07T09:30:48.000Z</time>
      </trkpt>
      <trkpt lat="43.22551" lon="5.37925">
        <ele>232.77649</ele>
        <time>2013-04-07T09:30:51.000Z</time>
      </trkpt>
      <trkpt lat="43.22559" lon="5.37925">
        <ele>236.14099</ele>
        <time>2013-04-07T09:30:57.000Z</time>
      </trkpt>
      <trkpt lat="43.22567" lon="5.37928">
        <ele>237.58289</ele>
        <time>2013-04-07T09:31:02.000Z</time>
      </trkpt>
      <trkpt lat="43.22568" lon="5.37929">
        <ele>237.58289</ele>
        <time>2013-04-07T09:31:03.000Z</time>
      </trkpt>
      <trkpt lat="43.2257" lon="5.3793">
        <ele>238.0636</ele>
        <time>2013-04-07T09:31:06.000Z</time>
      </trkpt>
      <trkpt lat="43.22574" lon="5.37932">
        <ele>238.0636</ele>
        <time>2013-04-07T09:31:11.000Z</time>
      </trkpt>
      <trkpt lat="43.22578" lon="5.37937">
        <ele>241.42822</ele>
        <time>2013-04-07T09:31:16.000Z</time>
      </trkpt>
      <trkpt lat="43.22579" lon="5.37937">
        <ele>241.90894</ele>
        <time>2013-04-07T09:31:17.000Z</time>
      </trkpt>
      <trkpt lat="43.22584" lon="5.37942">
        <ele>242.87024</ele>
        <time>2013-04-07T09:31:22.000Z</time>
      </trkpt>
      <trkpt lat="43.22585" lon="5.37945">
        <ele>243.35083</ele>
        <time>2013-04-07T09:31:24.000Z</time>
      </trkpt>
      <trkpt lat="43.22589" lon="5.37949">
        <ele>244.79285</ele>
        <time>2013-04-07T09:31:28.000Z</time>
      </trkpt>
      <trkpt lat="43.22593" lon="5.37962">
        <ele>246.23486</ele>
        <time>2013-04-07T09:31:33.000Z</time>
      </trkpt>
      <trkpt lat="43.22598" lon="5.37982">
        <ele>245.27344</ele>
        <time>2013-04-07T09:31:40.000Z</time>
      </trkpt>
      <trkpt lat="43.226" lon="5.37988">
        <ele>245.27344</ele>
        <time>2013-04-07T09:31:42.000Z</time>
      </trkpt>
      <trkpt lat="43.22608" lon="5.37992">
        <ele>246.23486</ele>
        <time>2013-04-07T09:31:47.000Z</time>
      </trkpt>
      <trkpt lat="43.2261" lon="5.37992">
        <ele>246.23486</ele>
        <time>2013-04-07T09:31:48.000Z</time>
      </trkpt>
      <trkpt lat="43.22613" lon="5.37992">
        <ele>247.19604</ele>
        <time>2013-04-07T09:31:51.000Z</time>
      </trkpt>
      <trkpt lat="43.22619" lon="5.37994">
        <ele>248.63818</ele>
        <time>2013-04-07T09:31:56.000Z</time>
      </trkpt>
      <trkpt lat="43.2262" lon="5.37996">
        <ele>249.59949</ele>
        <time>2013-04-07T09:31:58.000Z</time>
      </trkpt>
      <trkpt lat="43.22628" lon="5.38005">
        <ele>248.63818</ele>
        <time>2013-04-07T09:32:03.000Z</time>
      </trkpt>
      <trkpt lat="43.22632" lon="5.38021">
        <ele>249.11877</ele>
        <time>2013-04-07T09:32:08.000Z</time>
      </trkpt>
      <trkpt lat="43.22633" lon="5.3803">
        <ele>248.63818</ele>
        <time>2013-04-07T09:32:11.000Z</time>
      </trkpt>
      <trkpt lat="43.22638" lon="5.38045">
        <ele>247.19604</ele>
        <time>2013-04-07T09:32:16.000Z</time>
      </trkpt>
      <trkpt lat="43.22638" lon="5.38053">
        <ele>248.1576</ele>
        <time>2013-04-07T09:32:19.000Z</time>
      </trkpt>
      <trkpt lat="43.22642" lon="5.38069">
        <ele>247.67676</ele>
        <time>2013-04-07T09:32:25.000Z</time>
      </trkpt>
      <trkpt lat="43.22644" lon="5.38079">
        <ele>247.19604</ele>
        <time>2013-04-07T09:32:29.000Z</time>
      </trkpt>
      <trkpt lat="43.2265" lon="5.38096">
        <ele>246.23486</ele>
        <time>2013-04-07T09:32:35.000Z</time>
      </trkpt>
      <trkpt lat="43.22651" lon="5.38105">
        <ele>245.27344</ele>
        <time>2013-04-07T09:32:39.000Z</time>
      </trkpt>
      <trkpt lat="43.22653" lon="5.38113">
        <ele>245.75415</ele>
        <time>2013-04-07T09:32:43.000Z</time>
      </trkpt>
      <trkpt lat="43.22661" lon="5.3813">
        <ele>246.23486</ele>
        <time>2013-04-07T09:32:50.000Z</time>
      </trkpt>
      <trkpt lat="43.22661" lon="5.38132">
        <ele>245.75415</ele>
        <time>2013-04-07T09:32:51.000Z</time>
      </trkpt>
      <trkpt lat="43.22661" lon="5.38136">
        <ele>246.71545</ele>
        <time>2013-04-07T09:32:55.000Z</time>
      </trkpt>
      <trkpt lat="43.22663" lon="5.38142">
        <ele>249.11877</ele>
        <time>2013-04-07T09:32:59.000Z</time>
      </trkpt>
      <trkpt lat="43.22672" lon="5.38155">
        <ele>249.59949</ele>
        <time>2013-04-07T09:33:04.000Z</time>
      </trkpt>
      <trkpt lat="43.2268" lon="5.38165">
        <ele>246.71545</ele>
        <time>2013-04-07T09:33:08.000Z</time>
      </trkpt>
      <trkpt lat="43.22685" lon="5.38171">
        <ele>246.23486</ele>
        <time>2013-04-07T09:33:10.000Z</time>
      </trkpt>
      <trkpt lat="43.22696" lon="5.38183">
        <ele>245.75415</ele>
        <time>2013-04-07T09:33:16.000Z</time>
      </trkpt>
      <trkpt lat="43.22703" lon="5.38192">
        <ele>244.79285</ele>
        <time>2013-04-07T09:33:20.000Z</time>
      </trkpt>
      <trkpt lat="43.22721" lon="5.38197">
        <ele>248.1576</ele>
        <time>2013-04-07T09:33:25.000Z</time>
      </trkpt>
      <trkpt lat="43.22732" lon="5.38197">
        <ele>251.04138</ele>
        <time>2013-04-07T09:33:30.000Z</time>
      </trkpt>
      <trkpt lat="43.22741" lon="5.38196">
        <ele>255.84802</ele>
        <time>2013-04-07T09:33:34.000Z</time>
      </trkpt>
      <trkpt lat="43.2275" lon="5.38193">
        <ele>258.73193</ele>
        <time>2013-04-07T09:33:39.000Z</time>
      </trkpt>
      <trkpt lat="43.22752" lon="5.38192">
        <ele>258.73193</ele>
        <time>2013-04-07T09:33:40.000Z</time>
      </trkpt>
      <trkpt lat="43.2276" lon="5.38193">
        <ele>260.65454</ele>
        <time>2013-04-07T09:33:45.000Z</time>
      </trkpt>
      <trkpt lat="43.22764" lon="5.38191">
        <ele>262.09656</ele>
        <time>2013-04-07T09:33:47.000Z</time>
      </trkpt>
      <trkpt lat="43.22777" lon="5.38185">
        <ele>263.05786</ele>
        <time>2013-04-07T09:33:53.000Z</time>
      </trkpt>
      <trkpt lat="43.22785" lon="5.38182">
        <ele>265.9419</ele>
        <time>2013-04-07T09:33:59.000Z</time>
      </trkpt>
      <trkpt lat="43.22791" lon="5.38182">
        <ele>266.4225</ele>
        <time>2013-04-07T09:34:03.000Z</time>
      </trkpt>
      <trkpt lat="43.22795" lon="5.38182">
        <ele>264.9806</ele>
        <time>2013-04-07T09:34:05.000Z</time>
      </trkpt>
      <trkpt lat="43.22799" lon="5.38181">
        <ele>265.4613</ele>
        <time>2013-04-07T09:34:07.000Z</time>
      </trkpt>
      <trkpt lat="43.22811" lon="5.38184">
        <ele>265.4613</ele>
        <time>2013-04-07T09:34:12.000Z</time>
      </trkpt>
      <trkpt lat="43.22818" lon="5.38187">
        <ele>266.4225</ele>
        <time>2013-04-07T09:34:16.000Z</time>
      </trkpt>
      <trkpt lat="43.2282" lon="5.38192">
        <ele>265.4613</ele>
        <time>2013-04-07T09:34:20.000Z</time>
      </trkpt>
      <trkpt lat="43.22826" lon="5.38196">
        <ele>264.49988</ele>
        <time>2013-04-07T09:34:25.000Z</time>
      </trkpt>
      <trkpt lat="43.22831" lon="5.38205">
        <ele>263.53857</ele>
        <time>2013-04-07T09:34:30.000Z</time>
      </trkpt>
      <trkpt lat="43.22837" lon="5.3821">
        <ele>264.0193</ele>
        <time>2013-04-07T09:34:35.000Z</time>
      </trkpt>
      <trkpt lat="43.2284" lon="5.38214">
        <ele>264.9806</ele>
        <time>2013-04-07T09:34:41.000Z</time>
      </trkpt>
      <trkpt lat="43.22841" lon="5.38215">
        <ele>266.4225</ele>
        <time>2013-04-07T09:34:50.000Z</time>
      </trkpt>
      <trkpt lat="43.22842" lon="5.38215">
        <ele>266.4225</ele>
        <time>2013-04-07T09:34:56.000Z</time>
      </trkpt>
      <trkpt lat="43.22842" lon="5.38214">
        <ele>265.4613</ele>
        <time>2013-04-07T09:35:06.000Z</time>
      </trkpt>
      <trkpt lat="43.22841" lon="5.38214">
        <ele>265.4613</ele>
        <time>2013-04-07T09:35:13.000Z</time>
      </trkpt>
      <trkpt lat="43.22842" lon="5.38213">
        <ele>265.4613</ele>
        <time>2013-04-07T09:35:19.000Z</time>
      </trkpt>
      <trkpt lat="43.22841" lon="5.38213">
        <ele>267.8645</ele>
        <time>2013-04-07T09:35:36.000Z</time>
      </trkpt>
      <trkpt lat="43.22841" lon="5.38213">
        <ele>268.8258</ele>
        <time>2013-04-07T09:35:57.000Z</time>
      </trkpt>
      <trkpt lat="43.2284" lon="5.38215">
        <ele>268.8258</ele>
        <time>2013-04-07T09:36:24.000Z</time>
      </trkpt>
      <trkpt lat="43.2284" lon="5.38215">
        <ele>267.3839</ele>
        <time>2013-04-07T09:36:41.000Z</time>
      </trkpt>
      <trkpt lat="43.2284" lon="5.38214">
        <ele>267.3839</ele>
        <time>2013-04-07T09:36:55.000Z</time>
      </trkpt>
      <trkpt lat="43.2284" lon="5.38214">
        <ele>267.3839</ele>
        <time>2013-04-07T09:37:02.000Z</time>
      </trkpt>
      <trkpt lat="43.22841" lon="5.38215">
        <ele>266.4225</ele>
        <time>2013-04-07T09:37:09.000Z</time>
      </trkpt>
      <trkpt lat="43.22842" lon="5.38214">
        <ele>266.9032</ele>
        <time>2013-04-07T09:37:25.000Z</time>
      </trkpt>
      <trkpt lat="43.22841" lon="5.38214">
        <ele>267.3839</ele>
        <time>2013-04-07T09:38:19.000Z</time>
      </trkpt>
      <trkpt lat="43.22841" lon="5.38215">
        <ele>266.9032</ele>
        <time>2013-04-07T09:38:35.000Z</time>
      </trkpt>
      <trkpt lat="43.22844" lon="5.38215">
        <ele>266.4225</ele>
        <time>2013-04-07T09:38:41.000Z</time>
      </trkpt>
      <trkpt lat="43.22848" lon="5.38214">
        <ele>265.4613</ele>
        <time>2013-04-07T09:38:46.000Z</time>
      </trkpt>
      <trkpt lat="43.22853" lon="5.38214">
        <ele>264.0193</ele>
        <time>2013-04-07T09:38:49.000Z</time>
      </trkpt>
      <trkpt lat="43.22862" lon="5.38211">
        <ele>261.61597</ele>
        <time>2013-04-07T09:38:55.000Z</time>
      </trkpt>
      <trkpt lat="43.2287" lon="5.38219">
        <ele>259.69336</ele>
        <time>2013-04-07T09:38:59.000Z</time>
      </trkpt>
      <trkpt lat="43.22875" lon="5.38222">
        <ele>258.73193</ele>
        <time>2013-04-07T09:39:01.000Z</time>
      </trkpt>
      <trkpt lat="43.22893" lon="5.38225">
        <ele>255.84802</ele>
        <time>2013-04-07T09:39:07.000Z</time>
      </trkpt>
      <trkpt lat="43.22895" lon="5.38225">
        <ele>256.32874</ele>
        <time>2013-04-07T09:39:08.000Z</time>
      </trkpt>
      <trkpt lat="43.22905" lon="5.38221">
        <ele>253.92542</ele>
        <time>2013-04-07T09:39:13.000Z</time>
      </trkpt>
      <trkpt lat="43.22913" lon="5.38221">
        <ele>252.96399</ele>
        <time>2013-04-07T09:39:17.000Z</time>
      </trkpt>
      <trkpt lat="43.2292" lon="5.38215">
        <ele>252.4834</ele>
        <time>2013-04-07T09:39:22.000Z</time>
      </trkpt>
      <trkpt lat="43.22926" lon="5.38215">
        <ele>250.56079</ele>
        <time>2013-04-07T09:39:27.000Z</time>
      </trkpt>
      <trkpt lat="43.2293" lon="5.3822">
        <ele>247.67676</ele>
        <time>2013-04-07T09:39:32.000Z</time>
      </trkpt>
      <trkpt lat="43.22931" lon="5.3822">
        <ele>246.71545</ele>
        <time>2013-04-07T09:39:33.000Z</time>
      </trkpt>
      <trkpt lat="43.22934" lon="5.38224">
        <ele>243.83154</ele>
        <time>2013-04-07T09:39:38.000Z</time>
      </trkpt>
      <trkpt lat="43.22939" lon="5.38229">
        <ele>241.90894</ele>
        <time>2013-04-07T09:39:44.000Z</time>
      </trkpt>
      <trkpt lat="43.22939" lon="5.38232">
        <ele>239.5055</ele>
        <time>2013-04-07T09:39:48.000Z</time>
      </trkpt>
      <trkpt lat="43.22936" lon="5.38235">
        <ele>237.1023</ele>
        <time>2013-04-07T09:39:53.000Z</time>
      </trkpt>
      <trkpt lat="43.22937" lon="5.38239">
        <ele>235.66028</ele>
        <time>2013-04-07T09:39:58.000Z</time>
      </trkpt>
      <trkpt lat="43.22941" lon="5.3824">
        <ele>234.6991</ele>
        <time>2013-04-07T09:40:00.000Z</time>
      </trkpt>
      <trkpt lat="43.2295" lon="5.38241">
        <ele>230.37305</ele>
        <time>2013-04-07T09:40:05.000Z</time>
      </trkpt>
      <trkpt lat="43.22956" lon="5.38246">
        <ele>228.93115</ele>
        <time>2013-04-07T09:40:08.000Z</time>
      </trkpt>
      <trkpt lat="43.22962" lon="5.38251">
        <ele>227.48914</ele>
        <time>2013-04-07T09:40:13.000Z</time>
      </trkpt>
      <trkpt lat="43.22965" lon="5.38262">
        <ele>224.60522</ele>
        <time>2013-04-07T09:40:17.000Z</time>
      </trkpt>
      <trkpt lat="43.22967" lon="5.38263">
        <ele>224.60522</ele>
        <time>2013-04-07T09:40:18.000Z</time>
      </trkpt>
      <trkpt lat="43.22978" lon="5.38277">
        <ele>221.2406</ele>
        <time>2013-04-07T09:40:24.000Z</time>
      </trkpt>
      <trkpt lat="43.2298" lon="5.38281">
        <ele>221.2406</ele>
        <time>2013-04-07T09:40:25.000Z</time>
      </trkpt>
      <trkpt lat="43.22987" lon="5.38282">
        <ele>219.318</ele>
        <time>2013-04-07T09:40:29.000Z</time>
      </trkpt>
      <trkpt lat="43.22992" lon="5.38289">
        <ele>216.43396</ele>
        <time>2013-04-07T09:40:33.000Z</time>
      </trkpt>
      <trkpt lat="43.22993" lon="5.38292">
        <ele>215.95325</ele>
        <time>2013-04-07T09:40:34.000Z</time>
      </trkpt>
      <trkpt lat="43.23002" lon="5.38313">
        <ele>211.62744</ele>
        <time>2013-04-07T09:40:39.000Z</time>
      </trkpt>
      <trkpt lat="43.23008" lon="5.38337">
        <ele>209.22412</ele>
        <time>2013-04-07T09:40:44.000Z</time>
      </trkpt>
      <trkpt lat="43.23012" lon="5.38345">
        <ele>207.7821</ele>
        <time>2013-04-07T09:40:46.000Z</time>
      </trkpt>
      <trkpt lat="43.23014" lon="5.38358">
        <ele>207.7821</ele>
        <time>2013-04-07T09:40:50.000Z</time>
      </trkpt>
      <trkpt lat="43.23014" lon="5.38367">
        <ele>207.7821</ele>
        <time>2013-04-07T09:40:53.000Z</time>
      </trkpt>
      <trkpt lat="43.23013" lon="5.38382">
        <ele>209.22412</ele>
        <time>2013-04-07T09:40:58.000Z</time>
      </trkpt>
      <trkpt lat="43.23015" lon="5.38391">
        <ele>210.66602</ele>
        <time>2013-04-07T09:41:02.000Z</time>
      </trkpt>
      <trkpt lat="43.23018" lon="5.38401">
        <ele>210.18542</ele>
        <time>2013-04-07T09:41:05.000Z</time>
      </trkpt>
      <trkpt lat="43.23024" lon="5.38415">
        <ele>210.18542</ele>
        <time>2013-04-07T09:41:10.000Z</time>
      </trkpt>
      <trkpt lat="43.23029" lon="5.38425">
        <ele>210.66602</ele>
        <time>2013-04-07T09:41:13.000Z</time>
      </trkpt>
      <trkpt lat="43.23034" lon="5.38438">
        <ele>211.14673</ele>
        <time>2013-04-07T09:41:17.000Z</time>
      </trkpt>
      <trkpt lat="43.23039" lon="5.38453">
        <ele>211.62744</ele>
        <time>2013-04-07T09:41:21.000Z</time>
      </trkpt>
      <trkpt lat="43.23041" lon="5.38464">
        <ele>211.14673</ele>
        <time>2013-04-07T09:41:24.000Z</time>
      </trkpt>
      <trkpt lat="43.23044" lon="5.3848">
        <ele>209.22412</ele>
        <time>2013-04-07T09:41:28.000Z</time>
      </trkpt>
      <trkpt lat="43.23046" lon="5.38498">
        <ele>208.26282</ele>
        <time>2013-04-07T09:41:33.000Z</time>
      </trkpt>
      <trkpt lat="43.23045" lon="5.38505">
        <ele>207.7821</ele>
        <time>2013-04-07T09:41:35.000Z</time>
      </trkpt>
      <trkpt lat="43.23048" lon="5.38527">
        <ele>207.30139</ele>
        <time>2013-04-07T09:41:42.000Z</time>
      </trkpt>
      <trkpt lat="43.23045" lon="5.38538">
        <ele>207.7821</ele>
        <time>2013-04-07T09:41:47.000Z</time>
      </trkpt>
      <trkpt lat="43.23048" lon="5.38548">
        <ele>208.74341</ele>
        <time>2013-04-07T09:41:51.000Z</time>
      </trkpt>
      <trkpt lat="43.2305" lon="5.38555">
        <ele>209.70483</ele>
        <time>2013-04-07T09:41:54.000Z</time>
      </trkpt>
      <trkpt lat="43.23056" lon="5.38559">
        <ele>210.18542</ele>
        <time>2013-04-07T09:42:00.000Z</time>
      </trkpt>
      <trkpt lat="43.23062" lon="5.38563">
        <ele>209.22412</ele>
        <time>2013-04-07T09:42:04.000Z</time>
      </trkpt>
      <trkpt lat="43.23064" lon="5.38572">
        <ele>208.26282</ele>
        <time>2013-04-07T09:42:08.000Z</time>
      </trkpt>
      <trkpt lat="43.23067" lon="5.38575">
        <ele>207.7821</ele>
        <time>2013-04-07T09:42:11.000Z</time>
      </trkpt>
      <trkpt lat="43.23069" lon="5.38577">
        <ele>207.30139</ele>
        <time>2013-04-07T09:42:13.000Z</time>
      </trkpt>
      <trkpt lat="43.23069" lon="5.3858">
        <ele>207.7821</ele>
        <time>2013-04-07T09:42:15.000Z</time>
      </trkpt>
      <trkpt lat="43.23069" lon="5.38583">
        <ele>207.30139</ele>
        <time>2013-04-07T09:42:17.000Z</time>
      </trkpt>
      <trkpt lat="43.23074" lon="5.3859">
        <ele>206.34009</ele>
        <time>2013-04-07T09:42:23.000Z</time>
      </trkpt>
      <trkpt lat="43.23078" lon="5.38589">
        <ele>206.34009</ele>
        <time>2013-04-07T09:42:26.000Z</time>
      </trkpt>
      <trkpt lat="43.23083" lon="5.38591">
        <ele>205.8595</ele>
        <time>2013-04-07T09:42:32.000Z</time>
      </trkpt>
      <trkpt lat="43.23085" lon="5.38592">
        <ele>204.89807</ele>
        <time>2013-04-07T09:42:33.000Z</time>
      </trkpt>
      <trkpt lat="43.2309" lon="5.38593">
        <ele>204.89807</ele>
        <time>2013-04-07T09:42:36.000Z</time>
      </trkpt>
      <trkpt lat="43.23095" lon="5.38592">
        <ele>202.49487</ele>
        <time>2013-04-07T09:42:42.000Z</time>
      </trkpt>
      <trkpt lat="43.23098" lon="5.38597">
        <ele>199.61084</ele>
        <time>2013-04-07T09:42:46.000Z</time>
      </trkpt>
      <trkpt lat="43.231" lon="5.38594">
        <ele>197.68823</ele>
        <time>2013-04-07T09:42:48.000Z</time>
      </trkpt>
      <trkpt lat="43.23107" lon="5.38595">
        <ele>194.32373</ele>
        <time>2013-04-07T09:42:54.000Z</time>
      </trkpt>
      <trkpt lat="43.23105" lon="5.38596">
        <ele>193.84302</ele>
        <time>2013-04-07T09:42:56.000Z</time>
      </trkpt>
      <trkpt lat="43.23105" lon="5.38599">
        <ele>192.88171</ele>
        <time>2013-04-07T09:42:59.000Z</time>
      </trkpt>
      <trkpt lat="43.23107" lon="5.38603">
        <ele>189.99768</ele>
        <time>2013-04-07T09:43:04.000Z</time>
      </trkpt>
      <trkpt lat="43.23107" lon="5.38607">
        <ele>187.59436</ele>
        <time>2013-04-07T09:43:08.000Z</time>
      </trkpt>
      <trkpt lat="43.23108" lon="5.38608">
        <ele>187.11377</ele>
        <time>2013-04-07T09:43:09.000Z</time>
      </trkpt>
      <trkpt lat="43.23117" lon="5.38611">
        <ele>184.22986</ele>
        <time>2013-04-07T09:43:15.000Z</time>
      </trkpt>
      <trkpt lat="43.23128" lon="5.38611">
        <ele>180.86523</ele>
        <time>2013-04-07T09:43:19.000Z</time>
      </trkpt>
      <trkpt lat="43.23143" lon="5.38615">
        <ele>177.02002</ele>
        <time>2013-04-07T09:43:25.000Z</time>
      </trkpt>
      <trkpt lat="43.23148" lon="5.38616">
        <ele>175.09729</ele>
        <time>2013-04-07T09:43:27.000Z</time>
      </trkpt>
      <trkpt lat="43.23156" lon="5.38621">
        <ele>171.73267</ele>
        <time>2013-04-07T09:43:32.000Z</time>
      </trkpt>
      <trkpt lat="43.23162" lon="5.38625">
        <ele>168.36804</ele>
        <time>2013-04-07T09:43:36.000Z</time>
      </trkpt>
      <trkpt lat="43.23167" lon="5.38626">
        <ele>166.92603</ele>
        <time>2013-04-07T09:43:38.000Z</time>
      </trkpt>
      <trkpt lat="43.23171" lon="5.38631">
        <ele>165.48413</ele>
        <time>2013-04-07T09:43:41.000Z</time>
      </trkpt>
      <trkpt lat="43.2318" lon="5.38638">
        <ele>163.56152</ele>
        <time>2013-04-07T09:43:46.000Z</time>
      </trkpt>
      <trkpt lat="43.23182" lon="5.3864">
        <ele>163.08081</ele>
        <time>2013-04-07T09:43:47.000Z</time>
      </trkpt>
      <trkpt lat="43.23192" lon="5.38651">
        <ele>161.1582</ele>
        <time>2013-04-07T09:43:52.000Z</time>
      </trkpt>
      <trkpt lat="43.23194" lon="5.38653">
        <ele>161.1582</ele>
        <time>2013-04-07T09:43:53.000Z</time>
      </trkpt>
      <trkpt lat="43.232" lon="5.38665">
        <ele>157.31287</ele>
        <time>2013-04-07T09:43:58.000Z</time>
      </trkpt>
      <trkpt lat="43.23205" lon="5.38682">
        <ele>155.87097</ele>
        <time>2013-04-07T09:44:04.000Z</time>
      </trkpt>
      <trkpt lat="43.2321" lon="5.38695">
        <ele>154.42896</ele>
        <time>2013-04-07T09:44:08.000Z</time>
      </trkpt>
      <trkpt lat="43.23217" lon="5.38704">
        <ele>154.42896</ele>
        <time>2013-04-07T09:44:12.000Z</time>
      </trkpt>
      <trkpt lat="43.23222" lon="5.38707">
        <ele>154.90955</ele>
        <time>2013-04-07T09:44:16.000Z</time>
      </trkpt>
      <trkpt lat="43.23225" lon="5.38708">
        <ele>157.31287</ele>
        <time>2013-04-07T09:44:20.000Z</time>
      </trkpt>
      <trkpt lat="43.23227" lon="5.38714">
        <ele>159.71619</ele>
        <time>2013-04-07T09:44:24.000Z</time>
      </trkpt>
      <trkpt lat="43.23229" lon="5.38719">
        <ele>163.08081</ele>
        <time>2013-04-07T09:44:28.000Z</time>
      </trkpt>
      <trkpt lat="43.23231" lon="5.38722">
        <ele>165.48413</ele>
        <time>2013-04-07T09:44:33.000Z</time>
      </trkpt>
      <trkpt lat="43.23235" lon="5.38729">
        <ele>170.29065</ele>
        <time>2013-04-07T09:44:40.000Z</time>
      </trkpt>
      <trkpt lat="43.23237" lon="5.3873">
        <ele>172.21326</ele>
        <time>2013-04-07T09:44:44.000Z</time>
      </trkpt>
      <trkpt lat="43.23241" lon="5.38736">
        <ele>173.65527</ele>
        <time>2013-04-07T09:44:49.000Z</time>
      </trkpt>
      <trkpt lat="43.23246" lon="5.38737">
        <ele>175.57788</ele>
        <time>2013-04-07T09:44:54.000Z</time>
      </trkpt>
      <trkpt lat="43.23251" lon="5.38741">
        <ele>177.50061</ele>
        <time>2013-04-07T09:45:00.000Z</time>
      </trkpt>
      <trkpt lat="43.23255" lon="5.38745">
        <ele>179.90381</ele>
        <time>2013-04-07T09:45:06.000Z</time>
      </trkpt>
      <trkpt lat="43.23259" lon="5.38744">
        <ele>181.34583</ele>
        <time>2013-04-07T09:45:11.000Z</time>
      </trkpt>
      <trkpt lat="43.23259" lon="5.38749">
        <ele>181.82642</ele>
        <time>2013-04-07T09:45:16.000Z</time>
      </trkpt>
      <trkpt lat="43.23262" lon="5.38752">
        <ele>182.78784</ele>
        <time>2013-04-07T09:45:20.000Z</time>
      </trkpt>
      <trkpt lat="43.23266" lon="5.38756">
        <ele>184.22986</ele>
        <time>2013-04-07T09:45:25.000Z</time>
      </trkpt>
      <trkpt lat="43.23268" lon="5.38758">
        <ele>185.19116</ele>
        <time>2013-04-07T09:45:27.000Z</time>
      </trkpt>
      <trkpt lat="43.23274" lon="5.38774">
        <ele>183.74902</ele>
        <time>2013-04-07T09:45:33.000Z</time>
      </trkpt>
      <trkpt lat="43.23276" lon="5.38788">
        <ele>180.38452</ele>
        <time>2013-04-07T09:45:37.000Z</time>
      </trkpt>
      <trkpt lat="43.23278" lon="5.38795">
        <ele>179.42322</ele>
        <time>2013-04-07T09:45:39.000Z</time>
      </trkpt>
      <trkpt lat="43.23278" lon="5.38805">
        <ele>177.50061</ele>
        <time>2013-04-07T09:45:42.000Z</time>
      </trkpt>
      <trkpt lat="43.23279" lon="5.3882">
        <ele>175.09729</ele>
        <time>2013-04-07T09:45:48.000Z</time>
      </trkpt>
      <trkpt lat="43.23279" lon="5.3883">
        <ele>174.61658</ele>
        <time>2013-04-07T09:45:52.000Z</time>
      </trkpt>
      <trkpt lat="43.23279" lon="5.38838">
        <ele>173.65527</ele>
        <time>2013-04-07T09:45:55.000Z</time>
      </trkpt>
      <trkpt lat="43.23279" lon="5.38853">
        <ele>171.73267</ele>
        <time>2013-04-07T09:46:01.000Z</time>
      </trkpt>
      <trkpt lat="43.23279" lon="5.38857">
        <ele>171.25208</ele>
        <time>2013-04-07T09:46:02.000Z</time>
      </trkpt>
      <trkpt lat="43.23281" lon="5.38868">
        <ele>168.36804</ele>
        <time>2013-04-07T09:46:06.000Z</time>
      </trkpt>
      <trkpt lat="43.23282" lon="5.38874">
        <ele>167.40674</ele>
        <time>2013-04-07T09:46:08.000Z</time>
      </trkpt>
      <trkpt lat="43.23287" lon="5.38883">
        <ele>165.48413</ele>
        <time>2013-04-07T09:46:11.000Z</time>
      </trkpt>
      <trkpt lat="43.2329" lon="5.38896">
        <ele>163.08081</ele>
        <time>2013-04-07T09:46:16.000Z</time>
      </trkpt>
      <trkpt lat="43.23293" lon="5.38906">
        <ele>159.71619</ele>
        <time>2013-04-07T09:46:21.000Z</time>
      </trkpt>
      <trkpt lat="43.23296" lon="5.38913">
        <ele>157.79358</ele>
        <time>2013-04-07T09:46:24.000Z</time>
      </trkpt>
      <trkpt lat="43.23299" lon="5.38931">
        <ele>153.94836</ele>
        <time>2013-04-07T09:46:30.000Z</time>
      </trkpt>
      <trkpt lat="43.23298" lon="5.38933">
        <ele>152.98694</ele>
        <time>2013-04-07T09:46:31.000Z</time>
      </trkpt>
      <trkpt lat="43.23301" lon="5.38951">
        <ele>147.219</ele>
        <time>2013-04-07T09:46:37.000Z</time>
      </trkpt>
      <trkpt lat="43.23303" lon="5.38962">
        <ele>144.8158</ele>
        <time>2013-04-07T09:46:42.000Z</time>
      </trkpt>
      <trkpt lat="43.23304" lon="5.38972">
        <ele>142.41248</ele>
        <time>2013-04-07T09:46:46.000Z</time>
      </trkpt>
      <trkpt lat="43.23303" lon="5.38981">
        <ele>140.97046</ele>
        <time>2013-04-07T09:46:49.000Z</time>
      </trkpt>
      <trkpt lat="43.233" lon="5.38991">
        <ele>138.56726</ele>
        <time>2013-04-07T09:46:52.000Z</time>
      </trkpt>
      <trkpt lat="43.23297" lon="5.39006">
        <ele>135.6831</ele>
        <time>2013-04-07T09:46:57.000Z</time>
      </trkpt>
      <trkpt lat="43.23294" lon="5.3902">
        <ele>133.7605</ele>
        <time>2013-04-07T09:47:02.000Z</time>
      </trkpt>
      <trkpt lat="43.23302" lon="5.39034">
        <ele>130.87671</ele>
        <time>2013-04-07T09:47:08.000Z</time>
      </trkpt>
      <trkpt lat="43.23307" lon="5.39037">
        <ele>128.9541</ele>
        <time>2013-04-07T09:47:11.000Z</time>
      </trkpt>
      <trkpt lat="43.23312" lon="5.39038">
        <ele>127.99255</ele>
        <time>2013-04-07T09:47:16.000Z</time>
      </trkpt>
      <trkpt lat="43.23324" lon="5.3904">
        <ele>125.108765</ele>
        <time>2013-04-07T09:47:22.000Z</time>
      </trkpt>
      <trkpt lat="43.23338" lon="5.39049">
        <ele>123.18616</ele>
        <time>2013-04-07T09:47:28.000Z</time>
      </trkpt>
      <trkpt lat="43.23349" lon="5.39052">
        <ele>120.78284</ele>
        <time>2013-04-07T09:47:32.000Z</time>
      </trkpt>
      <trkpt lat="43.2336" lon="5.3906">
        <ele>116.9375</ele>
        <time>2013-04-07T09:47:36.000Z</time>
      </trkpt>
      <trkpt lat="43.23372" lon="5.39069">
        <ele>111.169556</ele>
        <time>2013-04-07T09:47:41.000Z</time>
      </trkpt>
      <trkpt lat="43.23384" lon="5.39084">
        <ele>107.80505</ele>
        <time>2013-04-07T09:47:46.000Z</time>
      </trkpt>
      <trkpt lat="43.23387" lon="5.39087">
        <ele>106.84363</ele>
        <time>2013-04-07T09:47:47.000Z</time>
      </trkpt>
      <trkpt lat="43.2339" lon="5.39096">
        <ele>106.84363</ele>
        <time>2013-04-07T09:47:52.000Z</time>
      </trkpt>
      <trkpt lat="43.23399" lon="5.391">
        <ele>104.44043</ele>
        <time>2013-04-07T09:47:56.000Z</time>
      </trkpt>
      <trkpt lat="43.23407" lon="5.39111">
        <ele>103.479004</ele>
        <time>2013-04-07T09:48:00.000Z</time>
      </trkpt>
      <trkpt lat="43.23409" lon="5.39113">
        <ele>103.479004</ele>
        <time>2013-04-07T09:48:01.000Z</time>
      </trkpt>
      <trkpt lat="43.23417" lon="5.39118">
        <ele>102.99829</ele>
        <time>2013-04-07T09:48:06.000Z</time>
      </trkpt>
      <trkpt lat="43.23419" lon="5.39119">
        <ele>103.479004</ele>
        <time>2013-04-07T09:48:07.000Z</time>
      </trkpt>
      <trkpt lat="43.23422" lon="5.39123">
        <ele>103.95972</ele>
        <time>2013-04-07T09:48:10.000Z</time>
      </trkpt>
      <trkpt lat="43.23426" lon="5.39133">
        <ele>102.99829</ele>
        <time>2013-04-07T09:48:15.000Z</time>
      </trkpt>
      <trkpt lat="43.23433" lon="5.39144">
        <ele>104.44043</ele>
        <time>2013-04-07T09:48:19.000Z</time>
      </trkpt>
      <trkpt lat="43.23442" lon="5.39161">
        <ele>104.44043</ele>
        <time>2013-04-07T09:48:24.000Z</time>
      </trkpt>
      <trkpt lat="43.23448" lon="5.39172">
        <ele>102.99829</ele>
        <time>2013-04-07T09:48:27.000Z</time>
      </trkpt>
      <trkpt lat="43.23454" lon="5.39178">
        <ele>101.5564</ele>
        <time>2013-04-07T09:48:29.000Z</time>
      </trkpt>
      <trkpt lat="43.23472" lon="5.39194">
        <ele>97.71118</ele>
        <time>2013-04-07T09:48:35.000Z</time>
      </trkpt>
      <trkpt lat="43.2348" lon="5.39209">
        <ele>96.74988</ele>
        <time>2013-04-07T09:48:39.000Z</time>
      </trkpt>
      <trkpt lat="43.23492" lon="5.39224">
        <ele>96.74988</ele>
        <time>2013-04-07T09:48:44.000Z</time>
      </trkpt>
      <trkpt lat="43.23504" lon="5.39234">
        <ele>93.865845</ele>
        <time>2013-04-07T09:48:49.000Z</time>
      </trkpt>
      <trkpt lat="43.23516" lon="5.39238">
        <ele>91.462524</ele>
        <time>2013-04-07T09:48:53.000Z</time>
      </trkpt>
      <trkpt lat="43.23537" lon="5.39238">
        <ele>88.578735</ele>
        <time>2013-04-07T09:49:00.000Z</time>
      </trkpt>
      <trkpt lat="43.2354" lon="5.39239">
        <ele>88.09802</ele>
        <time>2013-04-07T09:49:01.000Z</time>
      </trkpt>
      <trkpt lat="43.23545" lon="5.3925">
        <ele>87.1366</ele>
        <time>2013-04-07T09:49:05.000Z</time>
      </trkpt>
      <trkpt lat="43.23546" lon="5.39253">
        <ele>86.656006</ele>
        <time>2013-04-07T09:49:08.000Z</time>
      </trkpt>
    </trkseg>
  </trk>
</gpx>